# Wetter Temperatur Luftdruck Luftfeuchtigkeit Sichtweite Windgeschwindigkeit Windrichtung Zeit
1 Clouds 28 1009 76 10000 1.12 67 07:41 02.10.2022
2 Clouds 30 1010 69 10000 1.61 21 02:55 02.10.2022
3 Clouds 30 1012 64 10000 1.52 41 00:50 02.10.2022
4 Clouds 29 1012 66 10000 1.27 55 00:21 02.10.2022
5 Clouds 28 1012 70 10000 0.84 99 22:43 01.10.2022
6 Clouds 25 1010 82 10000 1.52 167 20:36 01.10.2022
7 Clouds 25 1009 84 10000 1.53 158 18:40 01.10.2022
8 Clouds 25 1009 84 10000 1.58 172 16:36 01.10.2022
9 Clouds 26 1011 84 10000 1.37 173 14:35 01.10.2022
10 Clouds 26 1012 84 10000 1.15 159 13:31 01.10.2022
11 Clouds 26 1012 84 10000 0.76 137 12:33 01.10.2022
12 Clouds 26 1011 84 10000 0.77 94 11:20 01.10.2022
13 Clouds 26 1011 84 10000 0.77 94 10:32 01.10.2022
14 Clouds 27 1009 80 10000 1.26 39 09:28 01.10.2022
15 Clouds 27 1009 80 10000 1.26 39 08:58 01.10.2022
16 Clouds 30 1010 71 10000 2.19 27 04:27 01.10.2022
17 Clouds 30 1010 71 10000 2.19 27 03:31 01.10.2022
18 Clouds 28 1012 76 10000 2.97 78 23:59 30.09.2022
19 Clouds 27 1012 81 10000 2.54 99 22:36 30.09.2022
20 Clouds 25 1011 88 10000 2.76 125 21:28 30.09.2022
21 Clouds 25 1011 88 10000 2.76 125 21:28 30.09.2022
22 Clouds 25 1011 88 10000 2.76 125 20:43 30.09.2022
23 Clouds 25 1010 89 10000 2.22 123 19:43 30.09.2022
24 Clouds 25 1010 89 10000 2.45 122 17:28 30.09.2022
25 Clouds 25 1011 88 10000 2.5 116 15:32 30.09.2022
26 Clear 26 1012 88 10000 2.96 127 13:29 30.09.2022
27 Clear 26 1012 88 10000 2.88 130 11:57 30.09.2022
28 Clouds 27 1011 85 10000 1.76 120 10:23 30.09.2022
29 Clouds 29 1009 78 10000 1.69 96 08:23 30.09.2022
30 Clouds 29 1010 76 10000 1.85 73 04:55 30.09.2022
31 Clear 31 1012 63 10000 1.79 36 02:27 30.09.2022
32 Clear 26 1013 80 10000 1.25 142 22:24 29.09.2022
33 Clear 25 1012 83 10000 1.22 163 21:26 29.09.2022
34 Clear 25 1012 83 10000 1.22 163 20:31 29.09.2022
35 Clouds 25 1011 83 10000 1.33 183 18:32 29.09.2022
36 Clouds 25 1011 83 10000 1.87 178 16:56 29.09.2022
37 Clouds 25 1012 83 10000 2.05 163 16:26 29.09.2022
38 Clouds 25 1012 83 10000 2.05 163 15:35 29.09.2022
39 Clouds 26 1013 82 10000 2.45 134 13:28 29.09.2022
40 Clouds 26 1013 82 10000 2.45 134 13:28 29.09.2022
41 Clouds 28 1011 75 10000 1.05 58 09:21 29.09.2022
42 Clouds 31 1009 59 10000 1.99 49 05:42 29.09.2022
43 Clouds 31 1012 52 10000 2.93 66 02:44 29.09.2022
44 Clouds 29 1013 67 10000 3.53 91 23:32 28.09.2022
45 Clouds 26 1013 83 10000 3.07 115 22:25 28.09.2022
46 Clouds 25 1012 85 10000 2.96 127 21:28 28.09.2022
47 Clouds 25 1012 84 10000 2.94 131 20:18 28.09.2022
48 Clouds 25 1011 83 10000 2.31 135 17:42 28.09.2022
49 Clouds 25 1013 84 10000 2.58 118 14:45 28.09.2022
50 Clouds 25 1013 83 10000 2.92 125 12:40 28.09.2022
51 Clouds 26 1011 80 10000 2.47 103 10:24 28.09.2022
52 Clouds 29 1010 64 10000 1.95 63 08:25 28.09.2022
53 Clouds 30 1009 59 10000 2.1 57 06:42 28.09.2022
54 Clouds 30 1012 63 10000 3.43 45 01:50 28.09.2022
55 Clouds 29 1013 70 10000 3.1 59 01:25 28.09.2022
56 Clouds 27 1013 84 10000 2.24 89 22:50 27.09.2022
57 Clouds 24 1011 90 10000 1.75 109 21:24 27.09.2022
58 Clouds 24 1011 90 10000 1.75 109 20:36 27.09.2022
59 Clouds 25 1010 90 10000 1.84 110 19:47 27.09.2022
60 Clouds 25 1009 90 10000 1.78 109 17:54 27.09.2022
61 Clouds 25 1009 90 10000 1.78 109 17:32 27.09.2022
62 Clouds 25 1011 89 10000 1.64 92 15:24 27.09.2022
63 Clouds 26 1012 87 10000 1.41 91 14:24 27.09.2022
64 Clouds 26 1012 87 10000 1.5 91 12:39 27.09.2022
65 Clouds 26 1012 87 10000 1.5 91 12:39 27.09.2022
66 Clouds 26 1011 86 10000 1.2 95 10:49 27.09.2022
67 Clouds 27 1010 84 10000 0.87 100 08:42 27.09.2022
68 Rain 29 1008 75 10000 1.86 0 05:48 27.09.2022
69 Rain 30 1010 68 10000 1.46 6 01:40 27.09.2022
70 Rain 30 1011 68 10000 1.08 17 00:32 27.09.2022
71 Clouds 27 1012 78 10000 0.22 282 23:25 26.09.2022
72 Clouds 26 1011 84 10000 0.72 183 21:44 26.09.2022
73 Clouds 25 1009 87 10000 1.3 192 20:26 26.09.2022
74 Clouds 25 1009 87 10000 1.53 184 19:21 26.09.2022
75 Clouds 25 1009 87 10000 0.79 158 17:27 26.09.2022
76 Clouds 25 1010 87 10000 0.99 140 15:44 26.09.2022
77 Clouds 26 1011 87 10000 1.23 140 12:42 26.09.2022
78 Clouds 26 1010 87 10000 1.4 132 11:28 26.09.2022
79 Clouds 26 1010 87 10000 1.4 132 10:36 26.09.2022
80 Clouds 26 1010 86 10000 1.06 130 10:18 26.09.2022
81 Clouds 26 1010 86 10000 1.06 130 09:51 26.09.2022
82 Clouds 27 1009 84 10000 0.47 125 09:21 26.09.2022
83 Clouds 28 1009 76 10000 0.6 329 05:30 26.09.2022
84 Clouds 29 1011 71 10000 1.68 12 02:35 26.09.2022
85 Clouds 27 1012 80 10000 0.88 137 23:24 25.09.2022
86 Clouds 26 1011 85 10000 1 148 21:47 25.09.2022
87 Clouds 25 1011 86 10000 0.65 146 21:25 25.09.2022
88 Clouds 25 1011 88 10000 0.84 132 20:35 25.09.2022
89 Clouds 25 1010 88 10000 1.12 156 18:55 25.09.2022
90 Clouds 25 1010 88 10000 1.02 157 18:24 25.09.2022
91 Clouds 25 1010 88 10000 1.01 155 17:23 25.09.2022
92 Clouds 25 1011 87 10000 0.97 154 16:00 25.09.2022
93 Clouds 25 1012 87 10000 1.35 157 14:37 25.09.2022
94 Clouds 26 1012 86 10000 1.26 145 14:18 25.09.2022
95 Clouds 26 1012 84 10000 0.89 158 10:40 25.09.2022
96 Clouds 26 1011 83 10000 0.59 137 09:37 25.09.2022
97 Rain 28 1010 80 10000 0.64 96 07:41 25.09.2022
98 Clouds 29 1010 76 10000 1.57 48 05:22 25.09.2022
99 Clouds 29 1012 71 10000 1.86 86 23:36 24.09.2022
100 Clouds 25 1011 87 10000 1.55 132 21:19 24.09.2022
101 Clouds 25 1010 88 10000 1.52 145 19:34 24.09.2022
102 Clouds 26 1009 88 10000 1.37 154 18:57 24.09.2022
103 Clouds 26 1010 87 10000 0.89 156 16:51 24.09.2022
104 Clouds 26 1011 86 10000 0.41 54 15:23 24.09.2022
105 Clouds 26 1011 86 10000 0.41 54 15:23 24.09.2022
106 Clouds 26 1011 86 10000 0.41 54 14:36 24.09.2022
107 Clouds 26 1012 85 10000 0.71 74 13:18 24.09.2022
108 Clouds 27 1011 84 10000 1.01 54 12:22 24.09.2022
109 Clouds 27 1009 82 10000 1.21 23 09:58 24.09.2022
110 Clouds 28 1009 78 10000 1.3 15 08:56 24.09.2022
111 Clouds 29 1007 71 10000 1.49 7 07:41 24.09.2022
112 Clouds 30 1008 68 10000 1.97 12 04:52 24.09.2022
113 Clouds 30 1009 66 10000 2.35 15 03:48 24.09.2022
114 Clouds 28 1012 79 10000 1.6 66 22:54 23.09.2022
115 Clouds 26 1011 85 10000 1.39 109 21:33 23.09.2022
116 Clouds 25 1010 88 10000 1.68 117 20:57 23.09.2022
117 Clouds 25 1010 89 10000 1.78 121 20:26 23.09.2022
118 Clouds 25 1009 89 10000 1.83 128 19:19 23.09.2022
119 Clear 26 1010 89 10000 1.57 142 15:31 23.09.2022
120 Clouds 26 1011 88 10000 1.28 128 11:47 23.09.2022
121 Clouds 27 1010 87 10000 1.41 103 09:36 23.09.2022
122 Clouds 29 1008 76 10000 1.95 60 06:39 23.09.2022
123 Clouds 29 1012 72 10000 2.29 79 00:41 23.09.2022
124 Clouds 26 1012 82 10000 1.74 117 23:22 22.09.2022
125 Clouds 25 1011 87 10000 1.76 130 22:27 22.09.2022
126 Clouds 24 1010 88 10000 1.76 128 21:18 22.09.2022
127 Clouds 24 1009 87 10000 1.62 132 19:58 22.09.2022
128 Clouds 24 1009 87 10000 1.61 141 17:38 22.09.2022
129 Clouds 25 1011 86 10000 1.58 164 13:20 22.09.2022
130 Rain 25 1011 86 10000 1.71 144 10:36 22.09.2022
131 Clouds 26 1010 84 9969 1.17 131 08:58 22.09.2022
132 Clouds 27 1009 80 10000 0.88 127 06:57 22.09.2022
133 Clouds 27 1009 79 10000 0.38 206 04:36 22.09.2022
134 Rain 27 1012 76 10000 0.26 252 23:31 21.09.2022
135 Clouds 25 1012 87 10000 1.31 222 21:50 21.09.2022
136 Clouds 24 1011 89 10000 1.88 241 20:40 21.09.2022
137 Clouds 24 1010 88 10000 0.91 143 17:50 21.09.2022
138 Clouds 24 1010 89 10000 1.27 140 16:53 21.09.2022
139 Clouds 23 1012 93 10000 2.3 117 14:46 21.09.2022
140 Clouds 24 1013 94 10000 2.96 120 12:58 21.09.2022
141 Clouds 24 1013 94 10000 2.41 117 11:30 21.09.2022
142 Clouds 24 1012 94 10000 1.9 94 10:33 21.09.2022
143 Rain 24 1010 91 10000 1.43 75 09:24 21.09.2022
144 Clouds 25 1009 88 10000 2.74 104 07:57 21.09.2022
145 Clouds 25 1012 95 2557 4.94 97 02:49 21.09.2022
146 Clouds 24 1012 97 2047 4.45 100 02:28 21.09.2022
147 Clouds 24 1012 98 1527 2.59 114 00:44 21.09.2022
148 Clouds 24 1011 96 2418 3.52 147 23:18 20.09.2022
149 Clouds 25 1010 92 5730 2.91 129 20:52 20.09.2022
150 Clouds 25 1010 88 10000 3.15 116 19:37 20.09.2022
151 Clouds 26 1010 88 10000 2.97 117 16:28 20.09.2022
152 Clouds 26 1011 88 10000 2.91 116 14:46 20.09.2022
153 Clouds 26 1012 87 10000 3.2 123 13:28 20.09.2022
154 Rain 27 1011 86 10000 3.81 97 09:50 20.09.2022
155 Clouds 28 1009 82 9071 4.56 86 08:27 20.09.2022
156 Rain 30 1009 69 10000 5.08 83 05:24 20.09.2022
157 Rain 31 1009 67 10000 5.04 80 03:59 20.09.2022
158 Clouds 28 1013 74 10000 3.65 114 22:55 19.09.2022
159 Clouds 26 1012 81 10000 3.42 123 21:46 19.09.2022
160 Clouds 25 1012 84 10000 3.2 125 20:51 19.09.2022
161 Clouds 25 1012 84 10000 3.2 125 20:30 19.09.2022
162 Clouds 26 1010 83 10000 3.08 131 17:44 19.09.2022
163 Clouds 26 1012 84 10000 3.42 121 14:54 19.09.2022
164 Clouds 26 1012 83 10000 3.49 112 13:18 19.09.2022
165 Clouds 27 1012 83 10000 3.55 115 10:48 19.09.2022
166 Rain 27 1011 84 10000 3.35 111 08:51 19.09.2022
167 Clouds 28 1010 80 10000 3.63 108 06:42 19.09.2022
168 Clouds 29 1013 78 10000 5.61 96 01:54 19.09.2022
169 Clouds 28 1013 76 10000 4.28 102 23:22 18.09.2022
170 Clouds 26 1012 80 10000 4.32 114 21:43 18.09.2022
171 Clouds 26 1010 81 10000 3.74 122 20:24 18.09.2022
172 Clouds 26 1010 81 10000 3.3 125 17:54 18.09.2022
173 Clouds 26 1010 81 10000 3.3 125 17:35 18.09.2022
174 Clouds 26 1012 82 10000 3.92 119 15:36 18.09.2022
175 Clouds 26 1013 85 10000 3.98 119 13:47 18.09.2022
176 Clouds 25 1013 88 10000 4.01 124 12:34 18.09.2022
177 Clouds 26 1013 88 10000 4.2 108 10:45 18.09.2022
178 Clouds 31 1010 65 10000 5.02 82 03:40 18.09.2022
179 Clouds 30 1013 69 10000 3.87 103 01:24 18.09.2022
180 Clouds 29 1014 73 10000 3.01 110 00:21 18.09.2022
181 Clouds 26 1013 83 10000 1.88 138 21:36 17.09.2022
182 Clouds 25 1011 86 10000 2.32 138 19:42 17.09.2022
183 Clouds 25 1011 86 10000 2.26 137 18:46 17.09.2022
184 Clouds 26 1012 86 10000 1.88 134 15:51 17.09.2022
185 Clouds 26 1013 86 10000 1.69 153 13:56 17.09.2022
186 Clouds 26 1013 85 10000 1.37 143 10:56 17.09.2022
187 Clouds 27 1012 83 10000 1.05 94 08:34 17.09.2022
188 Rain 29 1010 76 9070 1.02 44 06:24 17.09.2022
189 Clear 29 1014 66 10000 0.84 54 23:57 16.09.2022
190 Clear 28 1013 72 10000 0.59 141 22:51 16.09.2022
191 Clear 25 1012 82 10000 1.39 172 20:54 16.09.2022
192 Clear 25 1011 81 10000 1.49 165 19:50 16.09.2022
193 Clear 26 1012 80 10000 1.17 164 16:26 16.09.2022
194 Clear 26 1012 80 10000 1.03 165 14:53 16.09.2022
195 Clear 26 1013 80 10000 1.01 174 13:26 16.09.2022
196 Clear 27 1011 77 10000 0.67 98 10:27 16.09.2022
197 Clear 29 1010 66 10000 1.3 30 08:18 16.09.2022
198 Clouds 29 1009 62 10000 1.51 9 06:48 16.09.2022
199 Clouds 30 1009 61 10000 2.08 9 05:58 16.09.2022
200 Clear 31 1011 60 10000 2.9 27 02:35 16.09.2022
201 Clear 25 1012 85 10000 2.42 117 22:20 15.09.2022
202 Clear 25 1011 87 10000 2.46 118 20:39 15.09.2022
203 Clouds 25 1011 89 10000 2.63 118 19:42 15.09.2022
204 Clouds 25 1010 89 10000 1.9 109 17:58 15.09.2022
205 Clouds 25 1011 88 10000 1.74 107 17:28 15.09.2022
206 Clouds 25 1011 86 10000 1.86 96 15:47 15.09.2022
207 Clouds 26 1012 87 10000 3.1 115 12:51 15.09.2022
208 Clouds 26 1012 87 10000 3.47 113 11:48 15.09.2022
209 Clouds 27 1010 86 10000 2.87 102 09:46 15.09.2022
210 Clouds 28 1009 79 10000 2.81 71 07:44 15.09.2022
211 Clouds 29 1010 74 10000 3.25 66 03:48 15.09.2022
212 Clouds 27 1013 81 10000 2.85 118 23:22 14.09.2022
213 Clouds 25 1012 87 10000 2.89 129 20:37 14.09.2022
214 Clouds 25 1011 87 10000 2.71 124 19:33 14.09.2022
215 Clouds 25 1012 88 10000 3.27 120 17:47 14.09.2022
216 Clouds 25 1012 89 10000 3.46 118 16:37 14.09.2022
217 Clouds 25 1013 89 10000 3.04 124 14:56 14.09.2022
218 Clouds 26 1014 88 10000 2.84 124 12:40 14.09.2022
219 Clouds 26 1013 85 10000 1.93 121 09:52 14.09.2022
220 Clouds 27 1012 84 10000 1.44 106 08:38 14.09.2022
221 Rain 28 1012 80 10000 1.15 59 06:50 14.09.2022
222 Rain 29 1012 76 9820 1.46 47 06:29 14.09.2022
223 Clouds 31 1013 62 10000 3.05 49 02:43 14.09.2022
224 Clouds 31 1014 59 10000 2.55 64 01:36 14.09.2022
225 Clouds 30 1015 63 10000 2.41 96 00:53 14.09.2022
226 Clouds 29 1015 71 10000 2.61 110 23:55 13.09.2022
227 Clouds 29 1015 71 10000 2.61 110 23:36 13.09.2022
228 Clouds 27 1015 79 10000 2.42 106 23:18 13.09.2022
229 Clouds 25 1014 85 10000 2.44 118 22:28 13.09.2022
230 Clouds 25 1014 85 10000 2.44 118 21:38 13.09.2022
231 Clouds 25 1013 87 10000 2.95 124 18:56 13.09.2022
232 Clouds 25 1014 88 10000 2.73 120 16:39 13.09.2022
233 Clouds 25 1015 89 10000 2.91 119 15:18 13.09.2022
234 Clouds 25 1016 89 10000 3.11 117 13:37 13.09.2022
235 Clouds 27 1014 85 10000 2.31 103 10:20 13.09.2022
236 Clouds 28 1012 78 10000 0.94 86 07:54 13.09.2022
237 Clouds 31 1015 56 10000 1.67 14 02:20 13.09.2022
238 Clouds 27 1015 65 10000 0.41 129 23:22 12.09.2022
239 Clouds 27 1015 65 10000 0.41 129 22:37 12.09.2022
240 Clouds 25 1014 73 10000 1.34 173 20:54 12.09.2022
241 Clouds 24 1013 74 10000 1.59 169 19:31 12.09.2022
242 Clear 24 1013 75 10000 2.12 157 17:47 12.09.2022
243 Clear 25 1014 73 10000 2.03 138 15:40 12.09.2022
244 Clear 26 1014 73 10000 3.2 125 12:26 12.09.2022
245 Clear 27 1013 72 10000 3.05 119 10:24 12.09.2022
246 Clear 31 1010 55 10000 3.55 66 05:57 12.09.2022
247 Clear 31 1011 53 10000 3.73 63 04:32 12.09.2022
248 Clear 29 1014 71 10000 3.94 91 23:59 11.09.2022
249 Clouds 27 1014 78 10000 3.57 96 22:45 11.09.2022
250 Clouds 25 1012 86 10000 3.6 113 21:19 11.09.2022
251 Clouds 25 1012 85 10000 3.23 113 20:42 11.09.2022
252 Clouds 25 1011 85 10000 2.81 122 19:26 11.09.2022
253 Clouds 25 1011 85 10000 2.81 122 18:38 11.09.2022
254 Clouds 25 1011 85 10000 2.58 117 16:57 11.09.2022
255 Clouds 25 1012 84 10000 2.89 118 15:22 11.09.2022
256 Clouds 26 1013 85 10000 2.57 128 12:54 11.09.2022
257 Clouds 26 1011 83 10000 1.48 79 09:45 11.09.2022
258 Clouds 28 1010 76 10000 1.39 51 07:43 11.09.2022
259 Clouds 29 1011 70 10000 3.12 59 02:55 11.09.2022
260 Clear 27 1013 73 10000 2.53 108 23:27 10.09.2022
261 Clear 25 1012 80 10000 2.67 119 21:33 10.09.2022
262 Clouds 24 1010 84 10000 2.51 126 19:56 10.09.2022
263 Clouds 24 1010 84 10000 2.51 126 19:37 10.09.2022
264 Clouds 25 1010 86 10000 2.37 130 19:19 10.09.2022
265 Clouds 25 1011 87 10000 2.36 122 16:58 10.09.2022
266 Clouds 25 1012 85 10000 2.82 108 15:28 10.09.2022
267 Clouds 26 1013 85 10000 3.56 116 12:55 10.09.2022
268 Clouds 26 1013 84 10000 3.6 116 11:36 10.09.2022
269 Clouds 27 1011 82 10000 3.39 113 10:24 10.09.2022
270 Clouds 28 1011 77 10000 3.39 95 08:37 10.09.2022
271 Clouds 29 1010 68 10000 3.64 80 07:57 10.09.2022
272 Clouds 31 1012 57 10000 4.39 72 02:47 10.09.2022
273 Clouds 28 1014 74 10000 3.69 91 23:34 09.09.2022
274 Clouds 25 1013 86 10000 2.74 119 22:20 09.09.2022
275 Clouds 24 1012 87 10000 2.7 118 20:48 09.09.2022
276 Clouds 25 1011 86 10000 3.1 116 19:25 09.09.2022
277 Clouds 25 1011 86 10000 3.1 116 18:53 09.09.2022
278 Clouds 25 1012 87 10000 2.93 114 16:33 09.09.2022
279 Clouds 26 1014 87 10000 3.18 125 13:51 09.09.2022
280 Clouds 26 1014 87 10000 3.32 126 12:47 09.09.2022
281 Clouds 26 1012 87 10000 3.32 113 09:57 09.09.2022
282 Clouds 31 1011 61 10000 3.66 70 05:38 09.09.2022
283 Clouds 31 1012 61 10000 3.98 72 03:21 09.09.2022
284 Clear 25 1014 80 10000 3.16 120 21:53 08.09.2022
285 Clear 25 1013 81 10000 3.05 121 20:56 08.09.2022
286 Clear 25 1013 81 10000 3.05 121 20:31 08.09.2022
287 Clouds 25 1013 83 10000 2.93 129 19:56 08.09.2022
288 Clouds 25 1013 85 10000 2.95 128 18:26 08.09.2022
289 Clouds 25 1013 87 10000 3.16 123 16:21 08.09.2022
290 Clouds 26 1013 86 10000 3.36 117 14:40 08.09.2022
291 Clouds 26 1014 86 10000 3.85 105 13:27 08.09.2022
292 Clouds 26 1014 85 10000 3.89 108 11:57 08.09.2022
293 Clouds 27 1013 84 10000 3.87 106 10:52 08.09.2022
294 Clouds 30 1011 68 10000 3.82 93 08:21 08.09.2022
295 Clouds 31 1011 63 10000 3.73 85 06:42 08.09.2022
296 Clouds 31 1013 62 10000 4.65 75 02:37 08.09.2022
297 Clouds 31 1014 63 10000 4.41 80 02:18 08.09.2022
298 Clouds 29 1015 73 10000 3.64 100 00:27 08.09.2022
299 Clouds 27 1015 81 10000 3.26 112 22:44 07.09.2022
300 Clouds 25 1014 87 10000 3.05 117 21:42 07.09.2022
301 Clouds 25 1014 87 10000 3.05 117 21:42 07.09.2022
302 Clouds 25 1013 88 10000 2.94 120 20:42 07.09.2022
303 Clear 25 1013 88 10000 3.17 125 19:36 07.09.2022
304 Clear 25 1012 89 10000 2.93 122 17:28 07.09.2022
305 Clear 26 1013 89 10000 2.64 135 12:52 07.09.2022
306 Clouds 26 1013 89 10000 2.87 121 10:47 07.09.2022
307 Clouds 28 1011 84 10000 3.33 101 08:38 07.09.2022
308 Clouds 29 1010 77 10000 3.28 86 06:57 07.09.2022
309 Clear 32 1011 61 10000 3.79 65 02:46 07.09.2022
310 Clear 28 1013 77 10000 2.27 117 22:44 06.09.2022
311 Clear 26 1013 84 10000 2.78 129 21:39 06.09.2022
312 Clear 26 1011 86 10000 3.22 120 20:21 06.09.2022
313 Clear 26 1011 87 10000 3.21 121 18:45 06.09.2022
314 Clear 26 1011 87 10000 3.09 124 17:56 06.09.2022
315 Clear 26 1011 87 10000 2.93 124 17:20 06.09.2022
316 Clear 26 1011 87 10000 2.93 124 16:37 06.09.2022
317 Clear 26 1012 87 10000 2.91 127 14:55 06.09.2022
318 Clouds 26 1013 87 10000 2.86 126 13:45 06.09.2022
319 Clouds 26 1013 87 10000 2.99 122 13:21 06.09.2022
320 Clouds 27 1012 86 10000 3.19 117 11:29 06.09.2022
321 Clouds 27 1012 86 10000 3.19 117 10:41 06.09.2022
322 Clouds 28 1010 79 10000 2.11 107 08:41 06.09.2022
323 Clouds 29 1010 75 10000 2.15 85 07:37 06.09.2022
324 Clouds 31 1012 62 10000 2.62 54 02:34 06.09.2022
325 Clear 27 1013 79 10000 1.6 116 23:21 05.09.2022
326 Clear 25 1012 86 10000 2.01 138 21:50 05.09.2022
327 Clouds 25 1012 87 10000 1.99 142 20:32 05.09.2022
328 Clouds 25 1011 87 10000 1.82 145 18:59 05.09.2022
329 Clouds 25 1011 87 10000 1.82 145 18:38 05.09.2022
330 Clouds 25 1011 88 10000 1.76 160 18:19 05.09.2022
331 Clear 26 1012 87 10000 1.11 142 16:25 05.09.2022
332 Clouds 26 1013 85 10000 0.78 138 15:23 05.09.2022
333 Clouds 27 1013 83 10000 0.7 154 12:56 05.09.2022
334 Clouds 27 1013 83 10000 0.87 141 11:37 05.09.2022
335 Clouds 27 1011 78 10000 0.28 12 08:58 05.09.2022
336 Clouds 30 1010 64 10000 2.34 358 05:20 05.09.2022
337 Clouds 30 1013 65 10000 1.89 25 01:35 05.09.2022
338 Clouds 25 1012 85 10000 1.51 127 22:29 04.09.2022
339 Clouds 25 1012 85 10000 1.51 127 21:59 04.09.2022
340 Clear 24 1012 86 10000 1.42 140 20:35 04.09.2022
341 Clouds 25 1011 86 10000 1.21 145 18:39 04.09.2022
342 Clouds 25 1011 87 10000 1.1 157 17:43 04.09.2022
343 Clouds 25 1012 88 10000 1.21 152 16:24 04.09.2022
344 Clouds 25 1013 87 10000 1.01 116 14:25 04.09.2022
345 Clouds 25 1013 87 10000 1.17 129 12:52 04.09.2022
346 Clouds 26 1012 85 10000 1.14 118 11:28 04.09.2022
347 Clouds 26 1011 85 10000 1.21 103 09:38 04.09.2022
348 Clouds 29 1010 72 10000 1.91 39 06:35 04.09.2022
349 Clouds 29 1012 69 10000 2.59 44 03:18 04.09.2022
350 Clouds 26 1012 82 10000 2.11 110 22:56 03.09.2022
351 Clouds 25 1011 86 10000 2.32 115 21:42 03.09.2022
352 Clouds 24 1011 87 10000 1.97 121 21:22 03.09.2022
353 Clouds 25 1010 88 10000 2.11 128 18:41 03.09.2022
354 Clouds 25 1010 88 10000 1.23 120 17:19 03.09.2022
355 Clouds 25 1011 88 10000 0.68 149 15:49 03.09.2022
356 Clouds 25 1012 87 10000 0.58 168 14:42 03.09.2022
357 Clouds 25 1012 87 10000 0.94 160 13:50 03.09.2022
358 Clouds 26 1012 88 10000 0.62 94 11:33 03.09.2022
359 Rain 26 1010 88 10000 1.25 37 09:36 03.09.2022
360 Rain 28 1009 80 10000 1.65 30 07:53 03.09.2022
361 Clouds 29 1009 73 10000 1.52 17 04:51 03.09.2022
362 Clouds 30 1010 66 10000 2.8 54 02:40 03.09.2022
363 Clouds 28 1012 76 10000 3.19 101 23:44 02.09.2022
364 Clouds 25 1011 88 10000 2.8 115 22:21 02.09.2022
365 Clouds 24 1011 88 10000 2.79 117 20:42 02.09.2022
366 Clouds 24 1010 87 10000 2.87 118 19:47 02.09.2022
367 Clouds 24 1010 87 10000 3.12 117 18:50 02.09.2022
368 Clouds 24 1010 87 10000 3.2 117 18:25 02.09.2022
369 Clouds 25 1011 87 10000 3.07 120 17:23 02.09.2022
370 Clouds 25 1011 87 10000 3.07 120 16:31 02.09.2022
371 Clouds 25 1011 87 10000 3.07 120 16:31 02.09.2022
372 Clouds 26 1013 88 10000 3.96 108 13:25 02.09.2022
373 Clouds 26 1012 89 10000 3.7 108 10:39 02.09.2022
374 Clouds 26 1012 89 10000 3.22 108 09:42 02.09.2022
375 Clouds 26 1011 86 10000 2.91 123 08:43 02.09.2022
376 Clouds 26 1010 86 10000 1.18 138 06:44 02.09.2022
377 Clouds 26 1010 88 10000 1.19 174 05:32 02.09.2022
378 Clouds 26 1013 86 10000 1.52 160 22:58 01.09.2022
379 Clouds 24 1013 90 8644 1.99 165 21:46 01.09.2022
380 Clouds 25 1012 89 7395 1.88 154 21:26 01.09.2022
381 Clouds 25 1012 84 10000 1.77 174 20:49 01.09.2022
382 Clouds 25 1011 86 10000 3.03 143 19:24 01.09.2022
383 Clouds 25 1011 88 10000 3.45 132 17:49 01.09.2022
384 Clouds 25 1011 90 10000 3.78 116 16:41 01.09.2022
385 Clouds 25 1013 91 10000 4.18 118 14:34 01.09.2022
386 Clouds 25 1013 90 10000 4.67 112 12:59 01.09.2022
387 Clouds 25 1013 90 10000 4.83 113 11:55 01.09.2022
388 Clouds 25 1013 90 10000 4.83 113 11:36 01.09.2022
389 Clouds 25 1012 90 10000 4.83 110 10:45 01.09.2022
390 Clouds 26 1011 87 10000 4.8 102 08:31 01.09.2022
391 Clouds 29 1009 78 10000 5.06 90 06:23 01.09.2022
392 Clouds 29 1012 74 10000 4.87 93 01:34 01.09.2022
393 Clouds 27 1013 83 10000 3.76 102 00:18 01.09.2022
394 Rain 25 1012 91 10000 3.54 120 21:44 31.08.2022
395 Clouds 25 1010 91 10000 3.7 118 19:51 31.08.2022
396 Clouds 25 1010 90 10000 3.53 117 18:18 31.08.2022
397 Clouds 25 1010 90 10000 3.77 113 16:31 31.08.2022
398 Clouds 25 1011 89 10000 4.15 115 14:36 31.08.2022
399 Clouds 25 1012 94 10000 4.41 114 12:23 31.08.2022
400 Clouds 25 1012 94 10000 4.3 108 11:26 31.08.2022
401 Clouds 25 1010 93 10000 3.56 128 08:54 31.08.2022
402 Rain 26 1009 88 10000 3.18 105 05:26 31.08.2022
403 Clouds 25 1012 92 10000 4.27 94 23:21 30.08.2022
404 Clouds 25 1011 92 10000 4.14 94 21:43 30.08.2022
405 Clouds 25 1010 92 6452 4.04 93 20:57 30.08.2022
406 Clouds 26 1009 86 10000 4.02 111 18:32 30.08.2022
407 Clouds 26 1010 85 10000 4.11 115 15:29 30.08.2022
408 Clouds 26 1011 87 10000 4.4 110 13:24 30.08.2022
409 Clouds 26 1010 87 10000 4.52 108 11:22 30.08.2022
410 Clouds 26 1010 87 10000 4.52 108 10:49 30.08.2022
411 Rain 29 1007 74 10000 4.4 89 07:42 30.08.2022
412 Clouds 30 1009 68 10000 4.59 84 02:33 30.08.2022
413 Clouds 27 1011 78 10000 2.26 115 23:20 29.08.2022
414 Clouds 25 1010 85 10000 2.38 131 22:24 29.08.2022
415 Clouds 25 1010 86 10000 2.45 134 21:25 29.08.2022
416 Clouds 25 1009 85 10000 2.61 136 19:52 29.08.2022
417 Clouds 25 1009 86 10000 2.81 130 17:52 29.08.2022
418 Clouds 25 1010 87 10000 2.93 127 17:24 29.08.2022
419 Clouds 25 1010 87 10000 2.93 127 16:37 29.08.2022
420 Clouds 25 1011 88 10000 2.74 125 14:44 29.08.2022
421 Clouds 26 1012 88 10000 2.99 122 12:52 29.08.2022
422 Clouds 26 1011 86 10000 3.47 118 10:56 29.08.2022
423 Clouds 26 1010 84 10000 3.8 104 09:45 29.08.2022
424 Clouds 29 1008 75 10000 3.91 91 08:28 29.08.2022
425 Clouds 31 1010 60 10000 4.44 75 02:48 29.08.2022
426 Clear 28 1012 73 10000 2.86 106 23:52 28.08.2022
427 Clear 25 1012 87 10000 2.76 135 22:22 28.08.2022
428 Clouds 25 1011 87 10000 2.95 132 21:32 28.08.2022
429 Clouds 24 1011 88 10000 2.94 134 20:39 28.08.2022
430 Clouds 24 1011 88 10000 2.92 131 18:51 28.08.2022
431 Clouds 25 1011 88 10000 3.12 131 18:19 28.08.2022
432 Clouds 25 1011 88 10000 3.36 128 16:55 28.08.2022
433 Clouds 25 1012 88 10000 3.87 120 15:41 28.08.2022
434 Clouds 25 1013 88 10000 4.25 113 13:34 28.08.2022
435 Clouds 25 1013 89 10000 4.4 113 12:20 28.08.2022
436 Clouds 26 1012 88 10000 4.17 107 10:27 28.08.2022
437 Clouds 26 1012 88 10000 4.17 107 09:34 28.08.2022
438 Clouds 28 1011 80 8634 4.15 88 08:28 28.08.2022
439 Clouds 29 1010 73 10000 4.51 84 07:27 28.08.2022
440 Clouds 29 1013 64 10000 4.18 98 00:45 28.08.2022
441 Clouds 26 1013 82 10000 3.5 107 23:28 27.08.2022
442 Clouds 25 1013 84 10000 3.66 109 22:27 27.08.2022
443 Clouds 25 1013 84 10000 3.66 109 22:27 27.08.2022
444 Clouds 25 1011 84 10000 3.3 111 20:36 27.08.2022
445 Clouds 25 1010 85 10000 3.3 115 19:29 27.08.2022
446 Clouds 25 1011 89 10000 3.95 113 16:30 27.08.2022
447 Clouds 25 1012 89 10000 4.33 113 15:31 27.08.2022
448 Clouds 25 1013 88 10000 4.05 114 13:30 27.08.2022
449 Clouds 25 1012 89 10000 3.69 103 12:20 27.08.2022
450 Clouds 25 1012 90 10000 4.23 101 10:30 27.08.2022
451 Clouds 26 1010 89 8384 3.82 91 09:36 27.08.2022
452 Clouds 28 1009 79 10000 2.62 85 06:54 27.08.2022
453 Clouds 29 1013 64 10000 1.23 103 01:21 27.08.2022
454 Clouds 28 1013 72 10000 1.16 147 23:49 26.08.2022
455 Clouds 24 1012 85 10000 1.93 162 21:49 26.08.2022
456 Clouds 25 1011 86 10000 2.42 140 20:20 26.08.2022
457 Clouds 25 1011 86 10000 2.81 134 17:59 26.08.2022
458 Clouds 25 1011 86 10000 3.04 130 16:32 26.08.2022
459 Clouds 25 1012 86 10000 3.6 122 15:24 26.08.2022
460 Clouds 25 1012 89 10000 3.68 117 13:18 26.08.2022
461 Clouds 25 1012 89 10000 4.29 112 11:48 26.08.2022
462 Clouds 26 1011 89 10000 4.47 109 11:21 26.08.2022
463 Clouds 27 1010 86 9916 4.15 105 08:55 26.08.2022
464 Clouds 29 1010 75 9235 3.54 73 03:51 26.08.2022
465 Clouds 28 1012 77 10000 2.91 97 23:47 25.08.2022
466 Clouds 25 1011 86 10000 2.63 117 22:20 25.08.2022
467 Clouds 25 1011 87 10000 2.65 112 20:54 25.08.2022
468 Clouds 25 1011 87 10000 2.65 112 20:54 25.08.2022
469 Clouds 25 1010 87 10000 2.71 117 19:35 25.08.2022
470 Clouds 25 1010 87 10000 2.33 116 18:29 25.08.2022
471 Clouds 25 1010 87 10000 2.33 116 17:31 25.08.2022
472 Clouds 25 1011 87 10000 1.8 124 16:36 25.08.2022
473 Clouds 25 1012 90 10000 2.15 133 15:28 25.08.2022
474 Clouds 25 1014 94 4477 3.8 64 13:20 25.08.2022
475 Clouds 26 1012 88 9049 3.62 101 10:49 25.08.2022
476 Clouds 26 1011 87 10000 3.57 104 09:46 25.08.2022
477 Clouds 28 1010 77 10000 3.93 80 07:31 25.08.2022
478 Rain 30 1012 63 10000 3.09 65 02:29 25.08.2022
479 Rain 27 1012 77 10000 1.84 122 23:29 24.08.2022
480 Rain 27 1012 77 10000 1.84 122 22:46 24.08.2022
481 Clouds 25 1011 82 10000 1.78 135 21:37 24.08.2022
482 Clouds 25 1011 83 10000 1.47 143 21:19 24.08.2022
483 Clouds 24 1010 85 10000 1.59 160 19:34 24.08.2022
484 Clouds 25 1010 84 10000 1.12 145 16:49 24.08.2022
485 Clouds 25 1011 84 10000 1.54 181 15:52 24.08.2022
486 Clouds 25 1012 87 10000 0.76 94 13:48 24.08.2022
487 Rain 25 1013 87 10000 1.8 67 12:24 24.08.2022
488 Rain 25 1012 88 10000 1.72 80 11:18 24.08.2022
489 Rain 26 1010 87 9550 3.55 87 08:28 24.08.2022
490 Clouds 30 1010 71 9354 3.07 65 03:44 24.08.2022
491 Clouds 29 1013 63 10000 1.31 95 23:47 23.08.2022
492 Clouds 27 1012 68 10000 1.31 152 22:33 23.08.2022
493 Clouds 25 1012 76 10000 1.88 157 21:39 23.08.2022
494 Clouds 25 1011 79 10000 2.29 149 20:31 23.08.2022
495 Clear 25 1010 80 10000 2.49 148 18:50 23.08.2022
496 Clear 25 1010 81 10000 2.37 147 17:50 23.08.2022
497 Clear 25 1011 82 10000 2.24 143 17:18 23.08.2022
498 Clear 25 1011 83 10000 2.29 132 15:39 23.08.2022
499 Clouds 26 1012 82 10000 2.83 128 13:36 23.08.2022
500 Clouds 26 1012 81 10000 3.38 133 11:33 23.08.2022
501 Clouds 26 1012 80 10000 3.52 128 10:51 23.08.2022
502 Clouds 27 1011 78 10000 3.27 113 10:26 23.08.2022
503 Clouds 28 1010 74 10000 2.75 94 08:53 23.08.2022
504 Clouds 29 1010 66 10000 2.7 82 08:21 23.08.2022
505 Clouds 29 1010 66 10000 2.7 82 07:38 23.08.2022
506 Clouds 29 1010 65 10000 2.75 76 06:34 23.08.2022
507 Clouds 30 1010 65 10000 3.15 68 05:38 23.08.2022
508 Clear 30 1013 61 10000 2.93 94 00:52 23.08.2022
509 Clear 29 1013 67 10000 2.64 108 00:24 23.08.2022
510 Clear 27 1013 74 10000 2.35 129 22:52 22.08.2022
511 Clear 25 1013 81 10000 2.56 139 21:51 22.08.2022
512 Clear 25 1011 84 10000 2.7 133 19:49 22.08.2022
513 Clear 25 1011 85 10000 2.7 131 19:21 22.08.2022
514 Clear 25 1011 86 10000 2.61 131 17:55 22.08.2022
515 Clouds 25 1012 86 10000 2.71 122 15:40 22.08.2022
516 Clouds 25 1012 87 10000 3.17 115 14:32 22.08.2022
517 Clouds 26 1012 86 10000 3.51 112 10:49 22.08.2022
518 Clouds 28 1010 75 10000 3.63 78 08:21 22.08.2022
519 Clouds 29 1010 74 10000 3.5 74 04:34 22.08.2022
520 Clouds 29 1013 68 10000 3.22 85 00:49 22.08.2022
521 Clouds 28 1013 75 10000 2.82 103 00:29 22.08.2022
522 Clouds 26 1013 82 10000 2.83 121 22:54 21.08.2022
523 Clouds 25 1013 86 10000 3.08 125 21:36 21.08.2022
524 Clouds 25 1012 88 10000 2.99 123 20:57 21.08.2022
525 Clouds 25 1011 88 10000 3.31 122 19:27 21.08.2022
526 Clouds 25 1011 88 10000 3.21 122 17:39 21.08.2022
527 Clouds 25 1011 89 10000 3.04 116 15:58 21.08.2022
528 Clouds 25 1012 89 10000 2.82 114 15:22 21.08.2022
529 Clouds 26 1012 88 10000 2.78 107 13:54 21.08.2022
530 Clouds 26 1012 88 10000 2.78 107 13:30 21.08.2022
531 Clouds 26 1012 88 10000 3 114 11:55 21.08.2022
532 Clouds 26 1011 87 10000 3.43 108 09:31 21.08.2022
533 Clouds 27 1010 85 10000 3.3 102 08:56 21.08.2022
534 Clouds 27 1010 83 10000 3.37 99 08:38 21.08.2022
535 Clouds 29 1008 75 10000 3.62 87 07:27 21.08.2022
536 Clouds 31 1009 64 10000 4.18 74 03:41 21.08.2022
537 Clouds 28 1012 70 10000 2.71 109 00:24 21.08.2022
538 Clouds 26 1012 77 10000 2.48 130 22:41 20.08.2022
539 Clouds 25 1011 82 10000 2.59 140 21:38 20.08.2022
540 Clouds 24 1011 83 10000 2.67 141 20:41 20.08.2022
541 Clouds 25 1010 86 10000 3.67 121 19:40 20.08.2022
542 Clouds 25 1010 86 10000 3.3 124 18:30 20.08.2022
543 Clouds 25 1010 85 10000 3.07 122 17:50 20.08.2022
544 Clouds 25 1011 84 10000 2.99 127 16:52 20.08.2022
545 Clouds 26 1011 84 10000 2.86 129 15:30 20.08.2022
546 Clouds 25 1013 85 10000 2.79 107 13:24 20.08.2022
547 Clouds 25 1012 86 10000 2.34 116 11:49 20.08.2022
548 Clouds 24 1012 92 10000 3.7 161 09:34 20.08.2022
549 Clouds 25 1011 91 10000 6.77 103 08:31 20.08.2022
550 Clouds 29 1009 71 10000 0.84 25 05:52 20.08.2022
551 Rain 30 1013 65 10000 0.31 76 00:59 20.08.2022
552 Rain 30 1013 65 10000 0.31 76 00:34 20.08.2022
553 Clouds 27 1013 78 10000 1.3 153 22:59 19.08.2022
554 Clouds 25 1012 85 10000 1.58 148 21:40 19.08.2022
555 Rain 25 1011 85 10000 1.42 154 19:54 19.08.2022
556 Clouds 25 1011 86 10000 1.28 165 16:47 19.08.2022
557 Clouds 25 1012 86 10000 1.78 175 14:54 19.08.2022
558 Clouds 26 1013 84 10000 1.63 180 12:49 19.08.2022
559 Clouds 26 1012 82 10000 1.51 154 10:44 19.08.2022
560 Clouds 27 1011 79 10000 1.14 143 09:59 19.08.2022
561 Clouds 31 1009 58 10000 2.27 43 05:30 19.08.2022
562 Clouds 29 1013 59 10000 2.8 91 00:46 19.08.2022
563 Clouds 28 1014 67 10000 2.52 106 00:22 19.08.2022
564 Clouds 26 1013 78 10000 2.23 120 22:59 18.08.2022
565 Clouds 26 1013 78 10000 2.23 120 22:30 18.08.2022
566 Clouds 25 1013 86 10000 2.31 134 21:53 18.08.2022
567 Clouds 24 1012 87 10000 2.26 137 21:18 18.08.2022
568 Clouds 24 1012 87 10000 2.19 134 19:54 18.08.2022
569 Clouds 24 1011 88 10000 2.1 130 19:21 18.08.2022
570 Clouds 25 1011 87 10000 2.04 125 17:41 18.08.2022
571 Clouds 25 1012 87 10000 1.7 129 16:19 18.08.2022
572 Clouds 25 1013 85 10000 1.57 160 14:22 18.08.2022
573 Clouds 25 1013 85 10000 1.57 160 13:44 18.08.2022
574 Clouds 25 1013 85 10000 1.57 160 13:44 18.08.2022
575 Clouds 25 1013 85 10000 1.57 160 13:44 18.08.2022
576 Clouds 26 1013 85 10000 1.39 152 12:30 18.08.2022
577 Clouds 26 1012 83 10000 0.8 101 11:21 18.08.2022
578 Clouds 26 1011 81 10000 0.97 68 09:43 18.08.2022
579 Clouds 28 1010 71 10000 0.81 290 07:53 18.08.2022
580 Clouds 29 1010 67 10000 1.09 312 06:37 18.08.2022
581 Clouds 30 1013 63 10000 1.91 41 02:22 18.08.2022
582 Clouds 27 1014 73 10000 1.52 129 22:47 17.08.2022
583 Clouds 24 1012 81 10000 1.64 145 20:30 17.08.2022
584 Clouds 25 1012 80 10000 1.32 139 19:59 17.08.2022
585 Clouds 25 1011 80 10000 1.43 147 18:37 17.08.2022
586 Clouds 25 1012 81 10000 0.96 150 17:21 17.08.2022
587 Clouds 25 1012 82 10000 0.96 149 15:46 17.08.2022
588 Clouds 25 1013 83 10000 0.77 157 14:40 17.08.2022
589 Clouds 25 1013 83 10000 0.54 102 12:30 17.08.2022
590 Clouds 26 1012 84 10000 0.6 63 11:23 17.08.2022
591 Clouds 27 1011 79 10000 1.4 9 09:19 17.08.2022
592 Clouds 29 1010 65 10000 2.22 3 06:34 17.08.2022
593 Clear 29 1013 62 10000 2.4 19 01:22 17.08.2022
594 Clear 27 1013 72 10000 1.05 46 23:27 16.08.2022
595 Clear 25 1012 80 10000 0.94 76 21:32 16.08.2022
596 Clear 25 1011 82 10000 1.04 55 20:20 16.08.2022
597 Clear 25 1011 82 10000 0.99 54 19:26 16.08.2022
598 Clear 25 1011 82 10000 1.21 49 17:55 16.08.2022
599 Clear 25 1011 82 10000 1.34 39 16:48 16.08.2022
600 Clear 26 1012 82 10000 1.28 34 15:45 16.08.2022
601 Clear 26 1013 82 10000 1.44 27 14:54 16.08.2022
602 Clear 26 1013 82 10000 1.44 27 14:36 16.08.2022
603 Clear 26 1012 81 10000 1.08 33 12:19 16.08.2022
604 Clear 26 1011 80 10000 1.36 22 10:23 16.08.2022
605 Clear 27 1010 75 10000 1.73 20 08:53 16.08.2022
606 Clear 29 1010 66 10000 2.14 12 08:21 16.08.2022
607 Clouds 30 1009 61 10000 2.34 6 05:55 16.08.2022
608 Clouds 28 1013 74 10000 1.15 88 23:37 15.08.2022
609 Clouds 25 1012 86 10000 1.34 118 22:21 15.08.2022
610 Clouds 25 1012 86 10000 1.34 118 21:48 15.08.2022
611 Clouds 25 1011 86 10000 1.24 93 20:32 15.08.2022
612 Clouds 25 1010 86 10000 1.47 134 19:18 15.08.2022
613 Clouds 25 1010 87 10000 1.57 141 17:59 15.08.2022
614 Clouds 25 1011 87 10000 1.43 137 16:24 15.08.2022
615 Clouds 25 1012 87 10000 1.67 147 15:26 15.08.2022
616 Clouds 26 1012 86 10000 1.48 133 13:27 15.08.2022
617 Clouds 26 1011 85 10000 1.14 124 10:37 15.08.2022
618 Clouds 27 1010 82 10000 0.88 90 08:55 15.08.2022
619 Clouds 28 1009 78 10000 0.86 41 06:51 15.08.2022
620 Clouds 29 1010 73 10000 2.18 31 03:56 15.08.2022
621 Clear 28 1012 74 10000 2.31 94 23:38 14.08.2022
622 Clear 25 1011 86 10000 2.27 126 21:49 14.08.2022
623 Clouds 25 1011 86 10000 2.16 131 20:54 14.08.2022
624 Clouds 25 1010 86 10000 1.69 144 19:46 14.08.2022
625 Clouds 25 1010 86 10000 1.57 144 18:41 14.08.2022
626 Clouds 25 1010 86 10000 1.54 144 17:41 14.08.2022
627 Clouds 25 1011 85 10000 1.31 134 16:25 14.08.2022
628 Clouds 25 1011 85 10000 1.31 134 15:43 14.08.2022
629 Clouds 26 1012 86 10000 1.26 146 13:52 14.08.2022
630 Clouds 26 1012 86 10000 1.26 146 13:33 14.08.2022
631 Clouds 26 1012 85 10000 1.27 143 12:45 14.08.2022
632 Clouds 26 1012 85 10000 1.29 139 11:30 14.08.2022
633 Clouds 26 1010 84 10000 1.11 108 09:34 14.08.2022
634 Clouds 29 1009 72 10000 1.55 359 06:53 14.08.2022
635 Clouds 29 1009 71 10000 1.8 2 05:37 14.08.2022
636 Clouds 30 1011 67 10000 1.71 38 01:36 14.08.2022
637 Clouds 26 1012 84 10000 1 117 22:56 13.08.2022
638 Clouds 25 1012 87 10000 1.19 137 22:27 13.08.2022
639 Clouds 24 1011 88 10000 1.27 126 20:50 13.08.2022
640 Clouds 25 1011 87 10000 1.26 140 19:48 13.08.2022
641 Clouds 25 1010 87 10000 1.53 142 19:18 13.08.2022
642 Clouds 25 1011 86 10000 1.16 139 17:21 13.08.2022
643 Clouds 25 1012 86 10000 0.99 131 14:50 13.08.2022
644 Clouds 25 1012 85 10000 0.61 117 13:50 13.08.2022
645 Clouds 26 1013 85 10000 0.96 131 13:28 13.08.2022
646 Clouds 26 1012 84 10000 0.24 112 11:29 13.08.2022
647 Clouds 27 1010 82 10000 1.22 340 09:23 13.08.2022
648 Clouds 28 1010 77 10000 1.16 21 06:54 13.08.2022
649 Clouds 29 1012 68 10000 1.76 27 01:51 13.08.2022
650 Clouds 28 1013 75 10000 1.22 84 23:32 12.08.2022
651 Clouds 25 1012 86 10000 1.58 141 21:37 12.08.2022
652 Clouds 25 1011 87 10000 1.61 138 19:48 12.08.2022
653 Clouds 25 1011 87 10000 1.27 140 19:23 12.08.2022
654 Clouds 25 1011 87 10000 0.96 154 18:21 12.08.2022
655 Clouds 25 1012 86 10000 1.39 151 16:26 12.08.2022
656 Clouds 25 1012 86 10000 1.51 141 14:50 12.08.2022
657 Clouds 25 1012 87 10000 1.67 118 13:30 12.08.2022
658 Clouds 25 1012 86 10000 1.65 112 12:25 12.08.2022
659 Rain 26 1011 84 10000 1.19 68 08:50 12.08.2022
660 Rain 27 1010 80 10000 1.2 29 07:45 12.08.2022
661 Rain 29 1009 73 10000 2.03 48 04:55 12.08.2022
662 Clouds 27 1012 83 10000 1.08 90 00:31 12.08.2022
663 Clouds 26 1012 87 10000 1.11 101 23:52 11.08.2022
664 Clouds 26 1012 89 10000 1.44 113 22:42 11.08.2022
665 Clouds 25 1011 91 10000 2.39 116 21:52 11.08.2022
666 Clouds 25 1011 92 10000 2.74 108 21:23 11.08.2022
667 Clouds 25 1011 92 10000 2.74 108 20:30 11.08.2022
668 Clouds 25 1010 93 10000 3.22 110 19:33 11.08.2022
669 Clouds 25 1010 90 10000 2.35 110 18:41 11.08.2022
670 Clouds 26 1010 89 10000 1.25 116 16:42 11.08.2022
671 Clouds 26 1011 88 10000 1.63 112 15:42 11.08.2022
672 Clouds 26 1011 88 10000 1.8 135 14:20 11.08.2022
673 Clouds 26 1011 88 10000 2.5 121 11:51 11.08.2022
674 Clouds 27 1009 84 10000 1.92 84 08:34 11.08.2022
675 Clouds 29 1009 75 10000 2.49 58 04:53 11.08.2022
676 Clouds 30 1011 65 10000 3.14 78 01:56 11.08.2022
677 Clouds 26 1013 81 10000 1.69 111 22:54 10.08.2022
678 Clouds 25 1012 86 10000 1.85 121 21:44 10.08.2022
679 Clouds 25 1011 86 10000 1.84 122 20:56 10.08.2022
680 Clouds 25 1011 87 10000 1.71 129 19:58 10.08.2022
681 Clouds 25 1010 87 10000 1.6 144 18:45 10.08.2022
682 Clouds 25 1011 87 10000 1.31 158 17:20 10.08.2022
683 Clouds 25 1012 88 10000 1.36 132 13:49 10.08.2022
684 Clouds 26 1013 88 10000 1.46 138 12:50 10.08.2022
685 Clouds 26 1011 87 10000 1.96 144 10:21 10.08.2022
686 Rain 26 1010 85 10000 1.78 142 08:37 10.08.2022
687 Rain 28 1009 79 10000 0.61 201 07:21 10.08.2022
688 Clouds 29 1009 76 10000 0.99 341 04:49 10.08.2022
689 Rain 29 1012 66 10000 1.06 52 00:49 10.08.2022
690 Clouds 26 1012 80 10000 1.19 147 23:25 09.08.2022
691 Clouds 25 1011 86 10000 1.53 141 21:37 09.08.2022
692 Clouds 25 1010 87 10000 1.53 133 20:42 09.08.2022
693 Clouds 25 1010 85 10000 1.49 169 18:48 09.08.2022
694 Clouds 25 1010 85 10000 1.35 167 17:31 09.08.2022
695 Clouds 25 1010 86 10000 1.05 173 16:42 09.08.2022
696 Clouds 25 1011 87 10000 0.86 171 15:59 09.08.2022
697 Clouds 25 1011 86 10000 0.67 168 14:30 09.08.2022
698 Clouds 26 1011 86 10000 0.76 72 10:45 09.08.2022
699 Clouds 27 1009 84 10000 1.55 21 08:51 09.08.2022
700 Clouds 29 1008 74 10000 1.98 16 07:54 09.08.2022
701 Clouds 29 1009 69 10000 1.9 23 04:31 09.08.2022
702 Clouds 27 1012 84 5870 2.01 55 23:58 08.08.2022
703 Clouds 26 1012 87 10000 1.68 73 22:57 08.08.2022
704 Clouds 26 1012 87 10000 1.68 73 22:35 08.08.2022
705 Clouds 25 1010 89 8356 1.45 89 21:27 08.08.2022
706 Clouds 25 1009 89 10000 1.58 95 19:51 08.08.2022
707 Clouds 25 1009 91 6496 1.33 92 18:58 08.08.2022
708 Clouds 25 1009 91 10000 1.66 97 16:47 08.08.2022
709 Clouds 25 1010 90 10000 1.41 99 15:40 08.08.2022
710 Clouds 25 1011 93 10000 1.13 120 14:29 08.08.2022
711 Clouds 25 1011 94 10000 0.98 60 12:27 08.08.2022
712 Rain 26 1010 91 10000 1.75 37 09:48 08.08.2022
713 Rain 28 1008 77 10000 0.66 7 06:51 08.08.2022
714 Rain 29 1010 77 7603 1.19 21 02:56 08.08.2022
715 Clouds 27 1011 81 10000 1.11 153 22:42 07.08.2022
716 Clouds 25 1010 86 10000 1.57 164 21:40 07.08.2022
717 Clouds 25 1009 87 10000 1.82 156 20:26 07.08.2022
718 Clouds 25 1009 87 10000 1.82 156 19:56 07.08.2022
719 Clouds 25 1009 87 10000 1.82 156 19:38 07.08.2022
720 Clouds 25 1009 87 10000 2.15 150 18:23 07.08.2022
721 Clouds 25 1009 87 10000 2.15 143 16:54 07.08.2022
722 Clouds 25 1009 87 10000 2.15 143 16:35 07.08.2022
723 Clouds 26 1010 87 10000 2.57 127 15:20 07.08.2022
724 Clouds 26 1011 87 10000 3.2 121 13:26 07.08.2022
725 Clouds 26 1010 88 10000 2.92 125 11:27 07.08.2022
726 Clouds 26 1010 88 10000 2.92 125 10:34 07.08.2022
727 Clouds 29 1007 78 8068 2.19 80 06:52 07.08.2022
728 Clouds 31 1009 63 10000 2.72 53 03:19 07.08.2022
729 Clouds 29 1011 69 10000 1.25 117 23:44 06.08.2022
730 Clouds 25 1010 85 10000 1.93 154 22:20 06.08.2022
731 Clouds 25 1009 86 10000 2.07 144 20:26 06.08.2022
732 Clouds 25 1009 87 10000 2.2 142 19:41 06.08.2022
733 Clouds 25 1009 86 10000 2.07 144 19:41 06.08.2022
734 Clouds 25 1009 87 10000 2.11 149 18:25 06.08.2022
735 Clouds 25 1009 87 10000 2.11 149 17:30 06.08.2022
736 Clouds 25 1010 87 10000 2.32 146 14:35 06.08.2022
737 Clouds 25 1010 87 10000 2.51 142 13:44 06.08.2022
738 Clouds 26 1009 86 10000 3.22 133 11:24 06.08.2022
739 Clouds 27 1009 84 10000 3.24 126 09:51 06.08.2022
740 Clouds 28 1007 77 10000 3.4 99 08:28 06.08.2022
741 Clouds 31 1008 64 10000 2.85 52 03:35 06.08.2022
742 Clouds 29 1011 72 10000 1.77 125 23:32 05.08.2022
743 Clouds 25 1010 87 10000 1.95 153 22:22 05.08.2022
744 Clouds 25 1009 87 10000 1.94 153 19:32 05.08.2022
745 Clouds 25 1009 88 10000 1.98 157 18:44 05.08.2022
746 Clouds 25 1009 88 10000 1.77 138 17:27 05.08.2022
747 Clouds 25 1009 88 10000 1.77 138 16:48 05.08.2022
748 Clouds 26 1010 87 10000 2.09 132 15:21 05.08.2022
749 Clouds 26 1010 87 10000 1.9 136 13:53 05.08.2022
750 Clouds 26 1010 87 10000 2.03 145 13:22 05.08.2022
751 Clouds 26 1010 86 10000 2.2 151 12:24 05.08.2022
752 Clouds 26 1010 85 10000 1.91 145 10:35 05.08.2022
753 Clouds 29 1008 74 10000 1.29 84 07:58 05.08.2022
754 Clouds 29 1008 70 10000 2.46 62 05:32 05.08.2022
755 Clouds 30 1011 64 10000 2.76 88 00:30 05.08.2022
756 Clouds 25 1011 86 10000 2.38 129 22:25 04.08.2022
757 Clouds 25 1010 87 10000 2.51 125 21:25 04.08.2022
758 Clouds 25 1010 87 10000 2.51 125 20:42 04.08.2022
759 Clouds 25 1009 87 10000 2.66 135 19:23 04.08.2022
760 Clouds 25 1009 87 10000 2.66 135 18:35 04.08.2022
761 Clouds 25 1009 88 10000 2.6 131 17:31 04.08.2022
762 Clouds 26 1010 88 10000 2.85 119 13:44 04.08.2022
763 Clouds 26 1010 88 10000 3.4 120 11:47 04.08.2022
764 Clouds 26 1010 87 10000 3.51 118 10:48 04.08.2022
765 Clouds 29 1008 73 10000 3.97 84 07:51 04.08.2022
766 Clouds 30 1010 68 10000 3.77 75 04:28 04.08.2022
767 Clear 30 1011 65 10000 3.71 83 01:58 04.08.2022
768 Clear 29 1012 69 10000 3.11 97 23:42 03.08.2022
769 Clear 25 1011 84 10000 3.23 123 21:39 03.08.2022
770 Clear 25 1011 86 10000 3.39 120 20:37 03.08.2022
771 Clear 25 1010 88 10000 3.29 122 19:28 03.08.2022
772 Clear 25 1010 88 10000 3.39 123 17:41 03.08.2022
773 Clear 26 1011 87 10000 3.33 121 16:24 03.08.2022
774 Clear 26 1011 87 10000 3.32 125 14:25 03.08.2022
775 Clear 26 1011 88 10000 3.86 116 11:47 03.08.2022
776 Clouds 29 1009 73 10000 4.53 86 07:55 03.08.2022
777 Clouds 32 1009 61 10000 5.17 78 04:46 03.08.2022
778 Clouds 32 1011 57 10000 5.16 76 03:26 03.08.2022
779 Clouds 30 1013 63 10000 4.12 95 01:18 03.08.2022
780 Clear 27 1013 76 10000 3.05 111 22:53 02.08.2022
781 Clear 25 1012 84 10000 2.99 129 21:53 02.08.2022
782 Clear 25 1011 85 10000 2.97 129 20:37 02.08.2022
783 Clouds 25 1011 84 10000 2.88 137 18:42 02.08.2022
784 Clouds 25 1012 82 10000 2.67 138 15:36 02.08.2022
785 Clouds 26 1012 82 10000 3.28 119 11:32 02.08.2022
786 Clouds 28 1010 74 10000 3.92 97 09:18 02.08.2022
787 Rain 30 1009 66 10000 4.66 89 07:52 02.08.2022
788 Clouds 30 1009 65 10000 4.58 79 06:42 02.08.2022
789 Clouds 31 1010 61 10000 4.2 67 04:31 02.08.2022
790 Clouds 29 1013 71 10000 3.19 98 23:35 01.08.2022
791 Clouds 25 1012 82 10000 2.8 121 22:22 01.08.2022
792 Clouds 25 1011 83 10000 2.75 122 20:51 01.08.2022
793 Clouds 25 1010 83 10000 3.13 122 19:23 01.08.2022
794 Clouds 25 1010 84 10000 3.06 120 17:57 01.08.2022
795 Clouds 25 1011 85 10000 3.09 121 16:52 01.08.2022
796 Clouds 25 1011 85 10000 3.2 120 15:52 01.08.2022
797 Clouds 25 1011 85 10000 3.2 120 15:30 01.08.2022
798 Rain 26 1012 85 10000 3.54 118 13:45 01.08.2022
799 Clear 26 1012 86 10000 3.46 116 11:49 01.08.2022
800 Clear 26 1010 85 10000 3.48 106 09:39 01.08.2022
801 Rain 29 1009 70 10000 4.05 85 08:21 01.08.2022
802 Clear 31 1009 63 10000 4.53 73 04:46 01.08.2022
803 Clear 32 1010 60 10000 4.81 75 02:31 01.08.2022
804 Clouds 28 1012 73 10000 3.82 100 23:42 31.07.2022
805 Clouds 27 1011 79 10000 3.09 115 22:36 31.07.2022
806 Clear 25 1010 86 10000 2.54 134 20:49 31.07.2022
807 Clouds 25 1009 86 10000 2.91 132 19:25 31.07.2022
808 Clear 25 1009 87 10000 3.04 132 17:43 31.07.2022
809 Clear 25 1010 87 10000 3.31 127 15:30 31.07.2022
810 Clouds 26 1011 86 10000 3.15 124 13:21 31.07.2022
811 Clouds 26 1011 85 10000 3.51 126 11:45 31.07.2022
812 Clouds 28 1009 80 10000 3.37 112 09:27 31.07.2022
813 Clouds 29 1008 73 10000 2.84 92 06:37 31.07.2022
814 Clear 32 1011 58 10000 3.43 59 02:56 31.07.2022
815 Clear 27 1012 76 10000 1.75 126 23:23 30.07.2022
816 Clear 25 1012 85 10000 2.02 143 21:55 30.07.2022
817 Clear 25 1012 85 10000 2.02 143 21:37 30.07.2022
818 Clear 25 1011 87 10000 2.2 142 20:38 30.07.2022
819 Clouds 25 1011 86 10000 2.03 156 19:57 30.07.2022
820 Clouds 25 1010 86 10000 2.22 150 18:23 30.07.2022
821 Clouds 25 1011 86 10000 2.35 141 16:44 30.07.2022
822 Clouds 25 1011 86 10000 2.35 129 15:34 30.07.2022
823 Clouds 25 1012 85 10000 2.75 127 14:26 30.07.2022
824 Clouds 25 1012 84 10000 2.9 132 12:33 30.07.2022
825 Clouds 26 1012 83 10000 2.73 130 11:55 30.07.2022
826 Clouds 26 1011 80 10000 1.61 121 10:20 30.07.2022
827 Clouds 26 1011 80 10000 1.61 121 09:42 30.07.2022
828 Clouds 29 1010 65 10000 1.61 50 07:44 30.07.2022
829 Clouds 31 1011 57 10000 2.28 37 02:34 30.07.2022
830 Clouds 29 1013 63 10000 1.65 81 01:20 30.07.2022
831 Clouds 25 1012 85 10000 1.55 143 21:39 29.07.2022
832 Clouds 24 1011 85 10000 1.57 140 20:57 29.07.2022
833 Clouds 25 1010 84 10000 2.06 142 19:48 29.07.2022
834 Clouds 25 1010 85 10000 1.96 135 17:39 29.07.2022
835 Clouds 25 1012 86 10000 1.83 132 14:51 29.07.2022
836 Clouds 26 1012 85 10000 1.38 112 12:55 29.07.2022
837 Clouds 26 1010 83 10000 1.35 62 09:34 29.07.2022
838 Clouds 27 1010 79 10000 1.21 42 08:41 29.07.2022
839 Clouds 30 1009 67 10000 1.78 59 06:40 29.07.2022
840 Clouds 29 1013 65 10000 3.23 88 01:19 29.07.2022
841 Clouds 25 1012 88 10000 2.93 118 21:45 28.07.2022
842 Clouds 25 1011 88 10000 2.95 119 20:54 28.07.2022
843 Clouds 25 1011 87 10000 2.93 123 20:20 28.07.2022
844 Clouds 25 1011 87 10000 2.93 123 19:40 28.07.2022
845 Clouds 25 1010 87 10000 3.04 122 18:20 28.07.2022
846 Clouds 25 1010 87 10000 3.04 122 17:36 28.07.2022
847 Clouds 25 1011 88 10000 3.3 127 16:41 28.07.2022
848 Clouds 25 1012 89 10000 3.27 117 14:28 28.07.2022
849 Clouds 25 1012 89 10000 3.64 115 12:41 28.07.2022
850 Clouds 27 1010 85 9145 3.41 104 09:25 28.07.2022
851 Clouds 30 1009 69 10000 3.76 77 05:45 28.07.2022
852 Clouds 31 1009 66 10000 4.11 67 05:21 28.07.2022
853 Clouds 28 1014 73 10000 1.94 121 00:28 28.07.2022
854 Rain 25 1013 85 10000 1.8 152 21:58 27.07.2022
855 Clouds 25 1012 86 10000 1.71 157 20:19 27.07.2022
856 Clouds 25 1011 86 10000 1.78 157 19:30 27.07.2022
857 Clouds 25 1012 88 10000 1.97 150 16:33 27.07.2022
858 Clouds 25 1012 88 10000 2.05 145 15:51 27.07.2022
859 Clouds 25 1013 88 10000 2.27 137 14:42 27.07.2022
860 Clouds 25 1013 86 10000 2.66 130 13:57 27.07.2022
861 Clouds 26 1012 84 10000 1.77 123 11:18 27.07.2022
862 Clouds 29 1009 74 10000 1.82 63 07:53 27.07.2022
863 Clouds 30 1009 67 10000 2.75 31 05:18 27.07.2022
864 Rain 27 1012 78 10000 1.21 114 23:29 26.07.2022
865 Clouds 25 1012 84 10000 1.34 144 22:19 26.07.2022
866 Clouds 25 1011 85 10000 1.24 139 20:58 26.07.2022
867 Clouds 25 1010 85 10000 1.31 138 19:32 26.07.2022
868 Clouds 25 1010 85 10000 1.19 124 18:40 26.07.2022
869 Clouds 25 1010 85 10000 1.39 117 17:54 26.07.2022
870 Clouds 25 1011 85 10000 2.06 108 15:43 26.07.2022
871 Clouds 26 1011 85 10000 2.6 114 14:43 26.07.2022
872 Rain 26 1011 86 10000 3 119 12:32 26.07.2022
873 Rain 27 1010 81 10000 2.61 95 10:20 26.07.2022
874 Clouds 29 1008 71 10000 2.48 72 08:27 26.07.2022
875 Clouds 30 1011 66 10000 3.86 76 01:52 26.07.2022
876 Clouds 30 1011 66 10000 3.86 76 01:52 26.07.2022
877 Clouds 29 1012 70 10000 2.93 99 00:19 26.07.2022
878 Clouds 27 1012 78 10000 2.7 111 22:40 25.07.2022
879 Clouds 25 1011 86 10000 2.65 118 21:43 25.07.2022
880 Clouds 25 1011 88 10000 2.78 120 20:43 25.07.2022
881 Clouds 25 1010 88 10000 2.73 124 20:23 25.07.2022
882 Clear 25 1010 86 10000 2.53 135 19:24 25.07.2022
883 Clear 25 1010 87 10000 2.48 137 17:37 25.07.2022
884 Clear 26 1010 87 10000 2.58 133 16:40 25.07.2022
885 Clouds 26 1012 84 10000 2.69 138 12:58 25.07.2022
886 Clouds 27 1011 80 10000 2.6 136 10:47 25.07.2022
887 Clouds 29 1009 69 10000 2.41 60 07:29 25.07.2022
888 Clear 28 1012 75 10000 2.68 106 23:57 24.07.2022
889 Clear 27 1011 82 10000 2.51 121 23:22 24.07.2022
890 Clear 27 1011 82 10000 2.51 121 22:41 24.07.2022
891 Clear 25 1011 87 10000 2.55 124 21:30 24.07.2022
892 Clear 25 1010 88 10000 2.37 127 20:57 24.07.2022
893 Clear 25 1010 88 10000 2.37 127 20:35 24.07.2022
894 Clear 25 1010 87 10000 2.5 127 18:59 24.07.2022
895 Clouds 25 1010 87 10000 2.11 130 16:53 24.07.2022
896 Clouds 26 1011 88 10000 2.1 134 15:53 24.07.2022
897 Clouds 26 1011 87 10000 2.07 137 14:41 24.07.2022
898 Clouds 26 1011 87 10000 2.07 137 14:41 24.07.2022
899 Clouds 26 1011 87 10000 2.04 138 13:43 24.07.2022
900 Clouds 26 1011 87 10000 2.42 143 12:19 24.07.2022
901 Clouds 27 1011 86 10000 2.26 140 11:28 24.07.2022
902 Clouds 27 1010 84 10000 1.78 131 09:33 24.07.2022
903 Clouds 28 1009 79 10000 1.25 105 07:53 24.07.2022
904 Clouds 29 1009 75 10000 1.41 90 06:38 24.07.2022
905 Clouds 31 1010 59 10000 2.3 49 02:33 24.07.2022
906 Clouds 26 1012 81 10000 1.42 147 22:31 23.07.2022
907 Clouds 25 1011 88 10000 1.71 154 20:41 23.07.2022
908 Clouds 25 1011 89 10000 1.88 155 18:52 23.07.2022
909 Clouds 25 1011 89 10000 2 151 17:48 23.07.2022
910 Clouds 25 1011 89 10000 2 144 17:24 23.07.2022
911 Clouds 25 1012 89 10000 1.9 141 15:51 23.07.2022
912 Clouds 26 1012 88 10000 1.75 140 15:20 23.07.2022
913 Clouds 26 1012 88 10000 1.75 140 14:36 23.07.2022
914 Clouds 26 1012 88 10000 1.58 140 13:53 23.07.2022
915 Clouds 26 1012 86 10000 1.18 156 11:46 23.07.2022
916 Clouds 27 1011 84 10000 0.83 142 10:28 23.07.2022
917 Clouds 27 1011 82 10000 0.58 115 09:26 23.07.2022
918 Clouds 30 1011 67 10000 1.39 12 04:59 23.07.2022
919 Clear 31 1012 60 10000 2.14 15 02:30 23.07.2022
920 Clear 29 1013 67 10000 0.93 109 23:39 22.07.2022
921 Clear 25 1012 85 10000 1.77 156 20:57 22.07.2022
922 Clouds 25 1012 85 10000 1.54 155 19:47 22.07.2022
923 Clouds 25 1011 85 10000 1.42 166 18:29 22.07.2022
924 Clouds 25 1012 85 10000 1.49 165 17:28 22.07.2022
925 Clouds 25 1013 84 10000 1.62 181 14:57 22.07.2022
926 Clouds 26 1013 83 10000 1.38 156 11:49 22.07.2022
927 Clouds 28 1011 76 10000 0.63 347 09:27 22.07.2022
928 Clouds 28 1011 76 10000 0.63 347 08:43 22.07.2022
929 Clouds 30 1009 64 10000 1.91 346 07:20 22.07.2022
930 Clouds 31 1011 60 10000 2.35 22 03:43 22.07.2022
931 Clouds 26 1013 73 10000 1.5 134 22:45 21.07.2022
932 Clouds 25 1013 79 10000 1.89 146 21:34 21.07.2022
933 Clouds 25 1011 85 10000 1.73 137 19:28 21.07.2022
934 Rain 25 1011 85 10000 1.9 137 17:41 21.07.2022
935 Clouds 25 1011 84 10000 1.85 120 17:19 21.07.2022
936 Clear 25 1012 81 10000 2.06 119 15:22 21.07.2022
937 Clear 25 1012 81 10000 2.06 119 14:37 21.07.2022
938 Clouds 26 1012 84 10000 3.07 123 12:28 21.07.2022
939 Clouds 26 1012 84 10000 2.95 113 11:19 21.07.2022
940 Clouds 27 1011 82 10000 2.75 97 09:33 21.07.2022
941 Clouds 28 1010 77 10000 2.54 70 08:50 21.07.2022
942 Clouds 29 1010 72 10000 2.46 55 07:42 21.07.2022
943 Clouds 31 1009 61 10000 3.21 52 04:46 21.07.2022
944 Clouds 30 1013 64 10000 2.29 83 00:36 21.07.2022
945 Clouds 25 1012 86 10000 2.34 136 22:22 20.07.2022
946 Clouds 25 1012 87 10000 2.39 136 20:54 20.07.2022
947 Clouds 25 1011 87 10000 2.18 135 19:52 20.07.2022
948 Clouds 25 1011 85 10000 1.85 130 19:24 20.07.2022
949 Clouds 25 1011 85 10000 1.85 130 18:34 20.07.2022
950 Clouds 25 1011 83 10000 2 130 17:55 20.07.2022
951 Clouds 25 1012 82 10000 2.23 125 16:45 20.07.2022
952 Clear 25 1012 82 10000 2.15 122 15:31 20.07.2022
953 Clouds 25 1013 83 10000 2.58 125 14:18 20.07.2022
954 Clouds 26 1013 83 10000 2.24 136 11:33 20.07.2022
955 Clouds 28 1010 77 10000 0.72 96 08:46 20.07.2022
956 Clear 31 1010 58 10000 3.16 61 03:25 20.07.2022
957 Clear 29 1012 61 10000 2.88 96 00:48 20.07.2022
958 Clear 28 1012 69 10000 2.7 109 23:41 19.07.2022
959 Clear 26 1012 75 10000 2.4 130 22:31 19.07.2022
960 Clear 24 1011 82 10000 2.15 140 21:23 19.07.2022
961 Clouds 24 1011 83 10000 2.27 133 20:27 19.07.2022
962 Clouds 24 1010 84 10000 2.48 125 18:43 19.07.2022
963 Clouds 24 1010 85 10000 2.64 129 17:57 19.07.2022
964 Clouds 25 1010 85 10000 2.53 133 16:31 19.07.2022
965 Clear 25 1011 86 10000 2.32 136 14:36 19.07.2022
966 Clouds 26 1011 85 10000 2.16 124 11:38 19.07.2022
967 Clouds 26 1011 84 10000 1.81 117 10:31 19.07.2022
968 Clouds 27 1009 80 10000 0.84 85 08:48 19.07.2022
969 Clouds 28 1009 76 10000 1.35 55 08:22 19.07.2022
970 Clouds 29 1008 70 10000 1.9 36 07:18 19.07.2022
971 Clouds 29 1009 68 10000 2.91 48 05:26 19.07.2022
972 Clouds 29 1009 68 10000 2.91 48 04:46 19.07.2022
973 Clouds 30 1012 62 10000 2.3 79 00:34 19.07.2022
974 Clouds 27 1011 78 10000 1.65 119 23:22 18.07.2022
975 Clouds 27 1011 78 10000 1.65 119 22:56 18.07.2022
976 Clouds 25 1011 85 10000 1.89 136 21:53 18.07.2022
977 Clouds 25 1010 86 10000 2.02 139 20:50 18.07.2022
978 Clouds 25 1009 84 10000 2.37 131 19:25 18.07.2022
979 Clouds 25 1010 84 10000 2.22 138 17:22 18.07.2022
980 Clouds 25 1010 85 10000 2.12 141 15:46 18.07.2022
981 Clouds 25 1011 87 10000 2.33 133 14:24 18.07.2022
982 Clouds 26 1011 87 10000 2.52 131 12:38 18.07.2022
983 Clouds 26 1010 85 10000 2.65 111 10:37 18.07.2022
984 Clouds 28 1009 78 10000 2.45 79 08:51 18.07.2022
985 Clouds 30 1007 62 10000 3.16 63 06:58 18.07.2022
986 Clouds 30 1011 61 10000 4.68 92 00:36 18.07.2022
987 Clouds 27 1011 76 10000 3.26 112 22:34 17.07.2022
988 Clouds 25 1011 84 10000 3.13 126 21:47 17.07.2022
989 Clouds 25 1011 85 10000 3.07 129 20:55 17.07.2022
990 Clouds 25 1011 85 10000 3.07 129 20:36 17.07.2022
991 Clouds 25 1010 84 10000 3.26 127 19:28 17.07.2022
992 Clouds 25 1010 83 10000 3.05 127 18:26 17.07.2022
993 Clouds 25 1010 83 10000 3.05 127 17:38 17.07.2022
994 Clouds 25 1011 84 10000 3.02 126 16:50 17.07.2022
995 Clouds 25 1011 84 10000 2.98 127 16:25 17.07.2022
996 Clouds 25 1012 84 10000 2.89 126 14:32 17.07.2022
997 Clouds 25 1012 83 10000 3.23 119 13:30 17.07.2022
998 Clouds 26 1012 84 10000 3.47 114 11:32 17.07.2022
999 Clouds 28 1010 76 10000 4.16 93 08:50 17.07.2022
1000 Clouds 31 1011 63 10000 4.67 76 03:40 17.07.2022
1001 Clouds 31 1013 60 10000 4.63 83 02:21 17.07.2022
1002 Clear 27 1013 78 10000 3.7 112 23:19 16.07.2022
1003 Clear 25 1012 87 10000 3.64 123 21:21 16.07.2022
1004 Clouds 25 1011 86 10000 3.71 122 19:25 16.07.2022
1005 Clouds 25 1011 87 10000 3.78 123 17:56 16.07.2022
1006 Clouds 25 1012 87 10000 3.66 120 16:27 16.07.2022
1007 Clouds 25 1013 88 10000 3.67 122 13:47 16.07.2022
1008 Clouds 26 1012 85 10000 3.95 115 10:40 16.07.2022
1009 Clouds 27 1011 82 10000 3.84 108 09:30 16.07.2022
1010 Clouds 28 1010 77 10000 3.52 99 08:42 16.07.2022
1011 Clouds 30 1009 67 10000 3.52 84 07:51 16.07.2022
1012 Clouds 31 1011 55 10000 3.99 72 03:40 16.07.2022
1013 Clouds 30 1012 63 10000 3.38 73 01:59 16.07.2022
1014 Clouds 26 1013 81 10000 2.36 129 23:21 15.07.2022
1015 Clouds 26 1013 81 10000 2.36 129 22:37 15.07.2022
1016 Clouds 25 1012 87 10000 1.99 139 21:18 15.07.2022
1017 Clouds 25 1011 87 10000 2.13 135 19:51 15.07.2022
1018 Clouds 25 1011 88 10000 2.13 139 18:32 15.07.2022
1019 Clouds 25 1012 87 10000 1.74 152 17:25 15.07.2022
1020 Clouds 25 1012 87 10000 1.74 166 14:35 15.07.2022
1021 Clouds 25 1013 86 10000 2.03 180 12:43 15.07.2022
1022 Clouds 26 1012 85 10000 1.62 176 10:53 15.07.2022
1023 Clouds 28 1010 75 10000 0.7 84 07:55 15.07.2022
1024 Clouds 28 1010 74 10000 0.72 67 05:54 15.07.2022
1025 Clouds 30 1012 57 10000 1.5 99 00:47 15.07.2022
1026 Clouds 26 1012 68 10000 1.47 144 23:25 14.07.2022
1027 Clouds 26 1012 68 10000 1.47 144 22:42 14.07.2022
1028 Clouds 24 1012 74 10000 1.91 157 21:41 14.07.2022
1029 Clouds 24 1012 74 10000 1.91 157 21:41 14.07.2022
1030 Clouds 24 1011 75 10000 1.84 161 21:23 14.07.2022
1031 Clouds 24 1011 75 10000 1.84 161 20:43 14.07.2022
1032 Clouds 24 1011 75 10000 1.66 172 20:19 14.07.2022
1033 Clouds 24 1010 79 10000 1.58 167 18:38 14.07.2022
1034 Clouds 24 1011 80 10000 1.58 153 16:20 14.07.2022
1035 Clouds 25 1011 80 10000 1.59 151 15:26 14.07.2022
1036 Clouds 25 1011 80 10000 1.58 153 13:52 14.07.2022
1037 Clouds 25 1012 79 10000 1.64 158 12:36 14.07.2022
1038 Clouds 26 1011 78 10000 1.19 166 11:28 14.07.2022
1039 Clouds 26 1011 78 10000 1.19 166 10:52 14.07.2022
1040 Clouds 27 1009 73 10000 0.41 328 08:58 14.07.2022
1041 Clouds 30 1008 60 10000 2.39 21 04:45 14.07.2022
1042 Clouds 29 1011 64 10000 2.25 93 01:19 14.07.2022
1043 Clouds 29 1011 64 10000 2.25 93 00:51 14.07.2022
1044 Clouds 26 1011 78 10000 2.19 111 22:31 13.07.2022
1045 Clouds 25 1011 83 10000 1.95 114 21:42 13.07.2022
1046 Clouds 25 1010 83 10000 1.77 120 20:38 13.07.2022
1047 Clouds 25 1009 85 10000 1.58 139 18:36 13.07.2022
1048 Clouds 25 1009 85 10000 1.87 136 17:31 13.07.2022
1049 Clouds 25 1009 85 10000 1.87 136 17:31 13.07.2022
1050 Clouds 25 1009 85 10000 1.87 136 17:31 13.07.2022
1051 Clouds 25 1010 85 10000 2.13 117 16:19 13.07.2022
1052 Clouds 25 1010 84 10000 2.58 112 14:46 13.07.2022
1053 Clouds 25 1010 84 10000 2.58 112 14:46 13.07.2022
1054 Clouds 26 1010 82 10000 3.08 108 11:36 13.07.2022
1055 Clouds 27 1009 78 10000 2.76 102 10:44 13.07.2022
1056 Clouds 27 1009 77 10000 2.38 100 09:49 13.07.2022
1057 Clouds 28 1008 76 10000 2.12 90 09:20 13.07.2022
1058 Clouds 30 1008 69 10000 3.05 70 05:21 13.07.2022
1059 Clouds 30 1011 64 10000 3.37 91 00:49 13.07.2022
1060 Clouds 27 1011 72 10000 2.43 110 22:48 12.07.2022
1061 Clouds 25 1011 79 10000 2.62 135 21:49 12.07.2022
1062 Clouds 25 1010 80 10000 2.78 140 20:54 12.07.2022
1063 Clouds 25 1009 84 10000 2.7 133 20:21 12.07.2022
1064 Clouds 25 1009 85 10000 2.66 133 18:51 12.07.2022
1065 Clouds 25 1010 86 10000 2.58 128 17:23 12.07.2022
1066 Clouds 25 1010 86 10000 2.6 124 15:32 12.07.2022
1067 Clouds 26 1011 86 10000 2.76 117 13:43 12.07.2022
1068 Clouds 26 1011 84 10000 3.13 118 11:55 12.07.2022
1069 Clear 27 1010 83 10000 3.06 122 10:45 12.07.2022
1070 Clouds 28 1009 78 10000 2.38 88 08:59 12.07.2022
1071 Clouds 29 1008 69 10000 2.67 70 07:48 12.07.2022
1072 Clear 31 1008 63 10000 2.86 55 05:47 12.07.2022
1073 Clear 31 1009 61 10000 3.04 53 05:29 12.07.2022
1074 Clear 30 1012 62 10000 1.97 65 01:32 12.07.2022
1075 Clear 26 1013 82 10000 1.93 125 22:48 11.07.2022
1076 Clear 24 1012 87 10000 2.12 141 21:34 11.07.2022
1077 Clear 24 1012 88 10000 2.17 143 20:33 11.07.2022
1078 Clear 25 1011 88 10000 2 142 19:27 11.07.2022
1079 Clear 25 1011 88 10000 2 142 18:30 11.07.2022
1080 Clear 25 1011 88 10000 1.96 141 16:31 11.07.2022
1081 Clear 25 1012 88 10000 1.88 136 15:28 11.07.2022
1082 Clouds 25 1013 87 10000 1.78 137 13:19 11.07.2022
1083 Clouds 26 1012 86 10000 1.82 146 11:24 11.07.2022
1084 Clouds 26 1012 86 10000 1.82 146 11:24 11.07.2022
1085 Clouds 26 1011 86 10000 1.59 140 09:58 11.07.2022
1086 Clouds 26 1011 86 10000 1.59 140 09:35 11.07.2022
1087 Clouds 27 1011 84 10000 1.11 120 08:32 11.07.2022
1088 Clouds 30 1013 63 10000 1.77 89 01:20 11.07.2022
1089 Clouds 28 1013 70 10000 1.99 107 23:54 10.07.2022
1090 Clouds 26 1013 75 10000 1.99 131 22:45 10.07.2022
1091 Clouds 25 1012 82 10000 2.06 142 20:56 10.07.2022
1092 Clouds 25 1012 82 10000 2.06 142 20:36 10.07.2022
1093 Clouds 24 1011 83 10000 2.32 138 19:30 10.07.2022
1094 Clouds 24 1011 83 10000 2.32 138 19:30 10.07.2022
1095 Clouds 25 1011 85 10000 2.2 141 18:25 10.07.2022
1096 Clouds 25 1011 85 10000 2.2 141 17:33 10.07.2022
1097 Clouds 25 1012 86 10000 1.85 144 16:21 10.07.2022
1098 Clouds 25 1012 87 10000 1.62 144 14:47 10.07.2022
1099 Clouds 25 1012 87 10000 1.28 147 13:30 10.07.2022
1100 Clouds 26 1012 86 10000 0.77 111 11:44 10.07.2022
1101 Clouds 26 1011 83 10000 0.41 37 09:45 10.07.2022
1102 Clouds 27 1010 79 10000 0.84 15 08:43 10.07.2022
1103 Clouds 29 1009 69 10000 2.17 48 07:19 10.07.2022
1104 Clouds 28 1013 65 10000 1.94 108 23:50 09.07.2022
1105 Clouds 24 1012 78 10000 2.2 145 22:26 09.07.2022
1106 Clouds 24 1012 78 10000 2.2 145 22:26 09.07.2022
1107 Clouds 24 1012 78 10000 2.2 145 21:41 09.07.2022
1108 Clouds 24 1011 79 10000 2.06 140 19:50 09.07.2022
1109 Clouds 24 1010 83 10000 2.19 133 18:28 09.07.2022
1110 Clouds 24 1010 83 10000 2.19 133 17:32 09.07.2022
1111 Clouds 25 1011 83 10000 2.31 136 16:34 09.07.2022
1112 Clouds 25 1011 82 10000 2.25 138 15:39 09.07.2022
1113 Clouds 25 1012 80 10000 2.25 126 14:23 09.07.2022
1114 Clouds 25 1012 80 10000 2.25 126 13:48 09.07.2022
1115 Clouds 26 1012 78 10000 3.12 116 11:54 09.07.2022
1116 Clouds 26 1011 77 10000 3.37 119 10:27 09.07.2022
1117 Clouds 26 1011 77 10000 3.37 119 09:56 09.07.2022
1118 Clouds 29 1009 60 10000 3.33 87 07:44 09.07.2022
1119 Clouds 31 1008 47 10000 4.16 75 04:45 09.07.2022
1120 Clouds 28 1012 62 10000 3.73 104 23:43 08.07.2022
1121 Clouds 26 1012 71 10000 3.17 115 22:34 08.07.2022
1122 Clouds 24 1011 80 10000 3.09 129 21:27 08.07.2022
1123 Clouds 24 1011 80 10000 3.09 129 20:38 08.07.2022
1124 Clouds 25 1011 81 10000 3.17 127 19:38 08.07.2022
1125 Clouds 25 1010 83 10000 2.61 129 17:50 08.07.2022
1126 Clouds 25 1011 84 10000 2.24 136 16:29 08.07.2022
1127 Clouds 25 1012 84 10000 2.4 132 14:50 08.07.2022
1128 Clouds 26 1012 86 10000 2.97 130 12:42 08.07.2022
1129 Clouds 26 1011 84 10000 2.86 124 10:47 08.07.2022
1130 Clouds 27 1010 82 10000 2.71 110 09:58 08.07.2022
1131 Clouds 30 1008 68 10000 2.87 65 06:59 08.07.2022
1132 Clouds 30 1008 66 10000 3.13 63 05:37 08.07.2022
1133 Clouds 29 1012 66 10000 3.91 92 00:40 08.07.2022
1134 Clouds 27 1012 78 10000 3.11 112 22:50 07.07.2022
1135 Clouds 25 1011 83 10000 3.27 116 21:46 07.07.2022
1136 Clouds 25 1010 84 10000 3.44 117 19:34 07.07.2022
1137 Clouds 25 1010 85 10000 2.97 125 17:43 07.07.2022
1138 Clouds 25 1011 86 10000 2.95 121 15:58 07.07.2022
1139 Clouds 25 1011 84 10000 3.43 116 13:33 07.07.2022
1140 Clouds 26 1012 83 10000 3.6 117 12:40 07.07.2022
1141 Clouds 26 1012 84 10000 3.63 113 12:21 07.07.2022
1142 Clouds 26 1012 84 10000 3.63 113 11:32 07.07.2022
1143 Clouds 26 1011 85 10000 3.69 112 10:45 07.07.2022
1144 Clouds 26 1011 84 10000 3.79 109 10:26 07.07.2022
1145 Clouds 29 1010 71 10000 3.95 87 08:21 07.07.2022
1146 Clouds 31 1009 64 10000 4.22 76 05:23 07.07.2022
1147 Clouds 27 1013 74 10000 2.73 122 23:37 06.07.2022
1148 Clouds 26 1013 76 10000 2.46 128 23:19 06.07.2022
1149 Clouds 26 1013 76 10000 2.46 128 22:57 06.07.2022
1150 Clouds 26 1013 76 10000 2.46 128 22:39 06.07.2022
1151 Clouds 25 1012 71 10000 2.6 132 21:59 06.07.2022
1152 Clouds 25 1011 70 10000 2.13 150 19:41 06.07.2022
1153 Clouds 25 1010 71 10000 2.08 156 18:32 06.07.2022
1154 Clouds 25 1011 76 10000 2.02 162 16:43 06.07.2022
1155 Clouds 25 1012 79 10000 2.47 145 15:28 06.07.2022
1156 Clouds 25 1012 78 10000 3.1 126 12:43 06.07.2022
1157 Clouds 26 1012 80 10000 3.5 120 11:49 06.07.2022
1158 Clouds 26 1011 79 10000 3.42 118 10:20 06.07.2022
1159 Clouds 30 1010 63 10000 2.91 88 08:26 06.07.2022
1160 Clouds 30 1009 57 10000 3.64 84 07:23 06.07.2022
1161 Clouds 31 1010 58 10000 4.28 78 05:28 06.07.2022
1162 Clouds 26 1012 76 10000 3.46 116 22:48 05.07.2022
1163 Clouds 25 1012 84 10000 3.68 120 21:53 05.07.2022
1164 Clouds 25 1011 86 10000 3.83 117 20:39 05.07.2022
1165 Clouds 26 1011 87 10000 4.08 109 19:43 05.07.2022
1166 Clouds 25 1010 87 10000 4.22 104 19:22 05.07.2022
1167 Clouds 25 1010 87 10000 4.11 109 17:47 05.07.2022
1168 Clouds 26 1010 87 10000 3.84 115 16:54 05.07.2022
1169 Clouds 26 1011 85 10000 3.31 109 15:25 05.07.2022
1170 Clouds 26 1011 84 10000 3.37 114 13:59 05.07.2022
1171 Rain 26 1011 82 10000 3.49 123 12:42 05.07.2022
1172 Clouds 26 1011 83 10000 3.22 120 11:33 05.07.2022
1173 Clouds 27 1010 83 10000 2.98 115 10:40 05.07.2022
1174 Clouds 28 1009 80 10000 2.32 88 09:22 05.07.2022
1175 Clouds 29 1008 71 10000 2.9 83 07:45 05.07.2022
1176 Clouds 31 1008 62 10000 3.22 57 04:49 05.07.2022
1177 Clouds 31 1009 61 10000 3.42 62 04:21 05.07.2022
1178 Clouds 29 1011 70 10000 3.74 98 23:45 04.07.2022
1179 Clouds 27 1011 78 10000 3.17 108 23:25 04.07.2022
1180 Clouds 26 1010 85 10000 3.17 115 22:21 04.07.2022
1181 Clouds 25 1010 85 10000 3.19 116 21:20 04.07.2022
1182 Clouds 25 1010 85 10000 3.19 116 20:52 04.07.2022
1183 Clouds 25 1010 85 10000 3.19 116 20:33 04.07.2022
1184 Clouds 25 1009 84 10000 3.36 120 19:51 04.07.2022
1185 Clouds 25 1009 86 10000 3.42 118 19:33 04.07.2022
1186 Clouds 26 1008 85 10000 3.57 124 17:42 04.07.2022
1187 Clouds 26 1009 87 10000 3.94 122 15:44 04.07.2022
1188 Clouds 26 1009 88 10000 4.02 120 14:42 04.07.2022
1189 Clouds 26 1009 87 10000 4.54 116 13:27 04.07.2022
1190 Clouds 26 1009 86 10000 4.47 118 11:43 04.07.2022
1191 Clouds 26 1008 86 10000 4.39 117 10:33 04.07.2022
1192 Clouds 26 1008 85 10000 4.34 113 09:36 04.07.2022
1193 Clear 30 1006 66 10000 5.27 94 06:50 04.07.2022
1194 Clear 31 1008 57 10000 5.4 85 03:23 04.07.2022
1195 Clear 29 1011 72 10000 4.86 102 00:27 04.07.2022
1196 Clear 27 1010 78 10000 4.03 112 22:55 03.07.2022
1197 Clear 25 1009 86 10000 3.88 118 20:47 03.07.2022
1198 Clouds 25 1008 85 10000 3.77 117 20:20 03.07.2022
1199 Clouds 25 1008 85 10000 4.07 116 19:25 03.07.2022
1200 Clouds 25 1008 85 10000 4.07 116 18:31 03.07.2022
1201 Clouds 25 1008 86 10000 3.86 119 17:42 03.07.2022
1202 Clouds 25 1010 86 10000 3.76 121 15:28 03.07.2022
1203 Clouds 25 1010 86 10000 3.76 121 14:54 03.07.2022
1204 Clouds 25 1010 86 10000 3.71 119 13:50 03.07.2022
1205 Clouds 26 1010 86 10000 3.72 118 12:49 03.07.2022
1206 Clouds 26 1010 85 10000 3.28 117 12:19 03.07.2022
1207 Clouds 26 1009 85 10000 3.67 116 10:54 03.07.2022
1208 Clouds 26 1009 85 10000 3.67 116 10:35 03.07.2022
1209 Clouds 30 1007 64 10000 3.54 90 07:38 03.07.2022
1210 Clouds 31 1006 56 10000 3.76 91 06:52 03.07.2022
1211 Clear 30 1011 62 10000 3.34 102 00:39 03.07.2022
1212 Clear 29 1011 68 10000 3.5 112 23:37 02.07.2022
1213 Clear 27 1010 73 10000 3.3 117 22:31 02.07.2022
1214 Clouds 25 1009 77 10000 3.13 130 20:28 02.07.2022
1215 Clouds 25 1009 77 10000 3.13 130 19:49 02.07.2022
1216 Clouds 25 1009 78 10000 2.94 134 18:36 02.07.2022
1217 Clouds 25 1009 81 10000 3.05 134 17:39 02.07.2022
1218 Clear 25 1009 81 10000 3.37 127 16:30 02.07.2022
1219 Clear 26 1010 85 10000 3.57 117 13:40 02.07.2022
1220 Clear 26 1010 88 10000 4.04 113 11:49 02.07.2022
1221 Clear 26 1010 87 10000 4.5 111 10:51 02.07.2022
1222 Clear 26 1009 84 10000 4.45 105 10:21 02.07.2022
1223 Clear 27 1008 76 10000 4.76 99 08:37 02.07.2022
1224 Clear 29 1008 63 10000 4.91 94 08:19 02.07.2022
1225 Clear 31 1010 50 10000 5.74 89 02:59 02.07.2022
1226 Clear 29 1012 67 10000 4.95 102 00:28 02.07.2022
1227 Clear 27 1012 75 10000 4.01 110 23:21 01.07.2022
1228 Clear 25 1011 82 10000 3.84 119 22:29 01.07.2022
1229 Clear 25 1011 82 10000 3.84 119 21:37 01.07.2022
1230 Clear 25 1010 83 10000 3.71 117 20:58 01.07.2022
1231 Clear 25 1010 83 10000 3.71 117 20:32 01.07.2022
1232 Clouds 25 1010 80 10000 3.49 121 19:36 01.07.2022
1233 Clouds 25 1010 82 10000 3.8 123 16:42 01.07.2022
1234 Clouds 25 1012 84 10000 3.9 120 14:31 01.07.2022
1235 Clear 26 1012 84 10000 4 117 13:39 01.07.2022
1236 Clear 26 1011 85 10000 4.57 113 10:54 01.07.2022
1237 Clear 27 1010 83 10000 4.44 109 10:19 01.07.2022
1238 Clouds 31 1008 60 10000 4.95 90 06:31 01.07.2022
1239 Clouds 31 1010 61 10000 6.16 93 02:43 01.07.2022
1240 Clouds 29 1012 70 10000 5.15 103 23:44 30.06.2022
1241 Clouds 27 1012 80 10000 4.48 109 22:50 30.06.2022
1242 Clouds 27 1012 80 10000 4.48 109 22:31 30.06.2022
1243 Clouds 25 1012 86 10000 4.33 110 21:53 30.06.2022
1244 Clouds 25 1011 87 10000 4.47 109 20:49 30.06.2022
1245 Clouds 25 1011 87 10000 4.49 109 20:20 30.06.2022
1246 Clouds 25 1010 86 10000 4.42 111 19:47 30.06.2022
1247 Clouds 25 1010 86 10000 4.28 113 18:54 30.06.2022
1248 Clouds 25 1010 86 10000 4.33 114 17:56 30.06.2022
1249 Clouds 25 1011 87 10000 4.22 116 17:18 30.06.2022
1250 Clouds 25 1011 87 10000 4.44 115 16:18 30.06.2022
1251 Clouds 26 1012 87 10000 4.55 111 13:59 30.06.2022
1252 Clouds 26 1012 87 10000 4.69 112 13:20 30.06.2022
1253 Clouds 26 1012 87 10000 4.69 112 12:33 30.06.2022
1254 Clouds 26 1011 87 10000 4.65 110 10:57 30.06.2022
1255 Clouds 27 1010 85 10000 4.54 107 09:51 30.06.2022
1256 Clouds 28 1009 81 10000 4.75 101 09:23 30.06.2022
1257 Clouds 30 1008 73 10000 4.33 92 07:41 30.06.2022
1258 Clouds 31 1008 63 10000 5.14 91 05:45 30.06.2022
1259 Clear 29 1012 74 10000 4.07 105 23:56 29.06.2022
1260 Clear 27 1012 81 10000 3.59 116 22:42 29.06.2022
1261 Clear 25 1011 86 10000 3.43 123 22:20 29.06.2022
1262 Clear 25 1010 86 10000 3.23 125 20:54 29.06.2022
1263 Clear 25 1010 86 10000 3.23 125 20:32 29.06.2022
1264 Clear 25 1010 85 10000 3.25 127 19:31 29.06.2022
1265 Clear 25 1010 86 10000 3.36 125 17:39 29.06.2022
1266 Clear 25 1010 87 10000 3.32 122 16:24 29.06.2022
1267 Clouds 26 1011 88 10000 3.21 124 13:52 29.06.2022
1268 Clouds 26 1011 88 10000 3.41 122 12:38 29.06.2022
1269 Clouds 27 1010 86 10000 4.38 108 10:18 29.06.2022
1270 Clouds 28 1009 82 10000 4.53 98 09:27 29.06.2022
1271 Clouds 30 1008 69 10000 4.5 84 06:32 29.06.2022
1272 Clouds 31 1008 60 10000 4.72 76 04:46 29.06.2022
1273 Clouds 29 1011 64 10000 2.96 100 00:54 29.06.2022
1274 Clouds 29 1011 64 10000 2.96 100 00:35 29.06.2022
1275 Clouds 26 1011 79 10000 2.47 130 22:52 28.06.2022
1276 Clouds 24 1011 85 10000 2.54 142 22:18 28.06.2022
1277 Clouds 24 1011 85 10000 2.54 142 21:49 28.06.2022
1278 Clouds 24 1010 85 10000 2.29 142 21:29 28.06.2022
1279 Clouds 24 1010 87 10000 2.38 139 19:56 28.06.2022
1280 Clouds 24 1010 87 10000 2.38 139 19:31 28.06.2022
1281 Clouds 24 1010 87 10000 2.36 134 18:40 28.06.2022
1282 Clouds 25 1010 88 10000 2.34 138 17:25 28.06.2022
1283 Clouds 25 1011 89 10000 2.51 142 15:55 28.06.2022
1284 Clouds 25 1011 89 10000 2.55 142 14:52 28.06.2022
1285 Clouds 25 1011 89 10000 2.49 134 14:19 28.06.2022
1286 Clouds 25 1011 88 10000 2.22 132 13:45 28.06.2022
1287 Clouds 25 1012 88 10000 1.92 138 12:30 28.06.2022
1288 Clouds 26 1011 90 10000 2.32 107 10:23 28.06.2022
1289 Clouds 26 1010 89 10000 2.23 95 08:55 28.06.2022
1290 Rain 26 1010 89 10000 2.23 95 08:33 28.06.2022
1291 Rain 26 1009 90 10000 2.44 135 07:20 28.06.2022
1292 Clouds 26 1010 89 8085 2.25 99 03:39 28.06.2022
1293 Rain 26 1012 85 10000 1.6 134 23:51 27.06.2022
1294 Rain 25 1011 85 10000 1.71 149 23:26 27.06.2022
1295 Clouds 25 1010 86 10000 2.27 142 21:53 27.06.2022
1296 Clouds 25 1010 86 10000 2.61 140 21:22 27.06.2022
1297 Clouds 25 1009 87 10000 2.87 125 20:21 27.06.2022
1298 Clouds 25 1008 87 10000 2.83 132 18:50 27.06.2022
1299 Rain 25 1008 89 10000 2.98 132 17:33 27.06.2022
1300 Clouds 26 1009 86 8932 2.94 117 15:44 27.06.2022
1301 Clouds 26 1010 81 10000 2.68 120 14:18 27.06.2022
1302 Rain 26 1011 82 10000 3.17 122 12:58 27.06.2022
1303 Rain 26 1011 82 10000 3.51 113 11:30 27.06.2022
1304 Rain 27 1010 82 10000 3.42 109 09:45 27.06.2022
1305 Rain 27 1009 81 10000 3.51 101 08:40 27.06.2022
1306 Rain 28 1009 77 10000 3.16 81 07:39 27.06.2022
1307 Rain 30 1009 64 10000 3.71 73 05:22 27.06.2022
1308 Rain 29 1012 70 10000 4.56 96 01:22 27.06.2022
1309 Clouds 27 1012 81 10000 3.83 108 22:58 26.06.2022
1310 Clouds 25 1012 86 10000 3.88 113 21:37 26.06.2022
1311 Clouds 25 1011 85 10000 4.02 114 20:28 26.06.2022
1312 Clouds 25 1010 84 10000 4 115 18:33 26.06.2022
1313 Clouds 25 1010 84 10000 3.97 117 17:38 26.06.2022
1314 Clouds 25 1011 84 10000 4.16 114 15:36 26.06.2022
1315 Clouds 26 1011 85 10000 4.57 115 13:59 26.06.2022
1316 Clouds 26 1011 85 10000 4.71 115 13:23 26.06.2022
1317 Clouds 26 1011 86 10000 4.75 114 11:39 26.06.2022
1318 Clouds 26 1011 87 10000 4.79 112 10:30 26.06.2022
1319 Clouds 27 1010 85 10000 4.68 106 09:45 26.06.2022
1320 Clouds 29 1009 74 10000 4.91 93 07:47 26.06.2022
1321 Clouds 31 1009 63 10000 5.82 93 04:29 26.06.2022
1322 Clouds 29 1012 70 10000 5.52 98 00:36 26.06.2022
1323 Clouds 28 1012 75 10000 4.95 100 00:18 26.06.2022
1324 Clouds 27 1012 82 10000 4.04 113 23:24 25.06.2022
1325 Clouds 25 1012 88 10000 4.07 119 22:28 25.06.2022
1326 Clouds 25 1012 88 10000 4.07 119 21:50 25.06.2022
1327 Clouds 25 1011 88 10000 4.22 115 21:20 25.06.2022
1328 Clouds 25 1011 88 10000 4.22 115 20:30 25.06.2022
1329 Clouds 25 1011 86 10000 3.7 121 19:55 25.06.2022
1330 Clouds 25 1010 87 10000 3.68 121 18:21 25.06.2022
1331 Clouds 25 1011 87 10000 3.65 122 17:25 25.06.2022
1332 Clouds 25 1011 88 10000 3.68 122 16:24 25.06.2022
1333 Clouds 25 1012 88 10000 3.6 117 13:51 25.06.2022
1334 Clouds 26 1012 88 10000 3.61 119 12:39 25.06.2022
1335 Clouds 26 1012 88 10000 3.58 118 10:58 25.06.2022
1336 Clouds 27 1010 85 10000 3.65 105 09:22 25.06.2022
1337 Clouds 27 1010 85 10000 3.65 105 08:46 25.06.2022
1338 Clouds 27 1010 85 10000 3.65 105 08:46 25.06.2022
1339 Clouds 29 1010 77 10000 3.56 93 08:19 25.06.2022
1340 Clouds 30 1009 64 10000 3.91 81 05:23 25.06.2022
1341 Clouds 29 1012 69 10000 3.69 96 00:43 25.06.2022
1342 Clouds 26 1012 77 10000 3.22 119 22:56 24.06.2022
1343 Clouds 25 1012 83 10000 3.39 128 21:44 24.06.2022
1344 Clouds 25 1011 83 10000 2.88 128 20:57 24.06.2022
1345 Clouds 25 1011 83 10000 2.7 131 20:19 24.06.2022
1346 Clouds 25 1010 82 10000 2.48 142 19:22 24.06.2022
1347 Clouds 25 1010 82 10000 2.48 142 18:49 24.06.2022
1348 Clouds 25 1010 82 10000 2.48 142 18:30 24.06.2022
1349 Clouds 25 1011 83 10000 2.43 133 17:21 24.06.2022
1350 Clouds 25 1011 83 10000 2.45 119 15:47 24.06.2022
1351 Clouds 26 1012 82 10000 2.98 120 14:28 24.06.2022
1352 Clouds 26 1012 82 10000 2.98 120 13:55 24.06.2022
1353 Clouds 26 1012 84 10000 3.26 123 11:44 24.06.2022
1354 Clouds 26 1011 84 10000 3.25 117 11:18 24.06.2022
1355 Clouds 26 1011 84 10000 3.19 112 09:55 24.06.2022
1356 Clouds 27 1010 81 10000 3.07 98 09:29 24.06.2022
1357 Rain 27 1010 81 10000 3.07 98 08:52 24.06.2022
1358 Rain 29 1009 67 10000 3.69 76 06:48 24.06.2022
1359 Clouds 29 1009 67 10000 3.69 76 06:30 24.06.2022
1360 Clouds 30 1009 66 10000 3.89 75 05:52 24.06.2022
1361 Clouds 29 1013 69 10000 3.61 93 01:28 24.06.2022
1362 Rain 26 1013 79 10000 2.9 118 22:44 23.06.2022
1363 Clouds 25 1012 83 10000 2.88 130 21:54 23.06.2022
1364 Clouds 24 1012 84 10000 2.52 134 20:54 23.06.2022
1365 Clouds 24 1012 84 10000 2.52 134 20:32 23.06.2022
1366 Clouds 24 1011 84 10000 2.02 131 18:44 23.06.2022
1367 Clouds 25 1010 84 10000 2.23 125 17:45 23.06.2022
1368 Clouds 25 1011 85 10000 2.34 118 16:36 23.06.2022
1369 Clouds 25 1012 87 10000 3 128 15:29 23.06.2022
1370 Clouds 25 1012 87 10000 3 128 14:59 23.06.2022
1371 Clouds 26 1012 87 10000 2.55 127 12:39 23.06.2022
1372 Clouds 26 1012 86 10000 1.71 107 11:19 23.06.2022
1373 Clouds 27 1011 84 10000 1 74 09:20 23.06.2022
1374 Clouds 30 1009 67 10000 2.09 23 05:51 23.06.2022
1375 Clouds 29 1013 69 10000 1.84 76 01:22 23.06.2022
1376 Clouds 28 1013 75 10000 1.88 86 00:25 23.06.2022
1377 Clouds 27 1013 80 10000 1.61 105 23:22 22.06.2022
1378 Clouds 25 1012 84 10000 1.68 123 21:44 22.06.2022
1379 Clouds 25 1012 84 10000 1.77 120 20:52 22.06.2022
1380 Clouds 25 1011 84 10000 2.1 128 20:20 22.06.2022
1381 Clouds 25 1011 85 10000 1.88 121 19:44 22.06.2022
1382 Clouds 25 1011 85 10000 2.26 128 17:50 22.06.2022
1383 Clouds 25 1011 86 10000 2.52 126 16:50 22.06.2022
1384 Clear 25 1012 86 10000 2.5 128 15:29 22.06.2022
1385 Clear 25 1012 86 10000 2.5 128 14:57 22.06.2022
1386 Rain 25 1012 87 10000 2.71 132 13:49 22.06.2022
1387 Clouds 26 1013 87 10000 2.63 133 13:24 22.06.2022
1388 Rain 26 1013 87 10000 2.63 133 12:31 22.06.2022
1389 Rain 26 1012 87 10000 2.42 131 11:45 22.06.2022
1390 Rain 26 1012 87 10000 2.42 131 11:45 22.06.2022
1391 Rain 26 1012 87 10000 2.13 118 10:47 22.06.2022
1392 Clouds 26 1011 86 10000 1.78 100 09:40 22.06.2022
1393 Clouds 29 1009 78 10000 1.62 62 06:55 22.06.2022
1394 Clouds 30 1012 66 10000 2.77 83 02:26 22.06.2022
1395 Clouds 29 1012 71 10000 2.53 98 00:57 22.06.2022
1396 Clouds 26 1012 83 10000 2.23 123 22:53 21.06.2022
1397 Clouds 25 1011 87 10000 2.29 127 20:58 21.06.2022
1398 Clouds 25 1010 87 10000 2.12 136 19:23 21.06.2022
1399 Clouds 25 1010 87 10000 2.17 136 17:54 21.06.2022
1400 Clouds 25 1011 88 10000 2.2 139 16:38 21.06.2022
1401 Clouds 26 1011 87 10000 2.72 124 11:57 21.06.2022
1402 Clouds 26 1011 86 10000 2.39 116 10:46 21.06.2022
1403 Clouds 27 1010 85 10000 1.3 101 09:24 21.06.2022
1404 Clouds 27 1009 83 10000 1.08 107 07:44 21.06.2022
1405 Clouds 29 1009 75 10000 1.52 2 04:43 21.06.2022
1406 Clouds 27 1012 79 10000 1.7 113 00:21 21.06.2022
1407 Clouds 25 1011 87 10000 1.87 141 22:21 20.06.2022
1408 Clouds 25 1011 87 10000 1.87 141 21:36 20.06.2022
1409 Clouds 24 1010 87 10000 1.82 144 20:28 20.06.2022
1410 Clouds 24 1010 86 10000 2.02 136 19:35 20.06.2022
1411 Clouds 25 1009 87 10000 2.05 132 18:25 20.06.2022
1412 Clouds 25 1009 87 10000 2.05 132 17:45 20.06.2022
1413 Clouds 25 1010 88 10000 1.76 146 16:24 20.06.2022
1414 Clouds 25 1010 89 10000 1.85 153 14:41 20.06.2022
1415 Clouds 26 1010 87 10000 1.34 132 12:18 20.06.2022
1416 Clouds 26 1009 85 10000 0.9 109 09:57 20.06.2022
1417 Clouds 26 1008 84 10000 0.83 86 08:46 20.06.2022
1418 Clouds 28 1008 82 10000 0.95 66 07:36 20.06.2022
1419 Clouds 28 1007 78 10000 1.06 61 04:56 20.06.2022
1420 Clouds 29 1010 71 10000 1.71 75 01:32 20.06.2022
1421 Clouds 27 1011 77 10000 1.25 109 23:48 19.06.2022
1422 Clouds 25 1010 87 10000 1.73 141 22:20 19.06.2022
1423 Clouds 25 1010 87 10000 1.73 141 21:42 19.06.2022
1424 Clouds 25 1009 87 10000 1.6 152 20:52 19.06.2022
1425 Clouds 25 1009 88 10000 1.55 153 19:49 19.06.2022
1426 Clouds 25 1009 88 10000 1.55 153 19:49 19.06.2022
1427 Clouds 25 1009 87 10000 1.32 147 19:25 19.06.2022
1428 Clouds 25 1009 87 10000 1.32 147 18:32 19.06.2022
1429 Clouds 25 1009 87 10000 1.22 152 17:43 19.06.2022
1430 Clouds 25 1009 88 10000 1.13 158 17:20 19.06.2022
1431 Clear 25 1010 88 10000 1.27 162 16:28 19.06.2022
1432 Clear 25 1010 88 10000 1.27 162 15:35 19.06.2022
1433 Clear 25 1010 88 10000 1.63 165 14:42 19.06.2022
1434 Clear 25 1010 88 10000 1.65 159 13:52 19.06.2022
1435 Clear 26 1010 87 10000 1.65 158 12:22 19.06.2022
1436 Clouds 26 1010 86 10000 1.44 151 10:53 19.06.2022
1437 Clouds 27 1009 83 10000 0.53 100 09:21 19.06.2022
1438 Clouds 26 1009 84 10000 0.95 102 08:32 19.06.2022
1439 Clouds 28 1008 80 9555 0.66 69 07:26 19.06.2022
1440 Clouds 28 1008 80 9555 0.66 69 07:26 19.06.2022
1441 Rain 30 1009 67 10000 1.98 38 03:57 19.06.2022
1442 Clouds 29 1012 69 10000 2.16 93 00:51 19.06.2022
1443 Clouds 27 1012 77 10000 2.26 111 00:22 19.06.2022
1444 Clouds 27 1012 77 10000 2.26 111 23:35 18.06.2022
1445 Clouds 26 1012 83 10000 2.31 121 22:30 18.06.2022
1446 Clouds 25 1010 84 10000 2.19 109 20:54 18.06.2022
1447 Clouds 25 1010 83 10000 2.04 121 20:18 18.06.2022
1448 Clouds 25 1009 85 10000 2.15 116 18:57 18.06.2022
1449 Clouds 25 1009 85 10000 2.15 116 18:57 18.06.2022
1450 Clouds 25 1009 85 10000 2.15 116 18:38 18.06.2022
1451 Clouds 26 1010 87 10000 2 116 17:29 18.06.2022
1452 Clouds 26 1010 86 10000 1.96 96 16:18 18.06.2022
1453 Rain 26 1011 87 10000 1.55 93 14:58 18.06.2022
1454 Rain 26 1011 87 10000 1.55 93 14:37 18.06.2022
1455 Rain 26 1012 86 10000 1.72 108 12:31 18.06.2022
1456 Rain 26 1011 85 10000 1.63 106 11:25 18.06.2022
1457 Clouds 27 1011 84 10000 1.66 101 09:46 18.06.2022
1458 Rain 27 1010 83 10000 1.43 117 08:59 18.06.2022
1459 Clouds 27 1010 82 10000 1.09 74 07:34 18.06.2022
1460 Clouds 27 1010 82 10000 1.09 74 07:34 18.06.2022
1461 Rain 28 1009 77 10000 1.17 16 05:58 18.06.2022
1462 Clouds 30 1011 66 10000 2.23 12 02:51 18.06.2022
1463 Rain 29 1012 70 10000 2.71 79 01:21 18.06.2022
1464 Clouds 29 1012 70 10000 2.71 79 00:32 18.06.2022
1465 Clouds 28 1013 74 10000 2.59 91 23:40 17.06.2022
1466 Rain 27 1012 78 10000 2.59 108 22:33 17.06.2022
1467 Rain 25 1011 81 10000 1.71 120 20:29 17.06.2022
1468 Rain 25 1010 82 10000 1.99 129 19:24 17.06.2022
1469 Rain 25 1010 82 10000 2.08 130 17:58 17.06.2022
1470 Rain 25 1011 82 10000 2.35 130 16:50 17.06.2022
1471 Rain 26 1011 82 10000 2.59 125 16:25 17.06.2022
1472 Clouds 26 1011 82 10000 2.59 125 15:40 17.06.2022
1473 Clouds 26 1012 83 10000 2.82 122 14:23 17.06.2022
1474 Clouds 26 1012 84 10000 2.85 126 13:58 17.06.2022
1475 Clouds 26 1012 84 10000 2.85 126 13:38 17.06.2022
1476 Clouds 26 1012 85 10000 2.83 126 12:28 17.06.2022
1477 Clouds 26 1012 85 10000 2.83 126 11:55 17.06.2022
1478 Clouds 26 1012 85 10000 2.83 126 11:33 17.06.2022
1479 Clouds 26 1011 85 10000 2.97 120 09:36 17.06.2022
1480 Clouds 29 1009 72 10000 3.32 83 08:26 17.06.2022
1481 Clouds 30 1008 65 10000 3.83 74 06:45 17.06.2022
1482 Clear 31 1010 62 10000 4.19 79 03:59 17.06.2022
1483 Clouds 30 1012 63 10000 4.38 89 01:56 17.06.2022
1484 Clouds 28 1013 73 10000 3.49 95 23:47 16.06.2022
1485 Clouds 26 1012 79 10000 2.89 106 22:42 16.06.2022
1486 Clouds 25 1011 83 10000 3.1 124 21:22 16.06.2022
1487 Clouds 25 1011 83 10000 3.1 124 20:52 16.06.2022
1488 Clouds 25 1011 83 10000 3.1 124 20:33 16.06.2022
1489 Clouds 25 1011 83 10000 3.03 118 19:32 16.06.2022
1490 Clouds 25 1010 84 10000 3.08 121 18:24 16.06.2022
1491 Clouds 25 1010 84 10000 3.08 121 17:35 16.06.2022
1492 Clouds 25 1011 83 10000 3.13 120 16:30 16.06.2022
1493 Clouds 25 1012 83 10000 2.88 122 15:21 16.06.2022
1494 Clouds 25 1012 83 10000 2.81 125 14:28 16.06.2022
1495 Clouds 26 1012 83 10000 3.06 119 12:59 16.06.2022
1496 Clouds 26 1012 83 10000 3.06 119 12:35 16.06.2022
1497 Clouds 26 1012 83 10000 3.3 120 11:49 16.06.2022
1498 Clouds 26 1012 83 10000 3.52 121 10:51 16.06.2022
1499 Clouds 26 1011 83 10000 3.43 115 09:43 16.06.2022
1500 Clouds 27 1010 81 10000 3.33 100 09:20 16.06.2022
1501 Clouds 28 1010 79 10000 3.11 82 07:57 16.06.2022
1502 Clouds 29 1009 70 10000 3.69 69 06:51 16.06.2022
1503 Clouds 31 1011 63 10000 3.86 74 04:28 16.06.2022
1504 Clouds 30 1012 66 10000 3.86 80 01:53 16.06.2022
1505 Clouds 30 1012 66 10000 3.86 80 01:32 16.06.2022
1506 Clouds 29 1013 71 10000 3.39 91 00:31 16.06.2022
1507 Clouds 27 1013 83 10000 2.55 113 22:59 15.06.2022
1508 Clouds 25 1012 87 10000 2.66 117 21:55 15.06.2022
1509 Clouds 25 1012 87 10000 2.91 120 21:20 15.06.2022
1510 Clouds 25 1012 87 10000 2.91 120 20:37 15.06.2022
1511 Clouds 25 1011 87 10000 3.05 119 20:18 15.06.2022
1512 Clouds 25 1011 88 10000 3.16 121 18:48 15.06.2022
1513 Clouds 25 1011 88 10000 3.34 124 17:54 15.06.2022
1514 Clouds 25 1011 87 10000 3.43 124 16:37 15.06.2022
1515 Clouds 26 1012 87 10000 3.48 118 15:23 15.06.2022
1516 Clouds 26 1012 87 10000 2.94 126 13:37 15.06.2022
1517 Clouds 26 1013 88 10000 3.09 128 12:51 15.06.2022
1518 Clouds 26 1012 88 10000 3.08 120 11:37 15.06.2022
1519 Rain 27 1011 86 10000 3.85 106 10:22 15.06.2022
1520 Clouds 27 1011 86 10000 3.85 106 09:34 15.06.2022
1521 Clouds 28 1010 78 10000 4.25 91 07:58 15.06.2022
1522 Clouds 30 1009 70 10000 3.88 79 05:58 15.06.2022
1523 Clouds 31 1012 64 10000 4.47 84 02:56 15.06.2022
1524 Clouds 30 1013 67 10000 4.29 89 01:37 15.06.2022
1525 Clouds 29 1014 71 10000 4.13 95 00:37 15.06.2022
1526 Clouds 28 1014 78 10000 4.12 102 23:38 14.06.2022
1527 Clouds 27 1013 83 10000 3.93 110 22:48 14.06.2022
1528 Clouds 25 1013 86 10000 3.87 116 21:44 14.06.2022
1529 Clouds 25 1012 86 10000 3.65 121 21:21 14.06.2022
1530 Clouds 25 1012 86 10000 3.65 121 20:40 14.06.2022
1531 Clouds 25 1012 87 10000 3.5 123 19:58 14.06.2022
1532 Clouds 25 1012 87 10000 3.43 120 18:45 14.06.2022
1533 Clouds 25 1013 88 10000 3.44 122 17:20 14.06.2022
1534 Clouds 25 1013 88 10000 3.44 122 16:42 14.06.2022
1535 Clouds 25 1013 88 10000 3.44 122 16:42 14.06.2022
1536 Clouds 26 1013 88 10000 3.39 123 15:43 14.06.2022
1537 Clouds 26 1014 88 10000 3.32 123 14:56 14.06.2022
1538 Clouds 26 1014 88 10000 3.54 120 14:18 14.06.2022
1539 Clouds 26 1014 88 10000 3.7 118 13:24 14.06.2022
1540 Clouds 26 1014 88 10000 3.79 118 11:58 14.06.2022
1541 Clouds 26 1013 88 10000 3.64 117 10:55 14.06.2022
1542 Clouds 27 1013 86 10000 3.33 112 10:29 14.06.2022
1543 Rain 27 1012 82 10000 3.12 101 09:22 14.06.2022
1544 Rain 27 1012 82 10000 3.12 101 08:37 14.06.2022
1545 Clouds 29 1011 71 10000 3.27 77 06:32 14.06.2022
1546 Clear 31 1012 64 10000 3.77 74 03:52 14.06.2022
1547 Clouds 30 1013 65 10000 3.69 85 01:37 14.06.2022
1548 Clouds 28 1015 76 10000 2.98 100 00:21 14.06.2022
1549 Clouds 26 1014 81 10000 2.63 112 22:45 13.06.2022
1550 Clouds 25 1014 85 10000 2.62 125 22:22 13.06.2022
1551 Clouds 25 1013 86 10000 2.61 126 21:26 13.06.2022
1552 Clouds 25 1013 86 10000 2.43 134 19:59 13.06.2022
1553 Rain 25 1012 86 10000 2.42 136 18:54 13.06.2022
1554 Rain 25 1012 86 10000 2.36 139 17:56 13.06.2022
1555 Clouds 25 1013 87 10000 2.34 139 17:24 13.06.2022
1556 Clouds 25 1013 87 10000 2.34 139 16:30 13.06.2022
1557 Clouds 25 1014 88 10000 2.15 125 14:49 13.06.2022
1558 Rain 25 1014 88 10000 2.15 125 14:31 13.06.2022
1559 Rain 25 1014 88 10000 2.4 121 13:31 13.06.2022
1560 Clouds 26 1015 88 10000 2.59 129 12:22 13.06.2022
1561 Clouds 26 1014 88 10000 2.53 126 10:37 13.06.2022
1562 Clouds 26 1014 87 10000 2.09 117 09:54 13.06.2022
1563 Clouds 27 1013 85 10000 2 101 08:40 13.06.2022
1564 Clouds 28 1011 77 9219 2.1 73 06:36 13.06.2022
1565 Clear 31 1011 62 10000 2.85 46 04:43 13.06.2022
1566 Clouds 30 1014 60 10000 2.01 75 01:45 13.06.2022
1567 Clouds 29 1014 62 10000 1.76 95 01:18 13.06.2022
1568 Clouds 28 1014 64 10000 1.51 122 23:43 12.06.2022
1569 Clouds 26 1014 70 10000 1.68 145 22:36 12.06.2022
1570 Clear 24 1013 75 10000 1.89 152 21:46 12.06.2022
1571 Clouds 24 1013 76 10000 1.9 162 20:49 12.06.2022
1572 Clouds 24 1012 77 10000 1.79 160 19:58 12.06.2022
1573 Clouds 24 1012 78 10000 1.88 161 18:54 12.06.2022
1574 Clouds 24 1012 80 10000 2.23 146 17:24 12.06.2022
1575 Clouds 25 1012 81 10000 2.46 135 15:45 12.06.2022
1576 Clear 25 1013 81 10000 2.59 136 14:50 12.06.2022
1577 Clouds 25 1013 81 10000 2.4 140 14:18 12.06.2022
1578 Clouds 25 1013 84 10000 2.17 142 13:44 12.06.2022
1579 Clouds 26 1013 82 10000 1.82 142 12:22 12.06.2022
1580 Clouds 26 1013 81 10000 1.47 129 10:46 12.06.2022
1581 Clouds 26 1012 80 10000 1.13 100 09:36 12.06.2022
1582 Clouds 27 1011 77 10000 1.34 59 08:50 12.06.2022
1583 Clouds 29 1010 69 10000 1.9 59 07:51 12.06.2022
1584 Clouds 30 1010 62 10000 2.59 56 06:27 12.06.2022
1585 Clouds 30 1011 62 10000 2.85 58 03:44 12.06.2022
1586 Clouds 30 1013 65 10000 2.36 70 01:49 12.06.2022
1587 Clouds 29 1014 67 10000 2.02 84 01:29 12.06.2022
1588 Clouds 29 1014 67 10000 2.02 84 00:43 12.06.2022
1589 Clouds 28 1014 71 10000 1.68 102 00:18 12.06.2022
1590 Clouds 26 1014 77 10000 1.8 134 22:58 11.06.2022
1591 Clouds 26 1014 77 10000 1.8 134 22:31 11.06.2022
1592 Clear 24 1013 82 10000 1.97 145 21:18 11.06.2022
1593 Clear 24 1013 82 10000 1.97 145 21:18 11.06.2022
1594 Clear 24 1012 83 10000 2.06 145 20:26 11.06.2022
1595 Clear 24 1012 81 10000 1.95 154 19:33 11.06.2022
1596 Clear 24 1012 81 10000 1.95 154 19:33 11.06.2022
1597 Clear 25 1012 82 10000 2.02 156 18:42 11.06.2022
1598 Clear 25 1011 83 10000 1.83 146 18:24 11.06.2022
1599 Clear 25 1011 83 10000 1.83 146 17:38 11.06.2022
1600 Clear 25 1012 84 10000 1.57 145 17:19 11.06.2022
1601 Clear 25 1012 84 10000 1.57 145 16:42 11.06.2022
1602 Clouds 25 1012 85 10000 1.68 156 15:47 11.06.2022
1603 Clouds 26 1012 86 10000 1.74 153 14:23 11.06.2022
1604 Clouds 26 1012 86 10000 1.74 153 13:47 11.06.2022
1605 Clouds 27 1012 83 10000 1.09 129 11:46 11.06.2022
1606 Clouds 27 1012 84 10000 0.97 127 10:30 11.06.2022
1607 Clouds 27 1012 83 10000 0.59 94 09:40 11.06.2022
1608 Clouds 28 1010 76 10000 0.91 2 08:21 11.06.2022
1609 Clouds 29 1009 71 10000 1.26 1 06:32 11.06.2022
1610 Clouds 30 1009 67 10000 1.85 20 05:26 11.06.2022
1611 Clouds 30 1011 66 10000 2.27 35 02:35 11.06.2022
1612 Clear 30 1012 67 10000 2.22 57 01:41 11.06.2022
1613 Clear 29 1012 70 10000 2.06 78 00:37 11.06.2022
1614 Clouds 27 1013 82 10000 1.52 119 22:38 10.06.2022
1615 Clouds 25 1012 87 10000 1.45 127 21:56 10.06.2022
1616 Clear 25 1012 88 10000 1.31 129 20:55 10.06.2022
1617 Clear 25 1012 88 10000 1.31 129 20:36 10.06.2022
1618 Clouds 25 1011 87 10000 1.9 138 20:18 10.06.2022
1619 Clouds 25 1011 88 10000 1.9 142 19:18 10.06.2022
1620 Clouds 25 1011 88 10000 1.9 142 19:18 10.06.2022
1621 Clouds 25 1011 88 10000 1.68 143 18:20 10.06.2022
1622 Clouds 25 1011 88 10000 1.68 143 17:36 10.06.2022
1623 Clouds 25 1011 87 10000 1.41 146 16:58 10.06.2022
1624 Clouds 25 1012 86 10000 1.28 144 15:50 10.06.2022
1625 Clouds 25 1012 86 10000 1.28 144 15:30 10.06.2022
1626 Clouds 26 1012 86 10000 1.25 134 13:49 10.06.2022
1627 Clouds 26 1012 86 10000 1.37 124 12:35 10.06.2022
1628 Clouds 26 1012 86 10000 1.55 120 11:40 10.06.2022
1629 Clouds 26 1011 86 10000 1.41 117 10:40 10.06.2022
1630 Clouds 26 1011 86 10000 1.04 102 09:43 10.06.2022
1631 Clouds 28 1009 78 10000 1.38 35 08:23 10.06.2022
1632 Clouds 28 1009 77 10000 1.54 20 06:52 10.06.2022
1633 Clouds 28 1009 77 10000 1.54 20 06:32 10.06.2022
1634 Clouds 29 1009 74 10000 1.74 22 05:45 10.06.2022
1635 Clouds 30 1011 68 10000 2.19 37 02:55 10.06.2022
1636 Clouds 29 1012 69 10000 1.88 50 01:37 10.06.2022
1637 Clouds 28 1013 76 10000 1.27 75 23:58 09.06.2022
1638 Clouds 27 1012 82 10000 1.28 130 23:25 09.06.2022
1639 Clouds 25 1012 87 10000 1.51 145 21:47 09.06.2022
1640 Clouds 25 1011 88 10000 1.34 147 21:29 09.06.2022
1641 Clouds 25 1011 88 10000 1.34 147 20:47 09.06.2022
1642 Clouds 25 1011 88 10000 1.25 156 19:54 09.06.2022
1643 Clouds 25 1010 88 10000 1.24 175 18:43 09.06.2022
1644 Clouds 25 1010 88 10000 1.25 194 17:56 09.06.2022
1645 Clouds 26 1010 87 10000 1.07 204 16:44 09.06.2022
1646 Clouds 26 1011 87 10000 0.94 221 15:42 09.06.2022
1647 Clouds 26 1011 87 10000 0.99 225 14:34 09.06.2022
1648 Clouds 26 1012 87 10000 1.3 212 13:46 09.06.2022
1649 Clouds 26 1012 87 10000 0.95 247 13:25 09.06.2022
1650 Clouds 26 1012 87 10000 0.74 285 11:53 09.06.2022
1651 Rain 26 1011 87 10000 1.1 290 10:36 09.06.2022
1652 Clouds 26 1010 87 10000 1.41 272 09:40 09.06.2022
1653 Clouds 27 1010 86 10000 1.69 278 09:21 09.06.2022
1654 Clouds 29 1009 75 10000 0.99 343 07:29 09.06.2022
1655 Clouds 29 1010 73 10000 1.23 27 04:47 09.06.2022
1656 Clouds 27 1012 83 10000 1.53 75 01:43 09.06.2022
1657 Clouds 26 1012 86 10000 1.64 116 23:24 08.06.2022
1658 Clouds 26 1012 86 10000 1.64 116 22:45 08.06.2022
1659 Rain 25 1011 87 10000 1.68 117 22:25 08.06.2022
1660 Clouds 25 1011 87 10000 1.68 117 21:45 08.06.2022
1661 Clouds 25 1011 88 10000 1.07 138 20:33 08.06.2022
1662 Rain 25 1010 85 10000 1.19 132 19:46 08.06.2022
1663 Clouds 25 1010 85 10000 1.36 154 18:49 08.06.2022
1664 Rain 25 1010 85 10000 1.15 147 17:48 08.06.2022
1665 Clouds 26 1011 85 10000 1.5 163 16:18 08.06.2022
1666 Clouds 26 1011 85 10000 1.48 162 14:46 08.06.2022
1667 Clouds 26 1012 84 10000 1.61 140 12:55 08.06.2022
1668 Clouds 26 1012 85 10000 1.24 132 11:44 08.06.2022
1669 Clouds 26 1012 85 10000 1.28 119 11:19 08.06.2022
1670 Clouds 26 1011 84 10000 1.34 89 09:45 08.06.2022
1671 Clouds 27 1010 83 10000 1.64 69 09:18 08.06.2022
1672 Clouds 29 1008 71 10000 3.05 65 07:22 08.06.2022
1673 Clouds 30 1009 68 10000 3.37 76 04:49 08.06.2022
1674 Clouds 30 1012 68 10000 4.34 96 01:27 08.06.2022
1675 Clouds 28 1012 74 10000 4.3 103 23:33 07.06.2022
1676 Clouds 27 1012 79 10000 3.99 110 22:58 07.06.2022
1677 Clouds 27 1012 79 10000 3.99 110 22:37 07.06.2022
1678 Clouds 25 1011 84 10000 3.79 115 21:41 07.06.2022
1679 Clouds 25 1011 85 10000 3.62 115 21:20 07.06.2022
1680 Clouds 25 1011 85 10000 3.62 115 20:42 07.06.2022
1681 Rain 25 1010 83 10000 3.46 116 19:57 07.06.2022
1682 Clouds 25 1010 84 10000 2.99 126 18:26 07.06.2022
1683 Clouds 25 1010 84 10000 2.99 126 17:36 07.06.2022
1684 Clouds 25 1010 83 10000 3.1 122 16:47 07.06.2022
1685 Clouds 25 1011 83 10000 2.92 121 16:28 07.06.2022
1686 Clouds 25 1011 83 10000 2.92 121 15:37 07.06.2022
1687 Clouds 25 1011 84 10000 2.84 123 15:18 07.06.2022
1688 Clouds 25 1011 84 10000 2.84 123 14:43 07.06.2022
1689 Clouds 26 1011 86 10000 3.19 121 13:38 07.06.2022
1690 Clouds 26 1012 86 10000 3.32 117 13:20 07.06.2022
1691 Clouds 26 1011 86 10000 3.38 114 11:55 07.06.2022
1692 Clouds 26 1011 86 10000 3.43 115 10:48 07.06.2022
1693 Clouds 27 1009 81 10000 3.82 99 08:58 07.06.2022
1694 Clouds 29 1008 74 10000 4.18 91 07:54 07.06.2022
1695 Clouds 30 1008 68 10000 4.24 82 06:41 07.06.2022
1696 Clouds 31 1009 60 10000 4.31 71 04:42 07.06.2022
1697 Clear 29 1012 65 10000 3.7 98 01:27 07.06.2022
1698 Clear 28 1012 73 10000 3.46 106 23:58 06.06.2022
1699 Clear 26 1012 80 10000 3.08 120 22:54 06.06.2022
1700 Clear 26 1012 80 10000 3.08 120 22:30 06.06.2022
1701 Clear 24 1011 86 10000 2.99 130 20:54 06.06.2022
1702 Clouds 24 1011 86 10000 2.59 135 19:29 06.06.2022
1703 Clouds 24 1011 86 10000 2.59 135 18:49 06.06.2022
1704 Clouds 25 1011 86 10000 2.64 133 18:21 06.06.2022
1705 Clouds 25 1011 86 10000 2.77 131 17:26 06.06.2022
1706 Clouds 25 1012 86 10000 2.94 129 16:18 06.06.2022
1707 Clouds 25 1012 85 10000 3.18 125 15:28 06.06.2022
1708 Clouds 25 1012 84 10000 3.13 122 14:30 06.06.2022
1709 Clouds 25 1012 83 10000 3.31 126 13:22 06.06.2022
1710 Clouds 25 1012 83 10000 3.31 126 12:36 06.06.2022
1711 Clouds 26 1012 83 10000 3.43 125 11:53 06.06.2022
1712 Clouds 26 1011 83 10000 3.23 113 10:21 06.06.2022
1713 Clouds 27 1010 83 10000 3.32 113 09:24 06.06.2022
1714 Clouds 27 1010 83 10000 3.32 113 08:31 06.06.2022
1715 Rain 28 1009 81 10000 3.5 100 07:28 06.06.2022
1716 Clouds 29 1010 75 10000 4.55 91 04:42 06.06.2022
1717 Clouds 28 1012 79 10000 3.1 103 02:27 06.06.2022
1718 Clouds 27 1012 83 10000 2.85 113 00:57 06.06.2022
1719 Clouds 27 1012 83 10000 2.85 113 00:35 06.06.2022
1720 Clouds 26 1012 85 10000 3.66 126 23:28 05.06.2022
1721 Rain 26 1012 85 10000 3.66 126 22:33 05.06.2022
1722 Rain 25 1011 85 10000 3.05 118 20:40 05.06.2022
1723 Rain 25 1010 85 10000 3.42 124 19:26 05.06.2022
1724 Clouds 25 1010 86 10000 3.48 125 18:26 05.06.2022
1725 Clouds 25 1010 86 10000 3.48 125 17:46 05.06.2022
1726 Clouds 26 1011 86 10000 3.54 123 17:22 05.06.2022
1727 Clouds 26 1011 86 10000 3.54 123 16:48 05.06.2022
1728 Clouds 25 1011 87 10000 3.74 122 15:47 05.06.2022
1729 Clouds 25 1012 88 10000 3.93 118 14:21 05.06.2022
1730 Clouds 25 1012 89 10000 3.78 123 12:34 05.06.2022
1731 Clouds 26 1012 89 10000 3.85 119 11:30 05.06.2022
1732 Rain 26 1011 88 10000 4.03 109 10:25 05.06.2022
1733 Rain 26 1011 88 10000 4.03 109 09:58 05.06.2022
1734 Rain 27 1009 85 10000 4.05 102 08:25 05.06.2022
1735 Rain 29 1009 79 10000 4.49 94 06:48 05.06.2022
1736 Rain 30 1009 71 10000 4.82 89 05:20 05.06.2022
1737 Rain 30 1011 69 10000 4.73 88 02:58 05.06.2022
1738 Rain 30 1012 69 10000 4.31 95 01:30 05.06.2022
1739 Clouds 29 1012 74 10000 3.39 112 23:49 04.06.2022
1740 Clouds 26 1011 82 10000 2.91 133 21:39 04.06.2022
1741 Clouds 26 1010 82 10000 2.52 148 19:49 04.06.2022
1742 Clouds 26 1010 84 10000 2.76 138 17:50 04.06.2022
1743 Clouds 26 1011 85 10000 2.53 127 16:22 04.06.2022
1744 Clouds 26 1011 85 10000 2.53 127 15:51 04.06.2022
1745 Clouds 26 1012 85 10000 3.1 122 14:22 04.06.2022
1746 Clouds 27 1012 85 10000 3.36 115 11:45 04.06.2022
1747 Rain 27 1012 85 10000 3.42 118 10:55 04.06.2022
1748 Clouds 27 1011 84 10000 3.36 116 10:19 04.06.2022
1749 Rain 27 1011 84 10000 3.36 116 09:39 04.06.2022
1750 Rain 28 1010 83 10000 3.47 108 08:39 04.06.2022
1751 Rain 30 1009 71 10000 3.2 87 07:18 04.06.2022
1752 Rain 31 1010 64 10000 3.56 79 04:33 04.06.2022
1753 Rain 31 1010 64 10000 3.56 79 04:33 04.06.2022
1754 Rain 29 1013 71 10000 2.64 101 00:37 04.06.2022
1755 Clouds 27 1013 84 10000 2.37 128 23:28 03.06.2022
1756 Clouds 25 1013 87 10000 2.43 135 22:28 03.06.2022
1757 Clouds 25 1012 87 10000 2.22 135 20:42 03.06.2022
1758 Clouds 25 1012 87 10000 2.22 135 20:42 03.06.2022
1759 Clouds 25 1012 88 10000 2.64 125 20:18 03.06.2022
1760 Clouds 25 1011 88 10000 2.65 121 17:32 03.06.2022
1761 Clouds 25 1012 89 10000 2.81 119 16:34 03.06.2022
1762 Clouds 25 1012 88 10000 3 113 14:52 03.06.2022
1763 Clouds 26 1012 87 10000 3.75 115 12:28 03.06.2022
1764 Clouds 26 1011 87 10000 3.34 104 10:18 03.06.2022
1765 Clouds 26 1011 87 10000 3.34 104 09:30 03.06.2022
1766 Clouds 29 1009 77 10000 3.01 77 07:53 03.06.2022
1767 Clouds 29 1009 71 10000 3.26 73 07:20 03.06.2022
1768 Clouds 29 1009 71 10000 3.26 73 06:30 03.06.2022
1769 Clouds 31 1010 65 10000 3.26 65 04:40 03.06.2022
1770 Clouds 28 1013 78 10000 3.27 97 00:22 03.06.2022
1771 Clouds 27 1013 84 10000 2.81 107 22:35 02.06.2022
1772 Clouds 25 1012 88 10000 2.83 114 21:29 02.06.2022
1773 Clouds 25 1011 88 10000 2.75 119 19:59 02.06.2022
1774 Clear 25 1011 88 10000 2.64 122 19:41 02.06.2022
1775 Clear 25 1011 89 10000 2.5 126 19:18 02.06.2022
1776 Clouds 25 1011 88 10000 2.73 125 16:30 02.06.2022
1777 Clouds 25 1011 88 10000 2.71 119 15:58 02.06.2022
1778 Clouds 26 1012 88 10000 2.61 121 13:38 02.06.2022
1779 Clouds 26 1012 87 10000 2.35 127 13:20 02.06.2022
1780 Clouds 26 1012 86 10000 2.13 135 10:53 02.06.2022
1781 Clouds 27 1012 85 10000 1.77 133 10:19 02.06.2022
1782 Clouds 27 1011 84 10000 1.51 112 09:27 02.06.2022
1783 Clouds 28 1010 81 10000 1.29 95 08:24 02.06.2022
1784 Clouds 28 1010 79 10000 1.1 66 06:26 02.06.2022
1785 Clouds 29 1011 73 10000 1.44 34 03:53 02.06.2022
1786 Rain 29 1013 70 10000 1.65 53 01:36 02.06.2022
1787 Rain 27 1014 77 10000 0.84 102 23:36 01.06.2022
1788 Rain 25 1013 83 10000 1.3 176 22:18 01.06.2022
1789 Clouds 25 1012 84 10000 1.03 188 21:25 01.06.2022
1790 Clouds 25 1012 84 10000 1.03 188 20:39 01.06.2022
1791 Clouds 25 1012 83 10000 1.06 167 19:52 01.06.2022
1792 Clouds 25 1011 86 10000 1.16 141 18:52 01.06.2022
1793 Clouds 25 1011 86 10000 1.31 176 17:38 01.06.2022
1794 Clouds 25 1012 87 10000 1.78 205 15:56 01.06.2022
1795 Clouds 25 1012 88 10000 2.28 214 14:50 01.06.2022
1796 Clouds 24 1012 90 10000 2.04 216 13:39 01.06.2022
1797 Rain 25 1014 93 10000 1.85 135 11:32 01.06.2022
1798 Clouds 25 1013 92 10000 0.74 72 09:34 01.06.2022
1799 Rain 25 1011 90 7600 1.51 18 08:28 01.06.2022
1800 Rain 26 1010 85 6369 2.18 45 07:20 01.06.2022
1801 Clouds 28 1010 77 10000 1.49 16 04:53 01.06.2022
1802 Clouds 28 1013 73 10000 0.64 172 23:50 31.05.2022
1803 Clouds 27 1013 79 10000 1.08 174 22:43 31.05.2022
1804 Clouds 25 1013 84 10000 1.43 173 22:24 31.05.2022
1805 Clouds 25 1013 84 10000 1.43 173 21:44 31.05.2022
1806 Clouds 25 1012 85 10000 1.21 172 20:44 31.05.2022
1807 Clouds 25 1012 85 10000 1.21 172 20:44 31.05.2022
1808 Clouds 25 1012 85 10000 1.21 172 20:44 31.05.2022
1809 Clouds 25 1011 85 10000 1.42 157 19:46 31.05.2022
1810 Clouds 25 1011 86 10000 1.48 157 18:32 31.05.2022
1811 Clouds 25 1011 87 10000 1.53 157 17:38 31.05.2022
1812 Clouds 26 1012 87 10000 1.31 138 15:55 31.05.2022
1813 Clouds 26 1012 87 10000 1.31 138 15:34 31.05.2022
1814 Clouds 26 1013 88 10000 1.77 119 12:56 31.05.2022
1815 Clouds 26 1013 87 10000 1.6 117 12:18 31.05.2022
1816 Clouds 26 1013 87 10000 1.58 119 10:34 31.05.2022
1817 Clouds 28 1010 81 10000 1.35 102 08:26 31.05.2022
1818 Clouds 28 1010 77 10000 1.05 55 06:21 31.05.2022
1819 Clouds 29 1010 75 10000 1.69 37 04:31 31.05.2022
1820 Clouds 29 1013 73 10000 2.14 100 23:45 30.05.2022
1821 Clouds 27 1013 80 10000 1.87 120 23:24 30.05.2022
1822 Clouds 27 1013 80 10000 1.87 120 22:37 30.05.2022
1823 Clouds 26 1012 85 10000 1.88 128 21:40 30.05.2022
1824 Clouds 25 1011 87 10000 2.04 132 20:51 30.05.2022
1825 Clear 25 1011 86 10000 1.92 138 19:43 30.05.2022
1826 Clear 25 1010 86 10000 1.85 129 18:18 30.05.2022
1827 Clear 25 1010 86 10000 1.91 131 17:21 30.05.2022
1828 Clear 25 1011 86 10000 1.93 126 15:54 30.05.2022
1829 Clear 26 1012 87 10000 2.09 126 13:26 30.05.2022
1830 Clear 26 1012 87 10000 2.08 127 11:40 30.05.2022
1831 Clouds 27 1011 86 10000 2.16 103 09:45 30.05.2022
1832 Clouds 29 1009 78 10000 1.96 61 07:34 30.05.2022
1833 Clouds 29 1009 72 10000 2.35 55 06:22 30.05.2022
1834 Clouds 29 1009 73 10000 2.39 53 04:46 30.05.2022
1835 Clouds 28 1013 73 10000 1.86 96 00:18 30.05.2022
1836 Clouds 27 1012 78 10000 1.65 126 22:40 29.05.2022
1837 Clouds 25 1012 83 10000 1.74 139 21:44 29.05.2022
1838 Clouds 25 1010 85 10000 1.59 139 20:21 29.05.2022
1839 Clouds 25 1010 85 10000 1.31 145 19:28 29.05.2022
1840 Clouds 25 1010 86 10000 1.16 159 17:56 29.05.2022
1841 Clouds 26 1010 86 10000 1.18 142 16:20 29.05.2022
1842 Clouds 26 1010 86 10000 1.18 142 15:41 29.05.2022
1843 Clouds 26 1011 87 10000 1.47 143 14:49 29.05.2022
1844 Clouds 26 1011 87 10000 1.11 122 12:21 29.05.2022
1845 Clouds 26 1011 87 10000 0.87 105 10:56 29.05.2022
1846 Clouds 26 1010 86 10000 0.7 74 09:54 29.05.2022
1847 Clouds 28 1009 82 10000 1.35 13 07:55 29.05.2022
1848 Clouds 29 1009 74 10000 2.37 10 04:58 29.05.2022
1849 Clouds 29 1009 74 10000 2.37 10 04:32 29.05.2022
1850 Clouds 29 1012 68 10000 1.13 53 00:53 29.05.2022
1851 Clouds 28 1012 74 10000 1.3 79 23:47 28.05.2022
1852 Clouds 27 1012 79 10000 1.17 101 23:18 28.05.2022
1853 Clouds 25 1011 84 10000 1.24 127 21:46 28.05.2022
1854 Clouds 25 1010 85 10000 1.1 131 20:40 28.05.2022
1855 Clouds 25 1009 85 10000 1.24 155 19:19 28.05.2022
1856 Clouds 25 1009 85 10000 1.37 173 18:21 28.05.2022
1857 Clouds 25 1009 85 10000 1.37 173 17:30 28.05.2022
1858 Clouds 26 1010 85 10000 0.8 163 15:45 28.05.2022
1859 Clouds 26 1010 85 10000 0.72 179 15:19 28.05.2022
1860 Clouds 26 1011 84 10000 0.63 141 13:27 28.05.2022
1861 Clouds 26 1011 84 10000 0.63 141 13:27 28.05.2022
1862 Clouds 26 1011 84 10000 0.63 141 12:42 28.05.2022
1863 Clouds 26 1011 84 10000 0.15 124 11:28 28.05.2022
1864 Clouds 26 1011 84 10000 0.15 124 10:32 28.05.2022
1865 Clouds 26 1010 84 10000 0.49 321 09:39 28.05.2022
1866 Clouds 28 1009 74 10000 1.69 351 07:53 28.05.2022
1867 Clouds 29 1008 69 10000 2.05 350 06:32 28.05.2022
1868 Rain 29 1009 68 10000 1.84 341 04:21 28.05.2022
1869 Clouds 29 1011 68 10000 1.69 348 01:30 28.05.2022
1870 Clouds 27 1012 79 10000 0.3 351 23:53 27.05.2022
1871 Clouds 25 1011 87 10000 0.95 157 22:24 27.05.2022
1872 Clouds 24 1010 89 10000 1.28 150 20:59 27.05.2022
1873 Clouds 24 1010 89 10000 1.28 150 20:40 27.05.2022
1874 Clouds 24 1010 91 10000 1.42 133 19:56 27.05.2022
1875 Clouds 24 1010 91 10000 1.51 118 19:34 27.05.2022
1876 Clouds 24 1009 92 10000 1.35 106 18:37 27.05.2022
1877 Clouds 24 1010 93 10000 0.72 8 16:42 27.05.2022
1878 Clouds 25 1011 89 10000 1.32 323 15:44 27.05.2022
1879 Clouds 25 1011 86 10000 0.78 302 14:45 27.05.2022
1880 Clouds 25 1011 85 10000 1.1 164 13:30 27.05.2022
1881 Clouds 25 1011 86 10000 2.05 140 11:41 27.05.2022
1882 Clouds 25 1010 85 10000 2.32 125 11:23 27.05.2022
1883 Clouds 25 1010 85 10000 2.32 125 10:35 27.05.2022
1884 Clouds 26 1010 85 10000 2.05 111 09:42 27.05.2022
1885 Rain 27 1008 81 10000 2.29 87 08:24 27.05.2022
1886 Clouds 28 1008 76 10000 2.49 110 06:45 27.05.2022
1887 Clouds 29 1009 75 10000 3.91 78 02:53 27.05.2022
1888 Clouds 28 1011 77 10000 1.8 85 00:37 27.05.2022
1889 Clouds 26 1011 85 10000 1.18 124 22:47 26.05.2022
1890 Clouds 25 1010 88 10000 1.16 152 21:42 26.05.2022
1891 Clouds 25 1009 89 10000 1.38 146 20:59 26.05.2022
1892 Clouds 25 1008 89 10000 1.47 143 19:24 26.05.2022
1893 Clouds 25 1008 89 10000 1.45 156 18:18 26.05.2022
1894 Clouds 26 1008 88 10000 1.39 153 16:56 26.05.2022
1895 Clouds 26 1009 88 10000 1.38 160 15:46 26.05.2022
1896 Clouds 26 1009 88 10000 1.28 163 14:46 26.05.2022
1897 Clouds 26 1010 88 10000 1 181 12:50 26.05.2022
1898 Clouds 26 1010 87 10000 1.09 158 11:29 26.05.2022
1899 Clouds 27 1009 87 10000 0.72 140 10:19 26.05.2022
1900 Clouds 27 1009 87 10000 0.72 140 09:33 26.05.2022
1901 Clouds 27 1008 86 10000 0.61 83 08:35 26.05.2022
1902 Clouds 29 1007 77 10000 0.78 62 04:41 26.05.2022
1903 Clouds 29 1010 70 10000 1.23 81 00:48 26.05.2022
1904 Clouds 28 1010 77 10000 1.58 107 23:40 25.05.2022
1905 Clouds 25 1010 87 10000 1.62 142 21:59 25.05.2022
1906 Clouds 25 1010 87 10000 1.62 142 21:32 25.05.2022
1907 Clouds 25 1009 88 10000 1.67 145 20:35 25.05.2022
1908 Clouds 25 1008 88 10000 1.48 145 19:24 25.05.2022
1909 Clouds 26 1008 88 10000 1.31 156 17:43 25.05.2022
1910 Clouds 26 1009 87 10000 1.23 149 16:38 25.05.2022
1911 Clouds 26 1009 88 10000 1.28 137 15:54 25.05.2022
1912 Clouds 26 1010 87 10000 1.27 135 14:51 25.05.2022
1913 Clouds 26 1010 87 10000 1.27 135 14:33 25.05.2022
1914 Clouds 26 1010 88 10000 1.39 128 13:45 25.05.2022
1915 Clouds 26 1011 87 10000 1.53 133 12:38 25.05.2022
1916 Clouds 26 1010 86 10000 1.47 139 10:43 25.05.2022
1917 Clouds 27 1010 86 10000 1.15 137 09:54 25.05.2022
1918 Clouds 27 1009 84 10000 0.64 134 08:37 25.05.2022
1919 Clouds 28 1008 79 10000 0.31 143 07:23 25.05.2022
1920 Clouds 29 1010 78 10000 0.71 12 03:34 25.05.2022
1921 Clouds 28 1013 78 10000 0.97 99 23:57 24.05.2022
1922 Clouds 28 1013 78 10000 0.97 99 23:31 24.05.2022
1923 Clouds 26 1012 88 10000 1.38 152 22:21 24.05.2022
1924 Clouds 26 1012 88 10000 1.38 152 21:40 24.05.2022
1925 Clouds 26 1011 88 10000 1.25 144 21:20 24.05.2022
1926 Clouds 25 1011 88 10000 1.46 140 19:48 24.05.2022
1927 Clouds 26 1011 88 10000 1.44 139 18:54 24.05.2022
1928 Clouds 26 1011 88 10000 1.61 146 16:45 24.05.2022
1929 Clouds 26 1012 88 10000 1.58 137 16:23 24.05.2022
1930 Clouds 26 1012 88 10000 1.55 133 14:56 24.05.2022
1931 Clouds 26 1012 87 10000 1.37 132 14:21 24.05.2022
1932 Clouds 27 1013 86 10000 1.57 89 12:49 24.05.2022
1933 Clouds 27 1012 84 10000 1.11 106 11:26 24.05.2022
1934 Clouds 27 1011 83 10000 0.99 96 09:44 24.05.2022
1935 Clouds 28 1010 82 10000 1.05 81 08:50 24.05.2022
1936 Clouds 29 1010 79 10000 1.32 64 06:57 24.05.2022
1937 Clouds 31 1011 66 10000 2.33 41 03:56 24.05.2022
1938 Clouds 31 1013 65 10000 1.74 53 01:55 24.05.2022
1939 Clouds 31 1013 65 10000 1.74 53 01:36 24.05.2022
1940 Clouds 28 1014 77 10000 1.66 115 23:31 23.05.2022
1941 Clouds 25 1013 86 10000 1.62 119 21:56 23.05.2022
1942 Clouds 25 1013 87 10000 1.62 123 21:29 23.05.2022
1943 Clouds 25 1013 87 10000 1.62 123 20:35 23.05.2022
1944 Clouds 25 1012 86 10000 1.82 127 19:32 23.05.2022
1945 Clouds 25 1012 87 10000 2.03 143 18:58 23.05.2022
1946 Clouds 25 1012 87 10000 2.03 143 18:30 23.05.2022
1947 Clouds 26 1012 88 10000 1.87 150 17:20 23.05.2022
1948 Clouds 26 1013 87 10000 1.45 157 15:23 23.05.2022
1949 Clouds 26 1013 87 10000 1.29 160 13:21 23.05.2022
1950 Clouds 26 1013 86 10000 1.01 151 11:31 23.05.2022
1951 Clouds 27 1012 85 10000 0.7 125 09:51 23.05.2022
1952 Clouds 27 1012 85 10000 0.7 125 09:30 23.05.2022
1953 Clouds 27 1011 82 10000 0.25 107 08:31 23.05.2022
1954 Clouds 29 1010 76 10000 0.88 343 06:46 23.05.2022
1955 Clouds 29 1010 74 10000 1.45 344 05:31 23.05.2022
1956 Clouds 31 1011 63 10000 2.26 19 02:32 23.05.2022
1957 Clear 31 1012 64 10000 1.39 40 01:37 23.05.2022
1958 Clear 29 1013 71 10000 1.92 87 00:20 23.05.2022
1959 Clear 27 1013 77 10000 1.61 104 22:36 22.05.2022
1960 Clear 26 1013 83 10000 1.88 134 21:55 22.05.2022
1961 Clear 25 1012 85 10000 1.96 138 20:54 22.05.2022
1962 Clear 25 1012 85 10000 1.96 138 20:31 22.05.2022
1963 Clear 25 1011 86 10000 2.1 136 19:56 22.05.2022
1964 Clear 25 1011 85 10000 1.83 135 18:55 22.05.2022
1965 Clear 25 1011 85 10000 1.6 134 18:25 22.05.2022
1966 Clear 25 1011 85 10000 1.6 134 17:34 22.05.2022
1967 Clear 26 1011 85 10000 1.59 135 16:36 22.05.2022
1968 Clear 26 1012 84 10000 1.46 145 14:49 22.05.2022
1969 Clouds 26 1012 84 10000 1.52 152 13:48 22.05.2022
1970 Clouds 26 1012 84 10000 1.58 160 12:52 22.05.2022
1971 Clouds 26 1012 83 10000 1.47 159 11:44 22.05.2022
1972 Clouds 27 1011 81 10000 1.06 123 09:45 22.05.2022
1973 Clouds 27 1010 78 10000 0.73 80 08:37 22.05.2022
1974 Clouds 29 1009 70 10000 1.41 36 07:22 22.05.2022
1975 Clouds 30 1009 69 10000 1.91 21 06:23 22.05.2022
1976 Clear 31 1012 62 10000 1.69 39 02:23 22.05.2022
1977 Clear 30 1012 66 10000 1.28 64 00:43 22.05.2022
1978 Clouds 29 1012 72 10000 1.25 92 23:55 21.05.2022
1979 Clouds 27 1012 78 10000 1.11 115 23:20 21.05.2022
1980 Clouds 26 1011 84 10000 0.87 125 21:43 21.05.2022
1981 Clouds 25 1011 85 10000 0.73 117 21:23 21.05.2022
1982 Clouds 25 1010 85 10000 0.51 131 20:24 21.05.2022
1983 Clouds 25 1010 85 10000 0.69 139 19:30 21.05.2022
1984 Clouds 26 1010 84 10000 0.65 142 17:51 21.05.2022
1985 Clouds 26 1011 85 10000 0.47 130 16:46 21.05.2022
1986 Clouds 26 1012 85 10000 0.64 98 14:37 21.05.2022
1987 Clouds 26 1012 85 10000 0.63 108 13:42 21.05.2022
1988 Clouds 26 1012 85 10000 0.45 101 12:50 21.05.2022
1989 Clouds 26 1012 84 10000 0.48 64 12:26 21.05.2022
1990 Clouds 26 1012 84 10000 0.6 61 10:34 21.05.2022
1991 Clouds 26 1011 84 10000 0.89 62 09:43 21.05.2022
1992 Clouds 27 1010 81 10000 1.4 49 08:57 21.05.2022
1993 Rain 29 1010 73 10000 1.56 37 07:53 21.05.2022
1994 Clouds 30 1011 69 10000 3.17 11 03:58 21.05.2022
1995 Clear 28 1013 74 10000 1.28 92 23:53 20.05.2022
1996 Clear 27 1013 80 10000 1.07 126 22:57 20.05.2022
1997 Clear 25 1012 85 10000 1.49 150 22:23 20.05.2022
1998 Clear 25 1012 85 10000 1.49 150 21:41 20.05.2022
1999 Clear 25 1011 86 10000 1.45 153 20:54 20.05.2022
2000 Clouds 25 1011 87 10000 1.21 151 19:58 20.05.2022
2001 Clouds 25 1011 87 10000 1.32 148 19:26 20.05.2022
2002 Clouds 25 1011 87 10000 1.32 148 18:36 20.05.2022
2003 Clouds 25 1011 88 10000 1.39 142 16:53 20.05.2022
2004 Clouds 26 1011 88 10000 1.51 145 15:58 20.05.2022
2005 Clouds 26 1011 88 10000 1.51 145 15:40 20.05.2022
2006 Clouds 26 1012 87 10000 1.23 135 14:29 20.05.2022
2007 Clouds 26 1012 87 10000 1.23 135 13:54 20.05.2022
2008 Clouds 27 1012 84 10000 1.01 46 11:22 20.05.2022
2009 Clouds 27 1011 83 10000 0.95 27 09:51 20.05.2022
2010 Clouds 27 1010 82 10000 0.73 13 08:41 20.05.2022
2011 Clouds 29 1009 75 10000 1.18 347 06:46 20.05.2022
2012 Clouds 29 1009 73 10000 1.44 337 06:21 20.05.2022
2013 Clear 30 1010 66 10000 2.5 2 03:53 20.05.2022
2014 Clear 28 1013 74 10000 0.67 110 23:54 19.05.2022
2015 Clear 27 1013 81 10000 0.76 150 22:44 19.05.2022
2016 Clear 25 1012 85 10000 1.29 168 21:53 19.05.2022
2017 Clear 25 1011 86 10000 1.15 175 21:24 19.05.2022
2018 Clear 25 1011 86 10000 1.15 175 20:54 19.05.2022
2019 Clear 25 1011 86 10000 1.24 178 20:21 19.05.2022
2020 Clear 25 1011 86 10000 1.29 173 19:34 19.05.2022
2021 Clear 25 1011 87 10000 1.13 179 17:52 19.05.2022
2022 Clear 26 1012 86 10000 0.73 142 16:22 19.05.2022
2023 Clear 26 1012 85 10000 0.7 131 14:50 19.05.2022
2024 Clear 26 1013 86 10000 0.8 141 14:21 19.05.2022
2025 Clear 26 1013 86 10000 0.79 109 12:20 19.05.2022
2026 Clear 26 1012 86 10000 0.68 124 10:35 19.05.2022
2027 Clear 27 1011 85 10000 0.14 307 08:51 19.05.2022
2028 Clouds 28 1010 81 10000 0.86 318 07:33 19.05.2022
2029 Clouds 29 1010 73 10000 2.24 330 04:38 19.05.2022
2030 Clear 31 1013 63 10000 1.13 11 01:38 19.05.2022
2031 Clear 29 1014 69 10000 0.55 105 23:49 18.05.2022
2032 Clear 28 1014 75 10000 0.97 151 22:45 18.05.2022
2033 Clear 26 1013 82 10000 1.41 161 21:45 18.05.2022
2034 Clear 26 1012 83 10000 1.38 167 21:24 18.05.2022
2035 Clear 26 1012 83 10000 1.35 177 20:23 18.05.2022
2036 Clear 26 1012 84 10000 1.29 162 19:32 18.05.2022
2037 Clear 26 1011 85 10000 0.99 158 18:20 18.05.2022
2038 Clear 26 1011 85 10000 0.99 158 17:40 18.05.2022
2039 Clear 26 1012 85 10000 0.68 134 17:22 18.05.2022
2040 Clear 26 1012 84 10000 0.7 120 15:58 18.05.2022
2041 Clear 26 1012 84 10000 0.7 120 15:37 18.05.2022
2042 Clouds 26 1013 83 10000 0.75 104 14:25 18.05.2022
2043 Clouds 26 1013 83 10000 0.98 92 12:58 18.05.2022
2044 Clouds 27 1013 83 10000 1.17 92 12:25 18.05.2022
2045 Clouds 27 1013 83 10000 1.17 92 11:33 18.05.2022
2046 Clouds 27 1012 83 10000 1.19 103 10:48 18.05.2022
2047 Clouds 28 1010 78 10000 0.43 168 08:25 18.05.2022
2048 Clouds 29 1009 74 10000 0.94 335 07:27 18.05.2022
2049 Clear 31 1010 61 10000 1.87 346 04:26 18.05.2022
2050 Clear 30 1014 64 10000 0.88 17 00:51 18.05.2022
2051 Clear 29 1014 68 10000 0.62 74 23:41 17.05.2022
2052 Clear 25 1012 83 10000 1.42 184 21:23 17.05.2022
2053 Clear 25 1012 83 10000 1.42 184 20:44 17.05.2022
2054 Clouds 25 1012 83 10000 1.46 170 19:41 17.05.2022
2055 Clouds 25 1012 84 10000 1.48 175 19:20 17.05.2022
2056 Clouds 25 1012 84 10000 1.45 178 17:34 17.05.2022
2057 Clouds 25 1012 84 10000 1.53 178 16:57 17.05.2022
2058 Clouds 25 1013 84 10000 1.57 173 15:59 17.05.2022
2059 Clouds 26 1013 84 10000 1.63 167 14:55 17.05.2022
2060 Clouds 26 1014 84 10000 1.76 165 14:28 17.05.2022
2061 Clouds 26 1014 85 10000 1.97 158 13:24 17.05.2022
2062 Clouds 26 1013 84 10000 2.18 153 10:42 17.05.2022
2063 Clouds 27 1011 81 10000 1.56 166 08:51 17.05.2022
2064 Clouds 28 1011 82 10000 1.22 187 07:55 17.05.2022
2065 Clouds 29 1010 78 10000 0.82 247 06:23 17.05.2022
2066 Clouds 30 1014 68 10000 0.26 357 01:23 17.05.2022
2067 Clouds 28 1014 73 10000 0.25 149 23:44 16.05.2022
2068 Clouds 27 1014 79 10000 0.79 178 22:33 16.05.2022
2069 Clouds 25 1012 84 10000 1.17 197 21:18 16.05.2022
2070 Clouds 25 1012 84 10000 1.17 197 20:42 16.05.2022
2071 Clouds 25 1011 87 10000 1.64 200 18:51 16.05.2022
2072 Clouds 25 1012 87 10000 1.92 185 17:18 16.05.2022
2073 Clouds 25 1012 87 10000 1.92 185 17:18 16.05.2022
2074 Clouds 25 1013 87 10000 1.56 173 15:29 16.05.2022
2075 Clear 26 1013 87 10000 1.41 173 13:45 16.05.2022
2076 Clear 26 1013 87 10000 1.4 160 12:41 16.05.2022
2077 Clear 26 1012 86 10000 1.16 146 10:36 16.05.2022
2078 Clouds 28 1010 82 10000 0.57 278 07:59 16.05.2022
2079 Clouds 29 1010 76 10000 1.64 297 05:46 16.05.2022
2080 Clear 30 1013 65 10000 0.57 95 00:49 16.05.2022
2081 Clear 27 1013 81 10000 1.2 166 22:44 15.05.2022
2082 Clear 25 1012 86 10000 1.59 169 21:59 15.05.2022
2083 Clear 25 1012 86 10000 1.59 169 21:36 15.05.2022
2084 Clear 25 1012 87 10000 1.64 171 20:43 15.05.2022
2085 Clouds 25 1011 87 10000 1.57 172 18:39 15.05.2022
2086 Clouds 25 1011 87 10000 1.39 183 16:54 15.05.2022
2087 Clouds 26 1012 88 10000 1.01 212 14:29 15.05.2022
2088 Clouds 26 1012 86 10000 0.74 181 13:45 15.05.2022
2089 Clouds 26 1012 87 10000 0.9 203 11:55 15.05.2022
2090 Clouds 27 1011 87 10000 1.21 227 10:47 15.05.2022
2091 Clouds 27 1011 85 10000 1.07 249 09:46 15.05.2022
2092 Clouds 28 1009 79 10000 0.57 313 07:22 15.05.2022
2093 Clouds 28 1009 79 10000 0.57 313 06:42 15.05.2022
2094 Clouds 30 1011 68 10000 1.9 5 02:43 15.05.2022
2095 Clouds 28 1013 78 10000 1.1 117 00:22 15.05.2022
2096 Clouds 28 1013 78 10000 1.1 117 23:36 14.05.2022
2097 Clouds 25 1013 88 10000 1.47 151 21:45 14.05.2022
2098 Clouds 25 1012 88 10000 1.21 156 21:25 14.05.2022
2099 Clouds 25 1011 87 10000 0.99 151 20:25 14.05.2022
2100 Clouds 25 1011 87 10000 0.83 196 19:20 14.05.2022
2101 Clouds 25 1011 87 10000 0.83 196 18:57 14.05.2022
2102 Clear 25 1011 87 10000 1.01 191 17:44 14.05.2022
2103 Clear 25 1011 88 10000 1.16 183 15:58 14.05.2022
2104 Clear 26 1012 88 10000 1.15 169 14:38 14.05.2022
2105 Clouds 26 1013 87 10000 1.48 156 13:24 14.05.2022
2106 Clouds 26 1012 87 10000 1.27 147 11:42 14.05.2022
2107 Clouds 27 1012 86 10000 0.76 148 10:39 14.05.2022
2108 Clouds 27 1011 86 10000 0.46 155 10:18 14.05.2022
2109 Clouds 27 1011 85 10000 0.32 206 09:19 14.05.2022
2110 Clouds 29 1010 78 10000 0.88 332 07:23 14.05.2022
2111 Clouds 29 1010 75 10000 1.32 338 04:32 14.05.2022
2112 Clouds 29 1013 73 10000 0.93 92 00:25 14.05.2022
2113 Clouds 27 1013 79 10000 0.81 131 23:24 13.05.2022
2114 Clouds 27 1013 79 10000 0.81 131 22:54 13.05.2022
2115 Clouds 26 1012 85 10000 1.18 156 22:20 13.05.2022
2116 Clouds 25 1012 87 10000 1.32 146 20:57 13.05.2022
2117 Clouds 25 1012 87 10000 1.32 146 20:30 13.05.2022
2118 Clouds 25 1011 87 10000 1.41 140 19:44 13.05.2022
2119 Clouds 25 1011 87 10000 1.44 135 18:44 13.05.2022
2120 Clear 26 1011 87 10000 1.35 145 17:29 13.05.2022
2121 Clouds 26 1012 87 10000 1.27 156 16:29 13.05.2022
2122 Clouds 26 1012 87 10000 1.27 156 15:45 13.05.2022
2123 Clouds 26 1013 86 10000 1.15 180 14:24 13.05.2022
2124 Clouds 27 1013 86 10000 0.72 202 12:46 13.05.2022
2125 Clouds 27 1013 85 10000 0.41 191 11:36 13.05.2022
2126 Clouds 27 1011 84 10000 0.55 245 09:43 13.05.2022
2127 Clouds 27 1010 82 10000 0.91 299 08:51 13.05.2022
2128 Clouds 29 1009 75 10000 0.84 359 07:49 13.05.2022
2129 Clouds 29 1009 72 10000 1.76 8 06:35 13.05.2022
2130 Clouds 30 1010 65 10000 2.27 1 04:22 13.05.2022
2131 Clouds 29 1013 67 10000 1.1 43 00:40 13.05.2022
2132 Clouds 27 1013 78 10000 0.67 135 22:46 12.05.2022
2133 Clouds 25 1012 82 10000 1.29 158 21:58 12.05.2022
2134 Clouds 25 1011 84 10000 1.51 165 20:38 12.05.2022
2135 Clouds 25 1010 87 10000 0.83 185 19:18 12.05.2022
2136 Clouds 25 1010 86 10000 1.14 122 17:27 12.05.2022
2137 Clouds 26 1011 86 10000 0.76 110 16:23 12.05.2022
2138 Clouds 26 1011 85 10000 0.71 75 14:42 12.05.2022
2139 Clouds 26 1011 86 10000 1.32 72 13:46 12.05.2022
2140 Clouds 26 1011 86 10000 0.66 58 10:52 12.05.2022
2141 Clouds 26 1011 86 10000 0.28 353 09:30 12.05.2022
2142 Clouds 27 1010 84 10000 1.12 358 08:51 12.05.2022
2143 Clouds 29 1009 75 10000 1.58 18 07:40 12.05.2022
2144 Clouds 30 1008 66 10000 2.39 16 06:19 12.05.2022
2145 Rain 31 1010 62 10000 2.11 17 02:56 12.05.2022
2146 Clouds 29 1011 70 10000 1.43 33 00:35 12.05.2022
2147 Rain 28 1011 81 10000 0.87 37 22:35 11.05.2022
2148 Rain 27 1010 84 10000 0.63 359 21:46 11.05.2022
2149 Rain 26 1009 84 10000 0.93 342 21:21 11.05.2022
2150 Rain 26 1008 87 10000 0.26 25 18:34 11.05.2022
2151 Rain 26 1008 87 10000 0.23 32 16:53 11.05.2022
2152 Rain 26 1009 88 10000 0.75 12 15:31 11.05.2022
2153 Rain 26 1009 88 10000 0.75 12 15:31 11.05.2022
2154 Rain 26 1009 88 10000 0.75 12 15:31 11.05.2022
2155 Rain 26 1009 88 10000 0.75 12 15:31 11.05.2022
2156 Rain 26 1009 88 10000 0.75 12 15:31 11.05.2022
2157 Rain 26 1009 88 10000 0.75 12 15:31 11.05.2022
2158 Clouds 26 1009 89 10000 1.28 11 14:38 11.05.2022
2159 Clouds 27 1010 88 10000 1.08 6 14:18 11.05.2022
2160 Rain 27 1010 89 10000 1.09 49 11:54 11.05.2022
2161 Rain 27 1009 89 10000 0.99 52 10:44 11.05.2022
2162 Rain 27 1008 87 10000 1.43 22 08:40 11.05.2022
2163 Rain 30 1007 75 10000 2.65 13 05:27 11.05.2022
2164 Clouds 30 1010 69 10000 3.04 69 00:42 11.05.2022
2165 Clouds 28 1010 77 10000 2.54 106 22:31 10.05.2022
2166 Clouds 27 1010 83 10000 2.66 113 21:56 10.05.2022
2167 Clouds 26 1009 83 10000 2.68 109 20:56 10.05.2022
2168 Clouds 26 1008 84 10000 3.13 119 19:27 10.05.2022
2169 Clouds 26 1008 84 10000 3.34 121 17:54 10.05.2022
2170 Clouds 26 1008 84 10000 3.42 123 16:56 10.05.2022
2171 Clouds 26 1010 85 10000 3.38 120 14:48 10.05.2022
2172 Clouds 27 1010 84 10000 3.57 117 12:39 10.05.2022
2173 Clouds 27 1010 83 10000 3.47 116 11:49 10.05.2022
2174 Clouds 27 1010 83 10000 3.34 116 11:18 10.05.2022
2175 Clouds 27 1009 83 10000 3.34 114 10:22 10.05.2022
2176 Clouds 28 1008 81 10000 3.48 106 09:25 10.05.2022
2177 Clouds 31 1006 67 10000 4.54 87 06:46 10.05.2022
2178 Clouds 31 1009 66 10000 4.65 83 03:29 10.05.2022
2179 Clouds 30 1010 71 10000 3.74 92 00:34 10.05.2022
2180 Clouds 28 1010 80 10000 2.57 112 22:44 09.05.2022
2181 Clouds 26 1010 85 10000 2.59 131 21:48 09.05.2022
2182 Clouds 26 1009 86 10000 2.84 133 20:30 09.05.2022
2183 Clouds 26 1009 86 10000 3.17 123 18:43 09.05.2022
2184 Clouds 26 1008 86 10000 3.17 119 17:40 09.05.2022
2185 Rain 26 1009 85 10000 3.6 116 16:29 09.05.2022
2186 Clouds 26 1009 85 10000 3.6 116 15:49 09.05.2022
2187 Clouds 26 1010 84 10000 3.63 115 14:54 09.05.2022
2188 Clouds 26 1010 84 10000 3.42 113 14:22 09.05.2022
2189 Rain 26 1010 84 10000 3.42 113 13:36 09.05.2022
2190 Rain 26 1010 84 10000 3.42 113 13:36 09.05.2022
2191 Rain 27 1011 85 10000 3.35 115 11:57 09.05.2022
2192 Clouds 27 1010 86 10000 3.6 116 10:51 09.05.2022
2193 Clouds 27 1010 86 10000 3.6 116 10:31 09.05.2022
2194 Clouds 29 1008 79 10000 4 91 08:23 09.05.2022
2195 Rain 29 1008 79 10000 4 91 07:43 09.05.2022
2196 Clouds 31 1010 68 10000 4.68 85 02:44 09.05.2022
2197 Clouds 27 1011 84 10000 3.41 113 23:29 08.05.2022
2198 Clouds 27 1011 84 10000 3.41 113 23:29 08.05.2022
2199 Clouds 27 1011 84 10000 3.41 113 22:47 08.05.2022
2200 Clouds 26 1011 88 10000 3.44 121 21:47 08.05.2022
2201 Clouds 25 1010 89 10000 3.41 120 20:31 08.05.2022
2202 Clouds 25 1009 89 10000 3.35 122 19:37 08.05.2022
2203 Clouds 25 1009 89 10000 3.36 122 18:49 08.05.2022
2204 Clouds 25 1009 89 10000 3.25 122 17:52 08.05.2022
2205 Clouds 26 1009 89 10000 2.98 123 16:30 08.05.2022
2206 Clouds 26 1011 89 10000 3.29 117 15:25 08.05.2022
2207 Clouds 26 1011 89 10000 3.44 115 14:23 08.05.2022
2208 Clouds 26 1011 89 10000 3.26 118 11:53 08.05.2022
2209 Clouds 27 1010 88 10000 3 110 10:27 08.05.2022
2210 Rain 27 1010 88 10000 2.95 111 09:54 08.05.2022
2211 Clouds 29 1009 80 10000 3.82 88 08:23 08.05.2022
2212 Clouds 30 1008 73 10000 3.82 80 06:31 08.05.2022
2213 Clouds 31 1010 67 10000 4.64 76 03:23 08.05.2022
2214 Clouds 30 1012 72 10000 3.77 91 01:19 08.05.2022
2215 Clouds 29 1012 78 10000 3.57 100 00:20 08.05.2022
2216 Clouds 29 1012 78 10000 3.57 100 23:41 07.05.2022
2217 Clouds 28 1012 83 10000 3.17 107 22:46 07.05.2022
2218 Clouds 26 1011 88 10000 3.06 116 21:57 07.05.2022
2219 Clouds 26 1011 88 10000 3.06 116 21:31 07.05.2022
2220 Clouds 26 1010 89 10000 2.72 129 20:25 07.05.2022
2221 Clouds 26 1010 87 10000 2.84 126 18:52 07.05.2022
2222 Clouds 26 1010 89 10000 2.91 126 16:50 07.05.2022
2223 Clouds 26 1011 88 10000 3.09 114 15:18 07.05.2022
2224 Clouds 26 1012 89 10000 3.3 120 11:51 07.05.2022
2225 Clouds 27 1011 88 10000 2.86 108 09:55 07.05.2022
2226 Clouds 28 1010 86 10000 2.8 99 08:33 07.05.2022
2227 Clouds 30 1008 74 10000 3.37 81 07:25 07.05.2022
2228 Clouds 30 1008 74 10000 3.37 81 06:42 07.05.2022
2229 Clouds 31 1009 69 10000 3.8 75 04:18 07.05.2022
2230 Clear 29 1012 73 10000 3.16 102 23:51 06.05.2022
2231 Clear 28 1012 78 10000 2.85 115 22:40 06.05.2022
2232 Clear 26 1012 83 10000 2.98 125 21:53 06.05.2022
2233 Clear 25 1011 83 10000 2.71 124 21:29 06.05.2022
2234 Clear 26 1010 84 10000 2.5 132 19:47 06.05.2022
2235 Clear 26 1010 84 10000 2.21 137 19:21 06.05.2022
2236 Clear 26 1010 85 10000 2.27 130 18:29 06.05.2022
2237 Clear 26 1010 85 10000 2.27 130 17:34 06.05.2022
2238 Clear 26 1011 85 10000 2.33 132 15:51 06.05.2022
2239 Clear 26 1011 86 10000 2.47 128 14:58 06.05.2022
2240 Clouds 26 1012 86 10000 2.73 120 13:38 06.05.2022
2241 Clouds 26 1012 87 10000 2.95 117 12:42 06.05.2022
2242 Clouds 27 1011 87 10000 2.92 121 11:58 06.05.2022
2243 Clouds 27 1011 86 10000 2.61 120 10:41 06.05.2022
2244 Clouds 27 1010 85 10000 2.25 116 09:47 06.05.2022
2245 Clouds 28 1009 82 10000 2.03 96 08:59 06.05.2022
2246 Clouds 29 1008 75 10000 2.51 70 07:27 06.05.2022
2247 Clouds 30 1008 73 10000 2.63 61 06:24 06.05.2022
2248 Clouds 31 1010 63 10000 2.49 61 02:54 06.05.2022
2249 Clouds 31 1012 64 10000 2.6 71 01:57 06.05.2022
2250 Clouds 27 1012 82 10000 1.86 129 22:48 05.05.2022
2251 Clouds 26 1011 87 10000 2.1 141 21:45 05.05.2022
2252 Clear 25 1010 87 10000 1.19 144 20:27 05.05.2022
2253 Clear 25 1009 88 10000 1.74 141 18:36 05.05.2022
2254 Clear 26 1010 88 10000 1.49 160 16:40 05.05.2022
2255 Clear 26 1011 86 10000 1.23 146 14:55 05.05.2022
2256 Clouds 26 1012 87 10000 1.34 162 13:27 05.05.2022
2257 Clouds 26 1012 87 10000 1.34 162 12:54 05.05.2022
2258 Rain 26 1011 85 10000 1.2 157 10:53 05.05.2022
2259 Rain 27 1010 85 10000 0.78 161 09:40 05.05.2022
2260 Clouds 28 1009 81 10000 0.22 346 07:45 05.05.2022
2261 Clouds 29 1008 72 10000 1.53 3 05:42 05.05.2022
2262 Clouds 30 1011 65 10000 1.57 27 02:18 05.05.2022
2263 Clouds 30 1011 66 10000 1.63 30 01:32 05.05.2022
2264 Clouds 28 1012 75 10000 1.14 77 23:53 04.05.2022
2265 Clouds 27 1012 80 10000 0.88 104 22:46 04.05.2022
2266 Clouds 26 1011 84 10000 0.84 150 21:54 04.05.2022
2267 Clouds 25 1010 85 10000 0.77 154 21:29 04.05.2022
2268 Clouds 25 1010 85 10000 0.87 144 20:27 04.05.2022
2269 Clouds 25 1010 85 10000 1.04 158 19:53 04.05.2022
2270 Clouds 26 1010 84 10000 0.92 142 19:24 04.05.2022
2271 Clouds 26 1010 84 10000 0.78 133 18:22 04.05.2022
2272 Clouds 26 1010 84 10000 0.78 133 17:51 04.05.2022
2273 Clouds 26 1010 83 10000 0.61 112 15:42 04.05.2022
2274 Clouds 26 1011 82 10000 0.56 106 15:23 04.05.2022
2275 Clouds 27 1011 81 10000 0.44 89 14:21 04.05.2022
2276 Clouds 26 1011 82 10000 0.65 124 13:35 04.05.2022
2277 Clouds 26 1012 81 10000 0.46 109 12:33 04.05.2022
2278 Clouds 27 1011 80 10000 0.68 65 10:41 04.05.2022
2279 Clouds 27 1010 78 10000 0.88 33 09:44 04.05.2022
2280 Clouds 28 1009 77 10000 1.04 14 08:47 04.05.2022
2281 Clouds 28 1009 77 10000 1.04 14 08:47 04.05.2022
2282 Clouds 28 1008 78 10000 1.15 353 06:47 04.05.2022
2283 Clouds 29 1010 73 10000 2.14 6 02:59 04.05.2022
2284 Clouds 30 1011 69 10000 2.15 25 00:38 04.05.2022
2285 Clouds 28 1012 80 10000 1.5 21 22:37 03.05.2022
2286 Clouds 26 1011 84 10000 0.95 45 21:46 03.05.2022
2287 Clouds 26 1010 84 10000 0.7 30 20:54 03.05.2022
2288 Clouds 26 1010 85 10000 1.24 349 19:59 03.05.2022
2289 Clouds 27 1009 85 10000 1.16 356 18:54 03.05.2022
2290 Clouds 27 1009 85 10000 1.02 7 18:21 03.05.2022
2291 Clouds 27 1010 85 10000 1.06 11 16:44 03.05.2022
2292 Clouds 27 1010 84 10000 1.06 23 15:38 03.05.2022
2293 Clouds 27 1011 85 10000 1.06 59 12:47 03.05.2022
2294 Clouds 27 1011 86 10000 0.97 53 12:27 03.05.2022
2295 Clouds 27 1011 85 10000 0.9 57 10:57 03.05.2022
2296 Clouds 27 1010 85 10000 1.24 37 09:34 03.05.2022
2297 Clouds 28 1009 82 10000 1.13 0 07:33 03.05.2022
2298 Clouds 28 1008 78 10000 1.41 342 06:44 03.05.2022
2299 Rain 27 1012 83 10000 0.41 48 00:54 03.05.2022
2300 Clouds 26 1012 88 10000 0.55 78 22:38 02.05.2022
2301 Clouds 25 1011 89 10000 0.48 324 21:52 02.05.2022
2302 Clouds 25 1011 89 10000 1.03 328 20:51 02.05.2022
2303 Clouds 26 1009 88 4688 0.77 70 18:41 02.05.2022
2304 Clouds 25 1009 89 7582 0.94 77 18:21 02.05.2022
2305 Clouds 25 1009 89 7582 0.94 77 17:37 02.05.2022
2306 Clouds 26 1010 88 10000 0.9 105 16:22 02.05.2022
2307 Clouds 26 1010 88 10000 0.9 105 15:31 02.05.2022
2308 Clouds 26 1011 87 10000 1.08 92 13:51 02.05.2022
2309 Clouds 26 1011 86 10000 1.02 73 12:19 02.05.2022
2310 Clouds 26 1011 86 10000 0.84 72 10:47 02.05.2022
2311 Clouds 27 1009 83 10000 1.54 24 09:20 02.05.2022
2312 Clouds 28 1009 80 10000 1.64 15 07:51 02.05.2022
2313 Clouds 28 1009 80 10000 1.64 15 07:51 02.05.2022
2314 Clouds 30 1009 70 10000 2.36 26 03:53 02.05.2022
2315 Clouds 28 1011 81 10000 0.87 35 00:24 02.05.2022
2316 Clouds 28 1011 81 10000 0.87 35 23:48 01.05.2022
2317 Rain 26 1010 86 10000 0.29 257 22:25 01.05.2022
2318 Rain 26 1010 86 10000 0.56 260 21:19 01.05.2022
2319 Rain 26 1009 86 10000 0.69 260 19:51 01.05.2022
2320 Rain 26 1008 86 10000 0.69 212 18:57 01.05.2022
2321 Rain 26 1008 86 10000 0.86 219 18:28 01.05.2022
2322 Rain 26 1009 85 10000 0.6 230 17:29 01.05.2022
2323 Clouds 26 1009 85 10000 0.48 267 16:23 01.05.2022
2324 Clouds 26 1010 85 10000 0.71 299 15:25 01.05.2022
2325 Rain 26 1010 85 10000 0.7 246 13:42 01.05.2022
2326 Rain 26 1009 85 10000 0.64 274 11:18 01.05.2022
2327 Rain 27 1008 85 10000 1.68 310 08:53 01.05.2022
2328 Clouds 28 1007 84 10000 1.56 304 07:55 01.05.2022
2329 Clouds 30 1007 73 10000 1.86 318 03:31 01.05.2022
2330 Clouds 28 1010 77 10000 0.44 75 23:49 30.04.2022
2331 Clouds 26 1009 86 10000 1.46 186 21:47 30.04.2022
2332 Rain 25 1009 87 10000 1.57 196 20:45 30.04.2022
2333 Clouds 26 1008 87 10000 1.11 177 19:41 30.04.2022
2334 Clouds 26 1008 86 10000 0.72 181 17:45 30.04.2022
2335 Clouds 26 1008 86 10000 0.3 159 16:42 30.04.2022
2336 Clouds 26 1009 86 10000 0.24 135 15:46 30.04.2022
2337 Clouds 26 1009 85 10000 0.43 175 14:43 30.04.2022
2338 Clouds 27 1010 85 10000 0.64 156 12:42 30.04.2022
2339 Clouds 27 1010 85 10000 0.91 143 11:33 30.04.2022
2340 Clouds 27 1009 84 10000 0.77 130 10:44 30.04.2022
2341 Clouds 27 1007 82 10000 0.24 18 09:25 30.04.2022
2342 Clouds 28 1006 78 10000 1.02 316 06:43 30.04.2022
2343 Clouds 30 1009 64 10000 0.82 33 01:53 30.04.2022
2344 Clouds 28 1010 72 10000 0.96 111 23:37 29.04.2022
2345 Clouds 27 1009 79 10000 0.85 159 22:31 29.04.2022
2346 Clouds 26 1009 83 10000 1.34 167 21:34 29.04.2022
2347 Clouds 25 1008 84 10000 1.22 160 20:40 29.04.2022
2348 Clouds 25 1008 83 10000 1.11 180 19:43 29.04.2022
2349 Clouds 25 1008 84 10000 1.47 185 17:55 29.04.2022
2350 Clouds 25 1009 84 10000 1.58 189 17:21 29.04.2022
2351 Clouds 26 1010 85 10000 1.64 202 15:23 29.04.2022
2352 Clouds 26 1010 86 10000 1.7 189 14:20 29.04.2022
2353 Clouds 26 1010 86 10000 1.55 176 12:48 29.04.2022
2354 Clouds 26 1010 85 10000 1.36 159 10:59 29.04.2022
2355 Clouds 27 1008 83 10000 1.16 163 08:33 29.04.2022
2356 Clouds 29 1007 79 10000 1.15 236 07:27 29.04.2022
2357 Clouds 29 1007 79 10000 1.15 236 06:38 29.04.2022
2358 Clouds 29 1007 74 10000 1.07 350 04:43 29.04.2022
2359 Clouds 29 1010 73 10000 1.49 105 00:19 29.04.2022
2360 Clouds 27 1009 81 10000 1.52 125 23:27 28.04.2022
2361 Clouds 27 1009 81 10000 1.52 125 22:41 28.04.2022
2362 Clouds 26 1009 85 10000 1.6 129 21:46 28.04.2022
2363 Clouds 25 1009 86 10000 1.38 141 20:55 28.04.2022
2364 Clouds 25 1008 87 10000 1.66 142 20:22 28.04.2022
2365 Clouds 25 1008 87 10000 1.66 142 19:40 28.04.2022
2366 Clouds 25 1008 87 10000 1.75 142 19:21 28.04.2022
2367 Clouds 26 1008 87 10000 1.95 141 18:23 28.04.2022
2368 Clouds 26 1008 87 10000 1.87 132 16:59 28.04.2022
2369 Clouds 26 1008 87 10000 1.82 137 16:21 28.04.2022
2370 Clouds 26 1008 87 10000 1.82 137 15:57 28.04.2022
2371 Clouds 26 1009 87 10000 1.85 138 15:23 28.04.2022
2372 Clouds 26 1010 87 10000 2.18 135 13:44 28.04.2022
2373 Clouds 26 1010 87 10000 2.19 139 12:37 28.04.2022
2374 Clouds 27 1010 86 10000 1.85 141 11:51 28.04.2022
2375 Clouds 27 1009 85 10000 1.69 132 10:30 28.04.2022
2376 Clouds 27 1009 83 10000 1.23 119 09:52 28.04.2022
2377 Clouds 29 1008 79 10000 0.54 58 08:20 28.04.2022
2378 Clouds 29 1007 77 10000 0.91 18 06:56 28.04.2022
2379 Clouds 29 1007 77 10000 1.78 3 05:54 28.04.2022
2380 Clouds 30 1008 74 10000 2.21 6 04:44 28.04.2022
2381 Clouds 30 1008 72 10000 2.17 11 03:40 28.04.2022
2382 Clouds 28 1011 78 10000 0.97 78 23:52 27.04.2022
2383 Clouds 27 1011 83 10000 0.73 98 22:30 27.04.2022
2384 Clouds 26 1010 86 10000 0.85 142 21:50 27.04.2022
2385 Clouds 26 1010 86 10000 0.93 159 20:51 27.04.2022
2386 Clouds 26 1010 86 10000 0.93 159 20:32 27.04.2022
2387 Clouds 26 1009 86 10000 0.82 142 19:36 27.04.2022
2388 Clouds 26 1008 87 10000 1.03 134 18:45 27.04.2022
2389 Clouds 26 1008 86 10000 0.75 126 18:21 27.04.2022
2390 Clouds 26 1009 85 10000 0.98 88 16:21 27.04.2022
2391 Clouds 26 1011 84 10000 0.77 51 13:29 27.04.2022
2392 Clouds 27 1011 84 10000 0.64 61 11:39 27.04.2022
2393 Clouds 27 1011 83 10000 0.58 46 11:18 27.04.2022
2394 Clouds 28 1009 80 10000 1.64 16 08:53 27.04.2022
2395 Clouds 30 1008 69 10000 1.79 13 06:44 27.04.2022
2396 Clouds 30 1009 67 10000 2.21 20 02:40 27.04.2022
2397 Clouds 30 1010 66 10000 1.84 69 01:27 27.04.2022
2398 Clouds 30 1010 66 10000 1.84 69 00:35 27.04.2022
2399 Clouds 28 1010 77 10000 1.12 118 23:24 26.04.2022
2400 Clouds 28 1010 77 10000 1.12 118 22:52 26.04.2022
2401 Clouds 28 1010 77 10000 1.12 118 22:32 26.04.2022
2402 Clouds 26 1010 83 10000 1.26 148 21:25 26.04.2022
2403 Clouds 26 1010 83 10000 1.26 148 20:39 26.04.2022
2404 Clouds 26 1009 83 10000 1.33 150 19:45 26.04.2022
2405 Clouds 26 1009 82 10000 0.82 164 19:26 26.04.2022
2406 Clouds 26 1009 82 10000 0.82 164 18:39 26.04.2022
2407 Clouds 26 1009 82 10000 0.72 163 17:41 26.04.2022
2408 Clouds 26 1009 82 10000 0.78 170 15:41 26.04.2022
2409 Clouds 26 1010 83 10000 1.03 169 13:51 26.04.2022
2410 Clouds 27 1010 82 10000 0.99 174 12:57 26.04.2022
2411 Clouds 27 1010 81 10000 0.43 134 11:23 26.04.2022
2412 Clouds 27 1010 81 10000 0.43 134 10:30 26.04.2022
2413 Clouds 28 1008 79 10000 0.86 333 08:33 26.04.2022
2414 Clouds 30 1007 66 10000 2.25 1 04:59 26.04.2022
2415 Clouds 30 1008 67 10000 2.2 2 04:22 26.04.2022
2416 Clouds 30 1010 70 10000 1.52 46 00:51 26.04.2022
2417 Clouds 29 1010 75 10000 1.38 87 23:50 25.04.2022
2418 Clouds 26 1010 84 10000 1.46 138 21:53 25.04.2022
2419 Clouds 25 1009 84 10000 1.37 150 21:25 25.04.2022
2420 Clouds 25 1008 85 10000 1.89 152 19:47 25.04.2022
2421 Clouds 25 1008 85 10000 1.81 156 18:34 25.04.2022
2422 Clouds 25 1008 84 10000 1.73 159 17:39 25.04.2022
2423 Clouds 26 1008 84 10000 1.65 155 16:35 25.04.2022
2424 Clouds 26 1010 84 10000 1.22 151 15:21 25.04.2022
2425 Clouds 26 1010 84 10000 1.24 155 14:23 25.04.2022
2426 Clouds 26 1010 83 10000 1.08 154 12:40 25.04.2022
2427 Clouds 27 1009 83 10000 1.2 86 10:29 25.04.2022
2428 Clouds 27 1009 83 10000 1.2 86 09:39 25.04.2022
2429 Clouds 29 1007 75 10000 1.16 45 07:34 25.04.2022
2430 Clouds 30 1007 72 10000 2.02 33 05:53 25.04.2022
2431 Clouds 30 1010 67 10000 1.84 83 01:27 25.04.2022
2432 Clouds 29 1010 71 10000 1.66 103 23:54 24.04.2022
2433 Clouds 27 1010 77 10000 1.5 126 23:20 24.04.2022
2434 Clouds 27 1010 77 10000 1.5 126 22:37 24.04.2022
2435 Clouds 26 1010 82 10000 1.8 134 21:54 24.04.2022
2436 Clouds 25 1009 83 10000 1.66 139 21:20 24.04.2022
2437 Clouds 25 1009 83 10000 1.66 139 20:39 24.04.2022
2438 Clouds 25 1009 84 10000 1.52 145 19:51 24.04.2022
2439 Clouds 25 1009 85 10000 1.76 153 18:28 24.04.2022
2440 Clouds 25 1009 85 10000 1.76 153 17:40 24.04.2022
2441 Clouds 25 1009 85 10000 1.89 152 17:20 24.04.2022
2442 Clouds 25 1009 85 10000 1.89 152 16:49 24.04.2022
2443 Clouds 26 1009 84 10000 1.78 149 16:20 24.04.2022
2444 Clouds 26 1009 84 10000 1.78 149 15:32 24.04.2022
2445 Clouds 26 1010 84 10000 1.69 150 14:30 24.04.2022
2446 Clouds 26 1011 83 10000 1.43 149 13:26 24.04.2022
2447 Clouds 26 1011 83 10000 1.43 149 12:37 24.04.2022
2448 Clouds 26 1011 83 10000 1.48 146 11:39 24.04.2022
2449 Clouds 27 1010 82 10000 1.32 143 10:32 24.04.2022
2450 Clouds 27 1009 81 10000 1.07 130 09:39 24.04.2022
2451 Clouds 29 1008 72 10000 1.11 43 07:31 24.04.2022
2452 Clouds 31 1008 63 10000 1.92 24 04:44 24.04.2022
2453 Clouds 30 1010 63 10000 1.84 48 01:39 24.04.2022
2454 Clouds 30 1011 67 10000 1.81 66 00:30 24.04.2022
2455 Clouds 29 1011 74 10000 1.64 80 23:45 23.04.2022
2456 Clouds 27 1011 80 10000 1.19 100 23:22 23.04.2022
2457 Clouds 26 1011 85 10000 1.52 148 21:53 23.04.2022
2458 Clouds 26 1011 85 10000 1.52 148 21:34 23.04.2022
2459 Clouds 25 1010 87 10000 1.85 158 20:51 23.04.2022
2460 Clouds 26 1009 88 10000 1.44 145 19:48 23.04.2022
2461 Clouds 26 1009 88 10000 1.25 143 19:19 23.04.2022
2462 Clouds 26 1009 88 10000 1.25 143 18:52 23.04.2022
2463 Clouds 26 1009 88 10000 1.08 139 17:51 23.04.2022
2464 Clouds 26 1009 88 10000 0.86 131 17:26 23.04.2022
2465 Clouds 26 1009 88 10000 0.86 131 16:41 23.04.2022
2466 Clouds 26 1011 87 10000 0.89 97 15:20 23.04.2022
2467 Clouds 26 1011 87 10000 1.07 70 12:44 23.04.2022
2468 Rain 27 1011 86 10000 0.79 56 10:43 23.04.2022
2469 Rain 27 1010 85 10000 0.86 30 09:30 23.04.2022
2470 Clouds 29 1008 76 10000 2.25 7 06:31 23.04.2022
2471 Clouds 29 1010 78 10000 2.27 11 03:54 23.04.2022
2472 Clouds 28 1012 82 10000 2 29 00:57 23.04.2022
2473 Rain 27 1011 87 10000 1.66 36 23:29 22.04.2022
2474 Clouds 26 1011 88 10000 1.44 27 22:20 22.04.2022
2475 Clouds 26 1011 88 10000 1.44 27 21:42 22.04.2022
2476 Clouds 26 1010 88 10000 1.66 27 20:46 22.04.2022
2477 Clouds 26 1009 89 8894 1.38 35 20:26 22.04.2022
2478 Clouds 26 1009 88 10000 1.6 46 19:18 22.04.2022
2479 Clouds 26 1009 88 10000 1.6 46 18:36 22.04.2022
2480 Clouds 26 1009 88 10000 1.33 33 17:39 22.04.2022
2481 Clouds 26 1010 87 10000 1.41 28 16:32 22.04.2022
2482 Clouds 26 1010 88 10000 1.63 20 15:32 22.04.2022
2483 Clouds 26 1011 88 10000 1.53 23 14:43 22.04.2022
2484 Clouds 26 1011 87 10000 2 5 13:42 22.04.2022
2485 Clouds 26 1011 87 10000 1.66 355 12:55 22.04.2022
2486 Clouds 27 1011 85 10000 1.26 353 11:41 22.04.2022
2487 Clouds 27 1011 85 10000 1.21 16 11:18 22.04.2022
2488 Clouds 27 1011 85 10000 1.21 16 10:47 22.04.2022
2489 Rain 27 1010 87 8351 0.96 7 10:25 22.04.2022
2490 Rain 27 1010 87 8351 0.96 7 09:42 22.04.2022
2491 Clouds 27 1009 84 10000 1.46 9 08:49 22.04.2022
2492 Rain 29 1008 73 10000 1.58 9 06:54 22.04.2022
2493 Clouds 31 1010 67 10000 2.06 58 01:41 22.04.2022
2494 Clouds 29 1011 74 10000 1.72 105 23:39 21.04.2022
2495 Rain 28 1011 80 10000 1.55 118 22:48 21.04.2022
2496 Clouds 26 1011 85 10000 1.63 129 21:42 21.04.2022
2497 Rain 26 1010 86 10000 1.49 131 20:32 21.04.2022
2498 Rain 26 1009 85 10000 1.61 129 19:24 21.04.2022
2499 Clouds 26 1009 85 10000 1.61 129 18:32 21.04.2022
2500 Clouds 26 1009 86 10000 1.73 134 17:20 21.04.2022
2501 Rain 26 1010 86 10000 2.04 130 16:19 21.04.2022
2502 Clouds 26 1011 86 10000 2.42 127 15:19 21.04.2022
2503 Clouds 26 1011 87 10000 2.46 122 14:29 21.04.2022
2504 Rain 27 1011 86 10000 2.35 122 13:22 21.04.2022
2505 Clouds 27 1011 86 10000 2.34 126 12:29 21.04.2022
2506 Clouds 27 1010 86 10000 2.24 107 09:58 21.04.2022
2507 Clouds 28 1009 83 10000 2.1 80 08:47 21.04.2022
2508 Clouds 30 1008 72 10000 2.14 51 06:44 21.04.2022
2509 Clouds 31 1009 67 10000 3.32 58 03:42 21.04.2022
2510 Clouds 31 1010 66 10000 3.43 62 03:22 21.04.2022
2511 Clouds 31 1010 66 10000 3.43 62 02:44 21.04.2022
2512 Clouds 31 1010 66 10000 3.43 62 02:44 21.04.2022
2513 Clouds 30 1012 69 10000 3.36 82 00:35 21.04.2022
2514 Clouds 30 1012 69 10000 3.36 82 00:35 21.04.2022
2515 Clouds 29 1012 76 10000 3.01 95 23:40 20.04.2022
2516 Clouds 27 1012 82 10000 2.39 106 23:18 20.04.2022
2517 Clouds 27 1012 82 10000 2.39 106 22:36 20.04.2022
2518 Clouds 26 1011 86 10000 2.21 117 21:43 20.04.2022
2519 Clouds 26 1011 87 10000 2.04 121 20:45 20.04.2022
2520 Clouds 25 1011 87 10000 2.01 122 20:21 20.04.2022
2521 Clouds 25 1011 87 10000 2.01 122 19:44 20.04.2022
2522 Clouds 26 1010 87 10000 1.9 119 18:46 20.04.2022
2523 Clouds 26 1010 87 10000 2.04 127 17:50 20.04.2022
2524 Rain 26 1011 87 10000 2.07 129 16:39 20.04.2022
2525 Clouds 26 1012 87 10000 2.11 124 15:26 20.04.2022
2526 Clouds 27 1012 86 10000 1.94 142 12:22 20.04.2022
2527 Clouds 27 1012 86 10000 1.94 142 11:42 20.04.2022
2528 Clouds 27 1012 86 10000 1.67 122 10:43 20.04.2022
2529 Clouds 27 1010 83 10000 1.4 65 09:28 20.04.2022
2530 Clouds 28 1009 79 10000 1.56 52 08:29 20.04.2022
2531 Clouds 28 1009 78 10000 1.44 52 07:53 20.04.2022
2532 Clouds 30 1009 69 10000 2.26 47 06:18 20.04.2022
2533 Clouds 30 1012 66 10000 2.27 68 01:37 20.04.2022
2534 Clouds 28 1013 76 10000 2.01 102 00:21 20.04.2022
2535 Clouds 27 1013 81 10000 1.68 116 22:53 19.04.2022
2536 Clouds 25 1012 85 10000 1.4 119 22:23 19.04.2022
2537 Clouds 25 1012 85 10000 1.4 119 21:49 19.04.2022
2538 Clouds 25 1011 86 10000 1.64 112 20:57 19.04.2022
2539 Clouds 25 1011 86 10000 1.64 112 20:37 19.04.2022
2540 Clouds 25 1010 86 10000 1.71 124 19:32 19.04.2022
2541 Clouds 25 1010 86 10000 1.82 125 18:30 19.04.2022
2542 Clouds 25 1011 86 10000 1.6 135 16:50 19.04.2022
2543 Clouds 26 1011 86 10000 1.75 132 16:25 19.04.2022
2544 Clouds 26 1011 86 10000 1.75 132 15:59 19.04.2022
2545 Clouds 26 1012 86 10000 2.08 129 14:46 19.04.2022
2546 Rain 26 1012 85 10000 2.31 126 12:53 19.04.2022
2547 Rain 26 1012 85 10000 2.31 126 12:33 19.04.2022
2548 Rain 26 1012 85 10000 2.32 138 11:34 19.04.2022
2549 Rain 27 1011 84 10000 1.94 128 09:35 19.04.2022
2550 Clouds 29 1009 73 10000 1.74 64 07:43 19.04.2022
2551 Clouds 31 1010 63 10000 3.59 70 04:25 19.04.2022
2552 Clouds 30 1012 62 10000 2.94 74 01:41 19.04.2022
2553 Clouds 28 1013 72 10000 2.21 102 23:49 18.04.2022
2554 Clouds 27 1013 80 10000 2.22 122 22:46 18.04.2022
2555 Clouds 25 1012 85 10000 2.5 138 21:25 18.04.2022
2556 Clouds 25 1011 85 10000 2.3 136 20:39 18.04.2022
2557 Clouds 25 1011 86 10000 2.42 139 19:59 18.04.2022
2558 Rain 25 1011 86 10000 2.42 139 19:32 18.04.2022
2559 Rain 25 1011 86 10000 2.42 139 18:43 18.04.2022
2560 Rain 25 1011 87 10000 2.09 136 17:40 18.04.2022
2561 Clouds 25 1011 87 10000 2.11 133 17:19 18.04.2022
2562 Clouds 25 1011 87 10000 2.11 133 16:38 18.04.2022
2563 Clouds 25 1012 87 10000 2.25 132 15:30 18.04.2022
2564 Rain 26 1013 87 10000 2.54 130 14:22 18.04.2022
2565 Rain 26 1013 88 10000 2 113 12:56 18.04.2022
2566 Rain 26 1012 88 10000 2.06 111 12:24 18.04.2022
2567 Rain 26 1012 88 9337 2.12 101 10:46 18.04.2022
2568 Rain 26 1011 88 7246 2.33 85 09:32 18.04.2022
2569 Rain 27 1010 87 6387 2.34 83 08:46 18.04.2022
2570 Clouds 29 1009 78 10000 2.65 78 06:52 18.04.2022
2571 Clouds 30 1012 67 10000 3.7 83 02:29 18.04.2022
2572 Clouds 27 1012 79 10000 2.64 109 23:21 17.04.2022
2573 Clouds 27 1012 79 10000 2.64 109 22:36 17.04.2022
2574 Clouds 26 1012 83 10000 2.48 110 21:34 17.04.2022
2575 Clouds 25 1011 83 10000 2.38 110 20:52 17.04.2022
2576 Clouds 25 1011 83 10000 2.27 111 20:19 17.04.2022
2577 Clouds 25 1010 84 10000 2.12 127 18:45 17.04.2022
2578 Clouds 26 1010 84 10000 2.06 127 17:26 17.04.2022
2579 Clouds 26 1011 84 10000 2.23 134 15:34 17.04.2022
2580 Rain 26 1012 83 10000 2.07 139 14:45 17.04.2022
2581 Rain 26 1013 85 10000 1.37 141 13:29 17.04.2022
2582 Rain 26 1013 85 10000 1.37 141 12:45 17.04.2022
2583 Rain 26 1012 85 10000 1.15 78 10:58 17.04.2022
2584 Rain 26 1011 85 10000 1.23 45 10:29 17.04.2022
2585 Rain 26 1011 85 10000 1.23 45 09:51 17.04.2022
2586 Clouds 27 1010 82 10000 1.57 31 09:20 17.04.2022
2587 Rain 27 1010 82 10000 1.57 31 08:31 17.04.2022
2588 Rain 29 1008 72 10000 1.78 11 05:34 17.04.2022
2589 Clouds 29 1011 70 10000 1.62 79 01:52 17.04.2022
2590 Rain 28 1012 76 10000 1.71 92 00:41 17.04.2022
2591 Clouds 28 1012 79 10000 1.56 97 23:30 16.04.2022
2592 Clouds 25 1011 86 10000 1.87 119 21:47 16.04.2022
2593 Clouds 25 1010 87 10000 2.16 126 20:54 16.04.2022
2594 Rain 25 1009 87 10000 2.37 133 19:24 16.04.2022
2595 Rain 25 1009 87 10000 2.37 133 18:43 16.04.2022
2596 Clouds 26 1009 87 10000 1.68 135 16:51 16.04.2022
2597 Clouds 26 1010 87 10000 1.37 148 15:49 16.04.2022
2598 Clouds 26 1011 86 10000 1.11 151 14:58 16.04.2022
2599 Clouds 26 1011 86 10000 1.11 151 14:37 16.04.2022
2600 Clouds 26 1011 87 10000 0.89 146 13:49 16.04.2022
2601 Clouds 26 1012 87 10000 0.89 154 12:43 16.04.2022
2602 Clouds 26 1011 87 10000 0.97 166 11:33 16.04.2022
2603 Clouds 27 1009 84 10000 0.45 91 10:29 16.04.2022
2604 Clouds 27 1009 84 10000 0.45 91 09:36 16.04.2022
2605 Clouds 27 1009 83 10000 0.77 48 08:42 16.04.2022
2606 Clouds 29 1007 70 10000 1.15 38 07:21 16.04.2022
2607 Clouds 30 1008 65 10000 1.74 40 04:54 16.04.2022
2608 Clouds 27 1012 82 10000 0.92 47 01:22 16.04.2022
2609 Clouds 26 1012 86 10000 0.62 78 23:45 15.04.2022
2610 Clouds 26 1012 87 10000 0.65 119 22:48 15.04.2022
2611 Clouds 25 1011 88 10000 0.68 119 22:28 15.04.2022
2612 Clouds 25 1010 88 10000 0.77 85 21:20 15.04.2022
2613 Clouds 25 1010 88 10000 0.77 85 20:36 15.04.2022
2614 Clouds 25 1010 88 10000 0.82 56 19:43 15.04.2022
2615 Clouds 25 1010 88 10000 0.67 269 18:57 15.04.2022
2616 Clouds 25 1010 89 10000 1.13 263 18:26 15.04.2022
2617 Clouds 25 1010 89 10000 1.13 263 17:56 15.04.2022
2618 Clouds 25 1010 90 10000 1.45 256 17:23 15.04.2022
2619 Clouds 25 1011 91 10000 1.6 252 16:24 15.04.2022
2620 Clouds 25 1011 91 10000 1.6 252 15:40 15.04.2022
2621 Clouds 26 1012 86 10000 0.28 21 13:55 15.04.2022
2622 Clouds 26 1012 86 10000 0.33 7 12:48 15.04.2022
2623 Clouds 26 1012 86 10000 0.39 20 11:59 15.04.2022
2624 Clouds 26 1012 86 10000 0.39 20 11:40 15.04.2022
2625 Clouds 26 1011 86 10000 0.45 70 10:45 15.04.2022
2626 Clouds 26 1011 85 10000 0.43 64 09:57 15.04.2022
2627 Clouds 27 1010 84 10000 0.68 35 09:21 15.04.2022
2628 Clouds 28 1009 82 10000 0.8 10 08:24 15.04.2022
2629 Clouds 29 1009 77 10000 1.12 27 06:47 15.04.2022
2630 Clouds 29 1009 74 10000 2.49 52 04:28 15.04.2022
2631 Clouds 29 1012 70 10000 1.7 114 23:42 14.04.2022
2632 Clouds 27 1011 79 10000 1.58 139 23:19 14.04.2022
2633 Clouds 27 1011 79 10000 1.58 139 22:42 14.04.2022
2634 Clouds 25 1011 85 10000 2 146 22:24 14.04.2022
2635 Clouds 25 1011 86 10000 2.12 141 21:32 14.04.2022
2636 Clouds 25 1009 87 10000 2.07 124 19:24 14.04.2022
2637 Clouds 25 1009 87 10000 2.07 124 18:31 14.04.2022
2638 Clouds 25 1009 88 10000 2.12 124 17:44 14.04.2022
2639 Clouds 25 1010 88 10000 2.14 127 16:46 14.04.2022
2640 Clouds 26 1011 88 10000 2.68 126 15:28 14.04.2022
2641 Clouds 26 1011 87 10000 2.67 124 13:47 14.04.2022
2642 Clouds 26 1011 87 10000 2.89 121 13:18 14.04.2022
2643 Clouds 26 1011 87 10000 2.89 121 12:31 14.04.2022
2644 Clouds 26 1011 87 10000 2.7 120 11:36 14.04.2022
2645 Clouds 26 1011 86 10000 2.29 122 10:56 14.04.2022
2646 Clouds 27 1010 84 10000 1.94 113 10:27 14.04.2022
2647 Clouds 28 1009 81 10000 1.7 88 09:26 14.04.2022
2648 Clouds 29 1008 73 10000 2.29 63 07:36 14.04.2022
2649 Clouds 30 1008 70 10000 2.63 64 04:35 14.04.2022
2650 Clouds 29 1011 69 10000 2.25 106 23:45 13.04.2022
2651 Clouds 25 1010 79 10000 2.36 144 22:24 13.04.2022
2652 Clouds 25 1010 79 10000 2.36 144 21:42 13.04.2022
2653 Clouds 25 1009 79 10000 1.74 147 20:25 13.04.2022
2654 Clouds 24 1009 80 10000 1.96 146 19:39 13.04.2022
2655 Clouds 25 1009 80 10000 1.76 145 18:36 13.04.2022
2656 Clouds 25 1009 80 10000 2.12 128 17:24 13.04.2022
2657 Clouds 25 1009 80 10000 2.12 128 16:41 13.04.2022
2658 Clear 25 1010 81 10000 2.7 130 15:43 13.04.2022
2659 Clear 25 1010 81 10000 2.83 133 15:19 13.04.2022
2660 Clear 25 1010 81 10000 2.83 133 14:30 13.04.2022
2661 Clouds 25 1011 80 10000 2.79 138 13:36 13.04.2022
2662 Clouds 25 1011 82 10000 2.74 137 12:38 13.04.2022
2663 Clouds 26 1011 80 10000 2.14 124 10:58 13.04.2022
2664 Clouds 27 1010 79 10000 1.43 97 09:45 13.04.2022
2665 Clouds 28 1009 76 10000 1.51 61 08:43 13.04.2022
2666 Clouds 30 1007 66 10000 2.23 55 07:18 13.04.2022
2667 Clouds 30 1007 66 10000 2.23 55 06:46 13.04.2022
2668 Clouds 30 1007 65 10000 2.51 49 06:18 13.04.2022
2669 Clouds 28 1011 77 10000 2.55 101 00:24 13.04.2022
2670 Clouds 28 1011 77 10000 2.55 101 23:46 12.04.2022
2671 Clouds 25 1010 87 10000 2.19 129 22:19 12.04.2022
2672 Clouds 25 1010 87 10000 2.19 129 21:32 12.04.2022
2673 Clouds 25 1010 88 10000 2.23 128 20:42 12.04.2022
2674 Clouds 25 1009 88 10000 2 133 19:53 12.04.2022
2675 Clouds 25 1009 88 10000 2 133 19:32 12.04.2022
2676 Clouds 25 1009 88 10000 1.91 133 18:42 12.04.2022
2677 Clouds 25 1009 87 10000 2.06 132 17:30 12.04.2022
2678 Clouds 25 1010 87 10000 2.28 138 16:23 12.04.2022
2679 Clouds 25 1010 87 10000 2.28 138 15:33 12.04.2022
2680 Clouds 26 1011 87 10000 1.97 142 14:29 12.04.2022
2681 Clouds 26 1011 86 10000 1.62 141 13:37 12.04.2022
2682 Clouds 26 1011 86 10000 1.41 146 12:52 12.04.2022
2683 Clouds 26 1011 85 10000 1.28 131 11:47 12.04.2022
2684 Clouds 26 1010 84 10000 1.42 119 10:47 12.04.2022
2685 Clouds 28 1009 81 10000 1.27 59 09:21 12.04.2022
2686 Clouds 28 1008 77 10000 1.3 49 07:56 12.04.2022
2687 Clouds 29 1008 72 10000 1.26 30 06:24 12.04.2022
2688 Clouds 29 1008 72 10000 1.26 30 05:31 12.04.2022
2689 Clouds 28 1011 75 10000 2.06 93 23:59 11.04.2022
2690 Clouds 27 1011 81 10000 1.8 110 22:44 11.04.2022
2691 Clouds 26 1010 86 10000 2.05 124 21:37 11.04.2022
2692 Clouds 25 1010 87 10000 2.19 130 20:56 11.04.2022
2693 Clouds 25 1009 87 10000 2.17 136 20:29 11.04.2022
2694 Clouds 25 1009 87 10000 2.17 136 19:42 11.04.2022
2695 Clouds 25 1009 88 10000 2.35 133 19:18 11.04.2022
2696 Clouds 25 1009 88 10000 2.35 133 18:41 11.04.2022
2697 Clouds 26 1009 88 10000 1.97 125 17:56 11.04.2022
2698 Clouds 26 1009 88 10000 1.63 113 16:54 11.04.2022
2699 Clouds 26 1010 88 10000 1.51 109 15:45 11.04.2022
2700 Clouds 26 1011 87 10000 1.38 118 13:59 11.04.2022
2701 Clouds 26 1011 87 10000 1.45 115 12:47 11.04.2022
2702 Clouds 26 1011 87 10000 1.43 106 12:29 11.04.2022
2703 Clouds 26 1011 87 10000 1.43 106 11:30 11.04.2022
2704 Clouds 27 1010 86 10000 1.37 60 10:21 11.04.2022
2705 Clouds 27 1009 85 10000 1.11 49 08:50 11.04.2022
2706 Clouds 29 1009 75 10000 1.81 351 05:38 11.04.2022
2707 Clouds 30 1012 67 10000 1.47 73 01:23 11.04.2022
2708 Clouds 27 1012 81 10000 1.56 116 22:33 10.04.2022
2709 Clouds 25 1011 86 10000 1.65 138 21:55 10.04.2022
2710 Clouds 25 1011 86 10000 1.6 134 21:26 10.04.2022
2711 Clouds 25 1010 86 10000 1.41 127 20:25 10.04.2022
2712 Clouds 25 1010 86 10000 1.3 139 19:37 10.04.2022
2713 Clouds 25 1010 87 10000 1.44 135 18:50 10.04.2022
2714 Clouds 25 1010 87 10000 1.44 135 18:30 10.04.2022
2715 Clouds 25 1010 87 10000 1.77 125 17:51 10.04.2022
2716 Clouds 25 1010 87 10000 1.77 125 17:31 10.04.2022
2717 Clouds 26 1011 88 10000 1.96 120 15:53 10.04.2022
2718 Clouds 26 1011 88 10000 1.82 126 14:49 10.04.2022
2719 Clouds 26 1011 87 10000 1.46 139 13:45 10.04.2022
2720 Clouds 26 1011 87 10000 1.27 141 12:32 10.04.2022
2721 Clouds 26 1011 86 10000 1.2 141 11:44 10.04.2022
2722 Clouds 26 1011 86 10000 1.09 122 11:20 10.04.2022
2723 Clouds 26 1011 86 10000 1.09 122 10:34 10.04.2022
2724 Clouds 27 1010 86 10000 1.23 95 09:41 10.04.2022
2725 Rain 27 1009 84 10000 1.51 68 08:40 10.04.2022
2726 Rain 28 1009 83 7847 1.85 52 08:18 10.04.2022
2727 Clouds 29 1008 74 10000 2.23 52 06:59 10.04.2022
2728 Clouds 31 1009 65 10000 2.92 56 03:40 10.04.2022
2729 Clouds 31 1010 64 10000 2.47 67 02:19 10.04.2022
2730 Clouds 29 1012 71 10000 2.3 89 23:53 09.04.2022
2731 Clouds 27 1012 76 10000 1.93 99 22:56 09.04.2022
2732 Clouds 27 1012 76 10000 1.93 99 22:33 09.04.2022
2733 Clouds 25 1010 82 10000 1.53 133 21:19 09.04.2022
2734 Clouds 25 1010 82 10000 1.53 133 20:30 09.04.2022
2735 Clouds 25 1010 83 10000 1.51 131 19:56 09.04.2022
2736 Clouds 25 1010 83 10000 1.52 142 19:38 09.04.2022
2737 Clouds 25 1009 84 10000 1.81 140 18:23 09.04.2022
2738 Clouds 25 1009 84 10000 1.81 140 17:48 09.04.2022
2739 Clouds 25 1009 85 10000 1.97 145 16:56 09.04.2022
2740 Clouds 25 1009 85 10000 1.97 145 16:38 09.04.2022
2741 Clouds 26 1010 85 10000 2.34 142 15:49 09.04.2022
2742 Clouds 26 1010 85 10000 2.57 141 15:25 09.04.2022
2743 Clouds 26 1011 86 10000 2.67 140 14:25 09.04.2022
2744 Clouds 26 1011 86 10000 2.71 136 13:26 09.04.2022
2745 Clouds 26 1011 86 10000 2.71 136 12:53 09.04.2022
2746 Clouds 26 1011 86 10000 2.55 132 11:44 09.04.2022
2747 Clouds 26 1011 86 10000 2.15 117 10:41 09.04.2022
2748 Clouds 27 1010 86 10000 2.1 96 10:18 09.04.2022
2749 Clouds 28 1009 83 10000 2.38 71 09:21 09.04.2022
2750 Clouds 29 1008 77 10000 2.52 66 07:49 09.04.2022
2751 Clouds 31 1009 64 10000 3.81 80 03:22 09.04.2022
2752 Clouds 30 1011 66 10000 3.38 93 00:32 09.04.2022
2753 Clouds 28 1011 78 10000 2.62 105 23:20 08.04.2022
2754 Clouds 26 1010 84 10000 2.69 116 21:42 08.04.2022
2755 Clouds 26 1009 84 10000 2.63 117 20:41 08.04.2022
2756 Clouds 26 1008 85 10000 2.39 120 19:41 08.04.2022
2757 Clouds 26 1008 87 10000 2.51 123 18:38 08.04.2022
2758 Clouds 26 1008 86 10000 2.71 125 17:59 08.04.2022
2759 Clouds 26 1009 85 10000 2.87 127 17:27 08.04.2022
2760 Clouds 26 1009 85 10000 2.87 127 16:52 08.04.2022
2761 Clouds 26 1009 84 10000 2.86 121 16:22 08.04.2022
2762 Clouds 26 1010 83 10000 3.06 115 15:28 08.04.2022
2763 Clouds 26 1010 83 10000 3.06 115 14:40 08.04.2022
2764 Clouds 26 1010 82 10000 3.1 116 13:55 08.04.2022
2765 Clouds 26 1010 83 10000 2.95 118 13:30 08.04.2022
2766 Clouds 26 1010 83 10000 3.27 116 12:42 08.04.2022
2767 Clouds 26 1010 83 10000 2.63 129 10:55 08.04.2022
2768 Clouds 27 1009 83 10000 2.31 126 09:41 08.04.2022
2769 Clouds 27 1007 83 10000 2.09 108 08:58 08.04.2022
2770 Clouds 28 1006 80 10000 1.93 71 07:38 08.04.2022
2771 Clouds 29 1006 77 10000 1.64 73 06:44 08.04.2022
2772 Clouds 29 1009 74 10000 3.05 75 02:27 08.04.2022
2773 Clouds 27 1010 83 10000 2.97 92 00:26 08.04.2022
2774 Clouds 27 1010 83 10000 2.97 92 23:38 07.04.2022
2775 Clouds 26 1010 86 10000 2.77 103 22:40 07.04.2022
2776 Clouds 26 1009 87 10000 2.79 101 22:22 07.04.2022
2777 Clouds 26 1009 87 10000 2.79 101 21:56 07.04.2022
2778 Clouds 25 1008 87 10000 2.6 97 21:19 07.04.2022
2779 Clouds 25 1008 87 10000 2.6 97 20:38 07.04.2022
2780 Clouds 26 1007 86 10000 2.06 93 18:54 07.04.2022
2781 Clouds 26 1008 85 10000 1.15 80 17:27 07.04.2022
2782 Clouds 26 1008 85 10000 1.15 80 16:45 07.04.2022
2783 Clouds 26 1009 85 10000 1.27 72 16:23 07.04.2022
2784 Clouds 26 1009 86 10000 1.34 68 15:19 07.04.2022
2785 Clouds 26 1009 86 10000 1.7 70 13:45 07.04.2022
2786 Clouds 26 1010 86 10000 1.82 56 12:58 07.04.2022
2787 Clouds 26 1009 86 10000 2.02 57 11:40 07.04.2022
2788 Clouds 27 1008 85 10000 2.37 22 09:42 07.04.2022
2789 Clouds 27 1007 82 10000 3.1 18 08:38 07.04.2022
2790 Rain 28 1006 79 10000 4.22 15 06:57 07.04.2022
2791 Clouds 28 1008 81 10000 3.72 41 02:58 07.04.2022
2792 Clouds 27 1009 86 10000 2.25 56 02:27 07.04.2022
2793 Clouds 24 1010 89 10000 0.77 60 00:28 07.04.2022
2794 Clouds 24 1010 91 10000 0.35 322 22:52 06.04.2022
2795 Clouds 24 1009 91 9735 1 355 22:27 06.04.2022
2796 Clouds 24 1009 91 9735 1 355 21:45 06.04.2022
2797 Clouds 25 1008 92 3847 4.04 9 20:40 06.04.2022
2798 Clouds 25 1007 94 2432 5.3 14 19:54 06.04.2022
2799 Clouds 25 1006 95 1620 4.68 3 18:52 06.04.2022
2800 Clouds 25 1006 95 1620 4.68 3 18:32 06.04.2022
2801 Clouds 25 1006 95 2275 4.69 356 17:35 06.04.2022
2802 Rain 25 1007 95 1632 4.08 354 16:38 06.04.2022
2803 Rain 25 1007 96 2205 4.4 358 15:48 06.04.2022
2804 Rain 25 1008 97 777 3.8 5 15:21 06.04.2022
2805 Rain 25 1009 96 1477 3.53 62 13:25 06.04.2022
2806 Rain 25 1008 97 1753 4.81 55 12:27 06.04.2022
2807 Rain 25 1008 97 995 3.84 39 10:48 06.04.2022
2808 Rain 25 1007 96 5366 2.23 30 10:29 06.04.2022
2809 Rain 25 1007 96 5366 2.23 30 09:40 06.04.2022
2810 Rain 25 1007 96 5366 2.23 30 09:40 06.04.2022
2811 Rain 25 1006 95 5057 2.33 13 08:32 06.04.2022
2812 Rain 26 1006 91 6160 2.88 13 07:50 06.04.2022
2813 Clouds 27 1007 88 6530 3.88 7 03:54 06.04.2022
2814 Clouds 26 1009 95 1527 2.94 16 23:53 05.04.2022
2815 Clouds 25 1009 95 3438 3.06 12 22:57 05.04.2022
2816 Rain 25 1007 94 3896 3.26 3 21:23 05.04.2022
2817 Clouds 26 1007 93 4353 3.44 359 20:26 05.04.2022
2818 Clouds 25 1007 95 1540 2.45 22 19:42 05.04.2022
2819 Clouds 25 1007 95 1880 2.81 12 18:18 05.04.2022
2820 Clouds 25 1007 95 3829 2.87 11 16:54 05.04.2022
2821 Clouds 25 1008 94 4264 2.8 7 15:56 05.04.2022
2822 Clouds 25 1008 94 4264 2.8 7 15:34 05.04.2022
2823 Clouds 25 1009 94 4178 2.88 10 14:35 05.04.2022
2824 Rain 25 1009 93 2521 2.35 20 13:35 05.04.2022
2825 Rain 25 1009 95 1502 1.9 19 11:51 05.04.2022
2826 Rain 25 1009 95 1502 1.9 19 11:32 05.04.2022
2827 Clouds 25 1008 95 2666 1.68 27 09:59 05.04.2022
2828 Clouds 25 1008 95 2482 1.98 16 08:54 05.04.2022
2829 Clouds 25 1006 94 3465 2.03 343 06:58 05.04.2022
2830 Clouds 27 1009 88 5195 3.16 357 01:55 05.04.2022
2831 Rain 27 1010 88 9941 2.93 359 22:42 04.04.2022
2832 Clouds 27 1009 88 9035 2.94 1 22:24 04.04.2022
2833 Clouds 27 1008 89 10000 3.06 7 21:21 04.04.2022
2834 Clouds 27 1008 89 10000 3.06 7 20:49 04.04.2022
2835 Clouds 26 1008 88 10000 3.27 15 19:57 04.04.2022
2836 Clouds 26 1008 92 4673 2.97 23 19:26 04.04.2022
2837 Clouds 26 1008 92 4673 2.97 23 18:33 04.04.2022
2838 Rain 26 1009 93 1882 3 17 16:36 04.04.2022
2839 Rain 26 1009 93 1386 2.56 22 15:44 04.04.2022
2840 Rain 26 1010 93 1203 2.48 23 15:25 04.04.2022
2841 Rain 26 1010 93 1203 2.48 23 14:46 04.04.2022
2842 Rain 26 1010 94 1057 2.78 17 13:30 04.04.2022
2843 Rain 26 1010 92 3261 2.35 20 11:55 04.04.2022
2844 Clouds 26 1010 92 3504 2.62 12 11:29 04.04.2022
2845 Rain 27 1008 90 4526 3.38 17 08:54 04.04.2022
2846 Rain 29 1009 80 8656 3.68 26 04:19 04.04.2022
2847 Clouds 28 1011 80 10000 2.35 26 00:44 04.04.2022
2848 Clouds 27 1011 86 10000 2.85 24 22:43 03.04.2022
2849 Clouds 26 1011 88 10000 2.77 32 21:46 03.04.2022
2850 Clouds 26 1010 89 10000 2.2 42 20:55 03.04.2022
2851 Clouds 26 1009 88 10000 1.6 32 19:50 03.04.2022
2852 Clouds 26 1009 89 10000 1.5 34 18:32 03.04.2022
2853 Clouds 26 1009 89 10000 1.53 36 17:47 03.04.2022
2854 Clouds 26 1009 89 10000 1.37 36 16:57 03.04.2022
2855 Clouds 26 1009 89 10000 1.37 36 16:39 03.04.2022
2856 Clouds 26 1011 89 10000 1.19 30 14:48 03.04.2022
2857 Clouds 26 1011 88 10000 0.96 28 13:53 03.04.2022
2858 Clouds 26 1011 88 10000 1 62 12:42 03.04.2022
2859 Clouds 26 1010 88 10000 0.88 38 10:58 03.04.2022
2860 Clouds 26 1010 89 10000 1.31 13 09:38 03.04.2022
2861 Clouds 27 1009 88 9324 1.79 3 08:33 03.04.2022
2862 Clouds 29 1007 76 10000 2.64 3 05:38 03.04.2022
2863 Clouds 30 1010 70 10000 2.3 16 01:54 03.04.2022
2864 Clouds 27 1010 79 10000 0.8 60 23:21 02.04.2022
2865 Clouds 25 1010 83 10000 0.8 136 22:18 02.04.2022
2866 Clouds 25 1010 83 10000 0.8 136 21:46 02.04.2022
2867 Clouds 25 1009 84 10000 1.1 130 21:18 02.04.2022
2868 Clouds 25 1009 85 10000 1.38 125 19:53 02.04.2022
2869 Clouds 25 1008 85 10000 1.24 136 18:23 02.04.2022
2870 Clouds 25 1008 85 10000 1.24 136 18:23 02.04.2022
2871 Clouds 25 1008 85 10000 1.24 136 17:53 02.04.2022
2872 Clouds 25 1009 83 10000 0.98 128 16:27 02.04.2022
2873 Clouds 26 1010 82 10000 0.8 145 15:22 02.04.2022
2874 Clouds 26 1010 82 10000 0.8 145 14:49 02.04.2022
2875 Clouds 26 1010 85 10000 1.3 164 13:36 02.04.2022
2876 Rain 26 1010 85 10000 0.76 203 12:47 02.04.2022
2877 Clouds 26 1010 85 10000 0.97 259 11:31 02.04.2022
2878 Clouds 26 1009 86 10000 1.8 223 09:30 02.04.2022
2879 Clouds 27 1007 84 8208 1.59 346 06:51 02.04.2022
2880 Clouds 29 1008 76 10000 2.34 6 03:53 02.04.2022
2881 Clouds 27 1009 82 10000 1.05 115 23:58 01.04.2022
2882 Clouds 27 1009 82 10000 1.05 115 23:30 01.04.2022
2883 Clouds 24 1009 91 10000 1.95 179 21:43 01.04.2022
2884 Clouds 24 1009 92 10000 1.72 187 20:51 01.04.2022
2885 Clouds 24 1008 92 10000 1.94 190 20:28 01.04.2022
2886 Clouds 24 1008 90 10000 1.45 233 19:34 01.04.2022
2887 Clouds 24 1008 91 10000 2.75 257 18:50 01.04.2022
2888 Clouds 24 1007 91 10000 4.02 259 17:54 01.04.2022
2889 Clouds 24 1007 94 8074 4.75 277 16:53 01.04.2022
2890 Clouds 25 1008 96 1770 3.53 305 15:41 01.04.2022
2891 Clouds 25 1009 97 850 2.84 36 14:25 01.04.2022
2892 Clouds 25 1009 96 1020 3.07 36 13:34 01.04.2022
2893 Clouds 25 1009 96 1020 3.07 36 13:34 01.04.2022
2894 Clouds 25 1009 96 1042 4.71 31 12:32 01.04.2022
2895 Clouds 25 1009 96 1204 6.8 32 11:41 01.04.2022
2896 Rain 25 1008 97 1384 4.59 41 10:19 01.04.2022
2897 Rain 26 1007 93 3547 2.58 39 09:19 01.04.2022
2898 Rain 26 1005 90 4618 1.85 36 06:54 01.04.2022
2899 Rain 28 1006 85 9135 2.19 40 04:51 01.04.2022
2900 Rain 28 1006 85 9135 2.19 40 04:33 01.04.2022
2901 Clouds 30 1008 76 10000 1.57 46 01:57 01.04.2022
2902 Clouds 29 1008 79 10000 1.4 84 23:58 31.03.2022
2903 Clouds 26 1007 87 10000 1.39 141 21:53 31.03.2022
2904 Clouds 26 1007 87 10000 1.39 141 21:32 31.03.2022
2905 Clouds 26 1006 87 10000 1.21 162 20:29 31.03.2022
2906 Clouds 26 1006 87 10000 1.21 162 19:49 31.03.2022
2907 Clouds 26 1006 87 10000 1.17 185 18:44 31.03.2022
2908 Clouds 26 1006 87 10000 1.35 179 17:49 31.03.2022
2909 Rain 26 1006 87 10000 1.08 183 16:38 31.03.2022
2910 Clouds 26 1007 88 10000 1.02 175 15:43 31.03.2022
2911 Clouds 26 1008 87 10000 1.08 175 15:19 31.03.2022
2912 Clouds 26 1008 87 10000 1.08 175 14:36 31.03.2022
2913 Clouds 27 1009 86 10000 0.7 164 11:57 31.03.2022
2914 Clouds 27 1008 85 10000 0.47 176 11:20 31.03.2022
2915 Rain 27 1008 85 10000 0.19 306 09:45 31.03.2022
2916 Rain 28 1006 85 9772 0.23 303 07:59 31.03.2022
2917 Clouds 29 1006 81 8731 0.87 322 05:23 31.03.2022
2918 Clouds 29 1010 78 10000 0.54 43 23:43 30.03.2022
2919 Rain 28 1009 82 10000 0.3 53 22:32 30.03.2022
2920 Clouds 27 1009 85 10000 0.46 142 21:39 30.03.2022
2921 Clouds 26 1008 86 10000 0.62 161 20:53 30.03.2022
2922 Rain 26 1007 88 10000 0.91 193 19:59 30.03.2022
2923 Rain 26 1007 87 10000 0.8 211 18:59 30.03.2022
2924 Rain 26 1007 86 10000 0.69 226 18:18 30.03.2022
2925 Clouds 26 1007 86 10000 0.69 226 17:44 30.03.2022
2926 Clouds 26 1007 87 10000 0.5 233 16:54 30.03.2022
2927 Clouds 26 1007 87 10000 0.5 233 16:31 30.03.2022
2928 Clouds 27 1009 87 10000 0.67 185 14:56 30.03.2022
2929 Clouds 27 1009 85 10000 0.44 172 13:34 30.03.2022
2930 Clouds 27 1009 84 10000 0.29 207 12:41 30.03.2022
2931 Clouds 28 1009 84 10000 0.52 305 10:54 30.03.2022
2932 Clouds 28 1008 83 10000 0.42 310 09:58 30.03.2022
2933 Clouds 28 1007 82 10000 0.49 349 08:57 30.03.2022
2934 Rain 28 1007 82 10000 0.99 136 07:31 30.03.2022
2935 Clouds 30 1006 77 10000 0.52 347 05:40 30.03.2022
2936 Clouds 30 1008 73 10000 0.89 325 03:21 30.03.2022
2937 Clouds 29 1010 71 10000 0.79 125 23:32 29.03.2022
2938 Clouds 26 1010 85 10000 1.81 187 22:18 29.03.2022
2939 Clouds 26 1010 85 10000 1.81 187 21:40 29.03.2022
2940 Clouds 26 1009 86 10000 1.91 193 20:39 29.03.2022
2941 Clouds 26 1008 86 10000 1.42 209 19:35 29.03.2022
2942 Clouds 26 1008 86 10000 1.53 210 18:54 29.03.2022
2943 Clouds 26 1008 87 10000 1.58 216 18:18 29.03.2022
2944 Clouds 26 1008 87 10000 1.38 224 17:20 29.03.2022
2945 Clouds 26 1008 87 10000 1.38 224 16:54 29.03.2022
2946 Clouds 26 1008 87 10000 1.27 221 15:44 29.03.2022
2947 Clouds 27 1009 86 10000 1.13 223 14:43 29.03.2022
2948 Clouds 26 1010 86 10000 1.12 197 13:36 29.03.2022
2949 Clouds 27 1010 86 10000 0.94 193 12:39 29.03.2022
2950 Rain 27 1010 86 10000 1.32 265 11:24 29.03.2022
2951 Clouds 27 1009 85 9995 1.89 295 10:20 29.03.2022
2952 Clouds 28 1008 83 10000 2.48 303 08:52 29.03.2022
2953 Clouds 29 1006 78 10000 2.9 307 06:53 29.03.2022
2954 Clouds 30 1008 70 10000 2.55 321 02:52 29.03.2022
2955 Clouds 28 1010 81 10000 0.78 281 23:37 28.03.2022
2956 Clouds 27 1010 85 10000 0.74 266 22:57 28.03.2022
2957 Clouds 27 1010 85 10000 0.74 266 22:33 28.03.2022
2958 Clouds 26 1009 88 10000 1.12 264 21:43 28.03.2022
2959 Clouds 26 1008 88 10000 1.26 267 20:35 28.03.2022
2960 Clouds 26 1008 89 10000 1.49 286 19:48 28.03.2022
2961 Clouds 26 1008 89 10000 1.49 286 19:30 28.03.2022
2962 Clouds 26 1008 89 10000 1.6 279 18:44 28.03.2022
2963 Clouds 26 1008 90 10000 2.1 272 17:41 28.03.2022
2964 Clouds 26 1008 90 10000 2.48 277 16:48 28.03.2022
2965 Clouds 26 1010 89 10000 2.19 286 14:56 28.03.2022
2966 Clouds 26 1010 88 10000 1.85 290 14:23 28.03.2022
2967 Clouds 26 1011 91 10000 1.35 316 13:18 28.03.2022
2968 Rain 26 1011 91 10000 1.22 332 11:43 28.03.2022
2969 Rain 26 1009 91 10000 1.34 315 09:55 28.03.2022
2970 Rain 27 1008 90 10000 2.35 331 09:20 28.03.2022
2971 Rain 28 1007 87 8725 2.89 333 08:23 28.03.2022
2972 Rain 28 1007 85 8272 1.36 333 07:56 28.03.2022
2973 Rain 29 1007 80 9208 1.5 316 05:55 28.03.2022
2974 Clouds 28 1010 79 10000 0.24 124 23:53 27.03.2022
2975 Rain 25 1009 87 10000 1.5 187 22:25 27.03.2022
2976 Rain 25 1009 87 10000 1.5 187 21:42 27.03.2022
2977 Clouds 25 1009 88 10000 1.57 195 20:58 27.03.2022
2978 Clouds 25 1009 87 10000 1.17 213 20:18 27.03.2022
2979 Clouds 25 1009 87 10000 1.17 213 19:34 27.03.2022
2980 Clouds 25 1008 88 10000 1.27 214 18:29 27.03.2022
2981 Clouds 25 1008 88 10000 1.27 214 17:42 27.03.2022
2982 Clouds 25 1009 88 10000 1.3 205 17:23 27.03.2022
2983 Clouds 25 1010 88 10000 1.33 203 15:39 27.03.2022
2984 Clouds 26 1011 88 10000 1.4 211 13:56 27.03.2022
2985 Clouds 26 1011 88 10000 1.4 223 12:41 27.03.2022
2986 Clouds 26 1010 90 10000 1.46 261 11:21 27.03.2022
2987 Clouds 26 1009 90 10000 1.45 281 09:32 27.03.2022
2988 Rain 28 1008 81 10000 2.43 303 06:44 27.03.2022
2989 Clouds 27 1010 85 10000 1.56 301 01:41 27.03.2022
2990 Clouds 25 1011 90 10000 1.63 234 00:24 27.03.2022
2991 Clouds 25 1011 93 10000 1.39 238 22:43 26.03.2022
2992 Clouds 25 1011 94 10000 0.86 298 21:46 26.03.2022
2993 Clouds 24 1010 96 6654 0.66 130 21:25 26.03.2022
2994 Rain 24 1009 96 9948 1.23 328 19:29 26.03.2022
2995 Rain 25 1009 96 9151 1.43 251 17:54 26.03.2022
2996 Rain 25 1009 96 9151 1.43 251 17:33 26.03.2022
2997 Rain 25 1009 95 8496 0.76 240 16:27 26.03.2022
2998 Rain 25 1010 93 10000 0.96 218 15:20 26.03.2022
2999 Clouds 25 1011 91 10000 1.31 234 13:53 26.03.2022
3000 Rain 25 1011 92 7652 1.85 261 12:59 26.03.2022
3001 Clouds 25 1011 92 7919 2.18 258 11:41 26.03.2022
3002 Clouds 25 1011 92 7919 2.18 258 11:41 26.03.2022
3003 Clouds 25 1011 92 7919 2.18 258 11:41 26.03.2022
3004 Rain 25 1010 92 10000 2.36 277 10:28 26.03.2022
3005 Rain 26 1010 92 10000 2.02 285 08:35 26.03.2022
3006 Rain 26 1007 90 9532 0.96 303 05:54 26.03.2022
3007 Rain 28 1008 86 6453 1.94 350 04:23 26.03.2022
3008 Clouds 28 1011 83 9502 2.26 343 00:22 26.03.2022
3009 Rain 27 1010 85 10000 1.07 49 21:41 25.03.2022
3010 Rain 25 1010 87 10000 0.8 135 20:46 25.03.2022
3011 Clouds 25 1009 87 10000 0.82 152 19:36 25.03.2022
3012 Clouds 25 1009 85 10000 1.32 137 18:47 25.03.2022
3013 Clouds 25 1008 86 10000 1.4 138 17:47 25.03.2022
3014 Clouds 25 1008 86 10000 1.36 151 17:26 25.03.2022
3015 Clouds 25 1009 86 10000 1.31 159 16:18 25.03.2022
3016 Clouds 26 1010 87 10000 1.54 162 14:26 25.03.2022
3017 Clouds 26 1011 87 10000 1.53 167 12:48 25.03.2022
3018 Clouds 26 1010 90 9675 2.51 216 09:57 25.03.2022
3019 Clouds 26 1009 89 4347 1.81 228 09:27 25.03.2022
3020 Rain 27 1008 87 6733 1.29 253 07:53 25.03.2022
3021 Rain 28 1008 84 7126 1.37 284 07:26 25.03.2022
3022 Clouds 28 1007 82 9733 1.11 309 05:35 25.03.2022
3023 Clouds 30 1010 66 10000 1.38 14 00:42 25.03.2022
3024 Clouds 28 1011 72 10000 0.67 92 22:30 24.03.2022
3025 Clouds 27 1011 80 10000 0.88 142 21:35 24.03.2022
3026 Clouds 25 1009 86 10000 1.11 164 19:51 24.03.2022
3027 Clouds 25 1009 89 10000 1.26 137 18:58 24.03.2022
3028 Clouds 25 1008 90 10000 1.27 137 17:45 24.03.2022
3029 Clouds 25 1008 90 10000 1.07 136 16:54 24.03.2022
3030 Clouds 25 1009 90 10000 1.19 120 15:21 24.03.2022
3031 Clouds 25 1009 90 10000 1.19 120 14:42 24.03.2022
3032 Clouds 25 1010 90 10000 1.56 118 13:59 24.03.2022
3033 Clouds 25 1011 90 10000 1.17 128 12:42 24.03.2022
3034 Clouds 25 1011 91 10000 1.29 143 11:33 24.03.2022
3035 Rain 25 1011 92 10000 1.04 166 09:48 24.03.2022
3036 Clouds 25 1010 93 10000 0.62 83 08:40 24.03.2022
3037 Clouds 27 1008 85 7697 0.86 23 06:44 24.03.2022
3038 Rain 28 1010 80 10000 0.6 78 01:43 24.03.2022
3039 Clouds 27 1011 82 10000 0.83 39 22:37 23.03.2022
3040 Clouds 26 1010 86 10000 0.67 55 21:25 23.03.2022
3041 Clouds 26 1010 86 10000 0.67 55 21:25 23.03.2022
3042 Clouds 26 1010 86 10000 0.67 55 21:25 23.03.2022
3043 Clouds 26 1010 86 10000 0.67 55 20:47 23.03.2022
3044 Clouds 25 1009 86 10000 0.44 85 19:43 23.03.2022
3045 Clouds 25 1009 86 10000 0.44 85 19:43 23.03.2022
3046 Clouds 25 1008 88 10000 0.71 190 18:22 23.03.2022
3047 Clouds 25 1008 88 10000 0.71 190 17:36 23.03.2022
3048 Rain 25 1009 91 10000 1.17 242 16:18 23.03.2022
3049 Clouds 25 1010 91 10000 1.55 284 14:50 23.03.2022
3050 Rain 25 1011 92 10000 1.97 318 13:51 23.03.2022
3051 Clouds 26 1011 85 10000 0.67 92 11:51 23.03.2022
3052 Clouds 27 1009 83 10000 0.7 351 09:21 23.03.2022
3053 Clouds 29 1007 76 10000 1.74 351 06:40 23.03.2022
3054 Clouds 30 1008 69 10000 2.62 360 03:58 23.03.2022
3055 Clouds 29 1011 69 10000 1.66 13 00:29 23.03.2022
3056 Clouds 27 1010 84 10000 1.04 19 22:26 22.03.2022
3057 Clouds 26 1010 86 10000 0.27 1 21:29 22.03.2022
3058 Clouds 26 1010 86 10000 0.27 1 20:39 22.03.2022
3059 Clouds 25 1009 86 10000 0.11 64 19:31 22.03.2022
3060 Clouds 26 1008 85 10000 0.09 321 18:57 22.03.2022
3061 Clouds 26 1008 85 10000 0.16 327 17:47 22.03.2022
3062 Clouds 26 1008 85 10000 0.17 246 17:23 22.03.2022
3063 Clouds 26 1009 84 10000 0.44 222 15:52 22.03.2022
3064 Clouds 26 1009 85 10000 0.43 220 15:22 22.03.2022
3065 Clouds 26 1009 85 10000 0.43 220 14:46 22.03.2022
3066 Clouds 26 1010 85 10000 0.37 192 14:24 22.03.2022
3067 Clouds 26 1010 84 10000 0.4 102 12:41 22.03.2022
3068 Clouds 27 1010 84 10000 0.26 54 11:26 22.03.2022
3069 Clouds 27 1009 84 10000 0.06 84 09:55 22.03.2022
3070 Clouds 28 1007 83 10000 1.06 310 07:48 22.03.2022
3071 Clouds 29 1007 75 10000 2.04 358 05:19 22.03.2022
3072 Clouds 30 1008 68 10000 2.96 7 02:54 22.03.2022
3073 Clouds 29 1011 70 10000 1.08 4 23:21 21.03.2022
3074 Clouds 27 1011 75 10000 0.57 358 21:51 21.03.2022
3075 Clouds 27 1011 75 10000 0.57 358 21:51 21.03.2022
3076 Clouds 26 1011 80 10000 0.24 260 20:45 21.03.2022
3077 Clouds 25 1010 80 10000 0.37 228 20:26 21.03.2022
3078 Clouds 25 1010 80 10000 0.37 228 19:53 21.03.2022
3079 Clouds 25 1010 79 10000 0.56 165 19:23 21.03.2022
3080 Clouds 25 1009 79 10000 0.47 171 17:43 21.03.2022
3081 Clouds 26 1009 79 10000 0.35 194 16:59 21.03.2022
3082 Clouds 26 1009 79 10000 0.35 194 16:36 21.03.2022
3083 Clouds 26 1009 79 10000 0.25 199 15:45 21.03.2022
3084 Clouds 26 1010 79 10000 0.37 163 14:47 21.03.2022
3085 Clouds 26 1010 78 10000 0.49 106 13:27 21.03.2022
3086 Clouds 26 1010 79 10000 0.92 131 12:22 21.03.2022
3087 Clouds 26 1010 79 10000 0.92 131 11:39 21.03.2022
3088 Clouds 27 1009 77 10000 0.4 88 09:54 21.03.2022
3089 Clouds 28 1008 74 10000 1.15 358 07:54 21.03.2022
3090 Clouds 30 1007 64 10000 1.75 20 06:31 21.03.2022
3091 Clouds 30 1010 72 10000 1.43 17 02:24 21.03.2022
3092 Clouds 28 1012 80 10000 1.82 30 23:26 20.03.2022
3093 Clouds 28 1012 80 10000 1.82 30 22:36 20.03.2022
3094 Rain 27 1012 84 10000 1.36 37 21:44 20.03.2022
3095 Rain 26 1011 86 7586 1.31 37 20:58 20.03.2022
3096 Clouds 26 1011 86 7586 1.31 37 20:39 20.03.2022
3097 Clouds 26 1010 88 10000 1.47 21 19:55 20.03.2022
3098 Clouds 26 1010 89 10000 1.74 16 19:24 20.03.2022
3099 Rain 26 1010 89 10000 2.04 13 17:49 20.03.2022
3100 Rain 26 1009 89 10000 2.03 9 17:27 20.03.2022
3101 Clouds 26 1009 89 10000 2.03 9 16:38 20.03.2022
3102 Clouds 26 1010 87 10000 1.25 6 14:53 20.03.2022
3103 Clouds 26 1011 86 10000 1.07 16 13:39 20.03.2022
3104 Clouds 27 1011 83 10000 0.91 52 12:20 20.03.2022
3105 Clouds 27 1010 81 10000 0.86 25 10:28 20.03.2022
3106 Clouds 29 1008 75 10000 1.76 12 08:26 20.03.2022
3107 Clouds 29 1007 70 10000 2.19 12 06:39 20.03.2022
3108 Clouds 31 1008 64 10000 2.91 8 03:25 20.03.2022
3109 Clouds 31 1010 66 10000 2.02 21 00:54 20.03.2022
3110 Clouds 31 1010 66 10000 2.02 21 00:54 20.03.2022
3111 Clouds 31 1010 66 10000 2.02 21 00:34 20.03.2022
3112 Clouds 29 1011 75 10000 1.62 33 22:39 19.03.2022
3113 Clouds 26 1010 86 10000 0.77 88 21:26 19.03.2022
3114 Clouds 26 1009 86 10000 0.78 83 19:39 19.03.2022
3115 Clouds 26 1009 86 10000 0.76 90 18:44 19.03.2022
3116 Clouds 26 1008 87 10000 0.66 117 17:52 19.03.2022
3117 Clouds 26 1008 86 10000 0.56 114 16:57 19.03.2022
3118 Clouds 26 1009 85 10000 0.52 115 15:29 19.03.2022
3119 Clouds 26 1010 85 10000 0.55 86 13:49 19.03.2022
3120 Clouds 26 1010 85 10000 0.73 68 12:56 19.03.2022
3121 Clouds 26 1010 85 10000 0.73 68 12:36 19.03.2022
3122 Clouds 26 1010 84 10000 0.92 69 11:45 19.03.2022
3123 Clouds 27 1009 83 10000 1.32 35 09:22 19.03.2022
3124 Clouds 30 1007 69 10000 2.12 4 05:44 19.03.2022
3125 Clouds 30 1008 68 10000 2.09 22 02:33 19.03.2022
3126 Rain 29 1009 71 10000 3.07 22 23:52 18.03.2022
3127 Rain 29 1010 74 10000 2.76 28 22:58 18.03.2022
3128 Clouds 28 1009 79 10000 1.77 34 22:21 18.03.2022
3129 Clouds 25 1008 87 10000 0.78 30 20:26 18.03.2022
3130 Clouds 26 1007 87 10000 0.26 53 19:24 18.03.2022
3131 Clouds 25 1008 86 10000 0.4 16 18:43 18.03.2022
3132 Clouds 26 1007 84 10000 0.23 339 16:54 18.03.2022
3133 Clouds 26 1007 84 10000 0.18 284 16:23 18.03.2022
3134 Clouds 26 1008 84 10000 0.22 265 14:27 18.03.2022
3135 Clouds 26 1008 84 10000 0.22 265 13:39 18.03.2022
3136 Clouds 26 1009 83 10000 0.41 357 11:35 18.03.2022
3137 Clouds 27 1008 83 10000 1.01 9 10:21 18.03.2022
3138 Clouds 27 1008 82 10000 1.47 16 08:46 18.03.2022
3139 Clouds 30 1006 67 10000 2.43 17 06:45 18.03.2022
3140 Clouds 31 1006 61 10000 2.55 18 04:39 18.03.2022
3141 Clouds 30 1009 63 10000 2.29 41 00:55 18.03.2022
3142 Clouds 30 1010 63 10000 2.37 49 23:52 17.03.2022
3143 Clouds 29 1010 69 10000 2.18 59 22:44 17.03.2022
3144 Clouds 28 1010 78 10000 1.84 72 22:18 17.03.2022
3145 Clouds 26 1009 85 10000 1.55 91 21:27 17.03.2022
3146 Clouds 26 1009 85 10000 1.55 91 20:53 17.03.2022
3147 Clouds 26 1009 86 10000 1.37 101 20:19 17.03.2022
3148 Clouds 26 1009 86 10000 1.37 101 19:37 17.03.2022
3149 Clouds 26 1008 85 10000 1.43 116 18:51 17.03.2022
3150 Clouds 25 1008 84 10000 1.71 114 17:28 17.03.2022
3151 Clouds 25 1009 84 10000 1.91 119 16:19 17.03.2022
3152 Clouds 25 1009 84 10000 1.91 119 16:19 17.03.2022
3153 Clouds 25 1009 84 10000 1.91 119 15:42 17.03.2022
3154 Clouds 26 1009 85 10000 1.79 125 14:58 17.03.2022
3155 Clouds 26 1010 86 10000 1.57 153 13:28 17.03.2022
3156 Clouds 26 1010 87 10000 1.55 158 12:38 17.03.2022
3157 Clouds 26 1010 87 10000 1.57 152 11:31 17.03.2022
3158 Clouds 26 1010 86 10000 1.17 149 10:38 17.03.2022
3159 Clouds 27 1009 84 10000 0.79 70 08:42 17.03.2022
3160 Clouds 28 1008 79 10000 1.09 39 08:18 17.03.2022
3161 Clouds 30 1007 67 10000 1.91 27 05:49 17.03.2022
3162 Clouds 31 1007 63 10000 2.6 27 03:46 17.03.2022
3163 Clouds 30 1011 67 10000 1.41 57 00:21 17.03.2022
3164 Clouds 28 1011 74 10000 1.18 77 22:52 16.03.2022
3165 Clouds 28 1011 74 10000 1.18 77 22:33 16.03.2022
3166 Clouds 27 1011 80 10000 1.02 112 21:52 16.03.2022
3167 Clouds 25 1010 84 10000 1.21 127 20:28 16.03.2022
3168 Clouds 25 1010 84 10000 0.82 102 19:22 16.03.2022
3169 Clouds 25 1010 79 10000 1.33 152 18:40 16.03.2022
3170 Clouds 25 1010 80 10000 1.13 177 17:43 16.03.2022
3171 Clouds 25 1009 80 10000 1.35 192 17:25 16.03.2022
3172 Clouds 25 1010 79 10000 1.44 194 15:56 16.03.2022
3173 Clouds 25 1011 80 10000 1.27 193 14:28 16.03.2022
3174 Clouds 25 1011 80 10000 1.27 193 13:32 16.03.2022
3175 Clouds 26 1011 78 10000 0.87 179 11:57 16.03.2022
3176 Clouds 26 1011 78 10000 0.83 173 11:21 16.03.2022
3177 Clouds 26 1010 78 10000 0.55 153 10:23 16.03.2022
3178 Clouds 26 1010 78 10000 0.06 151 08:53 16.03.2022
3179 Clouds 29 1008 67 10000 1.35 25 06:27 16.03.2022
3180 Clouds 27 1010 82 10000 1.71 64 01:45 16.03.2022
3181 Clouds 26 1011 90 10000 2.6 67 22:38 15.03.2022
3182 Clouds 26 1011 92 10000 2.89 59 21:55 15.03.2022
3183 Clouds 26 1009 88 10000 1.46 69 20:28 15.03.2022
3184 Clouds 26 1009 88 10000 1.26 42 18:57 15.03.2022
3185 Clouds 25 1008 91 10000 1.99 52 16:57 15.03.2022
3186 Clouds 25 1008 91 10000 1.99 52 16:32 15.03.2022
3187 Clouds 26 1009 88 10000 1.83 43 14:58 15.03.2022
3188 Clouds 26 1009 88 10000 1.83 43 14:39 15.03.2022
3189 Rain 26 1010 89 10000 1.9 35 13:38 15.03.2022
3190 Clouds 26 1010 88 10000 1.73 25 12:24 15.03.2022
3191 Rain 26 1010 88 10000 1.73 25 11:31 15.03.2022
3192 Rain 26 1009 87 10000 1.44 33 09:40 15.03.2022
3193 Clouds 26 1009 87 10000 1.44 40 08:42 15.03.2022
3194 Clouds 27 1008 85 8015 1.46 35 07:50 15.03.2022
3195 Rain 28 1007 81 8988 1.39 30 06:54 15.03.2022
3196 Clouds 30 1008 72 10000 2.22 34 02:59 15.03.2022
3197 Clouds 29 1010 73 10000 1.41 51 23:39 14.03.2022
3198 Clouds 28 1010 78 10000 1.01 79 23:21 14.03.2022
3199 Clouds 27 1010 83 10000 0.91 120 22:19 14.03.2022
3200 Clouds 25 1009 87 10000 1.13 148 21:22 14.03.2022
3201 Clouds 25 1009 87 10000 1.13 148 20:35 14.03.2022
3202 Clouds 25 1009 87 10000 1.02 165 19:59 14.03.2022
3203 Clouds 25 1008 88 10000 1.4 150 18:37 14.03.2022
3204 Rain 25 1008 88 10000 1.32 149 17:44 14.03.2022
3205 Rain 25 1008 88 10000 1.26 149 16:57 14.03.2022
3206 Clouds 26 1008 88 10000 1.27 147 15:34 14.03.2022
3207 Clouds 26 1009 87 10000 0.91 144 14:33 14.03.2022
3208 Clouds 26 1010 87 10000 0.74 92 11:53 14.03.2022
3209 Clouds 26 1010 87 10000 0.87 96 10:35 14.03.2022
3210 Clouds 27 1009 86 10000 0.86 85 09:39 14.03.2022
3211 Clouds 27 1008 85 10000 1.04 36 09:20 14.03.2022
3212 Clouds 27 1008 85 10000 1.04 36 08:49 14.03.2022
3213 Clouds 29 1007 78 10000 1.18 360 07:21 14.03.2022
3214 Clouds 30 1007 72 10000 2.26 359 04:27 14.03.2022
3215 Clouds 31 1009 65 10000 1.93 16 01:52 14.03.2022
3216 Clouds 30 1010 65 10000 1.75 32 00:38 14.03.2022
3217 Clouds 27 1011 79 10000 0.89 96 21:56 13.03.2022
3218 Clouds 25 1010 84 10000 1.06 120 21:27 13.03.2022
3219 Clouds 25 1010 84 10000 1.06 120 20:49 13.03.2022
3220 Clouds 25 1010 85 10000 1.21 135 20:26 13.03.2022
3221 Clouds 25 1010 85 10000 1.21 135 19:42 13.03.2022
3222 Clouds 25 1009 85 10000 1.06 133 19:23 13.03.2022
3223 Clouds 25 1009 85 10000 1.06 133 18:49 13.03.2022
3224 Clouds 25 1009 86 10000 0.75 130 18:26 13.03.2022
3225 Clouds 25 1009 86 10000 0.53 111 17:39 13.03.2022
3226 Clouds 25 1009 86 10000 0.42 121 16:48 13.03.2022
3227 Clouds 25 1009 88 10000 0.46 129 16:27 13.03.2022
3228 Clouds 25 1009 88 10000 0.46 129 15:43 13.03.2022
3229 Clouds 25 1010 89 10000 0.75 142 14:49 13.03.2022
3230 Clouds 26 1011 88 10000 0.8 117 13:29 13.03.2022
3231 Clouds 26 1011 87 10000 0.88 102 12:25 13.03.2022
3232 Clouds 26 1011 87 10000 0.88 102 11:44 13.03.2022
3233 Clouds 26 1011 86 10000 0.68 87 10:50 13.03.2022
3234 Clouds 26 1010 85 10000 0.34 86 10:29 13.03.2022
3235 Clouds 26 1010 85 10000 0.34 86 09:42 13.03.2022
3236 Rain 27 1009 85 10000 0.37 5 08:50 13.03.2022
3237 Rain 27 1009 85 10000 0.37 5 08:30 13.03.2022
3238 Rain 28 1008 78 10000 0.63 343 07:19 13.03.2022
3239 Rain 27 1008 82 10000 1.69 326 04:58 13.03.2022
3240 Clouds 30 1010 69 10000 1.2 19 01:47 13.03.2022
3241 Clouds 27 1012 83 10000 0.66 10 23:26 12.03.2022
3242 Clouds 26 1012 86 10000 0.81 1 21:32 12.03.2022
3243 Clouds 25 1010 90 10000 0.93 347 20:19 12.03.2022
3244 Clouds 25 1010 90 10000 0.93 347 19:44 12.03.2022
3245 Clouds 25 1010 89 10000 1.13 349 18:38 12.03.2022
3246 Clouds 25 1009 90 10000 0.18 300 17:48 12.03.2022
3247 Clouds 25 1010 90 10000 0.34 188 16:28 12.03.2022
3248 Clouds 25 1010 90 10000 0.34 188 15:40 12.03.2022
3249 Clouds 25 1010 91 10000 0.69 150 15:18 12.03.2022
3250 Clouds 25 1011 92 10000 1.56 122 13:53 12.03.2022
3251 Clouds 25 1012 91 10000 1.95 139 12:27 12.03.2022
3252 Rain 25 1012 91 10000 1.95 139 11:52 12.03.2022
3253 Clouds 25 1011 92 10000 2.47 150 11:20 12.03.2022
3254 Clouds 25 1011 91 10000 2.5 157 09:59 12.03.2022
3255 Rain 25 1011 91 10000 2.5 157 09:40 12.03.2022
3256 Rain 26 1009 88 7658 1.18 207 07:51 12.03.2022
3257 Rain 28 1008 82 9981 0.9 348 05:44 12.03.2022
3258 Clouds 28 1011 78 10000 1.06 10 00:24 12.03.2022
3259 Clouds 28 1011 78 10000 1.06 10 23:37 11.03.2022
3260 Clouds 26 1010 86 10000 0.27 18 21:48 11.03.2022
3261 Clouds 26 1009 87 10000 0.34 57 20:58 11.03.2022
3262 Clouds 26 1009 87 10000 0.34 57 20:37 11.03.2022
3263 Clouds 25 1009 88 10000 0.48 69 19:54 11.03.2022
3264 Clouds 25 1008 88 10000 0.21 73 19:27 11.03.2022
3265 Clouds 25 1008 90 10000 1.56 194 17:37 11.03.2022
3266 Clouds 25 1008 92 10000 1.73 194 17:18 11.03.2022
3267 Clouds 25 1009 90 10000 1.66 181 15:57 11.03.2022
3268 Rain 26 1010 90 9274 1.68 211 14:22 11.03.2022
3269 Clouds 26 1010 87 10000 1.49 191 12:53 11.03.2022
3270 Clouds 26 1010 89 10000 1.9 207 12:22 11.03.2022
3271 Clouds 26 1010 89 10000 1.9 207 11:56 11.03.2022
3272 Clouds 26 1010 88 7421 2.01 211 10:18 11.03.2022
3273 Rain 27 1009 86 6824 1.09 238 08:57 11.03.2022
3274 Rain 27 1008 84 6438 0.59 292 08:24 11.03.2022
3275 Rain 27 1008 84 6438 0.59 292 07:46 11.03.2022
3276 Rain 28 1007 81 10000 1.46 319 05:49 11.03.2022
3277 Clouds 29 1007 78 10000 1.69 346 03:49 11.03.2022
3278 Clouds 30 1010 68 10000 0.92 32 23:46 10.03.2022
3279 Clouds 29 1010 76 10000 0.94 27 22:31 10.03.2022
3280 Clouds 27 1010 81 10000 0.37 31 21:47 10.03.2022
3281 Clouds 26 1009 85 10000 0.31 178 21:19 10.03.2022
3282 Clouds 26 1009 86 10000 0.34 210 19:45 10.03.2022
3283 Clouds 26 1009 86 10000 0.34 258 18:53 10.03.2022
3284 Clouds 26 1008 86 10000 0.26 133 17:28 10.03.2022
3285 Clouds 26 1009 86 10000 0.26 132 15:55 10.03.2022
3286 Clouds 26 1009 86 10000 0.35 153 14:48 10.03.2022
3287 Clouds 26 1011 85 10000 0.49 147 13:21 10.03.2022
3288 Clouds 27 1011 85 10000 0.48 119 11:57 10.03.2022
3289 Clouds 27 1010 85 10000 0.37 116 10:53 10.03.2022
3290 Rain 27 1009 84 10000 0.57 38 09:18 10.03.2022
3291 Rain 28 1008 82 10000 1.05 8 07:33 10.03.2022
3292 Clouds 30 1008 72 10000 2.39 10 04:18 10.03.2022
3293 Clouds 30 1009 72 10000 2.34 15 01:40 10.03.2022
3294 Clouds 29 1011 75 10000 1.59 33 22:46 09.03.2022
3295 Clouds 28 1011 81 10000 1.09 44 21:49 09.03.2022
3296 Clouds 26 1010 85 10000 0.79 68 21:24 09.03.2022
3297 Clouds 26 1010 86 10000 0.64 78 19:42 09.03.2022
3298 Clouds 26 1009 86 10000 0.57 87 18:25 09.03.2022
3299 Clouds 26 1009 87 10000 0.73 73 17:26 09.03.2022
3300 Clouds 26 1009 87 10000 0.84 73 16:24 09.03.2022
3301 Clouds 26 1010 87 10000 0.9 87 14:32 09.03.2022
3302 Clouds 26 1010 87 10000 0.97 81 13:52 09.03.2022
3303 Clouds 26 1011 87 10000 1.03 76 12:36 09.03.2022
3304 Clouds 26 1011 87 10000 0.72 61 11:48 09.03.2022
3305 Clouds 26 1011 88 10000 0.6 63 11:18 09.03.2022
3306 Clouds 27 1010 88 10000 0.69 52 09:41 09.03.2022
3307 Clouds 27 1010 87 10000 0.87 21 08:47 09.03.2022
3308 Clouds 29 1008 75 10000 1.78 359 06:27 09.03.2022
3309 Rain 29 1010 76 10000 2 30 01:53 09.03.2022
3310 Rain 29 1011 74 10000 2.12 35 00:22 09.03.2022
3311 Clouds 28 1011 79 10000 1.62 44 22:46 08.03.2022
3312 Clouds 27 1010 83 10000 1 64 21:51 08.03.2022
3313 Clouds 26 1010 86 10000 1.1 91 21:21 08.03.2022
3314 Clouds 26 1009 87 10000 0.84 114 20:21 08.03.2022
3315 Clouds 26 1009 86 10000 0.56 100 19:21 08.03.2022
3316 Clouds 26 1008 85 10000 0.25 100 18:22 08.03.2022
3317 Clouds 26 1008 85 10000 0.3 178 16:42 08.03.2022
3318 Clouds 27 1009 86 10000 0.71 117 14:55 08.03.2022
3319 Rain 27 1010 86 10000 0.7 127 13:39 08.03.2022
3320 Clouds 27 1010 86 10000 0.69 134 12:20 08.03.2022
3321 Clouds 27 1010 86 10000 0.69 134 11:42 08.03.2022
3322 Clouds 27 1009 87 10000 1.04 138 10:28 08.03.2022
3323 Rain 27 1008 86 10000 1.15 132 08:56 08.03.2022
3324 Rain 28 1007 82 7809 1.09 63 05:51 08.03.2022
3325 Clouds 31 1008 64 10000 2.18 33 01:53 08.03.2022
3326 Clouds 29 1010 66 10000 0.82 100 22:41 07.03.2022
3327 Clouds 28 1010 73 10000 0.8 133 21:36 07.03.2022
3328 Clouds 26 1009 79 10000 1.16 168 20:55 07.03.2022
3329 Clouds 26 1008 79 10000 1.23 180 20:29 07.03.2022
3330 Clouds 26 1008 79 10000 1.23 180 19:48 07.03.2022
3331 Clouds 26 1008 81 10000 1.28 174 18:48 07.03.2022
3332 Clouds 26 1008 80 10000 1.25 164 18:25 07.03.2022
3333 Clouds 26 1008 80 10000 1.29 161 16:56 07.03.2022
3334 Clouds 26 1008 80 10000 1.29 161 16:34 07.03.2022
3335 Clouds 26 1008 79 10000 1.73 161 14:40 07.03.2022
3336 Clouds 26 1010 78 10000 1.57 168 12:33 07.03.2022
3337 Clouds 27 1010 77 10000 0.68 145 10:45 07.03.2022
3338 Clouds 27 1009 75 10000 0.42 107 10:24 07.03.2022
3339 Clouds 29 1007 68 10000 1.78 49 07:24 07.03.2022
3340 Clouds 30 1010 65 10000 0.81 52 00:24 07.03.2022
3341 Clouds 30 1010 65 10000 0.81 52 23:58 06.03.2022
3342 Clouds 29 1011 70 10000 0.61 109 22:58 06.03.2022
3343 Clouds 28 1010 78 10000 1.12 135 22:24 06.03.2022
3344 Clouds 26 1009 83 10000 1.51 154 20:56 06.03.2022
3345 Clear 26 1009 84 10000 1.53 156 20:28 06.03.2022
3346 Clouds 26 1008 84 10000 1.36 152 19:29 06.03.2022
3347 Clouds 26 1008 84 10000 1.5 163 18:25 06.03.2022
3348 Clouds 26 1008 84 10000 1.5 164 17:21 06.03.2022
3349 Clouds 26 1008 84 10000 1.5 164 16:43 06.03.2022
3350 Clouds 26 1008 84 10000 1.65 158 16:18 06.03.2022
3351 Clouds 26 1009 84 10000 1.83 145 14:57 06.03.2022
3352 Clouds 26 1009 84 10000 1.83 145 14:33 06.03.2022
3353 Clouds 26 1010 84 10000 1.62 142 13:30 06.03.2022
3354 Clouds 27 1010 84 10000 1.26 165 12:35 06.03.2022
3355 Clouds 27 1010 82 10000 0.69 142 11:18 06.03.2022
3356 Clouds 27 1009 81 10000 0.4 132 10:27 06.03.2022
3357 Clouds 28 1009 80 10000 0.73 52 08:30 06.03.2022
3358 Clouds 28 1009 80 10000 0.73 52 08:30 06.03.2022
3359 Clouds 29 1008 77 10000 1.26 43 07:45 06.03.2022
3360 Clouds 30 1006 71 10000 1.79 41 06:19 06.03.2022
3361 Clouds 31 1009 66 10000 2.01 54 00:53 06.03.2022
3362 Clouds 31 1009 66 10000 2.01 54 00:31 06.03.2022
3363 Clouds 29 1011 72 10000 1.37 95 23:23 05.03.2022
3364 Clouds 29 1011 72 10000 1.37 95 22:53 05.03.2022
3365 Clouds 28 1010 78 10000 1.33 120 21:56 05.03.2022
3366 Clouds 26 1010 83 10000 1.47 142 21:23 05.03.2022
3367 Clouds 26 1009 84 10000 1.41 154 19:44 05.03.2022
3368 Clouds 26 1009 85 10000 1.48 162 18:54 05.03.2022
3369 Clouds 26 1008 86 10000 1.51 168 18:27 05.03.2022
3370 Clouds 26 1008 87 10000 1.25 169 16:34 05.03.2022
3371 Clouds 26 1009 87 10000 1.24 165 15:31 05.03.2022
3372 Clouds 26 1009 87 10000 0.93 162 14:47 05.03.2022
3373 Clouds 26 1010 86 10000 0.49 162 14:29 05.03.2022
3374 Clouds 27 1011 86 10000 0.3 130 13:21 05.03.2022
3375 Clouds 27 1011 86 10000 0.38 118 11:48 05.03.2022
3376 Clouds 27 1010 86 10000 0.33 79 11:18 05.03.2022
3377 Clouds 27 1010 85 10000 0.46 49 10:18 05.03.2022
3378 Clouds 27 1009 84 10000 0.8 38 08:59 05.03.2022
3379 Clouds 29 1008 78 10000 1.3 22 07:38 05.03.2022
3380 Clouds 30 1007 68 10000 2.28 10 05:43 05.03.2022
3381 Clouds 31 1009 68 10000 2.56 36 02:27 05.03.2022
3382 Clouds 30 1011 71 10000 2.04 41 23:37 04.03.2022
3383 Clouds 29 1011 77 10000 1.53 51 22:42 04.03.2022
3384 Clouds 28 1010 83 10000 1.48 63 21:48 04.03.2022
3385 Clouds 27 1010 87 10000 1.39 63 20:52 04.03.2022
3386 Clouds 26 1009 88 10000 1.3 56 20:22 04.03.2022
3387 Clouds 26 1009 88 10000 1.3 56 19:35 04.03.2022
3388 Clouds 26 1009 88 10000 1.08 62 18:43 04.03.2022
3389 Clouds 26 1009 86 10000 1.1 55 17:31 04.03.2022
3390 Clouds 26 1009 86 10000 1.28 42 16:46 04.03.2022
3391 Clouds 26 1010 86 10000 1.41 36 15:29 04.03.2022
3392 Clouds 26 1011 85 10000 0.76 63 14:19 04.03.2022
3393 Clouds 26 1011 85 10000 0.64 98 13:26 04.03.2022
3394 Clouds 26 1011 85 10000 0.72 110 11:41 04.03.2022
3395 Clouds 27 1011 84 10000 0.61 99 10:42 04.03.2022
3396 Clouds 27 1010 85 10000 0.56 79 09:40 04.03.2022
3397 Clouds 27 1010 84 10000 0.55 28 08:36 04.03.2022
3398 Clouds 28 1008 78 10000 0.87 19 07:23 04.03.2022
3399 Clouds 29 1009 76 10000 2.02 14 03:50 04.03.2022
3400 Clouds 29 1011 79 10000 1.84 11 00:24 04.03.2022
3401 Clouds 28 1011 84 10000 1.58 25 22:21 03.03.2022
3402 Clouds 28 1011 84 10000 1.58 25 21:40 03.03.2022
3403 Clouds 27 1010 87 10000 1.37 34 21:18 03.03.2022
3404 Clouds 26 1010 88 10000 1.37 36 19:48 03.03.2022
3405 Clouds 26 1009 88 10000 1.28 40 18:51 03.03.2022
3406 Clouds 26 1009 87 10000 1.01 44 18:22 03.03.2022
3407 Clouds 26 1009 87 10000 1.05 52 17:27 03.03.2022
3408 Rain 26 1009 87 10000 1.02 49 15:48 03.03.2022
3409 Clouds 26 1010 87 10000 0.99 44 14:59 03.03.2022
3410 Clouds 26 1010 87 10000 0.99 44 14:33 03.03.2022
3411 Rain 26 1012 86 10000 0.98 25 13:18 03.03.2022
3412 Rain 26 1012 86 10000 0.94 359 11:45 03.03.2022
3413 Rain 26 1011 86 10000 0.77 3 10:40 03.03.2022
3414 Clouds 26 1010 86 10000 0.89 359 08:45 03.03.2022
3415 Rain 28 1009 82 8520 1.83 337 07:25 03.03.2022
3416 Clouds 28 1008 81 7885 1.68 323 06:33 03.03.2022
3417 Clouds 29 1011 75 10000 1.75 353 01:21 03.03.2022
3418 Clouds 27 1011 85 10000 0.17 4 23:29 02.03.2022
3419 Clouds 27 1011 85 10000 0.17 4 22:49 02.03.2022
3420 Clouds 25 1011 90 10000 0.09 349 21:25 02.03.2022
3421 Clouds 25 1011 90 10000 0.09 349 20:40 02.03.2022
3422 Clouds 25 1010 90 10000 0.45 321 19:56 02.03.2022
3423 Clouds 25 1010 90 10000 0.45 321 19:56 02.03.2022
3424 Clouds 25 1010 90 10000 0.45 321 19:33 02.03.2022
3425 Clouds 25 1010 90 10000 1 274 18:44 02.03.2022
3426 Clouds 25 1009 91 10000 1.03 268 17:50 02.03.2022
3427 Clouds 25 1009 92 10000 1.19 278 16:59 02.03.2022
3428 Clouds 25 1009 92 10000 1.19 278 16:59 02.03.2022
3429 Clouds 25 1009 92 10000 1.19 278 16:41 02.03.2022
3430 Rain 25 1010 94 10000 1.68 326 14:42 02.03.2022
3431 Clouds 25 1012 93 10000 1.78 10 13:24 02.03.2022
3432 Clouds 26 1011 92 10000 1.74 358 12:41 02.03.2022
3433 Clouds 26 1011 92 10000 1.58 8 11:39 02.03.2022
3434 Clouds 26 1011 91 10000 1.76 11 11:18 02.03.2022
3435 Rain 26 1010 88 10000 1.91 2 09:41 02.03.2022
3436 Rain 27 1009 86 10000 1.41 342 08:51 02.03.2022
3437 Rain 29 1007 80 10000 1.56 340 07:25 02.03.2022
3438 Clouds 29 1007 78 10000 1.37 334 05:44 02.03.2022
3439 Rain 30 1010 68 10000 1.33 22 00:57 02.03.2022
3440 Clouds 29 1010 72 10000 0.99 40 23:45 01.03.2022
3441 Clouds 28 1011 77 10000 0.78 85 22:42 01.03.2022
3442 Clouds 27 1010 81 10000 0.75 124 21:56 01.03.2022
3443 Clouds 26 1010 83 10000 0.74 147 20:56 01.03.2022
3444 Clouds 26 1009 83 10000 0.59 159 20:24 01.03.2022
3445 Clouds 26 1009 83 10000 0.51 166 19:21 01.03.2022
3446 Clouds 25 1009 83 10000 0.83 181 18:32 01.03.2022
3447 Clouds 25 1008 84 10000 0.92 179 17:55 01.03.2022
3448 Clouds 25 1008 85 10000 0.95 200 16:54 01.03.2022
3449 Clouds 25 1009 85 10000 0.79 197 15:51 01.03.2022
3450 Clouds 26 1009 85 10000 0.82 202 14:55 01.03.2022
3451 Clouds 26 1009 85 10000 0.82 202 14:34 01.03.2022
3452 Clouds 26 1010 85 10000 1.12 227 13:27 01.03.2022
3453 Clouds 26 1011 85 10000 1.07 225 12:38 01.03.2022
3454 Clouds 26 1010 86 10000 0.75 214 11:58 01.03.2022
3455 Clouds 26 1009 86 10000 1.15 254 10:26 01.03.2022
3456 Clouds 26 1009 85 10000 1.53 272 08:36 01.03.2022
3457 Clouds 27 1008 82 10000 1.57 291 07:35 01.03.2022
3458 Clouds 27 1009 76 10000 0.73 264 03:29 01.03.2022
3459 Clouds 27 1010 78 10000 0.21 177 00:58 01.03.2022
3460 Clouds 27 1011 80 10000 0.25 336 23:47 28.02.2022
3461 Clouds 27 1011 80 10000 0.25 358 22:50 28.02.2022
3462 Rain 26 1010 82 10000 0.71 205 21:48 28.02.2022
3463 Rain 25 1009 84 10000 1.16 228 20:56 28.02.2022
3464 Rain 25 1009 85 10000 1.36 236 19:51 28.02.2022
3465 Rain 24 1008 86 10000 1.22 232 19:22 28.02.2022
3466 Clouds 24 1008 85 10000 0.67 173 17:57 28.02.2022
3467 Clouds 24 1008 85 10000 0.61 193 17:23 28.02.2022
3468 Clouds 24 1008 85 10000 0.61 193 16:32 28.02.2022
3469 Clouds 25 1009 86 10000 1.02 220 15:19 28.02.2022
3470 Clouds 25 1010 86 10000 1.12 236 14:29 28.02.2022
3471 Rain 25 1011 88 10000 1.6 249 13:24 28.02.2022
3472 Rain 25 1011 90 10000 2.03 232 12:31 28.02.2022
3473 Rain 25 1011 93 10000 2.42 259 11:21 28.02.2022
3474 Rain 25 1010 93 10000 2.67 262 10:24 28.02.2022
3475 Rain 25 1010 93 10000 2.67 262 09:53 28.02.2022
3476 Rain 25 1010 92 10000 2.98 266 09:24 28.02.2022
3477 Rain 25 1010 92 10000 2.98 266 09:24 28.02.2022
3478 Clouds 25 1009 92 10000 3.01 272 08:22 28.02.2022
3479 Clouds 25 1009 92 10000 3.01 272 08:22 28.02.2022
3480 Rain 26 1008 92 6590 2.41 305 06:44 28.02.2022
3481 Clouds 26 1008 93 6719 2.86 309 04:31 28.02.2022
3482 Rain 26 1010 91 6275 2.2 293 01:42 28.02.2022
3483 Rain 25 1010 95 5329 3.16 290 22:57 27.02.2022
3484 Rain 25 1010 95 5329 3.16 290 22:32 27.02.2022
3485 Rain 25 1010 96 1255 3.79 295 21:42 27.02.2022
3486 Rain 25 1009 95 1323 3.11 289 20:51 27.02.2022
3487 Clouds 25 1009 94 4117 2.72 278 20:22 27.02.2022
3488 Clouds 25 1009 94 4117 2.72 278 19:50 27.02.2022
3489 Clouds 25 1008 94 7125 2.41 275 19:24 27.02.2022
3490 Clouds 25 1007 96 3558 2.78 307 18:37 27.02.2022
3491 Clouds 25 1007 96 1534 2.57 304 17:53 27.02.2022
3492 Rain 25 1007 95 3783 2.55 303 16:31 27.02.2022
3493 Rain 25 1008 94 6641 2.71 302 15:39 27.02.2022
3494 Rain 26 1009 93 10000 2.02 311 12:43 27.02.2022
3495 Rain 26 1009 92 8356 1.67 320 12:25 27.02.2022
3496 Clouds 26 1009 92 5773 2.28 315 10:37 27.02.2022
3497 Rain 26 1009 91 5706 2.3 323 09:58 27.02.2022
3498 Rain 26 1008 90 5414 2.24 320 09:24 27.02.2022
3499 Rain 26 1008 90 5414 2.24 320 08:51 27.02.2022
3500 Rain 28 1006 79 10000 2.88 304 06:30 27.02.2022
3501 Rain 29 1006 75 10000 3.52 300 04:19 27.02.2022
3502 Rain 28 1009 82 10000 2.77 301 00:31 27.02.2022
3503 Rain 27 1009 87 10000 2.91 301 22:48 26.02.2022
3504 Rain 26 1008 89 10000 2.36 289 21:29 26.02.2022
3505 Rain 26 1008 89 10000 2.36 289 20:43 26.02.2022
3506 Rain 26 1008 89 10000 2.12 283 19:57 26.02.2022
3507 Rain 26 1008 89 10000 2.12 283 19:33 26.02.2022
3508 Rain 26 1007 87 10000 0.48 247 18:34 26.02.2022
3509 Rain 26 1007 87 10000 0.53 246 17:37 26.02.2022
3510 Rain 26 1007 87 10000 0.45 243 16:39 26.02.2022
3511 Rain 26 1007 86 10000 0.28 285 15:42 26.02.2022
3512 Clouds 26 1007 87 10000 0.65 333 15:19 26.02.2022
3513 Clouds 26 1007 87 10000 0.65 333 14:44 26.02.2022
3514 Clouds 26 1008 88 10000 0.82 333 14:19 26.02.2022
3515 Clouds 26 1009 89 10000 0.69 357 12:53 26.02.2022
3516 Clouds 26 1009 88 10000 0.73 347 11:53 26.02.2022
3517 Clouds 27 1008 87 10000 0.82 337 11:26 26.02.2022
3518 Clouds 27 1008 88 10000 0.95 304 10:19 26.02.2022
3519 Clouds 27 1007 87 10000 1.52 316 08:35 26.02.2022
3520 Clouds 29 1005 77 10000 3.12 314 06:40 26.02.2022
3521 Clouds 30 1008 73 10000 2.46 307 00:25 26.02.2022
3522 Clouds 29 1008 77 10000 1.85 303 22:43 25.02.2022
3523 Clouds 27 1008 83 10000 1.55 290 21:33 25.02.2022
3524 Rain 26 1007 87 10000 1.41 265 20:56 25.02.2022
3525 Clouds 26 1007 88 10000 1.63 262 20:27 25.02.2022
3526 Clouds 26 1006 89 10000 1.42 266 17:57 25.02.2022
3527 Clouds 26 1006 89 10000 1.36 264 16:59 25.02.2022
3528 Rain 26 1007 89 10000 1.5 263 15:56 25.02.2022
3529 Rain 26 1008 89 10000 1.56 269 15:23 25.02.2022
3530 Rain 26 1008 89 10000 1.56 269 14:56 25.02.2022
3531 Rain 26 1008 89 10000 1.66 278 14:27 25.02.2022
3532 Clouds 26 1008 89 10000 1.66 278 13:30 25.02.2022
3533 Clouds 26 1008 88 10000 1.6 282 12:21 25.02.2022
3534 Clouds 26 1008 88 10000 1.81 284 11:22 25.02.2022
3535 Rain 27 1007 89 10000 2 286 10:23 25.02.2022
3536 Rain 27 1007 89 10000 2 286 10:23 25.02.2022
3537 Clouds 27 1007 89 10000 2 286 09:46 25.02.2022
3538 Clouds 27 1006 89 10000 2.41 292 08:41 25.02.2022
3539 Clouds 28 1005 86 10000 2.67 302 07:31 25.02.2022
3540 Rain 30 1005 68 10000 3.13 324 05:42 25.02.2022
3541 Clouds 30 1007 70 10000 2.96 330 02:46 25.02.2022
3542 Clouds 28 1009 76 10000 1.8 326 22:47 24.02.2022
3543 Clouds 27 1008 82 10000 1.19 327 21:51 24.02.2022
3544 Clouds 27 1008 82 10000 1.19 327 21:30 24.02.2022
3545 Clouds 26 1007 85 10000 1 309 20:47 24.02.2022
3546 Clouds 26 1007 86 10000 0.59 291 19:32 24.02.2022
3547 Clouds 25 1006 89 10000 0.35 357 18:21 24.02.2022
3548 Clouds 25 1006 89 10000 0.35 357 17:58 24.02.2022
3549 Clouds 25 1006 89 10000 0.41 29 17:20 24.02.2022
3550 Clouds 26 1006 89 10000 0.51 289 16:28 24.02.2022
3551 Clouds 26 1006 89 10000 0.51 289 15:43 24.02.2022
3552 Clouds 26 1007 89 10000 0.37 292 14:45 24.02.2022
3553 Clouds 26 1008 88 10000 0.43 282 13:59 24.02.2022
3554 Clouds 26 1008 88 10000 0.43 282 13:37 24.02.2022
3555 Clouds 27 1008 88 10000 1.12 274 11:38 24.02.2022
3556 Clouds 27 1008 88 10000 1.28 263 10:32 24.02.2022
3557 Clouds 27 1006 88 10000 1.91 253 08:43 24.02.2022
3558 Clouds 27 1006 88 10000 1.91 253 08:43 24.02.2022
3559 Rain 27 1006 88 10000 3.24 292 07:22 24.02.2022
3560 Rain 27 1006 88 10000 4.1 294 05:40 24.02.2022
3561 Rain 29 1008 78 10000 1.45 6 00:31 24.02.2022
3562 Rain 26 1008 91 10000 0.11 114 22:22 23.02.2022
3563 Rain 25 1007 92 4994 0.22 23 20:45 23.02.2022
3564 Rain 25 1007 92 5249 0.98 16 20:26 23.02.2022
3565 Clouds 25 1007 92 5249 0.98 16 19:35 23.02.2022
3566 Clouds 25 1006 93 8329 1.14 355 18:26 23.02.2022
3567 Rain 26 1006 91 10000 0.97 329 16:28 23.02.2022
3568 Clouds 26 1008 90 10000 1.09 311 13:58 23.02.2022
3569 Clouds 26 1008 88 10000 0.52 211 12:31 23.02.2022
3570 Rain 26 1008 87 10000 0.41 173 10:58 23.02.2022
3571 Rain 26 1008 87 10000 0.46 187 09:49 23.02.2022
3572 Rain 26 1007 89 10000 0.98 181 08:54 23.02.2022
3573 Rain 26 1006 91 10000 1.07 156 07:53 23.02.2022
3574 Rain 29 1007 79 10000 1.81 338 02:58 23.02.2022
3575 Clouds 28 1008 80 10000 0.87 15 00:18 23.02.2022
3576 Clouds 28 1008 80 10000 0.87 15 23:33 22.02.2022
3577 Clouds 26 1008 88 10000 0.85 130 22:28 22.02.2022
3578 Clouds 26 1008 88 10000 0.85 130 21:44 22.02.2022
3579 Clouds 26 1007 90 10000 0.87 168 21:21 22.02.2022
3580 Rain 26 1007 90 10000 0.87 168 20:41 22.02.2022
3581 Rain 25 1007 91 10000 0.58 185 20:22 22.02.2022
3582 Rain 25 1007 91 10000 0.58 185 19:34 22.02.2022
3583 Rain 26 1006 88 10000 0.88 142 18:35 22.02.2022
3584 Clouds 26 1006 88 10000 0.55 161 17:34 22.02.2022
3585 Clouds 26 1006 88 10000 0.13 150 16:56 22.02.2022
3586 Clouds 26 1006 88 10000 0.29 231 16:21 22.02.2022
3587 Clouds 26 1006 88 10000 0.29 231 15:30 22.02.2022
3588 Clouds 26 1008 90 10000 0.68 238 14:28 22.02.2022
3589 Rain 26 1008 92 10000 1.65 327 11:39 22.02.2022
3590 Clouds 27 1007 89 5082 1.48 276 09:45 22.02.2022
3591 Clouds 28 1005 86 4921 1.25 325 07:30 22.02.2022
3592 Clouds 29 1005 83 8951 1.56 335 06:54 22.02.2022
3593 Clouds 30 1006 76 9647 1.58 20 02:50 22.02.2022
3594 Clouds 29 1008 74 10000 1.36 150 23:18 21.02.2022
3595 Clouds 29 1008 74 10000 1.36 150 22:36 21.02.2022
3596 Clouds 26 1007 85 10000 1.61 143 20:52 21.02.2022
3597 Clouds 26 1006 87 10000 1.61 152 18:56 21.02.2022
3598 Clouds 26 1006 87 10000 1.61 152 18:37 21.02.2022
3599 Clouds 26 1006 87 10000 1.04 166 16:23 21.02.2022
3600 Clouds 26 1007 88 10000 1.29 150 14:23 21.02.2022
3601 Clouds 26 1007 88 10000 1.29 150 13:31 21.02.2022
3602 Clouds 26 1007 88 10000 1.29 150 13:31 21.02.2022
3603 Clouds 26 1008 87 10000 1.23 140 12:46 21.02.2022
3604 Clouds 26 1008 88 10000 1.27 140 12:21 21.02.2022
3605 Clouds 27 1007 88 10000 0.61 190 10:27 21.02.2022
3606 Clouds 28 1005 84 10000 0.76 313 07:48 21.02.2022
3607 Clouds 31 1007 66 10000 1.44 1 00:35 21.02.2022
3608 Clouds 29 1008 75 10000 0.17 118 22:32 20.02.2022
3609 Clouds 28 1007 81 10000 0.57 171 21:44 20.02.2022
3610 Clouds 26 1007 84 10000 0.97 189 21:24 20.02.2022
3611 Clouds 26 1007 84 10000 0.97 189 20:43 20.02.2022
3612 Clouds 26 1006 85 10000 0.9 196 19:49 20.02.2022
3613 Clouds 26 1005 87 10000 1.17 213 18:56 20.02.2022
3614 Clouds 26 1005 87 10000 1.17 213 18:36 20.02.2022
3615 Clouds 26 1005 87 10000 1.3 230 17:55 20.02.2022
3616 Clouds 26 1005 87 10000 1.08 217 16:59 20.02.2022
3617 Clouds 27 1006 87 10000 0.47 221 14:55 20.02.2022
3618 Clouds 27 1007 86 10000 0.74 216 13:58 20.02.2022
3619 Clouds 27 1008 87 10000 1.1 228 12:45 20.02.2022
3620 Clouds 27 1008 87 10000 1.23 236 11:30 20.02.2022
3621 Clouds 27 1007 87 10000 1.51 263 10:21 20.02.2022
3622 Clouds 27 1006 86 10000 1.81 287 09:24 20.02.2022
3623 Clouds 30 1006 70 10000 2.39 356 02:54 20.02.2022
3624 Clouds 31 1008 66 10000 2.53 3 00:32 20.02.2022
3625 Clouds 30 1008 70 10000 2.17 6 23:32 19.02.2022
3626 Clouds 28 1008 81 10000 0.2 98 22:24 19.02.2022
3627 Clouds 28 1008 81 10000 0.2 98 21:45 19.02.2022
3628 Clouds 26 1007 86 10000 0.37 94 20:25 19.02.2022
3629 Clouds 26 1007 86 10000 0.37 94 20:25 19.02.2022
3630 Clouds 26 1007 86 10000 0.37 94 20:24 19.02.2022
3631 Clouds 26 1007 86 10000 0.37 94 19:34 19.02.2022
3632 Clouds 26 1006 87 10000 0.59 62 18:38 19.02.2022
3633 Clouds 26 1006 88 10000 0.82 54 17:54 19.02.2022
3634 Clouds 26 1006 88 10000 1.01 48 16:47 19.02.2022
3635 Clouds 26 1007 87 10000 0.99 20 15:20 19.02.2022
3636 Clouds 26 1007 87 10000 0.99 20 14:53 19.02.2022
3637 Clouds 26 1009 87 10000 0.86 14 13:50 19.02.2022
3638 Clouds 26 1009 86 10000 0.46 356 11:40 19.02.2022
3639 Clouds 27 1009 85 10000 0.68 338 10:30 19.02.2022
3640 Clouds 27 1007 83 10000 1.4 345 08:31 19.02.2022
3641 Rain 29 1006 78 10000 1.25 355 06:45 19.02.2022
3642 Clouds 30 1010 71 10000 0.7 44 23:55 18.02.2022
3643 Clouds 27 1010 82 10000 0.78 109 22:24 18.02.2022
3644 Clouds 26 1009 86 10000 0.98 160 20:57 18.02.2022
3645 Clouds 26 1009 86 10000 1.02 169 19:55 18.02.2022
3646 Clouds 26 1008 88 10000 1.14 160 18:50 18.02.2022
3647 Clouds 26 1007 88 10000 0.91 164 18:24 18.02.2022
3648 Clouds 26 1007 88 10000 0.91 164 17:55 18.02.2022
3649 Clouds 26 1008 89 10000 0.44 81 15:23 18.02.2022
3650 Clouds 26 1009 88 10000 0.64 141 13:55 18.02.2022
3651 Clouds 26 1010 88 10000 0.73 140 12:55 18.02.2022
3652 Clouds 26 1010 89 10000 1.22 142 12:36 18.02.2022
3653 Clouds 26 1010 90 10000 1.31 136 11:40 18.02.2022
3654 Clouds 26 1009 89 10000 1.13 94 10:23 18.02.2022
3655 Clouds 28 1006 82 10000 1.41 321 06:57 18.02.2022
3656 Rain 29 1006 80 10000 1.18 353 05:41 18.02.2022
3657 Clouds 30 1009 72 10000 1.12 29 23:34 17.02.2022
3658 Clouds 27 1009 83 10000 0.57 107 21:46 17.02.2022
3659 Clouds 26 1008 86 10000 0.97 161 21:20 17.02.2022
3660 Clouds 26 1008 86 10000 0.97 161 20:38 17.02.2022
3661 Clouds 26 1007 86 10000 0.89 165 19:50 17.02.2022
3662 Clouds 26 1007 87 10000 1.03 123 18:44 17.02.2022
3663 Clouds 26 1006 87 10000 0.81 119 17:50 17.02.2022
3664 Clouds 26 1006 87 10000 0.45 152 16:42 17.02.2022
3665 Clouds 26 1007 87 10000 0.45 158 15:38 17.02.2022
3666 Clouds 26 1008 86 10000 0.46 114 14:26 17.02.2022
3667 Clouds 26 1009 86 10000 0.38 89 12:38 17.02.2022
3668 Clouds 27 1008 85 10000 0.34 20 11:23 17.02.2022
3669 Clouds 27 1008 85 10000 0.34 20 11:23 17.02.2022
3670 Clouds 27 1007 84 10000 0.66 338 08:52 17.02.2022
3671 Clouds 30 1007 69 10000 1.77 10 01:45 17.02.2022
3672 Rain 28 1008 78 10000 1.35 82 23:21 16.02.2022
3673 Clouds 27 1008 84 10000 1.27 107 21:40 16.02.2022
3674 Rain 25 1006 86 10000 1.2 148 19:47 16.02.2022
3675 Clouds 25 1006 87 10000 1.68 129 18:38 16.02.2022
3676 Clouds 25 1006 89 10000 1.78 151 17:53 16.02.2022
3677 Clouds 25 1006 88 10000 1.66 151 15:38 16.02.2022
3678 Clouds 26 1007 87 10000 1.17 137 14:59 16.02.2022
3679 Rain 26 1009 87 10000 0.79 74 12:35 16.02.2022
3680 Rain 26 1009 87 10000 0.87 64 11:55 16.02.2022
3681 Rain 26 1008 87 10000 0.83 46 11:24 16.02.2022
3682 Clouds 26 1008 87 10000 0.83 46 10:30 16.02.2022
3683 Clouds 29 1005 75 10000 2.39 9 06:57 16.02.2022
3684 Clouds 30 1004 69 10000 2.25 13 04:43 16.02.2022
3685 Clouds 29 1008 73 10000 1.17 31 23:44 15.02.2022
3686 Clouds 26 1007 85 10000 0.55 91 22:19 15.02.2022
3687 Rain 26 1007 85 10000 0.55 91 21:45 15.02.2022
3688 Rain 26 1007 86 10000 0.89 104 21:27 15.02.2022
3689 Rain 26 1007 86 10000 0.89 104 20:55 15.02.2022
3690 Clouds 26 1006 87 10000 0.95 103 19:55 15.02.2022
3691 Rain 25 1006 88 10000 0.95 132 18:52 15.02.2022
3692 Clouds 25 1006 95 8782 0.76 357 18:19 15.02.2022
3693 Clouds 25 1006 95 8782 0.76 357 17:48 15.02.2022
3694 Clouds 25 1006 94 7253 0.39 1 16:30 15.02.2022
3695 Clouds 25 1007 93 10000 1.24 126 14:47 15.02.2022
3696 Clouds 26 1009 93 10000 3.1 114 13:26 15.02.2022
3697 Rain 26 1008 89 9663 3.44 101 11:54 15.02.2022
3698 Rain 27 1007 88 10000 2.86 106 10:58 15.02.2022
3699 Clouds 27 1006 88 10000 2.98 100 09:28 15.02.2022
3700 Rain 29 1004 77 10000 2.37 79 06:49 15.02.2022
3701 Clouds 31 1008 66 10000 3.91 88 00:48 15.02.2022
3702 Rain 27 1009 83 10000 3.07 115 22:20 14.02.2022
3703 Clouds 25 1008 87 10000 3.09 123 21:24 14.02.2022
3704 Clouds 25 1008 87 10000 3.09 124 20:23 14.02.2022
3705 Clouds 25 1008 87 10000 3.09 124 19:30 14.02.2022
3706 Clouds 25 1007 87 10000 2.96 124 18:27 14.02.2022
3707 Clouds 25 1007 87 10000 2.96 124 17:43 14.02.2022
3708 Clouds 25 1007 88 10000 2.88 121 17:23 14.02.2022
3709 Clouds 26 1007 89 10000 2.77 120 15:58 14.02.2022
3710 Clouds 26 1009 89 10000 2.69 120 13:37 14.02.2022
3711 Clouds 26 1010 90 10000 2.56 126 13:18 14.02.2022
3712 Clouds 26 1009 90 10000 2.32 132 12:32 14.02.2022
3713 Clouds 26 1010 91 10000 2.47 128 11:43 14.02.2022
3714 Clouds 27 1009 90 10000 2.45 108 10:22 14.02.2022
3715 Clouds 27 1008 89 10000 2.17 110 08:32 14.02.2022
3716 Clouds 27 1006 87 10000 1.39 114 07:26 14.02.2022
3717 Clouds 28 1010 76 10000 2.08 103 23:19 13.02.2022
3718 Clouds 28 1010 76 10000 2.08 103 22:41 13.02.2022
3719 Clouds 27 1010 81 10000 2.06 118 22:22 13.02.2022
3720 Clouds 26 1009 85 10000 2.1 128 21:24 13.02.2022
3721 Clouds 26 1009 85 10000 2.1 128 20:30 13.02.2022
3722 Clouds 26 1008 86 10000 1.4 148 19:23 13.02.2022
3723 Clouds 26 1008 86 10000 1.4 148 18:41 13.02.2022
3724 Clouds 26 1007 86 10000 1.32 127 17:41 13.02.2022
3725 Clouds 26 1007 86 10000 1.35 148 15:53 13.02.2022
3726 Clouds 26 1008 86 10000 1.58 154 14:52 13.02.2022
3727 Clouds 26 1009 87 10000 1.86 158 13:39 13.02.2022
3728 Clouds 26 1010 88 10000 2.15 169 12:44 13.02.2022
3729 Clouds 27 1009 86 10000 1.65 135 10:46 13.02.2022
3730 Clouds 27 1009 85 10000 1.03 127 10:27 13.02.2022
3731 Clouds 27 1008 83 10000 0.55 118 08:57 13.02.2022
3732 Clouds 30 1007 72 10000 1.27 353 02:50 13.02.2022
3733 Clouds 30 1008 69 10000 1.06 24 00:33 13.02.2022
3734 Clouds 27 1009 81 10000 0.56 92 22:58 12.02.2022
3735 Clouds 27 1009 81 10000 0.56 92 22:33 12.02.2022
3736 Clouds 25 1008 88 10000 0.99 124 21:18 12.02.2022
3737 Clouds 25 1008 89 10000 1.56 119 20:25 12.02.2022
3738 Clouds 25 1007 89 10000 1.58 118 18:54 12.02.2022
3739 Clouds 25 1007 88 10000 1.08 137 18:36 12.02.2022
3740 Clouds 25 1007 88 10000 0.46 179 17:55 12.02.2022
3741 Clouds 25 1007 89 10000 0.53 260 16:54 12.02.2022
3742 Clouds 25 1007 90 10000 0.71 217 16:18 12.02.2022
3743 Clouds 25 1008 92 10000 0.99 231 15:23 12.02.2022
3744 Clouds 25 1008 92 10000 0.99 231 14:30 12.02.2022
3745 Clouds 25 1009 94 10000 2.53 266 11:34 12.02.2022
3746 Clouds 25 1009 92 10000 2.45 278 10:33 12.02.2022
3747 Clouds 25 1008 90 10000 1.88 285 09:38 12.02.2022
3748 Clouds 26 1008 89 10000 1.66 294 08:47 12.02.2022
3749 Clouds 26 1007 89 10000 1.7 298 07:47 12.02.2022
3750 Clouds 26 1005 87 10000 1.85 302 05:31 12.02.2022
3751 Clouds 25 1007 93 10000 1.28 272 02:19 12.02.2022
3752 Rain 25 1007 98 2966 2.06 322 23:56 11.02.2022
3753 Clouds 25 1008 97 1092 1.4 356 22:23 11.02.2022
3754 Rain 25 1008 97 1092 1.4 356 21:37 11.02.2022
3755 Rain 25 1007 95 8223 1.63 324 20:29 11.02.2022
3756 Rain 25 1006 95 6231 0.83 305 19:29 11.02.2022
3757 Rain 25 1006 95 6231 0.83 305 18:44 11.02.2022
3758 Rain 25 1005 97 1415 1.54 296 17:27 11.02.2022
3759 Rain 25 1005 97 1415 1.54 296 16:56 11.02.2022
3760 Clouds 25 1006 96 1309 2.49 298 15:26 11.02.2022
3761 Clouds 25 1006 96 1309 2.49 298 14:38 11.02.2022
3762 Clouds 24 1007 96 2238 2.69 289 14:20 11.02.2022
3763 Clouds 24 1007 96 2238 2.69 289 13:47 11.02.2022
3764 Clouds 25 1007 97 1738 4.67 294 13:28 11.02.2022
3765 Clouds 26 1007 91 4531 1.99 318 11:23 11.02.2022
3766 Clouds 26 1007 89 10000 1.79 312 09:37 11.02.2022
3767 Clouds 26 1006 89 9149 2.13 312 08:35 11.02.2022
3768 Clouds 27 1005 87 8461 2.35 322 07:46 11.02.2022
3769 Clouds 27 1005 87 8461 2.35 322 07:46 11.02.2022
3770 Clouds 29 1004 76 10000 3.32 304 06:29 11.02.2022
3771 Clouds 29 1006 76 10000 3.81 308 02:22 11.02.2022
3772 Rain 28 1007 78 10000 3.03 289 23:48 10.02.2022
3773 Rain 28 1007 78 10000 2.77 285 22:33 10.02.2022
3774 Rain 27 1007 81 10000 2.51 271 21:42 10.02.2022
3775 Rain 26 1006 86 10000 2.55 260 20:50 10.02.2022
3776 Rain 25 1006 87 10000 2.75 262 19:56 10.02.2022
3777 Rain 25 1005 87 10000 2.77 261 19:22 10.02.2022
3778 Rain 26 1005 87 10000 2.77 261 18:32 10.02.2022
3779 Rain 26 1005 87 10000 2.66 260 17:21 10.02.2022
3780 Clouds 26 1005 87 10000 2.66 260 16:43 10.02.2022
3781 Clouds 26 1005 87 10000 2.6 260 15:40 10.02.2022
3782 Clouds 26 1006 86 10000 2.46 259 15:21 10.02.2022
3783 Rain 26 1006 86 10000 2.46 259 14:35 10.02.2022
3784 Rain 26 1007 87 10000 2.48 260 13:40 10.02.2022
3785 Rain 26 1007 87 10000 2.62 260 13:19 10.02.2022
3786 Rain 26 1007 88 10000 2.5 265 11:52 10.02.2022
3787 Rain 26 1007 88 10000 2.5 265 11:30 10.02.2022
3788 Rain 26 1007 87 10000 3.16 258 10:23 10.02.2022
3789 Rain 26 1007 87 10000 3.16 258 09:44 10.02.2022
3790 Clouds 28 1005 83 10000 3.48 276 08:25 10.02.2022
3791 Clouds 28 1004 82 10000 4.16 273 06:32 10.02.2022
3792 Clouds 30 1005 76 10000 4.29 284 02:43 10.02.2022
3793 Clouds 30 1007 74 10000 3.57 289 00:52 10.02.2022
3794 Clouds 30 1007 74 10000 3.57 289 00:30 10.02.2022
3795 Clouds 30 1007 74 10000 3.57 289 00:30 10.02.2022
3796 Clouds 30 1008 74 10000 2.87 276 23:53 09.02.2022
3797 Clouds 28 1008 79 10000 2.82 264 22:54 09.02.2022
3798 Clouds 28 1008 79 10000 2.82 264 22:30 09.02.2022
3799 Clouds 27 1008 85 10000 2.81 254 21:46 09.02.2022
3800 Clouds 26 1007 88 10000 2.95 249 21:26 09.02.2022
3801 Clouds 26 1007 88 10000 2.95 249 20:42 09.02.2022
3802 Clouds 26 1007 89 10000 3.1 245 20:21 09.02.2022
3803 Clouds 26 1007 89 10000 3.1 245 20:21 09.02.2022
3804 Clouds 26 1007 89 10000 3.1 245 19:39 09.02.2022
3805 Clouds 25 1006 90 6165 3.6 263 17:50 09.02.2022
3806 Clouds 25 1006 90 6419 3.44 262 16:54 09.02.2022
3807 Rain 26 1007 89 10000 3.04 259 15:56 09.02.2022
3808 Rain 26 1007 89 7911 2.98 259 15:19 09.02.2022
3809 Rain 26 1009 89 8652 2.76 264 12:42 09.02.2022
3810 Clouds 26 1009 86 10000 2.94 267 11:20 09.02.2022
3811 Clouds 26 1009 86 10000 2.94 267 10:32 09.02.2022
3812 Clouds 26 1008 86 10000 3.08 264 09:42 09.02.2022
3813 Clouds 27 1007 85 10000 3.27 266 09:20 09.02.2022
3814 Clouds 27 1007 82 10000 3.79 273 08:26 09.02.2022
3815 Rain 28 1006 82 10000 4.47 296 05:30 09.02.2022
3816 Rain 28 1006 82 10000 4.47 296 05:30 09.02.2022
3817 Clouds 28 1007 85 10000 4.13 296 03:50 09.02.2022
3818 Clouds 26 1009 90 10000 2.88 286 01:28 09.02.2022
3819 Clouds 26 1009 92 10000 2.83 279 23:39 08.02.2022
3820 Clouds 26 1009 93 10000 3.65 283 22:51 08.02.2022
3821 Clouds 26 1009 89 10000 3.85 280 22:22 08.02.2022
3822 Clouds 26 1009 89 10000 3.85 280 21:50 08.02.2022
3823 Clouds 26 1008 89 10000 3.09 268 21:21 08.02.2022
3824 Clouds 26 1008 89 10000 3.09 268 20:45 08.02.2022
3825 Clouds 26 1007 90 10000 2.83 270 19:52 08.02.2022
3826 Clouds 26 1007 90 10000 2.67 271 18:52 08.02.2022
3827 Clouds 26 1007 91 10000 2.56 274 17:50 08.02.2022
3828 Rain 26 1007 90 10000 2.7 272 16:34 08.02.2022
3829 Rain 26 1007 90 10000 2.65 273 15:30 08.02.2022
3830 Rain 25 1008 90 10000 2.48 272 14:44 08.02.2022
3831 Rain 25 1010 93 10000 2.54 253 13:29 08.02.2022
3832 Rain 25 1010 95 4451 2.99 260 11:55 08.02.2022
3833 Rain 25 1009 91 10000 2.01 242 10:23 08.02.2022
3834 Rain 25 1009 91 10000 2.01 242 10:23 08.02.2022
3835 Rain 25 1009 91 10000 2.01 242 09:45 08.02.2022
3836 Rain 26 1007 92 10000 3.75 278 07:55 08.02.2022
3837 Clouds 26 1006 93 6678 4.81 275 05:41 08.02.2022
3838 Rain 27 1006 88 8720 4.58 279 04:39 08.02.2022
3839 Clouds 28 1007 83 10000 4.78 287 04:21 08.02.2022
3840 Clouds 28 1007 83 10000 4.78 287 03:36 08.02.2022
3841 Clouds 29 1007 77 10000 4.71 294 03:18 08.02.2022
3842 Clouds 29 1007 77 10000 4.71 294 02:59 08.02.2022
3843 Clouds 29 1007 77 10000 4.71 294 02:36 08.02.2022
3844 Clouds 29 1008 76 10000 4.37 299 02:18 08.02.2022
3845 Clouds 29 1008 76 10000 4.37 299 02:18 08.02.2022
3846 Clouds 29 1008 76 10000 4.37 299 01:44 08.02.2022
3847 Clouds 29 1009 74 10000 3.88 299 01:24 08.02.2022
3848 Rain 29 1009 74 10000 3.88 299 00:54 08.02.2022
3849 Rain 29 1009 77 10000 4.05 306 23:55 07.02.2022
3850 Rain 29 1009 77 10000 4.05 306 23:37 07.02.2022
3851 Rain 28 1009 81 10000 3.63 298 23:18 07.02.2022
3852 Clouds 27 1009 86 10000 3.1 284 22:19 07.02.2022
3853 Clouds 27 1009 86 10000 3.1 284 21:55 07.02.2022
3854 Clouds 26 1008 89 10000 2.78 278 21:29 07.02.2022
3855 Clouds 26 1008 89 10000 2.78 278 20:56 07.02.2022
3856 Clouds 26 1008 89 10000 2.78 278 20:38 07.02.2022
3857 Clouds 26 1008 90 10000 3.14 281 19:49 07.02.2022
3858 Clouds 26 1008 90 10000 3.14 281 19:31 07.02.2022
3859 Clouds 26 1007 90 10000 2.94 292 17:52 07.02.2022
3860 Rain 26 1007 89 10000 2.69 287 16:52 07.02.2022
3861 Rain 26 1007 89 10000 2.79 286 15:49 07.02.2022
3862 Rain 26 1008 88 10000 2.71 283 14:48 07.02.2022
3863 Clouds 27 1010 89 10000 2.79 279 13:28 07.02.2022
3864 Clouds 27 1010 89 10000 2.79 279 12:38 07.02.2022
3865 Clouds 27 1010 88 10000 2.92 284 11:55 07.02.2022
3866 Clouds 27 1010 88 10000 2.92 284 11:33 07.02.2022
3867 Clouds 27 1009 87 10000 2.88 286 10:47 07.02.2022
3868 Clouds 27 1009 86 10000 3.18 287 10:28 07.02.2022
3869 Clouds 27 1009 86 10000 3.18 287 09:52 07.02.2022
3870 Clouds 27 1008 85 10000 3.25 287 09:18 07.02.2022
3871 Clouds 28 1007 81 10000 3.28 290 08:20 07.02.2022
3872 Rain 29 1006 76 10000 3.46 296 06:35 07.02.2022
3873 Clouds 30 1007 74 10000 3.74 300 05:47 07.02.2022
3874 Clouds 30 1009 75 10000 3.18 319 02:56 07.02.2022
3875 Clouds 30 1010 74 10000 3.29 330 00:33 07.02.2022
3876 Clouds 29 1010 76 10000 3.52 328 23:40 06.02.2022
3877 Clouds 29 1010 79 10000 3.32 324 22:46 06.02.2022
3878 Clouds 28 1010 83 10000 2.64 316 21:51 06.02.2022
3879 Clouds 27 1009 87 10000 2.16 291 21:21 06.02.2022
3880 Clouds 27 1009 87 10000 2.16 291 20:48 06.02.2022
3881 Rain 26 1008 88 10000 1.58 275 20:24 06.02.2022
3882 Clouds 26 1008 88 10000 1.58 275 19:30 06.02.2022
3883 Clouds 26 1008 88 10000 0.96 226 18:35 06.02.2022
3884 Clouds 26 1008 89 10000 0.91 216 17:54 06.02.2022
3885 Clouds 26 1008 89 10000 0.41 205 16:52 06.02.2022
3886 Clouds 26 1008 89 10000 0.41 205 16:30 06.02.2022
3887 Clouds 26 1008 88 10000 0.11 280 15:47 06.02.2022
3888 Clouds 27 1009 88 10000 0.4 330 15:25 06.02.2022
3889 Clouds 27 1010 87 10000 0.67 355 14:23 06.02.2022
3890 Clouds 27 1010 87 10000 0.8 11 13:23 06.02.2022
3891 Clouds 27 1010 87 10000 0.73 347 12:34 06.02.2022
3892 Clouds 27 1010 86 10000 1.11 336 10:43 06.02.2022
3893 Clouds 27 1009 86 10000 1.6 334 09:48 06.02.2022
3894 Clouds 27 1008 84 10000 1.63 338 08:41 06.02.2022
3895 Clouds 29 1007 78 10000 2.33 337 07:36 06.02.2022
3896 Clouds 30 1006 71 10000 3.52 328 05:28 06.02.2022
3897 Clouds 31 1009 69 10000 3.24 323 02:25 06.02.2022
3898 Rain 30 1009 70 10000 2.71 318 00:51 06.02.2022
3899 Clouds 30 1010 74 10000 2.49 314 00:24 06.02.2022
3900 Clouds 28 1009 80 10000 1.09 303 21:59 05.02.2022
3901 Clouds 27 1009 86 10000 0.76 268 20:48 05.02.2022
3902 Clouds 26 1008 87 10000 0.39 311 20:23 05.02.2022
3903 Clouds 26 1008 87 10000 0.39 311 19:44 05.02.2022
3904 Clouds 27 1007 88 10000 1.09 320 18:45 05.02.2022
3905 Clouds 27 1007 88 10000 1.14 304 17:36 05.02.2022
3906 Clouds 27 1007 89 10000 1.14 306 16:24 05.02.2022
3907 Clouds 27 1007 89 10000 1.14 306 15:31 05.02.2022
3908 Clouds 27 1009 88 10000 1.03 305 13:55 05.02.2022
3909 Clouds 27 1009 88 10000 1.38 295 12:46 05.02.2022
3910 Clouds 27 1009 87 10000 1.32 297 11:47 05.02.2022
3911 Clouds 27 1008 87 10000 1.7 292 10:44 05.02.2022
3912 Clouds 27 1008 86 10000 2.14 286 09:51 05.02.2022
3913 Clouds 27 1007 85 10000 2.32 300 08:47 05.02.2022
3914 Clouds 30 1005 72 10000 3.4 323 06:59 05.02.2022
3915 Clouds 29 1006 73 10000 3.16 318 06:35 05.02.2022
3916 Clouds 30 1007 71 10000 3.38 318 02:40 05.02.2022
3917 Clouds 30 1008 76 10000 2.42 320 01:18 05.02.2022
3918 Clouds 30 1008 75 10000 2.53 316 00:36 05.02.2022
3919 Clouds 29 1008 78 10000 2.32 318 23:33 04.02.2022
3920 Clouds 28 1008 83 10000 2.09 321 22:45 04.02.2022
3921 Clouds 27 1008 86 10000 1.9 318 21:36 04.02.2022
3922 Clouds 26 1007 88 10000 1.71 301 21:18 04.02.2022
3923 Clouds 26 1007 88 10000 1.71 301 20:36 04.02.2022
3924 Clouds 26 1006 88 10000 1.69 270 19:18 04.02.2022
3925 Clouds 26 1006 86 10000 1.67 290 16:22 04.02.2022
3926 Clouds 26 1007 85 10000 2.01 284 15:18 04.02.2022
3927 Clouds 26 1007 85 10000 2.01 284 14:40 04.02.2022
3928 Rain 26 1008 86 10000 2.34 252 12:43 04.02.2022
3929 Rain 26 1008 86 10000 2.36 254 11:44 04.02.2022
3930 Rain 26 1008 86 10000 2.36 254 11:44 04.02.2022
3931 Rain 26 1008 85 10000 2.09 246 10:53 04.02.2022
3932 Clouds 26 1008 86 10000 2.01 235 09:35 04.02.2022
3933 Clouds 26 1007 89 10000 2.71 253 07:44 04.02.2022
3934 Clouds 26 1006 96 1102 6.83 295 03:28 04.02.2022
3935 Clouds 26 1006 96 1102 6.83 295 02:33 04.02.2022
3936 Rain 26 1009 92 4702 3.66 298 23:34 03.02.2022
3937 Rain 27 1008 90 3605 2.91 280 22:48 03.02.2022
3938 Clouds 26 1008 92 7689 2.58 260 21:50 03.02.2022
3939 Clouds 26 1007 91 10000 2.74 256 20:50 03.02.2022
3940 Clouds 26 1006 91 9625 2.75 262 20:20 03.02.2022
3941 Clouds 26 1006 91 9625 2.75 262 19:34 03.02.2022
3942 Rain 26 1006 90 10000 3.24 270 18:44 03.02.2022
3943 Rain 26 1005 90 10000 3.2 269 17:42 03.02.2022
3944 Rain 25 1005 90 10000 3.08 268 16:35 03.02.2022
3945 Rain 26 1007 90 10000 2.77 258 14:52 03.02.2022
3946 Rain 26 1008 91 10000 3.2 274 13:18 03.02.2022
3947 Rain 26 1008 91 9876 3.61 281 11:42 03.02.2022
3948 Rain 26 1007 90 4112 3.9 310 08:38 03.02.2022
3949 Clouds 28 1005 83 7449 3.53 310 05:26 03.02.2022
3950 Clouds 29 1007 77 10000 3.52 302 00:32 03.02.2022
3951 Clouds 29 1008 78 10000 2.84 298 23:44 02.02.2022
3952 Clouds 28 1008 80 10000 2.25 278 22:32 02.02.2022
3953 Rain 27 1007 86 10000 1.99 254 21:34 02.02.2022
3954 Rain 26 1007 88 10000 2.33 242 20:51 02.02.2022
3955 Rain 26 1006 89 10000 2.82 244 19:59 02.02.2022
3956 Rain 26 1006 91 10000 3.09 249 19:27 02.02.2022
3957 Rain 26 1005 87 10000 2.32 269 18:46 02.02.2022
3958 Rain 26 1005 88 10000 2.33 260 17:57 02.02.2022
3959 Rain 26 1005 88 10000 2.51 254 17:19 02.02.2022
3960 Rain 26 1005 88 10000 2.51 254 16:42 02.02.2022
3961 Rain 26 1008 86 10000 2.57 254 13:28 02.02.2022
3962 Rain 26 1009 87 10000 2.23 268 12:25 02.02.2022
3963 Clouds 26 1009 87 10000 2.23 268 11:34 02.02.2022
3964 Clouds 26 1007 87 10000 1.58 277 10:22 02.02.2022
3965 Clouds 28 1006 77 10000 1.55 335 07:37 02.02.2022
3966 Rain 29 1008 78 10000 1.92 329 22:52 01.02.2022
3967 Rain 27 1008 83 10000 1.38 319 21:51 01.02.2022
3968 Rain 26 1007 86 10000 1.54 288 20:35 01.02.2022
3969 Clouds 25 1006 87 10000 0.46 200 17:44 01.02.2022
3970 Clouds 25 1006 87 10000 0.38 233 16:39 01.02.2022
3971 Clouds 25 1008 87 10000 1.27 171 14:47 01.02.2022
3972 Rain 25 1009 89 10000 1.3 184 12:45 01.02.2022
3973 Rain 26 1009 89 10000 1.02 155 11:30 01.02.2022
3974 Clouds 29 1006 79 10000 2.1 350 04:53 01.02.2022
3975 Clouds 30 1009 72 10000 1.6 29 23:41 31.01.2022
3976 Clouds 29 1009 77 10000 1.28 39 22:58 31.01.2022
3977 Clouds 28 1009 82 10000 0.98 61 21:40 31.01.2022
3978 Clouds 26 1008 86 10000 0.77 104 21:19 31.01.2022
3979 Clouds 26 1008 87 10000 0.88 99 20:29 31.01.2022
3980 Clouds 26 1007 87 10000 0.97 52 19:29 31.01.2022
3981 Clouds 26 1007 87 10000 0.16 148 18:25 31.01.2022
3982 Clouds 26 1006 87 10000 0.04 213 17:26 31.01.2022
3983 Clouds 26 1007 87 10000 0.22 159 16:26 31.01.2022
3984 Clouds 26 1008 87 10000 0.22 61 14:54 31.01.2022
3985 Clouds 26 1009 87 10000 0.23 62 13:52 31.01.2022
3986 Clouds 26 1010 87 10000 0.4 11 12:38 31.01.2022
3987 Clouds 26 1010 88 10000 0.55 352 11:47 31.01.2022
3988 Rain 26 1009 88 10000 0.62 349 10:50 31.01.2022
3989 Rain 27 1008 87 10000 0.58 346 09:59 31.01.2022
3990 Rain 27 1008 86 10000 0.94 339 08:59 31.01.2022
3991 Rain 27 1008 86 10000 0.94 339 08:39 31.01.2022
3992 Rain 28 1007 83 10000 1.6 350 08:20 31.01.2022
3993 Clouds 30 1006 72 10000 2.38 354 06:18 31.01.2022
3994 Clouds 30 1009 72 10000 2.08 8 00:44 31.01.2022
3995 Rain 28 1009 79 10000 1.38 50 22:38 30.01.2022
3996 Rain 27 1009 84 10000 0.92 94 22:20 30.01.2022
3997 Rain 27 1009 84 10000 0.92 94 21:38 30.01.2022
3998 Rain 26 1008 87 10000 0.88 136 21:18 30.01.2022
3999 Rain 26 1008 86 10000 0.62 113 20:45 30.01.2022
4000 Rain 26 1008 86 10000 0.62 114 20:26 30.01.2022
4001 Rain 26 1007 86 10000 0.55 156 19:24 30.01.2022
4002 Rain 26 1007 86 10000 0.55 156 18:35 30.01.2022
4003 Rain 26 1007 86 10000 0.61 188 17:53 30.01.2022
4004 Clouds 26 1007 87 10000 0.7 218 17:20 30.01.2022
4005 Clouds 26 1007 87 10000 0.7 218 16:37 30.01.2022
4006 Clouds 26 1008 87 10000 0.82 234 16:19 30.01.2022
4007 Clouds 26 1008 87 10000 0.82 234 15:49 30.01.2022
4008 Clouds 26 1008 87 10000 0.82 234 15:30 30.01.2022
4009 Clouds 26 1008 86 10000 1.09 242 14:45 30.01.2022
4010 Clouds 26 1010 85 10000 1.4 255 12:46 30.01.2022
4011 Clouds 26 1010 85 10000 1.62 257 11:53 30.01.2022
4012 Clouds 27 1009 86 10000 1.87 261 10:27 30.01.2022
4013 Clouds 27 1009 86 10000 1.87 261 09:48 30.01.2022
4014 Clouds 27 1008 85 10000 1.92 280 08:48 30.01.2022
4015 Clouds 30 1006 70 10000 2.25 349 05:30 30.01.2022
4016 Clouds 30 1008 68 10000 2.41 3 01:55 30.01.2022
4017 Clouds 28 1009 78 10000 1.12 13 23:50 29.01.2022
4018 Clouds 27 1010 83 10000 0.63 34 22:58 29.01.2022
4019 Rain 26 1009 86 10000 0.22 197 21:44 29.01.2022
4020 Rain 25 1009 89 10000 0.98 232 21:20 29.01.2022
4021 Rain 25 1008 89 10000 1.21 259 20:21 29.01.2022
4022 Rain 25 1008 89 10000 1.21 259 19:33 29.01.2022
4023 Rain 26 1007 86 10000 0.8 235 18:51 29.01.2022
4024 Rain 26 1006 88 10000 0.85 258 17:56 29.01.2022
4025 Rain 26 1006 85 10000 1.42 271 17:27 29.01.2022
4026 Clouds 26 1007 88 10000 1.15 301 15:42 29.01.2022
4027 Clouds 26 1008 86 10000 1.34 275 13:58 29.01.2022
4028 Clouds 26 1008 86 10000 1.34 275 13:36 29.01.2022
4029 Clouds 26 1009 84 10000 1.43 279 13:18 29.01.2022
4030 Rain 26 1009 85 10000 1.75 268 11:40 29.01.2022
4031 Clouds 26 1008 85 10000 1.91 268 10:34 29.01.2022
4032 Clouds 27 1007 85 10000 2.43 283 08:36 29.01.2022
4033 Clouds 27 1007 82 10000 1.98 253 03:25 29.01.2022
4034 Clouds 25 1009 94 10000 1.06 213 00:32 29.01.2022
4035 Clouds 24 1009 96 7636 1.27 218 23:32 28.01.2022
4036 Clouds 24 1009 96 7636 1.27 218 23:32 28.01.2022
4037 Clouds 25 1008 95 3124 3.51 245 22:47 28.01.2022
4038 Clouds 25 1008 95 1302 3.12 257 22:19 28.01.2022
4039 Clouds 26 1007 92 1602 3.38 278 20:41 28.01.2022
4040 Clouds 26 1007 92 2338 2.82 280 19:58 28.01.2022
4041 Clouds 26 1007 92 6176 2.65 276 18:52 28.01.2022
4042 Clouds 26 1007 92 6176 2.65 276 18:34 28.01.2022
4043 Rain 26 1007 91 5237 2.57 281 16:23 28.01.2022
4044 Clouds 26 1008 91 10000 2.58 282 14:54 28.01.2022
4045 Clouds 26 1009 90 10000 2.51 269 12:42 28.01.2022
4046 Clouds 26 1009 91 10000 2.8 266 11:49 28.01.2022
4047 Clouds 26 1009 90 10000 3.25 267 10:26 28.01.2022
4048 Clouds 26 1009 90 10000 3.25 267 09:46 28.01.2022
4049 Clouds 27 1007 87 10000 3.18 282 07:41 28.01.2022
4050 Clouds 27 1006 86 10000 3.03 282 05:31 28.01.2022
4051 Clouds 27 1007 87 10000 3.73 268 03:50 28.01.2022
4052 Rain 26 1008 90 10000 3.49 253 02:25 28.01.2022
4053 Clouds 26 1008 90 10000 3.49 253 01:37 28.01.2022
4054 Rain 26 1009 91 10000 3.1 250 00:39 28.01.2022
4055 Clouds 26 1009 92 3280 3.79 281 22:18 27.01.2022
4056 Clouds 26 1009 92 3280 3.79 281 21:34 27.01.2022
4057 Rain 26 1008 93 2803 3.81 280 20:58 27.01.2022
4058 Rain 26 1007 93 3505 3.67 280 19:36 27.01.2022
4059 Rain 26 1006 92 6047 3.42 287 17:58 27.01.2022
4060 Clouds 26 1006 92 10000 3.13 283 16:45 27.01.2022
4061 Clouds 26 1009 92 10000 3.77 281 13:48 27.01.2022
4062 Clouds 26 1009 92 10000 3.75 277 12:46 27.01.2022
4063 Rain 26 1009 92 8273 3.87 288 10:59 27.01.2022
4064 Rain 26 1008 89 10000 3.83 290 09:27 27.01.2022
4065 Clouds 26 1008 89 10000 3.83 290 08:39 27.01.2022
4066 Rain 27 1006 86 8508 3.49 294 07:23 27.01.2022
4067 Clouds 27 1008 80 10000 3.06 283 02:59 27.01.2022
4068 Clouds 26 1009 88 10000 2.73 276 23:52 26.01.2022
4069 Clouds 25 1009 94 10000 1.88 244 22:27 26.01.2022
4070 Clouds 25 1009 94 10000 1.88 244 21:41 26.01.2022
4071 Clouds 24 1008 94 9291 1.79 263 20:41 26.01.2022
4072 Clouds 24 1008 94 7933 1.71 291 20:23 26.01.2022
4073 Clouds 24 1008 94 7544 1.49 300 19:28 26.01.2022
4074 Clouds 25 1008 93 8889 1.54 316 18:46 26.01.2022
4075 Clouds 25 1008 94 9351 1.88 318 17:51 26.01.2022
4076 Rain 25 1008 94 8865 2.03 318 17:24 26.01.2022
4077 Rain 25 1008 94 8865 2.03 318 16:35 26.01.2022
4078 Rain 25 1008 95 6215 2.11 319 15:49 26.01.2022
4079 Rain 25 1010 94 3925 2.49 316 14:21 26.01.2022
4080 Rain 26 1010 87 10000 2.11 254 11:54 26.01.2022
4081 Rain 26 1009 87 10000 2.5 253 10:43 26.01.2022
4082 Rain 26 1009 88 10000 2.82 253 09:48 26.01.2022
4083 Rain 27 1007 88 10000 3.41 263 08:27 26.01.2022
4084 Clouds 29 1007 79 10000 3.97 282 04:24 26.01.2022
4085 Clouds 26 1010 90 10000 2.91 285 23:58 25.01.2022
4086 Clouds 26 1010 90 10000 2.88 286 23:20 25.01.2022
4087 Clouds 26 1010 91 10000 2.69 272 22:22 25.01.2022
4088 Clouds 26 1010 91 10000 2.69 272 21:58 25.01.2022
4089 Clouds 25 1009 92 10000 2.71 255 20:47 25.01.2022
4090 Clouds 25 1009 92 10000 3.18 248 20:28 25.01.2022
4091 Clouds 25 1009 92 10000 3.18 248 20:28 25.01.2022
4092 Clouds 25 1009 92 10000 3.18 248 20:28 25.01.2022
4093 Clouds 25 1009 92 10000 3.18 248 19:52 25.01.2022
4094 Rain 25 1008 91 10000 2.56 256 18:37 25.01.2022
4095 Rain 26 1008 90 10000 2.25 258 17:44 25.01.2022
4096 Clouds 26 1008 88 5870 1.57 267 16:35 25.01.2022
4097 Rain 26 1008 88 8443 1.14 290 15:49 25.01.2022
4098 Clouds 26 1008 88 8443 1.14 290 15:31 25.01.2022
4099 Clouds 26 1009 88 10000 0.81 291 14:57 25.01.2022
4100 Rain 26 1010 88 10000 0.5 250 13:42 25.01.2022
4101 Rain 27 1010 86 10000 1.23 244 10:43 25.01.2022
4102 Rain 27 1008 87 10000 1.62 245 08:37 25.01.2022
4103 Rain 29 1007 83 10000 2.36 285 07:29 25.01.2022
4104 Rain 29 1007 83 10000 2.36 285 06:49 25.01.2022
4105 Clouds 30 1007 79 10000 3.12 289 05:22 25.01.2022
4106 Clouds 29 1010 79 10000 2.52 300 23:37 24.01.2022
4107 Clouds 29 1010 83 10000 2.44 295 23:18 24.01.2022
4108 Clouds 29 1010 83 10000 2.44 295 22:59 24.01.2022
4109 Clouds 29 1010 83 10000 2.44 295 22:41 24.01.2022
4110 Clouds 28 1010 86 10000 2.22 287 21:53 24.01.2022
4111 Clouds 27 1009 89 10000 1.98 271 21:28 24.01.2022
4112 Clouds 26 1008 89 10000 2.2 272 20:29 24.01.2022
4113 Rain 26 1008 89 10000 2.2 272 19:39 24.01.2022
4114 Clouds 26 1008 89 10000 2.18 266 19:20 24.01.2022
4115 Clouds 26 1007 88 10000 2.14 265 17:45 24.01.2022
4116 Clouds 26 1007 89 10000 2.14 266 17:23 24.01.2022
4117 Clouds 26 1007 89 10000 2.14 266 17:23 24.01.2022
4118 Clouds 26 1007 89 10000 2.14 266 16:40 24.01.2022
4119 Clouds 26 1008 89 10000 2.1 266 16:18 24.01.2022
4120 Clouds 27 1009 88 10000 1.77 271 14:28 24.01.2022
4121 Clouds 27 1010 88 10000 1.51 264 12:38 24.01.2022
4122 Clouds 27 1010 88 10000 1.59 270 11:59 24.01.2022
4123 Clouds 27 1009 88 10000 1.83 274 10:25 24.01.2022
4124 Clouds 27 1009 88 10000 1.83 274 09:47 24.01.2022
4125 Clouds 28 1007 86 10000 2.38 289 08:24 24.01.2022
4126 Clouds 30 1008 73 10000 3.68 323 02:51 24.01.2022
4127 Clouds 31 1009 67 10000 3.12 323 01:29 24.01.2022
4128 Clouds 31 1009 67 10000 3.23 322 00:34 24.01.2022
4129 Clouds 30 1010 70 10000 2.67 319 23:49 23.01.2022
4130 Clouds 29 1010 80 10000 2.23 316 22:27 23.01.2022
4131 Clouds 29 1010 80 10000 2.23 316 21:44 23.01.2022
4132 Clouds 27 1009 86 10000 1.82 294 21:24 23.01.2022
4133 Clouds 27 1009 86 10000 1.82 294 20:30 23.01.2022
4134 Rain 27 1008 87 10000 2.21 275 19:21 23.01.2022
4135 Clouds 27 1007 88 10000 1.81 286 18:44 23.01.2022
4136 Clouds 27 1007 87 10000 1.85 263 17:28 23.01.2022
4137 Clouds 27 1007 87 10000 1.85 263 16:38 23.01.2022
4138 Clouds 27 1009 85 10000 1.58 245 14:56 23.01.2022
4139 Clouds 27 1010 84 10000 1.46 229 14:19 23.01.2022
4140 Clear 27 1010 85 10000 1.28 234 12:49 23.01.2022
4141 Clear 27 1010 85 10000 1.04 238 12:21 23.01.2022
4142 Clear 27 1010 85 10000 1.04 238 11:51 23.01.2022
4143 Clear 27 1010 84 10000 0.55 253 11:18 23.01.2022
4144 Clear 27 1009 84 10000 0.29 320 10:26 23.01.2022
4145 Clear 27 1009 84 10000 0.29 320 09:37 23.01.2022
4146 Clouds 28 1009 82 10000 0.69 353 08:51 23.01.2022
4147 Clouds 31 1006 67 10000 2.75 356 05:37 23.01.2022
4148 Clouds 31 1009 65 10000 2.52 356 01:46 23.01.2022
4149 Clouds 31 1010 67 10000 2.21 353 01:23 23.01.2022
4150 Clouds 30 1010 69 10000 2.13 7 00:22 23.01.2022
4151 Clouds 29 1010 74 10000 1.68 7 23:19 22.01.2022
4152 Clouds 29 1010 74 10000 1.68 7 22:34 22.01.2022
4153 Clouds 29 1010 74 10000 1.68 7 22:34 22.01.2022
4154 Clouds 27 1009 85 10000 0.65 330 21:18 22.01.2022
4155 Clouds 26 1008 88 10000 0.85 311 19:46 22.01.2022
4156 Clouds 26 1008 88 10000 1.5 302 18:43 22.01.2022
4157 Clouds 26 1008 88 10000 1.72 288 17:56 22.01.2022
4158 Clouds 26 1008 88 10000 1.72 288 17:35 22.01.2022
4159 Clouds 26 1007 88 10000 1.8 282 16:55 22.01.2022
4160 Clouds 26 1008 88 10000 1.75 272 15:49 22.01.2022
4161 Clouds 27 1009 87 10000 1.65 270 14:57 22.01.2022
4162 Clouds 27 1009 87 10000 1.69 266 13:36 22.01.2022
4163 Clouds 27 1010 87 10000 1.93 267 12:40 22.01.2022
4164 Clouds 27 1010 86 10000 1.72 270 12:22 22.01.2022
4165 Clouds 27 1009 86 10000 1.24 268 10:55 22.01.2022
4166 Clouds 27 1009 86 10000 1 294 10:27 22.01.2022
4167 Clouds 27 1009 86 10000 1 294 09:43 22.01.2022
4168 Clouds 27 1008 86 10000 1.21 344 08:51 22.01.2022
4169 Clouds 29 1006 74 10000 2.67 341 07:27 22.01.2022
4170 Clouds 31 1008 66 10000 2.53 7 03:26 22.01.2022
4171 Clouds 30 1009 70 10000 2.27 21 00:31 22.01.2022
4172 Clouds 28 1010 79 10000 0.76 60 23:21 21.01.2022
4173 Clouds 26 1010 87 10000 0.34 92 22:19 21.01.2022
4174 Clouds 26 1008 87 10000 0.36 75 19:52 21.01.2022
4175 Clouds 25 1007 86 10000 0.82 198 18:23 21.01.2022
4176 Clouds 25 1007 87 10000 1.28 248 16:58 21.01.2022
4177 Rain 25 1009 91 10000 1.91 257 15:26 21.01.2022
4178 Clouds 25 1010 93 10000 2.38 271 12:53 21.01.2022
4179 Rain 26 1010 88 10000 1.9 267 11:42 21.01.2022
4180 Clouds 26 1009 90 10000 1.57 264 11:23 21.01.2022
4181 Rain 26 1008 90 8768 2.15 295 09:26 21.01.2022
4182 Rain 26 1007 90 5430 2.51 303 08:21 21.01.2022
4183 Rain 27 1007 87 9282 1.81 338 04:37 21.01.2022
4184 Rain 25 1009 91 10000 1.9 90 22:53 20.01.2022
4185 Rain 25 1009 91 10000 1.5 91 21:49 20.01.2022
4186 Rain 25 1009 91 10000 0.85 75 21:28 20.01.2022
4187 Rain 25 1008 90 10000 0.46 46 19:56 20.01.2022
4188 Rain 25 1007 91 10000 0.54 282 19:19 20.01.2022
4189 Clouds 25 1007 94 10000 1.51 287 17:38 20.01.2022
4190 Clouds 25 1006 95 4503 1.61 264 16:35 20.01.2022
4191 Clouds 25 1006 95 4503 1.61 264 16:35 20.01.2022
4192 Clouds 24 1007 96 5546 0.86 217 15:40 20.01.2022
4193 Clouds 24 1007 96 4832 0.44 211 14:40 20.01.2022
4194 Rain 25 1008 97 2355 1.47 280 13:18 20.01.2022
4195 Rain 25 1008 94 5359 1.31 251 12:30 20.01.2022
4196 Clouds 26 1008 92 9242 2.29 294 11:20 20.01.2022
4197 Rain 26 1007 88 10000 1.42 322 10:19 20.01.2022
4198 Clouds 27 1006 85 10000 1.17 358 09:18 20.01.2022
4199 Clouds 28 1004 83 10000 1.21 337 07:24 20.01.2022
4200 Clouds 31 1006 66 10000 1.56 33 00:41 20.01.2022
4201 Clouds 29 1006 72 10000 1.07 90 22:40 19.01.2022
4202 Clouds 28 1006 78 10000 1.11 128 21:40 19.01.2022
4203 Clouds 26 1005 84 10000 1.62 150 21:21 19.01.2022
4204 Clouds 26 1005 84 10000 1.62 150 20:45 19.01.2022
4205 Clouds 25 1005 86 10000 1.26 181 19:18 19.01.2022
4206 Clouds 25 1004 87 10000 1.3 181 17:51 19.01.2022
4207 Clouds 26 1004 87 10000 1.27 198 17:18 19.01.2022
4208 Clouds 26 1005 87 10000 1.29 198 15:35 19.01.2022
4209 Clouds 27 1007 87 10000 0.71 232 13:26 19.01.2022
4210 Clouds 27 1007 87 10000 0.76 215 11:59 19.01.2022
4211 Clouds 27 1007 87 10000 0.76 215 11:38 19.01.2022
4212 Clouds 27 1006 86 10000 1.12 260 09:36 19.01.2022
4213 Clouds 28 1005 85 10000 1.67 292 08:38 19.01.2022
4214 Clouds 30 1004 75 10000 3.39 308 05:20 19.01.2022
4215 Clouds 30 1007 69 10000 1.29 339 00:21 19.01.2022
4216 Clouds 29 1007 73 10000 0.62 302 23:18 18.01.2022
4217 Clouds 28 1007 80 10000 0.27 214 21:45 18.01.2022
4218 Clouds 26 1006 85 10000 0.82 203 20:34 18.01.2022
4219 Clouds 26 1005 87 10000 0.79 206 19:49 18.01.2022
4220 Clouds 26 1005 87 10000 0.79 206 19:31 18.01.2022
4221 Clouds 26 1004 88 10000 0.75 202 18:19 18.01.2022
4222 Clouds 26 1004 88 10000 0.75 202 17:32 18.01.2022
4223 Clouds 26 1005 87 10000 0.52 223 16:22 18.01.2022
4224 Clouds 26 1005 87 10000 0.99 206 15:25 18.01.2022
4225 Clouds 26 1005 87 10000 0.99 206 15:25 18.01.2022
4226 Clouds 26 1006 86 10000 1.27 206 14:22 18.01.2022
4227 Clouds 27 1006 86 10000 1.35 211 11:37 18.01.2022
4228 Clouds 27 1005 85 10000 1.95 236 10:25 18.01.2022
4229 Clouds 29 1004 80 10000 2.75 276 08:29 18.01.2022
4230 Clouds 29 1004 80 10000 2.75 276 07:43 18.01.2022
4231 Clouds 31 1007 66 10000 2.29 314 00:39 18.01.2022
4232 Clouds 29 1008 75 10000 1.03 269 22:40 17.01.2022
4233 Clouds 28 1007 82 10000 1.16 225 21:42 17.01.2022
4234 Clouds 27 1007 87 10000 1.44 219 20:44 17.01.2022
4235 Clouds 26 1006 87 10000 1.59 236 18:46 17.01.2022
4236 Clouds 26 1005 87 10000 1.69 227 18:24 17.01.2022
4237 Clouds 26 1005 87 10000 1.75 212 17:19 17.01.2022
4238 Clouds 26 1006 87 10000 1.8 215 15:47 17.01.2022
4239 Clouds 26 1007 87 10000 1.69 215 14:58 17.01.2022
4240 Clouds 26 1008 86 10000 1.62 211 14:22 17.01.2022
4241 Clouds 26 1008 86 10000 1.82 208 13:18 17.01.2022
4242 Clouds 26 1008 86 10000 1.98 210 11:51 17.01.2022
4243 Clouds 26 1008 87 10000 2.3 221 10:47 17.01.2022
4244 Clouds 27 1007 87 10000 2.64 231 09:35 17.01.2022
4245 Clouds 27 1007 85 10000 2.95 245 08:43 17.01.2022
4246 Clouds 30 1005 72 10000 3.21 268 07:19 17.01.2022
4247 Clouds 31 1007 65 10000 2.73 304 00:58 17.01.2022
4248 Clouds 29 1009 71 10000 1.44 286 23:27 16.01.2022
4249 Clouds 26 1009 84 10000 1.68 213 20:41 16.01.2022
4250 Clouds 26 1008 86 10000 1.77 219 19:44 16.01.2022
4251 Clouds 26 1007 86 10000 1.9 234 18:42 16.01.2022
4252 Clouds 26 1007 86 10000 1.96 232 17:45 16.01.2022
4253 Clouds 26 1007 86 10000 2.06 232 16:48 16.01.2022
4254 Clouds 26 1008 86 10000 2.26 233 15:19 16.01.2022
4255 Clouds 26 1009 86 10000 2.22 230 14:28 16.01.2022
4256 Rain 26 1009 89 10000 2.41 238 12:51 16.01.2022
4257 Clouds 26 1009 88 10000 2.7 238 11:47 16.01.2022
4258 Clouds 26 1009 87 10000 2.65 238 10:55 16.01.2022
4259 Clouds 26 1009 88 10000 2.78 236 10:26 16.01.2022
4260 Clouds 26 1009 88 10000 2.78 236 09:52 16.01.2022
4261 Clouds 27 1008 87 10000 2.85 249 09:22 16.01.2022
4262 Clouds 27 1008 87 10000 2.85 249 08:38 16.01.2022
4263 Clouds 27 1008 86 10000 2.85 282 03:21 16.01.2022
4264 Clouds 27 1010 88 6705 2.62 294 23:49 15.01.2022
4265 Clouds 26 1010 89 10000 2.39 264 21:46 15.01.2022
4266 Clouds 26 1009 90 10000 2.19 267 21:19 15.01.2022
4267 Rain 26 1009 90 10000 2.19 267 20:40 15.01.2022
4268 Rain 26 1008 91 10000 3.03 299 19:29 15.01.2022
4269 Rain 26 1008 91 9656 2.46 276 18:44 15.01.2022
4270 Rain 26 1008 90 10000 2.57 267 17:25 15.01.2022
4271 Clouds 26 1008 90 10000 2.89 260 15:50 15.01.2022
4272 Clouds 26 1009 90 10000 2.72 264 13:55 15.01.2022
4273 Clouds 26 1009 89 10000 3.09 260 11:46 15.01.2022
4274 Clouds 27 1009 88 10000 3.13 264 10:36 15.01.2022
4275 Clouds 27 1007 86 10000 3.76 276 07:48 15.01.2022
4276 Clouds 27 1009 79 10000 2.53 273 23:50 14.01.2022
4277 Rain 26 1009 87 10000 2.74 242 21:41 14.01.2022
4278 Clouds 25 1008 90 10000 2.93 246 20:37 14.01.2022
4279 Clouds 25 1008 92 10000 3.61 256 19:58 14.01.2022
4280 Clouds 25 1007 93 10000 3.79 264 18:46 14.01.2022
4281 Clouds 25 1007 94 10000 3.31 267 17:54 14.01.2022
4282 Clouds 25 1007 92 10000 3.26 264 16:47 14.01.2022
4283 Clouds 26 1007 91 10000 3.26 265 15:33 14.01.2022
4284 Clouds 26 1007 91 10000 3.26 265 15:33 14.01.2022
4285 Clouds 26 1008 89 10000 2.24 262 14:29 14.01.2022
4286 Clouds 26 1009 90 10000 2.05 263 13:27 14.01.2022
4287 Clouds 26 1009 90 10000 1.65 274 12:20 14.01.2022
4288 Clouds 25 1009 90 10000 1.21 266 10:46 14.01.2022
4289 Clouds 25 1008 93 10000 0.89 235 08:54 14.01.2022
4290 Clouds 25 1007 95 10000 1.34 279 07:46 14.01.2022
4291 Clouds 27 1007 89 6149 2.16 302 03:19 14.01.2022
4292 Rain 27 1008 90 10000 1.62 304 00:35 14.01.2022
4293 Rain 25 1008 95 10000 1.45 295 21:55 13.01.2022
4294 Rain 25 1008 95 10000 1.45 295 21:30 13.01.2022
4295 Rain 25 1007 93 10000 2.87 278 20:27 13.01.2022
4296 Rain 25 1007 93 10000 2.87 278 19:30 13.01.2022
4297 Rain 26 1006 88 10000 2.63 276 18:50 13.01.2022
4298 Rain 26 1006 89 10000 1.95 266 16:58 13.01.2022
4299 Rain 26 1006 89 10000 1.8 258 15:46 13.01.2022
4300 Rain 26 1007 91 10000 1.98 232 15:26 13.01.2022
4301 Rain 26 1008 91 10000 2.15 246 13:36 13.01.2022
4302 Rain 26 1008 89 10000 2.4 266 11:38 13.01.2022
4303 Rain 27 1007 89 10000 2.46 290 09:24 13.01.2022
4304 Rain 27 1007 89 10000 2.46 290 08:30 13.01.2022
4305 Rain 27 1006 88 10000 2.5 291 07:59 13.01.2022
4306 Rain 27 1006 88 10000 2.45 288 07:20 13.01.2022
4307 Rain 29 1006 76 10000 3.9 289 05:21 13.01.2022
4308 Clouds 29 1006 76 10000 3.9 289 04:55 13.01.2022
4309 Clouds 29 1008 79 10000 3.43 312 01:39 13.01.2022
4310 Rain 29 1009 78 10000 2.62 305 23:54 12.01.2022
4311 Clouds 29 1009 78 10000 2.62 305 23:34 12.01.2022
4312 Clouds 28 1009 82 10000 2.26 301 22:32 12.01.2022
4313 Rain 28 1009 85 10000 1.56 282 21:43 12.01.2022
4314 Rain 27 1008 87 10000 1.52 269 21:19 12.01.2022
4315 Clouds 27 1008 87 10000 1.52 269 20:47 12.01.2022
4316 Rain 26 1007 89 10000 2.42 274 18:52 12.01.2022
4317 Clouds 27 1006 89 10000 2.6 275 18:18 12.01.2022
4318 Clouds 27 1006 90 10000 2.77 269 16:52 12.01.2022
4319 Rain 26 1008 88 10000 2.27 262 14:50 12.01.2022
4320 Rain 27 1009 87 10000 2.62 265 14:19 12.01.2022
4321 Rain 27 1009 86 10000 2.55 271 12:57 12.01.2022
4322 Clouds 26 1009 86 10000 2.51 244 09:48 12.01.2022
4323 Clouds 27 1007 85 10000 2.28 245 07:57 12.01.2022
4324 Clouds 27 1007 85 10000 2.28 245 07:33 12.01.2022
4325 Clouds 29 1008 75 10000 3.85 277 02:20 12.01.2022
4326 Rain 29 1009 78 10000 2.82 284 23:26 11.01.2022
4327 Rain 28 1009 81 10000 2.5 270 22:25 11.01.2022
4328 Rain 28 1009 81 10000 2.5 270 21:58 11.01.2022
4329 Clouds 27 1009 85 10000 2.06 243 20:39 11.01.2022
4330 Clouds 26 1008 87 10000 2.2 233 19:31 11.01.2022
4331 Clouds 26 1007 87 10000 2.64 238 17:53 11.01.2022
4332 Clouds 27 1007 87 10000 2.6 237 16:40 11.01.2022
4333 Clouds 27 1007 86 10000 2.71 232 16:18 11.01.2022
4334 Clouds 27 1008 85 10000 2.7 234 14:50 11.01.2022
4335 Clouds 27 1008 85 10000 2.7 234 14:32 11.01.2022
4336 Clouds 27 1009 85 10000 2.84 233 13:48 11.01.2022
4337 Clouds 27 1009 85 10000 2.87 229 13:25 11.01.2022
4338 Clouds 27 1009 86 10000 3.18 244 12:25 11.01.2022
4339 Rain 27 1009 86 10000 3.43 246 10:31 11.01.2022
4340 Clouds 28 1007 83 10000 3.55 253 07:50 11.01.2022
4341 Clouds 29 1008 76 10000 4.82 259 03:47 11.01.2022
4342 Rain 29 1010 74 10000 4.38 270 00:25 11.01.2022
4343 Clouds 29 1010 74 10000 4.38 270 23:38 10.01.2022
4344 Rain 27 1010 87 10000 3.25 256 22:20 10.01.2022
4345 Clouds 27 1010 87 10000 3.25 256 21:57 10.01.2022
4346 Clouds 27 1010 87 10000 3.25 256 21:33 10.01.2022
4347 Clouds 26 1009 89 10000 3.03 245 20:58 10.01.2022
4348 Clouds 26 1009 89 10000 2.7 237 20:29 10.01.2022
4349 Clouds 26 1009 89 10000 2.7 237 19:48 10.01.2022
4350 Clouds 26 1009 89 10000 2.7 237 19:48 10.01.2022
4351 Clouds 26 1008 87 10000 2.53 232 19:23 10.01.2022
4352 Clouds 26 1008 87 10000 2.53 232 18:55 10.01.2022
4353 Clouds 26 1008 87 10000 2.53 232 18:37 10.01.2022
4354 Clouds 26 1008 88 10000 2.97 243 16:48 10.01.2022
4355 Clouds 26 1008 87 10000 2.82 241 16:20 10.01.2022
4356 Clouds 26 1009 87 10000 2.79 237 14:42 10.01.2022
4357 Clouds 26 1011 87 10000 2.62 239 12:50 10.01.2022
4358 Clouds 26 1010 87 10000 2.87 241 11:55 10.01.2022
4359 Rain 26 1010 87 10000 3.09 243 10:46 10.01.2022
4360 Rain 27 1009 85 10000 3.63 250 08:59 10.01.2022
4361 Rain 31 1007 65 10000 4.81 256 05:51 10.01.2022
4362 Clouds 31 1009 63 10000 3.98 269 01:35 10.01.2022
4363 Clouds 31 1009 67 10000 3.68 261 00:44 10.01.2022
4364 Clouds 30 1010 69 10000 3.66 256 00:19 10.01.2022
4365 Clouds 29 1010 74 10000 3.35 252 22:43 09.01.2022
4366 Clouds 28 1010 80 10000 3.25 245 21:47 09.01.2022
4367 Clouds 26 1009 86 10000 3.32 237 21:25 09.01.2022
4368 Clouds 26 1009 86 10000 3.32 237 20:58 09.01.2022
4369 Clouds 26 1009 86 10000 3.32 237 20:39 09.01.2022
4370 Clouds 26 1009 87 10000 3.41 241 20:21 09.01.2022
4371 Clouds 26 1009 87 10000 3.41 241 19:38 09.01.2022
4372 Clouds 26 1008 87 10000 3.59 245 19:18 09.01.2022
4373 Clouds 26 1008 88 10000 3.4 246 18:37 09.01.2022
4374 Clouds 26 1008 89 10000 3.41 248 17:48 09.01.2022
4375 Clouds 26 1008 88 10000 3.3 248 17:29 09.01.2022
4376 Clouds 26 1008 88 10000 3.3 248 16:40 09.01.2022
4377 Clouds 26 1008 87 10000 3.14 250 15:40 09.01.2022
4378 Clouds 26 1008 86 10000 3.01 249 14:50 09.01.2022
4379 Clouds 26 1009 86 10000 2.85 235 14:23 09.01.2022
4380 Clouds 26 1009 86 10000 2.85 235 13:48 09.01.2022
4381 Clouds 26 1010 86 10000 3.01 241 11:56 09.01.2022
4382 Clouds 27 1009 86 10000 3.07 249 11:25 09.01.2022
4383 Clouds 27 1009 86 10000 3.24 255 09:55 09.01.2022
4384 Clouds 27 1008 84 10000 3.5 264 08:56 09.01.2022
4385 Clouds 30 1006 72 10000 4.07 293 06:21 09.01.2022
4386 Clouds 30 1010 71 10000 2.83 317 01:28 09.01.2022
4387 Clouds 30 1010 72 10000 3.17 310 00:37 09.01.2022
4388 Clouds 30 1010 68 10000 2.28 300 23:30 08.01.2022
4389 Clouds 29 1010 73 10000 1.83 280 22:44 08.01.2022
4390 Clouds 26 1010 86 10000 1.6 249 21:27 08.01.2022
4391 Clouds 26 1010 86 10000 1.6 249 20:43 08.01.2022
4392 Clouds 25 1009 88 10000 1.74 239 20:21 08.01.2022
4393 Clouds 25 1008 87 10000 1.71 237 19:22 08.01.2022
4394 Clouds 25 1008 86 10000 1.95 226 17:25 08.01.2022
4395 Clouds 25 1008 86 10000 1.95 226 16:42 08.01.2022
4396 Clouds 25 1009 86 10000 1.9 216 14:52 08.01.2022
4397 Rain 26 1010 86 10000 1.77 220 13:56 08.01.2022
4398 Clouds 26 1010 83 10000 1.93 232 11:30 08.01.2022
4399 Clouds 26 1010 82 10000 2.15 234 10:33 08.01.2022
4400 Clouds 27 1010 82 10000 2.44 245 09:57 08.01.2022
4401 Clouds 27 1010 82 10000 2.44 245 09:30 08.01.2022
4402 Clouds 28 1007 81 10000 2.86 305 05:39 08.01.2022
4403 Clouds 31 1008 63 10000 2.71 314 00:59 08.01.2022
4404 Clouds 30 1009 64 10000 2.25 301 23:30 07.01.2022
4405 Clouds 28 1009 74 10000 1.63 239 21:46 07.01.2022
4406 Clouds 26 1008 82 10000 2.32 221 20:23 07.01.2022
4407 Clouds 26 1008 82 10000 2.25 226 19:26 07.01.2022
4408 Clouds 26 1008 82 10000 2.47 228 18:45 07.01.2022
4409 Clouds 26 1008 82 10000 2.54 231 17:58 07.01.2022
4410 Clouds 26 1008 82 10000 2.66 227 17:22 07.01.2022
4411 Clouds 26 1009 81 10000 2.47 230 14:50 07.01.2022
4412 Clouds 26 1010 81 10000 2.44 225 13:50 07.01.2022
4413 Clouds 26 1011 81 10000 2.21 220 12:50 07.01.2022
4414 Clouds 27 1009 80 10000 2.33 231 09:48 07.01.2022
4415 Clouds 30 1007 69 10000 3.81 271 02:58 07.01.2022
4416 Clouds 30 1008 68 10000 3.43 283 02:19 07.01.2022
4417 Clouds 30 1008 68 10000 3.43 283 01:41 07.01.2022
4418 Clouds 30 1009 67 10000 2.87 287 01:20 07.01.2022
4419 Clouds 30 1009 70 10000 2.05 277 00:28 07.01.2022
4420 Clouds 28 1009 81 10000 1.42 262 21:40 06.01.2022
4421 Clouds 26 1009 86 10000 1.37 256 20:36 06.01.2022
4422 Clouds 25 1008 87 10000 1.42 254 19:54 06.01.2022
4423 Clouds 25 1007 88 10000 1.57 254 19:28 06.01.2022
4424 Clouds 26 1007 86 10000 1.67 227 17:51 06.01.2022
4425 Clouds 26 1007 86 10000 1.74 231 17:19 06.01.2022
4426 Rain 26 1007 85 10000 1.77 230 16:21 06.01.2022
4427 Rain 26 1007 85 10000 1.77 230 15:40 06.01.2022
4428 Rain 26 1008 85 10000 1.91 232 15:19 06.01.2022
4429 Rain 26 1009 85 10000 1.92 239 14:19 06.01.2022
4430 Clouds 26 1009 85 10000 2.1 241 12:59 06.01.2022
4431 Rain 27 1009 85 10000 2.18 237 11:50 06.01.2022
4432 Clouds 27 1009 85 10000 2.39 241 11:28 06.01.2022
4433 Clouds 27 1008 83 10000 2.86 252 08:59 06.01.2022
4434 Clouds 31 1008 67 10000 3.89 284 01:56 06.01.2022
4435 Clouds 30 1009 67 10000 2.99 271 23:54 05.01.2022
4436 Clouds 29 1009 72 10000 2.88 262 23:19 05.01.2022
4437 Clouds 29 1009 72 10000 2.88 262 22:40 05.01.2022
4438 Rain 28 1009 77 10000 2.67 257 21:54 05.01.2022
4439 Clouds 27 1008 83 10000 2.93 247 21:21 05.01.2022
4440 Clouds 26 1007 84 10000 3.01 247 20:19 05.01.2022
4441 Clouds 26 1007 83 10000 2.97 247 18:54 05.01.2022
4442 Clouds 26 1006 83 10000 2.69 246 17:45 05.01.2022
4443 Rain 26 1006 84 10000 2.83 246 16:51 05.01.2022
4444 Clouds 26 1006 85 10000 2.87 247 15:43 05.01.2022
4445 Clouds 26 1008 87 10000 2.96 239 14:24 05.01.2022
4446 Clouds 26 1009 87 10000 3.11 242 13:25 05.01.2022
4447 Clouds 26 1008 87 10000 3.08 247 11:36 05.01.2022
4448 Clouds 29 1005 80 10000 3.84 261 07:47 05.01.2022
4449 Clouds 30 1004 69 10000 4.22 266 06:25 05.01.2022
4450 Clouds 30 1007 73 10000 4.14 286 00:59 05.01.2022
4451 Rain 29 1008 73 10000 2.97 273 23:28 04.01.2022
4452 Rain 29 1008 73 10000 2.97 273 22:55 04.01.2022
4453 Rain 27 1008 83 10000 2.83 262 21:31 04.01.2022
4454 Rain 27 1008 83 10000 2.83 262 21:31 04.01.2022
4455 Rain 26 1006 86 10000 2.88 253 19:20 04.01.2022
4456 Clouds 26 1006 88 10000 2.98 253 17:52 04.01.2022
4457 Clouds 26 1006 87 10000 2.95 254 16:53 04.01.2022
4458 Clouds 26 1006 88 10000 2.95 253 16:25 04.01.2022
4459 Clouds 26 1006 88 10000 2.88 254 14:54 04.01.2022
4460 Clouds 26 1006 88 10000 2.88 254 14:35 04.01.2022
4461 Clouds 26 1008 87 10000 2.72 255 13:29 04.01.2022
4462 Clouds 26 1008 84 10000 2.83 250 10:41 04.01.2022
4463 Clouds 27 1007 84 10000 2.93 251 09:47 04.01.2022
4464 Clouds 27 1007 82 10000 3.16 256 08:32 04.01.2022
4465 Clouds 32 1005 54 10000 3.82 254 02:32 04.01.2022
4466 Clouds 31 1006 58 10000 1.68 254 00:41 04.01.2022
4467 Clouds 30 1007 66 10000 2.3 229 23:26 03.01.2022
4468 Clouds 28 1007 74 10000 2.72 217 21:52 03.01.2022
4469 Clouds 28 1007 74 10000 2.72 217 21:33 03.01.2022
4470 Clouds 26 1005 86 10000 3.56 217 20:22 03.01.2022
4471 Clouds 26 1005 85 10000 3.1 220 18:54 03.01.2022
4472 Clouds 26 1004 85 10000 2.99 222 18:28 03.01.2022
4473 Clouds 26 1004 84 10000 3.11 225 16:58 03.01.2022
4474 Clouds 26 1005 84 10000 3.26 225 15:39 03.01.2022
4475 Clouds 26 1005 84 10000 3.49 227 14:30 03.01.2022
4476 Clouds 26 1007 85 10000 3.39 232 12:46 03.01.2022
4477 Clouds 26 1006 86 10000 3.56 236 11:35 03.01.2022
4478 Clouds 27 1006 86 10000 3.95 248 10:27 03.01.2022
4479 Rain 27 1005 87 10000 4.07 256 08:47 03.01.2022
4480 Clouds 27 1005 86 10000 4.23 258 07:34 03.01.2022
4481 Clouds 27 1005 86 10000 4.23 258 07:34 03.01.2022
4482 Clouds 30 1006 72 10000 3.69 262 23:55 02.01.2022
4483 Clouds 29 1006 78 10000 3.32 254 23:21 02.01.2022
4484 Clouds 29 1006 78 10000 3.32 254 22:53 02.01.2022
4485 Rain 28 1006 86 10000 3.04 244 21:39 02.01.2022
4486 Clouds 27 1006 89 10000 3.13 238 20:33 02.01.2022
4487 Clouds 26 1005 89 10000 3.14 240 19:54 02.01.2022
4488 Clouds 26 1005 89 10000 3.35 244 19:29 02.01.2022
4489 Clouds 26 1005 88 10000 3.09 239 18:39 02.01.2022
4490 Rain 26 1004 88 10000 3 239 17:43 02.01.2022
4491 Clouds 26 1004 88 10000 3.13 245 17:22 02.01.2022
4492 Rain 26 1004 88 10000 3.13 245 16:59 02.01.2022
4493 Rain 26 1005 89 10000 3.13 248 16:24 02.01.2022
4494 Rain 26 1007 92 10000 2.99 249 14:21 02.01.2022
4495 Rain 26 1008 91 10000 3.22 258 12:39 02.01.2022
4496 Rain 26 1008 88 10000 3.49 273 11:57 02.01.2022
4497 Rain 27 1008 88 10000 2.81 275 11:20 02.01.2022
4498 Rain 27 1008 88 10000 2.81 275 10:37 02.01.2022
4499 Rain 27 1006 83 10000 2.98 275 08:27 02.01.2022
4500 Clouds 27 1007 88 10000 3.33 267 03:22 02.01.2022
4501 Clouds 28 1008 84 10000 2.19 270 23:56 01.01.2022
4502 Clouds 28 1008 84 10000 2.19 270 23:36 01.01.2022
4503 Clouds 28 1008 82 10000 1.85 252 22:44 01.01.2022
4504 Clouds 28 1008 82 10000 2.08 243 22:18 01.01.2022
4505 Clouds 28 1008 82 10000 2.08 243 21:43 01.01.2022
4506 Clouds 27 1007 83 10000 2.23 233 20:51 01.01.2022
4507 Clouds 26 1007 82 10000 1.71 225 19:55 01.01.2022
4508 Clouds 26 1006 82 10000 1.44 214 18:53 01.01.2022
4509 Clouds 26 1007 85 10000 2.04 228 17:56 01.01.2022
4510 Clouds 26 1007 86 10000 2.26 230 16:35 01.01.2022
4511 Clouds 26 1007 86 10000 2.51 240 15:57 01.01.2022
4512 Clouds 26 1008 87 10000 2.8 249 14:56 01.01.2022
4513 Clouds 26 1009 86 10000 2.29 252 13:42 01.01.2022
4514 Rain 26 1010 88 10000 1.74 230 12:26 01.01.2022
4515 Clouds 26 1010 88 10000 1.74 230 11:47 01.01.2022
4516 Clouds 27 1010 87 10000 1.86 233 11:19 01.01.2022
4517 Rain 27 1009 86 10000 1.86 240 09:49 01.01.2022
4518 Rain 27 1009 84 10000 1.63 264 09:20 01.01.2022
4519 Clouds 28 1008 82 10000 1.3 285 08:22 01.01.2022
4520 Clouds 28 1008 82 10000 1.3 285 07:40 01.01.2022
4521 Clouds 29 1007 83 10000 1.69 310 06:44 01.01.2022
4522 Rain 29 1007 80 10000 2.42 317 05:25 01.01.2022
4523 Rain 29 1007 80 10000 2.42 317 04:36 01.01.2022
4524 Clouds 29 1009 75 10000 0.34 320 00:37 01.01.2022
4525 Clouds 28 1009 80 10000 0.36 63 22:40 31.12.2021
4526 Clouds 27 1009 83 10000 0.42 87 21:49 31.12.2021
4527 Clouds 26 1009 83 10000 0.1 337 19:56 31.12.2021
4528 Clouds 26 1008 83 10000 0.16 154 19:28 31.12.2021
4529 Clouds 26 1008 85 10000 0.72 152 18:24 31.12.2021
4530 Clouds 26 1008 85 10000 0.72 152 17:37 31.12.2021
4531 Clouds 26 1008 86 10000 1.55 145 17:18 31.12.2021
4532 Clouds 26 1008 87 10000 1.59 170 16:19 31.12.2021
4533 Clouds 26 1008 87 10000 1.59 170 15:51 31.12.2021
4534 Clouds 26 1009 86 10000 1.66 197 15:28 31.12.2021
4535 Rain 26 1009 86 10000 1.66 197 14:41 31.12.2021
4536 Rain 27 1010 85 10000 2 219 13:56 31.12.2021
4537 Rain 27 1010 85 10000 2.09 233 13:23 31.12.2021
4538 Clouds 27 1010 84 10000 1.93 246 12:33 31.12.2021
4539 Clouds 27 1009 85 10000 1.9 248 11:42 31.12.2021
4540 Clouds 27 1009 85 10000 1.45 270 10:58 31.12.2021
4541 Clouds 27 1009 84 10000 0.87 285 10:29 31.12.2021
4542 Clouds 27 1009 84 10000 0.87 285 09:35 31.12.2021
4543 Clouds 27 1009 84 10000 0.49 288 08:54 31.12.2021
4544 Clouds 28 1008 84 10000 1.11 308 08:23 31.12.2021
4545 Rain 29 1006 80 10000 2.05 322 06:24 31.12.2021
4546 Rain 27 1010 89 10000 2.6 275 23:19 30.12.2021
4547 Rain 27 1010 89 10000 2.6 275 22:32 30.12.2021
4548 Clouds 27 1010 88 10000 2.42 262 21:40 30.12.2021
4549 Clouds 26 1010 88 10000 2.28 258 21:20 30.12.2021
4550 Clouds 26 1010 88 10000 2.28 258 20:40 30.12.2021
4551 Rain 26 1009 88 10000 2.13 261 19:58 30.12.2021
4552 Rain 26 1009 88 10000 2.13 261 19:34 30.12.2021
4553 Rain 26 1008 90 10000 3.07 261 18:29 30.12.2021
4554 Rain 26 1008 90 10000 3.07 261 17:34 30.12.2021
4555 Clouds 26 1007 88 10000 2.42 264 15:54 30.12.2021
4556 Clouds 26 1008 88 10000 2.28 258 15:21 30.12.2021
4557 Clouds 26 1008 88 10000 2.28 258 14:36 30.12.2021
4558 Clouds 26 1009 88 10000 1.97 247 13:26 30.12.2021
4559 Clouds 27 1009 88 10000 2.01 243 11:58 30.12.2021
4560 Clouds 27 1009 88 10000 2.04 241 10:40 30.12.2021
4561 Rain 27 1009 87 10000 2.05 247 09:49 30.12.2021
4562 Rain 29 1006 81 10000 2.08 262 06:59 30.12.2021
4563 Rain 29 1006 81 10000 1.78 279 05:27 30.12.2021
4564 Rain 29 1006 79 10000 2.29 296 03:41 30.12.2021
4565 Clouds 30 1007 74 10000 2.14 310 02:32 30.12.2021
4566 Rain 28 1009 82 10000 1.61 260 23:39 29.12.2021
4567 Rain 28 1009 82 10000 1.74 242 22:55 29.12.2021
4568 Clouds 28 1009 84 10000 1.66 240 22:18 29.12.2021
4569 Clouds 27 1009 87 10000 1.93 234 20:59 29.12.2021
4570 Clouds 27 1009 87 10000 1.93 234 20:30 29.12.2021
4571 Clouds 27 1009 87 10000 1.93 234 20:30 29.12.2021
4572 Clouds 26 1008 89 10000 2.34 243 19:38 29.12.2021
4573 Clouds 26 1007 88 10000 2.46 257 18:43 29.12.2021
4574 Rain 26 1007 88 10000 2.57 259 17:51 29.12.2021
4575 Clouds 26 1007 89 10000 2.52 258 17:27 29.12.2021
4576 Clouds 26 1007 89 10000 2.46 258 16:22 29.12.2021
4577 Clouds 26 1008 90 10000 2.3 257 15:21 29.12.2021
4578 Clouds 26 1009 89 10000 2.04 252 13:31 29.12.2021
4579 Clouds 26 1009 89 10000 1.62 239 12:35 29.12.2021
4580 Clouds 27 1008 88 10000 1.66 247 11:25 29.12.2021
4581 Rain 27 1008 88 10000 2 244 09:38 29.12.2021
4582 Clouds 27 1007 88 10000 3.07 257 07:47 29.12.2021
4583 Clouds 28 1006 84 10000 2.38 298 06:36 29.12.2021
4584 Clouds 29 1006 81 10000 2.59 305 05:57 29.12.2021
4585 Clouds 29 1006 78 10000 2.7 321 05:27 29.12.2021
4586 Rain 29 1009 79 10000 2.2 331 01:27 29.12.2021
4587 Rain 29 1009 78 10000 2.29 321 23:59 28.12.2021
4588 Rain 29 1009 80 10000 2.01 307 22:57 28.12.2021
4589 Rain 29 1009 80 10000 2.01 307 22:57 28.12.2021
4590 Rain 28 1009 81 10000 1.47 279 22:25 28.12.2021
4591 Rain 28 1009 81 10000 1.47 279 21:54 28.12.2021
4592 Rain 28 1009 81 10000 1.47 279 21:35 28.12.2021
4593 Rain 27 1009 82 10000 1.17 249 20:32 28.12.2021
4594 Clouds 26 1007 83 10000 1.52 236 18:54 28.12.2021
4595 Rain 26 1007 84 10000 1.5 231 18:28 28.12.2021
4596 Rain 26 1007 84 10000 1.5 231 17:39 28.12.2021
4597 Clouds 26 1007 83 10000 1.31 246 16:21 28.12.2021
4598 Clouds 26 1007 83 10000 1.31 246 15:41 28.12.2021
4599 Clouds 26 1008 82 10000 1.72 240 14:56 28.12.2021
4600 Clouds 26 1008 82 10000 1.72 240 14:56 28.12.2021
4601 Clouds 26 1008 82 10000 1.72 240 14:38 28.12.2021
4602 Clouds 26 1008 82 10000 1.72 240 14:38 28.12.2021
4603 Clouds 26 1009 82 10000 1.76 230 14:19 28.12.2021
4604 Clouds 26 1009 82 10000 1.76 230 13:37 28.12.2021
4605 Clouds 26 1010 82 10000 1.67 233 12:56 28.12.2021
4606 Clouds 26 1010 83 10000 2.5 239 12:21 28.12.2021
4607 Clouds 26 1009 83 10000 2.89 241 10:47 28.12.2021
4608 Rain 28 1007 81 10000 2.73 247 07:38 28.12.2021
4609 Clouds 30 1007 70 10000 3.14 293 03:37 28.12.2021
4610 Rain 28 1009 84 10000 2.46 284 23:40 27.12.2021
4611 Clouds 28 1009 85 10000 1.8 289 22:21 27.12.2021
4612 Clouds 28 1009 85 10000 1.8 289 21:30 27.12.2021
4613 Rain 27 1009 87 10000 1.4 277 20:39 27.12.2021
4614 Rain 26 1008 89 10000 1.4 275 19:48 27.12.2021
4615 Clouds 27 1007 88 10000 1.43 290 19:27 27.12.2021
4616 Clouds 27 1007 88 10000 1.42 303 17:51 27.12.2021
4617 Clouds 27 1007 87 10000 1.6 302 17:28 27.12.2021
4618 Clouds 27 1007 86 10000 1.78 305 15:56 27.12.2021
4619 Clouds 27 1008 86 10000 1.76 310 15:19 27.12.2021
4620 Clouds 27 1009 85 10000 1.5 307 14:22 27.12.2021
4621 Clouds 27 1009 86 10000 1.37 312 12:56 27.12.2021
4622 Clouds 27 1009 86 10000 1.14 308 10:56 27.12.2021
4623 Clouds 27 1008 86 10000 1.26 306 10:27 27.12.2021
4624 Rain 28 1008 85 10000 1.72 310 09:19 27.12.2021
4625 Rain 28 1007 82 10000 2.01 309 07:34 27.12.2021
4626 Rain 30 1006 71 10000 2.47 327 06:27 27.12.2021
4627 Clouds 30 1008 71 10000 2.34 344 01:51 27.12.2021
4628 Rain 28 1010 82 10000 1.73 351 23:49 26.12.2021
4629 Rain 28 1010 81 6160 1.41 354 23:19 26.12.2021
4630 Rain 28 1009 83 10000 0.73 348 21:37 26.12.2021
4631 Rain 26 1008 86 10000 0.13 215 19:55 26.12.2021
4632 Rain 26 1007 87 10000 0.86 258 18:45 26.12.2021
4633 Rain 26 1007 86 10000 1.1 288 18:21 26.12.2021
4634 Clouds 27 1007 85 10000 0.93 273 15:38 26.12.2021
4635 Rain 27 1008 86 10000 0.37 233 13:49 26.12.2021
4636 Rain 27 1008 86 10000 0.37 233 13:31 26.12.2021
4637 Rain 26 1009 89 10000 1.77 270 12:35 26.12.2021
4638 Clouds 26 1010 91 10000 2.55 296 11:20 26.12.2021
4639 Clouds 26 1009 90 4281 2.43 294 09:31 26.12.2021
4640 Rain 27 1008 88 10000 2.64 291 08:45 26.12.2021
4641 Rain 28 1007 85 10000 2.21 302 08:26 26.12.2021
4642 Clouds 29 1009 80 10000 2.32 19 01:50 26.12.2021
4643 Clouds 28 1009 85 10000 2.89 18 00:39 26.12.2021
4644 Rain 28 1010 84 10000 2.67 23 23:35 25.12.2021
4645 Clouds 27 1010 82 10000 0.95 81 22:29 25.12.2021
4646 Rain 27 1010 82 10000 0.95 81 21:30 25.12.2021
4647 Clouds 26 1008 86 10000 1.09 172 20:18 25.12.2021
4648 Clouds 26 1008 87 10000 1.16 167 19:18 25.12.2021
4649 Clouds 26 1007 88 10000 1.1 113 18:29 25.12.2021
4650 Clouds 26 1007 88 10000 1.29 119 16:49 25.12.2021
4651 Clouds 26 1007 87 10000 1.39 115 15:30 25.12.2021
4652 Rain 26 1009 86 10000 1.18 104 14:22 25.12.2021
4653 Clouds 26 1009 88 10000 1.18 133 12:21 25.12.2021
4654 Clouds 26 1009 90 10000 1.53 141 10:38 25.12.2021
4655 Clouds 26 1009 91 10000 1.85 140 09:48 25.12.2021
4656 Rain 28 1007 83 8671 1.73 317 07:27 25.12.2021
4657 Clouds 30 1008 77 10000 2.47 322 01:36 25.12.2021
4658 Clouds 31 1009 69 10000 1.28 323 00:19 25.12.2021
4659 Clouds 28 1009 81 10000 0.98 234 21:51 24.12.2021
4660 Clouds 26 1008 87 10000 0.79 210 19:27 24.12.2021
4661 Clouds 26 1008 87 10000 0.79 210 18:41 24.12.2021
4662 Clouds 26 1006 87 10000 0.7 233 16:44 24.12.2021
4663 Clouds 26 1006 87 10000 0.97 224 15:50 24.12.2021
4664 Clouds 26 1007 87 10000 0.91 224 15:20 24.12.2021
4665 Clouds 26 1007 87 10000 0.91 224 14:33 24.12.2021
4666 Clouds 27 1008 86 10000 0.75 225 13:50 24.12.2021
4667 Clouds 27 1008 86 10000 0.75 225 13:32 24.12.2021
4668 Clouds 27 1009 86 10000 0.77 229 12:39 24.12.2021
4669 Clouds 27 1009 86 10000 0.9 166 11:42 24.12.2021
4670 Clouds 27 1008 86 10000 0.93 160 11:24 24.12.2021
4671 Clouds 27 1008 86 10000 0.93 160 10:35 24.12.2021
4672 Rain 27 1007 87 10000 0.56 150 08:48 24.12.2021
4673 Rain 27 1006 86 10000 0.31 98 07:58 24.12.2021
4674 Clouds 28 1006 85 10000 0.48 27 06:59 24.12.2021
4675 Clouds 27 1009 84 10000 1.93 83 00:22 24.12.2021
4676 Clouds 27 1009 84 10000 1.93 83 23:49 23.12.2021
4677 Clouds 26 1010 87 10000 1.88 65 22:53 23.12.2021
4678 Clouds 26 1009 89 10000 1.69 114 22:24 23.12.2021
4679 Clouds 26 1009 89 10000 1.69 114 21:41 23.12.2021
4680 Clouds 25 1009 91 10000 2.35 115 20:31 23.12.2021
4681 Clouds 25 1008 91 10000 2.51 120 19:30 23.12.2021
4682 Clouds 26 1006 86 10000 0.61 217 18:27 23.12.2021
4683 Clouds 26 1006 86 10000 0.61 217 17:46 23.12.2021
4684 Clouds 26 1006 86 10000 0.71 207 16:27 23.12.2021
4685 Clouds 26 1006 86 10000 0.71 207 15:48 23.12.2021
4686 Clouds 26 1006 86 10000 0.71 207 15:30 23.12.2021
4687 Clouds 26 1007 86 10000 0.7 228 14:42 23.12.2021
4688 Clouds 27 1008 87 10000 0.67 205 13:43 23.12.2021
4689 Rain 26 1009 91 10000 1.89 155 11:52 23.12.2021
4690 Rain 27 1009 89 10000 0.38 303 09:53 23.12.2021
4691 Rain 27 1009 89 10000 0.38 303 09:34 23.12.2021
4692 Rain 27 1008 89 10000 0.44 342 08:38 23.12.2021
4693 Rain 29 1006 75 10000 2.22 1 05:43 23.12.2021
4694 Clouds 30 1008 68 10000 2.8 9 02:56 23.12.2021
4695 Clouds 28 1009 83 10000 3.78 32 22:53 22.12.2021
4696 Clouds 28 1009 83 10000 2.21 58 22:19 22.12.2021
4697 Clouds 28 1009 83 10000 2.21 58 21:36 22.12.2021
4698 Clouds 27 1008 86 10000 1.82 93 21:18 22.12.2021
4699 Clouds 27 1008 86 10000 1.82 93 20:40 22.12.2021
4700 Clouds 26 1007 88 10000 2.17 97 19:54 22.12.2021
4701 Clouds 26 1007 88 10000 1.88 112 18:55 22.12.2021
4702 Clouds 26 1006 87 10000 1.59 106 17:38 22.12.2021
4703 Clouds 26 1006 86 10000 1.44 148 16:22 22.12.2021
4704 Clouds 26 1008 86 10000 1.5 168 14:28 22.12.2021
4705 Clouds 27 1009 86 10000 0.94 169 12:53 22.12.2021
4706 Clouds 27 1009 86 10000 0.95 176 11:42 22.12.2021
4707 Rain 27 1008 86 10000 0.82 191 09:52 22.12.2021
4708 Rain 28 1006 83 10000 0.66 230 07:57 22.12.2021
4709 Rain 29 1005 84 10000 1.82 332 05:54 22.12.2021
4710 Rain 29 1005 84 10000 1.82 332 05:34 22.12.2021
4711 Rain 30 1005 75 10000 1.86 347 04:57 22.12.2021
4712 Rain 30 1005 75 10000 1.86 347 04:37 22.12.2021
4713 Clouds 30 1006 73 10000 1.55 355 03:37 22.12.2021
4714 Clouds 30 1007 72 10000 1.01 5 03:18 22.12.2021
4715 Clouds 28 1009 83 10000 0.35 37 23:47 21.12.2021
4716 Clouds 27 1009 84 10000 0.64 72 22:36 21.12.2021
4717 Clouds 27 1009 85 10000 0.45 121 21:55 21.12.2021
4718 Clouds 27 1009 85 10000 0.45 121 21:31 21.12.2021
4719 Clouds 26 1008 86 10000 1.29 149 20:24 21.12.2021
4720 Clouds 26 1008 86 10000 1.29 149 19:55 21.12.2021
4721 Clouds 26 1008 86 10000 1.29 149 19:33 21.12.2021
4722 Clouds 26 1007 87 10000 1.44 153 18:23 21.12.2021
4723 Clouds 26 1007 87 10000 1.44 153 17:53 21.12.2021
4724 Clouds 26 1007 87 10000 1.45 150 16:47 21.12.2021
4725 Clouds 26 1008 87 10000 1.55 149 15:34 21.12.2021
4726 Rain 26 1010 87 10000 1.54 142 13:55 21.12.2021
4727 Rain 26 1010 87 10000 1.54 142 13:36 21.12.2021
4728 Rain 26 1010 88 10000 1.33 138 12:25 21.12.2021
4729 Clouds 26 1010 88 10000 1.42 130 10:38 21.12.2021
4730 Clouds 27 1010 88 10000 1.76 123 09:41 21.12.2021
4731 Clouds 27 1009 86 10000 1.52 120 08:39 21.12.2021
4732 Clouds 28 1008 85 10000 1.2 114 07:35 21.12.2021
4733 Clouds 28 1008 84 10000 0.67 118 06:56 21.12.2021
4734 Clouds 30 1008 77 8668 1.59 310 03:22 21.12.2021
4735 Clouds 30 1010 71 10000 1.59 323 01:18 21.12.2021
4736 Clouds 29 1010 75 10000 1.19 310 23:34 20.12.2021
4737 Clouds 29 1011 77 10000 0.78 289 22:35 20.12.2021
4738 Clouds 28 1010 81 10000 0.67 230 21:48 20.12.2021
4739 Clouds 27 1010 85 10000 0.94 218 21:24 20.12.2021
4740 Clouds 27 1010 85 10000 0.94 218 20:48 20.12.2021
4741 Clouds 26 1009 86 10000 0.89 232 19:55 20.12.2021
4742 Clouds 26 1009 86 10000 0.89 232 19:32 20.12.2021
4743 Clouds 26 1009 87 10000 0.99 234 18:55 20.12.2021
4744 Clouds 26 1008 88 10000 1.62 233 17:56 20.12.2021
4745 Clouds 26 1008 88 10000 1.62 233 17:37 20.12.2021
4746 Clouds 26 1008 88 10000 1.57 232 16:43 20.12.2021
4747 Clouds 26 1008 88 10000 1.45 230 15:52 20.12.2021
4748 Clouds 26 1009 88 10000 1.39 225 14:56 20.12.2021
4749 Clouds 26 1011 88 10000 1.17 180 13:18 20.12.2021
4750 Clouds 26 1010 88 10000 0.95 183 11:23 20.12.2021
4751 Clouds 26 1010 88 10000 0.29 151 09:51 20.12.2021
4752 Clouds 26 1010 88 10000 0.29 151 09:31 20.12.2021
4753 Clouds 26 1009 89 10000 0.72 29 08:42 20.12.2021
4754 Clouds 28 1008 87 8765 1.4 15 07:50 20.12.2021
4755 Clouds 28 1008 87 8765 1.4 15 07:50 20.12.2021
4756 Clouds 28 1008 87 8765 1.4 15 07:30 20.12.2021
4757 Clouds 29 1007 75 10000 1.81 11 04:36 20.12.2021
4758 Clouds 29 1010 78 10000 1.3 34 23:59 19.12.2021
4759 Clouds 28 1010 82 10000 0.79 60 22:51 19.12.2021
4760 Clouds 27 1010 86 10000 0.72 127 21:50 19.12.2021
4761 Clouds 27 1010 86 10000 0.72 127 21:30 19.12.2021
4762 Clouds 26 1010 87 10000 1.36 133 20:32 19.12.2021
4763 Clouds 26 1009 87 10000 0.85 122 19:51 19.12.2021
4764 Clouds 26 1009 87 10000 0.53 85 19:22 19.12.2021
4765 Clouds 26 1008 87 10000 0.76 119 18:29 19.12.2021
4766 Clouds 26 1008 87 10000 0.76 119 18:29 19.12.2021
4767 Clouds 26 1008 87 10000 0.76 119 17:52 19.12.2021
4768 Clouds 26 1008 87 10000 0.84 137 17:19 19.12.2021
4769 Clouds 26 1009 87 10000 0.71 153 16:26 19.12.2021
4770 Clouds 25 1009 92 10000 1.12 248 15:31 19.12.2021
4771 Clouds 25 1009 90 10000 1.26 262 14:59 19.12.2021
4772 Clouds 25 1009 90 10000 1.26 262 14:36 19.12.2021
4773 Clouds 26 1011 89 10000 0.75 210 13:22 19.12.2021
4774 Clouds 26 1011 89 10000 0.75 210 12:33 19.12.2021
4775 Clouds 26 1011 89 10000 0.7 184 11:44 19.12.2021
4776 Clouds 26 1010 89 10000 0.87 169 10:58 19.12.2021
4777 Clouds 26 1010 90 10000 0.74 176 10:25 19.12.2021
4778 Clouds 26 1009 90 10000 0.48 205 09:26 19.12.2021
4779 Clouds 26 1009 90 10000 0.33 262 07:50 19.12.2021
4780 Rain 27 1007 87 10000 0.4 223 04:44 19.12.2021
4781 Rain 29 1009 78 10000 0.43 344 00:55 19.12.2021
4782 Rain 27 1010 87 10000 0.48 335 23:52 18.12.2021
4783 Rain 27 1010 86 10000 0.74 339 22:31 18.12.2021
4784 Rain 26 1009 86 10000 0.3 278 21:54 18.12.2021
4785 Rain 26 1009 86 10000 0.3 278 21:33 18.12.2021
4786 Clouds 26 1009 87 10000 0.64 217 20:43 18.12.2021
4787 Clouds 26 1008 88 10000 0.93 221 19:50 18.12.2021
4788 Clouds 26 1007 88 10000 0.77 230 19:19 18.12.2021
4789 Clouds 26 1007 89 10000 0.94 247 18:18 18.12.2021
4790 Clouds 26 1007 89 10000 0.94 247 17:46 18.12.2021
4791 Clouds 26 1007 88 10000 0.51 217 16:22 18.12.2021
4792 Clouds 26 1008 89 10000 0.69 222 15:25 18.12.2021
4793 Clouds 26 1009 89 10000 0.77 201 14:19 18.12.2021
4794 Clouds 26 1009 91 10000 0.53 37 12:21 18.12.2021
4795 Clouds 26 1009 92 10000 0.89 350 10:43 18.12.2021
4796 Clouds 26 1009 92 10000 1.1 342 09:32 18.12.2021
4797 Clouds 26 1008 91 10000 1.31 339 08:37 18.12.2021
4798 Clouds 26 1007 91 10000 1.37 321 07:42 18.12.2021
4799 Clouds 28 1007 84 10000 2.31 29 01:48 18.12.2021
4800 Clouds 29 1008 80 10000 1.65 55 00:23 18.12.2021
4801 Rain 29 1008 80 10000 1.65 55 23:35 17.12.2021
4802 Clouds 27 1008 84 10000 1.48 107 21:50 17.12.2021
4803 Clouds 26 1008 87 10000 1.94 121 20:49 17.12.2021
4804 Clouds 25 1007 89 10000 2.1 128 19:58 17.12.2021
4805 Clouds 26 1007 88 10000 2 139 18:40 17.12.2021
4806 Clouds 26 1006 88 10000 1.87 143 18:18 17.12.2021
4807 Clouds 26 1006 88 10000 1.85 149 16:57 17.12.2021
4808 Clouds 26 1006 89 10000 2 153 16:28 17.12.2021
4809 Rain 26 1006 89 10000 2 153 15:51 17.12.2021
4810 Clouds 26 1007 89 10000 1.96 152 14:43 17.12.2021
4811 Clouds 26 1008 89 10000 1.54 142 13:55 17.12.2021
4812 Clouds 26 1009 88 10000 1.86 137 12:37 17.12.2021
4813 Rain 27 1008 87 10000 1.18 118 10:42 17.12.2021
4814 Rain 27 1008 87 10000 1.18 118 10:42 17.12.2021
4815 Rain 27 1008 86 10000 1.15 110 09:47 17.12.2021
4816 Rain 27 1007 86 10000 1.01 86 08:32 17.12.2021
4817 Rain 28 1007 87 9725 1.22 72 07:38 17.12.2021
4818 Clouds 29 1005 79 10000 0.84 86 04:41 17.12.2021
4819 Clouds 30 1008 70 10000 0.27 56 00:28 17.12.2021
4820 Clouds 28 1008 81 10000 1.64 201 22:25 16.12.2021
4821 Clouds 28 1008 81 10000 1.64 201 21:55 16.12.2021
4822 Clouds 28 1008 81 10000 1.64 201 21:36 16.12.2021
4823 Clouds 26 1008 87 10000 1.98 205 20:40 16.12.2021
4824 Clouds 26 1007 88 10000 2.39 208 19:52 16.12.2021
4825 Clouds 26 1007 88 10000 2.75 214 18:45 16.12.2021
4826 Clouds 26 1007 89 10000 2.46 230 18:26 16.12.2021
4827 Clouds 26 1007 89 10000 2.46 230 17:35 16.12.2021
4828 Clouds 26 1008 89 10000 2.33 259 16:23 16.12.2021
4829 Clouds 26 1009 89 10000 2.55 268 15:22 16.12.2021
4830 Clouds 26 1010 89 10000 2.6 271 13:44 16.12.2021
4831 Clouds 26 1010 91 10000 2.73 276 11:48 16.12.2021
4832 Clouds 26 1010 92 10000 2.75 285 11:18 16.12.2021
4833 Clouds 26 1010 92 10000 2.75 285 10:32 16.12.2021
4834 Rain 26 1009 92 10000 3.55 315 08:56 16.12.2021
4835 Rain 26 1007 91 9264 3.28 306 06:23 16.12.2021
4836 Clouds 29 1007 79 9117 1.81 316 03:19 16.12.2021
4837 Clouds 29 1008 80 10000 0.64 6 23:36 15.12.2021
4838 Clouds 27 1008 85 10000 0.36 190 22:49 15.12.2021
4839 Clouds 26 1008 90 10000 1.16 161 21:58 15.12.2021
4840 Rain 25 1008 93 9659 1.92 194 21:28 15.12.2021
4841 Clouds 25 1008 93 9659 1.92 194 20:31 15.12.2021
4842 Clouds 25 1007 92 7385 2.07 237 19:52 15.12.2021
4843 Clouds 26 1007 88 10000 2.02 222 18:39 15.12.2021
4844 Clouds 26 1006 87 10000 2.06 229 17:56 15.12.2021
4845 Clouds 26 1006 87 10000 2.06 229 17:37 15.12.2021
4846 Clouds 26 1006 88 10000 2.12 230 16:35 15.12.2021
4847 Clouds 26 1006 85 10000 1.99 236 15:47 15.12.2021
4848 Clouds 26 1006 85 10000 1.99 236 15:47 15.12.2021
4849 Clouds 26 1007 85 10000 2 231 15:28 15.12.2021
4850 Clouds 26 1007 86 10000 2.21 245 14:42 15.12.2021
4851 Rain 26 1008 87 10000 2.09 240 12:46 15.12.2021
4852 Rain 27 1008 87 10000 2.45 249 10:44 15.12.2021
4853 Rain 27 1007 86 10000 2.66 262 08:55 15.12.2021
4854 Clouds 28 1006 83 10000 2.88 269 07:43 15.12.2021
4855 Clouds 29 1007 80 10000 3.68 301 01:35 15.12.2021
4856 Clouds 29 1008 79 10000 3.18 308 23:42 14.12.2021
4857 Clouds 29 1008 80 10000 2.78 305 22:49 14.12.2021
4858 Clouds 28 1008 82 10000 2.44 297 22:24 14.12.2021
4859 Clouds 27 1008 87 10000 2.14 287 20:55 14.12.2021
4860 Clouds 26 1007 89 10000 1.98 280 19:44 14.12.2021
4861 Clouds 26 1007 88 10000 1.67 272 19:19 14.12.2021
4862 Clouds 26 1006 88 10000 1.52 277 18:25 14.12.2021
4863 Clouds 26 1006 88 10000 1.52 277 17:33 14.12.2021
4864 Clouds 26 1006 88 10000 1.26 283 16:40 14.12.2021
4865 Clouds 26 1006 89 10000 0.84 276 15:36 14.12.2021
4866 Clouds 26 1008 89 10000 0.77 316 13:31 14.12.2021
4867 Clouds 26 1008 89 10000 0.42 332 11:59 14.12.2021
4868 Clouds 26 1008 89 10000 0.53 298 11:24 14.12.2021
4869 Clouds 27 1008 87 10000 0.84 291 10:23 14.12.2021
4870 Clouds 27 1008 87 10000 0.84 291 09:43 14.12.2021
4871 Rain 28 1006 82 10000 1.66 324 08:27 14.12.2021
4872 Rain 28 1006 82 10000 1.66 324 07:43 14.12.2021
4873 Rain 28 1006 84 9640 2.45 322 02:37 14.12.2021
4874 Rain 28 1008 83 7725 2.53 318 22:56 13.12.2021
4875 Rain 28 1008 85 10000 2.01 311 21:53 13.12.2021
4876 Clouds 27 1007 88 10000 1.78 303 21:18 13.12.2021
4877 Rain 27 1007 88 10000 1.78 303 20:38 13.12.2021
4878 Clouds 27 1007 89 10000 1.97 301 19:52 13.12.2021
4879 Clouds 26 1005 89 10000 2.24 280 17:56 13.12.2021
4880 Clouds 26 1005 88 10000 2.3 279 17:26 13.12.2021
4881 Clouds 26 1005 89 10000 2.42 274 15:51 13.12.2021
4882 Clouds 26 1006 90 10000 2.38 270 15:20 13.12.2021
4883 Clouds 27 1007 90 10000 2.25 276 13:39 13.12.2021
4884 Clouds 27 1007 90 10000 1.92 280 12:46 13.12.2021
4885 Clouds 27 1007 90 10000 1.92 280 12:46 13.12.2021
4886 Rain 27 1007 90 10000 1.74 277 11:54 13.12.2021
4887 Rain 27 1007 90 10000 1.74 277 11:35 13.12.2021
4888 Clouds 27 1007 90 10000 1.5 285 10:43 13.12.2021
4889 Clouds 27 1006 86 9389 1.25 339 08:57 13.12.2021
4890 Clouds 29 1005 81 10000 1.77 352 07:38 13.12.2021
4891 Clouds 31 1004 70 10000 2.54 348 05:34 13.12.2021
4892 Clouds 30 1007 79 10000 3.04 356 00:43 13.12.2021
4893 Clouds 28 1007 86 10000 2.08 11 22:22 12.12.2021
4894 Clouds 28 1007 86 10000 2.08 11 21:35 12.12.2021
4895 Clouds 26 1007 90 10000 1.63 12 19:40 12.12.2021
4896 Clouds 26 1006 91 7642 2.58 10 18:35 12.12.2021
4897 Clouds 26 1006 91 10000 2.27 33 16:58 12.12.2021
4898 Clouds 26 1006 92 10000 2.09 47 16:27 12.12.2021
4899 Rain 26 1006 92 10000 2.09 47 15:41 12.12.2021
4900 Clouds 26 1007 92 10000 1.91 56 15:21 12.12.2021
4901 Rain 26 1008 93 10000 1.83 66 14:28 12.12.2021
4902 Rain 26 1008 93 8773 1.76 60 12:55 12.12.2021
4903 Rain 26 1008 94 3922 1.7 59 12:26 12.12.2021
4904 Clouds 26 1008 94 3922 1.7 59 11:43 12.12.2021
4905 Rain 26 1009 94 6532 1.86 45 10:45 12.12.2021
4906 Clouds 26 1009 94 4832 2.01 33 10:22 12.12.2021
4907 Rain 26 1008 93 5118 2.3 30 08:53 12.12.2021
4908 Rain 27 1007 91 8100 2.6 25 07:31 12.12.2021
4909 Rain 28 1005 80 10000 2.09 9 05:56 12.12.2021
4910 Rain 29 1006 80 10000 2.22 7 04:55 12.12.2021
4911 Rain 29 1007 80 8967 2.74 0 02:52 12.12.2021
4912 Clouds 29 1008 81 10000 1.89 316 23:28 11.12.2021
4913 Clouds 28 1008 84 10000 1.94 289 22:21 11.12.2021
4914 Clouds 28 1008 84 10000 1.94 289 21:47 11.12.2021
4915 Clouds 26 1007 90 10000 1 265 20:20 11.12.2021
4916 Rain 26 1006 90 10000 1.16 294 19:21 11.12.2021
4917 Rain 26 1006 90 10000 1.16 294 19:21 11.12.2021
4918 Rain 26 1006 90 10000 1.16 294 18:49 11.12.2021
4919 Rain 26 1005 88 10000 0.27 263 17:56 11.12.2021
4920 Rain 26 1005 88 10000 0.31 247 16:39 11.12.2021
4921 Rain 26 1006 88 10000 0.05 200 15:46 11.12.2021
4922 Rain 26 1006 87 10000 0.26 22 14:46 11.12.2021
4923 Rain 26 1008 86 10000 0.61 262 12:41 11.12.2021
4924 Rain 26 1008 86 10000 0.47 242 10:58 11.12.2021
4925 Rain 26 1008 88 10000 1.31 212 09:44 11.12.2021
4926 Rain 29 1006 80 8007 2.03 13 03:58 11.12.2021
4927 Clouds 30 1008 78 10000 2.25 26 00:50 11.12.2021
4928 Rain 29 1008 79 10000 1.91 32 23:44 10.12.2021
4929 Rain 29 1008 81 10000 1.63 45 22:50 10.12.2021
4930 Rain 28 1008 86 10000 1.29 58 21:51 10.12.2021
4931 Rain 27 1008 89 10000 0.89 54 20:32 10.12.2021
4932 Rain 26 1005 90 10000 1.24 39 19:19 10.12.2021
4933 Clouds 26 1005 90 10000 1.37 46 17:50 10.12.2021
4934 Clouds 27 1005 89 10000 1.31 47 16:39 10.12.2021
4935 Clouds 27 1006 89 10000 1.49 34 15:45 10.12.2021
4936 Clouds 27 1007 90 10000 1.78 26 15:27 10.12.2021
4937 Clouds 27 1007 90 10000 1.78 26 14:49 10.12.2021
4938 Clouds 27 1008 90 10000 1.98 30 13:50 10.12.2021
4939 Clouds 27 1008 89 10000 1.98 28 12:56 10.12.2021
4940 Clouds 27 1008 87 10000 1.58 28 11:43 10.12.2021
4941 Clouds 27 1008 87 10000 1.51 29 11:19 10.12.2021
4942 Clouds 27 1007 86 10000 1.5 25 09:49 10.12.2021
4943 Clouds 29 1006 82 10000 1.91 19 07:49 10.12.2021
4944 Clouds 30 1004 73 10000 2.13 16 04:57 10.12.2021
4945 Clouds 30 1006 74 10000 2.19 5 02:44 10.12.2021
4946 Clouds 29 1008 78 10000 1.63 18 23:43 09.12.2021
4947 Clouds 28 1008 83 10000 0.91 44 22:43 09.12.2021
4948 Rain 27 1008 86 10000 0.88 92 22:22 09.12.2021
4949 Clouds 27 1008 86 10000 0.88 92 21:40 09.12.2021
4950 Rain 27 1007 88 10000 0.65 116 20:36 09.12.2021
4951 Rain 26 1006 89 10000 1.13 112 19:43 09.12.2021
4952 Rain 26 1006 89 10000 1.21 109 19:20 09.12.2021
4953 Rain 26 1006 89 10000 0.93 135 18:22 09.12.2021
4954 Rain 26 1006 89 10000 0.93 135 17:48 09.12.2021
4955 Rain 26 1006 88 10000 0.75 114 17:24 09.12.2021
4956 Clouds 26 1006 88 10000 0.75 114 16:36 09.12.2021
4957 Rain 26 1007 88 10000 1.03 143 15:19 09.12.2021
4958 Rain 26 1007 90 10000 1.76 132 14:36 09.12.2021
4959 Rain 26 1008 89 10000 1.17 136 12:48 09.12.2021
4960 Rain 26 1009 88 10000 0.77 179 11:51 09.12.2021
4961 Rain 27 1008 88 10000 1.21 285 10:28 09.12.2021
4962 Clouds 27 1006 87 10000 1.17 292 07:34 09.12.2021
4963 Clouds 30 1006 75 10000 1.92 20 03:56 09.12.2021
4964 Rain 27 1009 89 10000 0.64 55 00:25 09.12.2021
4965 Clouds 27 1009 89 10000 0.64 55 23:37 08.12.2021
4966 Clouds 27 1009 89 10000 0.92 54 22:57 08.12.2021
4967 Rain 26 1009 90 9106 1.59 51 22:25 08.12.2021
4968 Rain 26 1009 90 9106 1.59 51 21:33 08.12.2021
4969 Rain 26 1008 91 6494 1.39 43 20:50 08.12.2021
4970 Clouds 26 1008 91 7477 1.59 30 19:56 08.12.2021
4971 Clouds 26 1007 91 6457 1.74 24 18:58 08.12.2021
4972 Clouds 26 1007 90 8074 0.92 29 18:22 08.12.2021
4973 Clouds 26 1007 90 6070 1.53 38 16:53 08.12.2021
4974 Clouds 26 1007 89 10000 1.15 51 15:41 08.12.2021
4975 Clouds 26 1008 88 10000 0.97 68 15:22 08.12.2021
4976 Rain 26 1010 88 10000 0.99 88 13:21 08.12.2021
4977 Rain 26 1010 91 10000 1.16 45 10:44 08.12.2021
4978 Rain 26 1009 90 10000 1.13 32 09:32 08.12.2021
4979 Rain 26 1008 90 10000 1.09 25 08:31 08.12.2021
4980 Clouds 26 1007 93 6248 1.99 340 05:37 08.12.2021
4981 Clouds 26 1010 95 1485 2.83 7 00:27 08.12.2021
4982 Clouds 26 1010 94 10000 2.89 11 22:52 07.12.2021
4983 Clouds 26 1009 92 10000 1.14 359 21:25 07.12.2021
4984 Clouds 26 1008 93 3642 0.41 347 20:25 07.12.2021
4985 Clouds 26 1008 93 3642 0.41 347 20:25 07.12.2021
4986 Clouds 25 1008 95 5160 0.5 302 18:59 07.12.2021
4987 Clouds 25 1007 96 4109 0.54 334 18:20 07.12.2021
4988 Clouds 25 1007 96 3583 1.21 334 17:23 07.12.2021
4989 Clouds 25 1007 96 3583 1.21 334 16:41 07.12.2021
4990 Clouds 25 1007 96 1381 1.65 346 15:59 07.12.2021
4991 Clouds 25 1008 96 1336 1.72 13 14:37 07.12.2021
4992 Clouds 25 1009 95 1626 1.82 42 13:38 07.12.2021
4993 Clouds 25 1010 95 10000 1.72 77 12:22 07.12.2021
4994 Rain 25 1009 95 4175 1.71 77 10:48 07.12.2021
4995 Rain 26 1008 93 10000 1.99 69 09:20 07.12.2021
4996 Rain 26 1006 93 10000 1.11 33 06:40 07.12.2021
4997 Rain 27 1006 91 10000 1.43 35 05:47 07.12.2021
4998 Clouds 29 1007 82 10000 2.02 31 01:43 07.12.2021
4999 Clouds 28 1009 84 10000 2.12 51 23:21 06.12.2021
5000 Clouds 28 1009 84 10000 2.12 51 22:40 06.12.2021
5001 Clouds 27 1008 86 10000 2.21 53 21:58 06.12.2021
5002 Clouds 26 1008 89 10000 2.06 53 21:20 06.12.2021
5003 Clouds 26 1008 89 10000 2.06 53 20:30 06.12.2021
5004 Clouds 26 1006 89 10000 2 43 19:24 06.12.2021
5005 Clouds 26 1005 89 10000 1.86 32 18:29 06.12.2021
5006 Clouds 26 1005 89 10000 1.86 32 17:52 06.12.2021
5007 Rain 27 1005 89 10000 2.11 29 17:20 06.12.2021
5008 Clouds 27 1006 89 10000 2.29 26 15:49 06.12.2021
5009 Rain 26 1007 92 2880 3.4 34 13:47 06.12.2021
5010 Rain 26 1008 92 5060 3.41 31 12:40 06.12.2021
5011 Clouds 26 1008 91 10000 3.54 34 11:54 06.12.2021
5012 Rain 26 1008 90 5801 3.5 37 09:37 06.12.2021
5013 Rain 27 1007 88 10000 3.98 6 06:59 06.12.2021
5014 Clouds 29 1007 78 10000 2.84 7 00:33 06.12.2021
5015 Clouds 28 1007 80 10000 0.76 140 21:53 05.12.2021
5016 Rain 27 1006 86 10000 0.75 123 21:25 05.12.2021
5017 Rain 25 1005 87 10000 1.29 159 20:20 05.12.2021
5018 Clouds 25 1005 87 10000 1.29 159 19:49 05.12.2021
5019 Clouds 26 1005 88 10000 1.61 153 19:21 05.12.2021
5020 Clouds 26 1005 88 10000 1.56 130 18:20 05.12.2021
5021 Clouds 26 1005 88 10000 1.56 130 17:49 05.12.2021
5022 Clouds 26 1005 88 10000 1.51 133 16:52 05.12.2021
5023 Clouds 26 1005 88 10000 1.47 135 16:27 05.12.2021
5024 Clouds 26 1005 88 10000 1.47 135 15:58 05.12.2021
5025 Clouds 26 1005 87 10000 1.26 122 14:45 05.12.2021
5026 Clouds 26 1006 87 10000 1.24 134 14:26 05.12.2021
5027 Clouds 26 1007 87 10000 0.88 147 13:27 05.12.2021
5028 Clouds 26 1007 87 10000 0.96 155 12:40 05.12.2021
5029 Clouds 26 1007 86 10000 0.6 143 12:18 05.12.2021
5030 Clouds 26 1007 86 10000 0.6 143 11:34 05.12.2021
5031 Clouds 27 1006 86 10000 0.32 222 10:19 05.12.2021
5032 Clouds 27 1006 85 10000 0.81 301 08:45 05.12.2021
5033 Clouds 29 1003 79 10000 1.48 301 04:56 05.12.2021
5034 Clouds 31 1005 69 10000 2.27 329 00:48 05.12.2021
5035 Clouds 28 1007 77 10000 0.99 217 22:24 04.12.2021
5036 Clouds 27 1006 84 10000 1.37 215 21:20 04.12.2021
5037 Clouds 26 1006 86 10000 1.38 210 20:27 04.12.2021
5038 Clouds 26 1006 86 10000 1.38 210 19:32 04.12.2021
5039 Clouds 26 1004 87 10000 1.22 188 18:22 04.12.2021
5040 Clouds 26 1004 87 10000 1.22 188 17:42 04.12.2021
5041 Clouds 26 1004 87 10000 1.02 204 17:19 04.12.2021
5042 Clouds 26 1004 87 10000 1.02 204 16:42 04.12.2021
5043 Clouds 26 1004 87 10000 0.85 203 16:23 04.12.2021
5044 Clouds 26 1007 87 10000 0.86 248 11:55 04.12.2021
5045 Clouds 26 1007 87 10000 0.86 248 11:33 04.12.2021
5046 Clouds 26 1007 88 10000 0.87 256 10:56 04.12.2021
5047 Rain 27 1005 85 10000 0.49 247 08:49 04.12.2021
5048 Rain 28 1004 82 10000 1.77 272 06:42 04.12.2021
5049 Rain 29 1004 78 10000 2.33 291 04:42 04.12.2021
5050 Clouds 30 1007 69 10000 1.55 336 00:35 04.12.2021
5051 Clouds 29 1008 72 10000 0.65 323 23:27 03.12.2021
5052 Clouds 29 1008 72 10000 0.65 323 22:47 03.12.2021
5053 Clouds 26 1008 83 10000 0.68 186 21:26 03.12.2021
5054 Clouds 26 1008 83 10000 0.68 186 20:54 03.12.2021
5055 Clouds 25 1007 86 10000 1.1 176 19:53 03.12.2021
5056 Clouds 25 1006 86 10000 1.28 168 18:44 03.12.2021
5057 Clouds 25 1006 86 10000 1.22 156 17:59 03.12.2021
5058 Clouds 26 1006 86 10000 1.28 164 16:33 03.12.2021
5059 Clouds 26 1008 88 10000 1.86 155 12:59 03.12.2021
5060 Clouds 26 1008 87 10000 1.95 155 12:19 03.12.2021
5061 Clouds 26 1009 87 10000 1.73 153 10:55 03.12.2021
5062 Clouds 28 1007 84 9282 1.03 226 08:27 03.12.2021
5063 Clouds 28 1007 84 9282 1.03 226 07:43 03.12.2021
5064 Clouds 30 1006 75 10000 1.13 276 04:35 03.12.2021
5065 Clouds 29 1009 74 10000 1.07 357 00:48 03.12.2021
5066 Clouds 29 1009 73 10000 1.14 9 23:47 02.12.2021
5067 Clouds 28 1010 77 10000 0.45 97 22:24 02.12.2021
5068 Clouds 28 1010 77 10000 0.45 97 21:35 02.12.2021
5069 Clouds 27 1009 82 10000 0.74 161 20:40 02.12.2021
5070 Clouds 26 1009 84 10000 1.14 161 19:57 02.12.2021
5071 Clouds 26 1008 85 10000 0.82 175 18:34 02.12.2021
5072 Clouds 26 1007 86 10000 0.95 179 15:52 02.12.2021
5073 Clouds 26 1008 87 10000 1.12 167 15:28 02.12.2021
5074 Clouds 26 1008 87 10000 1.12 167 14:48 02.12.2021
5075 Clouds 26 1009 85 10000 1.08 158 12:53 02.12.2021
5076 Clouds 26 1010 85 10000 1.12 160 12:19 02.12.2021
5077 Clouds 27 1009 84 10000 1.22 165 10:38 02.12.2021
5078 Clouds 27 1008 82 10000 0.84 166 09:25 02.12.2021
5079 Clouds 29 1007 78 10000 0.75 278 06:45 02.12.2021
5080 Clouds 31 1009 68 10000 1.18 23 00:55 02.12.2021
5081 Clouds 30 1009 68 10000 0.84 62 23:30 01.12.2021
5082 Clouds 28 1010 79 10000 1.19 118 22:25 01.12.2021
5083 Clouds 28 1010 79 10000 1.19 118 21:36 01.12.2021
5084 Clouds 25 1009 87 10000 1.59 146 19:58 01.12.2021
5085 Clouds 25 1009 87 10000 1.59 146 19:34 01.12.2021
5086 Clouds 26 1008 87 10000 1.39 150 17:50 01.12.2021
5087 Clouds 26 1008 87 10000 1.35 145 16:58 01.12.2021
5088 Clouds 26 1009 87 10000 1.04 150 14:59 01.12.2021
5089 Clouds 26 1010 85 10000 1.16 131 13:49 01.12.2021
5090 Clouds 26 1010 84 10000 0.92 124 12:51 01.12.2021
5091 Clouds 27 1010 83 10000 0.37 169 10:43 01.12.2021
5092 Clouds 27 1010 83 10000 0.38 227 09:32 01.12.2021
5093 Clouds 27 1009 83 10000 0.44 244 08:36 01.12.2021
5094 Clouds 28 1008 82 10000 0.29 273 07:37 01.12.2021
5095 Rain 28 1008 79 10000 0.23 24 07:19 01.12.2021
5096 Clouds 29 1008 79 10000 1.71 14 03:47 01.12.2021
5097 Clouds 30 1009 77 10000 2.21 13 01:59 01.12.2021
5098 Clouds 29 1010 75 10000 1.6 27 23:56 30.11.2021
5099 Clouds 29 1010 75 10000 1.45 43 23:26 30.11.2021
5100 Clouds 28 1010 78 10000 1.07 67 21:40 30.11.2021
5101 Clouds 27 1010 84 10000 0.83 72 20:46 30.11.2021
5102 Clouds 26 1009 87 10000 0.74 60 20:19 30.11.2021
5103 Clouds 26 1009 87 10000 0.74 60 19:38 30.11.2021
5104 Clouds 26 1008 86 10000 0.51 69 18:38 30.11.2021
5105 Clouds 26 1007 85 10000 0.3 95 16:50 30.11.2021
5106 Clouds 26 1007 86 10000 0.35 85 15:44 30.11.2021
5107 Clouds 26 1009 87 10000 0.82 57 14:23 30.11.2021
5108 Clouds 27 1010 86 10000 1.06 57 13:27 30.11.2021
5109 Clouds 27 1010 85 10000 1.03 57 12:46 30.11.2021
5110 Clouds 27 1010 85 10000 1.28 49 11:50 30.11.2021
5111 Clouds 27 1010 84 10000 1.26 40 11:23 30.11.2021
5112 Clouds 27 1010 84 10000 1.26 40 10:33 30.11.2021
5113 Clouds 27 1009 83 10000 1.67 32 08:53 30.11.2021
5114 Clouds 28 1008 79 10000 2.09 28 08:26 30.11.2021
5115 Clouds 28 1008 79 10000 2.09 28 07:47 30.11.2021
5116 Clouds 31 1008 64 10000 2.91 13 02:41 30.11.2021
5117 Clouds 31 1008 63 10000 2.66 16 01:42 30.11.2021
5118 Clouds 30 1010 67 10000 1.85 38 00:24 30.11.2021
5119 Clouds 29 1010 73 10000 1.46 69 23:24 29.11.2021
5120 Clouds 29 1010 73 10000 1.46 69 22:55 29.11.2021
5121 Clouds 29 1010 73 10000 1.46 69 22:33 29.11.2021
5122 Clouds 27 1009 85 10000 1.14 114 21:29 29.11.2021
5123 Clouds 27 1009 85 10000 1.14 114 20:59 29.11.2021
5124 Clouds 27 1009 85 10000 1.14 114 20:32 29.11.2021
5125 Clouds 26 1009 87 10000 1.09 128 19:55 29.11.2021
5126 Clouds 26 1009 87 10000 1.09 128 19:35 29.11.2021
5127 Rain 26 1008 87 10000 1.18 124 18:51 29.11.2021
5128 Rain 26 1007 86 10000 1.21 129 17:49 29.11.2021
5129 Rain 26 1007 86 10000 1.34 132 17:18 29.11.2021
5130 Rain 26 1008 86 10000 1.6 133 16:29 29.11.2021
5131 Clouds 26 1008 86 10000 1.6 133 15:45 29.11.2021
5132 Clouds 26 1008 86 10000 1.64 139 14:42 29.11.2021
5133 Clouds 26 1009 87 10000 1.74 140 13:32 29.11.2021
5134 Clouds 27 1009 85 10000 1.42 126 12:28 29.11.2021
5135 Clouds 27 1009 85 10000 1.42 126 11:35 29.11.2021
5136 Clouds 27 1009 85 10000 1.24 124 10:32 29.11.2021
5137 Clouds 27 1008 84 10000 1.28 96 09:24 29.11.2021
5138 Clouds 29 1006 74 10000 1.84 24 06:19 29.11.2021
5139 Clouds 30 1008 72 10000 2.87 52 01:38 29.11.2021
5140 Clouds 31 1009 67 10000 2.75 51 00:38 29.11.2021
5141 Clouds 30 1009 67 10000 2.37 61 23:43 28.11.2021
5142 Clouds 29 1010 72 10000 1.82 78 22:42 28.11.2021
5143 Clouds 28 1009 77 10000 1.32 93 21:41 28.11.2021
5144 Clouds 27 1009 82 10000 1.02 117 20:58 28.11.2021
5145 Clouds 26 1008 85 10000 0.81 135 19:55 28.11.2021
5146 Rain 26 1008 85 10000 0.67 134 18:45 28.11.2021
5147 Rain 26 1007 85 10000 0.58 140 18:26 28.11.2021
5148 Rain 26 1007 85 10000 0.58 140 17:49 28.11.2021
5149 Rain 26 1007 84 10000 0.24 123 17:27 28.11.2021
5150 Rain 26 1008 84 10000 0.09 332 16:28 28.11.2021
5151 Rain 26 1008 84 10000 0.09 332 16:28 28.11.2021
5152 Rain 26 1008 84 10000 0.09 332 15:52 28.11.2021
5153 Rain 26 1008 85 10000 0.26 223 14:56 28.11.2021
5154 Clouds 26 1008 85 10000 0.26 223 14:30 28.11.2021
5155 Rain 26 1010 85 10000 0.34 27 12:55 28.11.2021
5156 Rain 26 1010 86 10000 0.61 31 11:56 28.11.2021
5157 Clouds 27 1010 87 10000 0.99 25 10:37 28.11.2021
5158 Clouds 27 1009 88 10000 1.28 20 10:18 28.11.2021
5159 Clouds 27 1009 88 10000 1.28 20 09:36 28.11.2021
5160 Clouds 27 1009 88 10000 1.28 20 09:36 28.11.2021
5161 Clouds 30 1007 70 10000 2.58 9 05:23 28.11.2021
5162 Clouds 29 1010 76 10000 2.03 80 23:23 27.11.2021
5163 Clouds 26 1010 85 10000 1.44 111 20:33 27.11.2021
5164 Clouds 25 1008 86 10000 1.71 119 18:47 27.11.2021
5165 Clouds 26 1007 85 10000 1.17 148 16:31 27.11.2021
5166 Clouds 26 1008 84 10000 1.21 153 15:32 27.11.2021
5167 Clouds 26 1009 85 10000 1.57 169 13:41 27.11.2021
5168 Clouds 26 1010 88 10000 1.95 186 12:27 27.11.2021
5169 Clouds 26 1010 88 10000 2.16 195 10:30 27.11.2021
5170 Clouds 27 1008 84 9171 0.6 282 09:25 27.11.2021
5171 Clouds 28 1008 82 8578 1.08 305 07:43 27.11.2021
5172 Clouds 29 1007 77 10000 1.44 1 04:53 27.11.2021
5173 Clouds 30 1010 68 10000 1.67 42 00:26 27.11.2021
5174 Clouds 29 1010 72 10000 1.71 73 22:51 26.11.2021
5175 Clouds 28 1010 77 10000 1.73 99 22:24 26.11.2021
5176 Clouds 28 1010 77 10000 1.73 99 21:33 26.11.2021
5177 Clouds 27 1010 81 10000 1.81 107 20:42 26.11.2021
5178 Clouds 26 1009 84 10000 1.93 114 19:56 26.11.2021
5179 Rain 26 1008 84 10000 1.84 119 19:18 26.11.2021
5180 Clouds 25 1007 84 10000 1.1 146 17:46 26.11.2021
5181 Clouds 25 1007 85 10000 1.15 156 17:21 26.11.2021
5182 Clouds 26 1008 86 10000 1.33 152 15:23 26.11.2021
5183 Clouds 26 1008 86 10000 1.1 134 13:35 26.11.2021
5184 Clouds 26 1008 86 10000 1.1 134 13:35 26.11.2021
5185 Clouds 26 1009 85 10000 1.33 115 10:46 26.11.2021
5186 Clouds 27 1009 84 10000 1.29 104 09:55 26.11.2021
5187 Clouds 27 1008 83 10000 1.15 80 08:56 26.11.2021
5188 Clouds 28 1007 81 10000 1.57 49 08:21 26.11.2021
5189 Clouds 29 1007 76 10000 1.92 42 06:48 26.11.2021
5190 Clouds 28 1006 79 10000 1.59 72 06:24 26.11.2021
5191 Clouds 28 1007 78 10000 1.32 66 03:47 26.11.2021
5192 Clouds 28 1009 74 10000 1.16 77 01:27 26.11.2021
5193 Clouds 28 1010 74 10000 0.76 110 22:43 25.11.2021
5194 Clouds 26 1009 82 10000 1.78 141 21:21 25.11.2021
5195 Clouds 26 1008 84 10000 2.1 145 19:55 25.11.2021
5196 Clouds 26 1008 83 10000 2.16 144 18:45 25.11.2021
5197 Rain 26 1007 84 10000 1.8 132 17:29 25.11.2021
5198 Clouds 26 1007 84 10000 1.8 132 16:58 25.11.2021
5199 Clouds 26 1007 84 10000 2.06 130 16:29 25.11.2021
5200 Rain 26 1008 84 10000 2.17 133 14:56 25.11.2021
5201 Rain 26 1009 85 10000 2.34 126 13:25 25.11.2021
5202 Rain 26 1009 85 10000 2.29 118 12:19 25.11.2021
5203 Rain 26 1009 85 10000 2.29 118 11:40 25.11.2021
5204 Clouds 27 1008 83 10000 1.64 86 08:42 25.11.2021
5205 Clouds 30 1007 73 10000 2.72 53 03:42 25.11.2021
5206 Clouds 30 1008 71 10000 3.35 55 02:44 25.11.2021
5207 Clouds 29 1010 70 10000 3.04 96 22:43 24.11.2021
5208 Clouds 28 1010 77 10000 2.93 100 22:21 24.11.2021
5209 Clouds 26 1010 84 10000 2.97 119 21:27 24.11.2021
5210 Clouds 25 1009 87 10000 3.33 123 20:29 24.11.2021
5211 Clouds 25 1009 87 10000 3.33 123 19:46 24.11.2021
5212 Clouds 25 1008 87 10000 2.96 119 18:30 24.11.2021
5213 Clouds 25 1008 87 10000 2.73 120 16:53 24.11.2021
5214 Clouds 26 1009 87 10000 2.33 127 15:22 24.11.2021
5215 Clouds 26 1009 87 10000 2.33 127 14:31 24.11.2021
5216 Clouds 26 1010 86 10000 2.52 122 13:51 24.11.2021
5217 Clouds 26 1010 86 10000 3.25 114 11:49 24.11.2021
5218 Clouds 27 1010 86 10000 3.27 116 11:19 24.11.2021
5219 Rain 27 1010 86 10000 3.27 116 10:38 24.11.2021
5220 Clouds 27 1010 85 10000 2.89 112 09:40 24.11.2021
5221 Clouds 28 1008 82 10000 2.53 98 07:42 24.11.2021
5222 Clouds 29 1008 76 10000 2.95 78 06:20 24.11.2021
5223 Clouds 30 1008 73 10000 2.65 70 03:44 24.11.2021
5224 Clouds 31 1012 64 10000 2.69 84 23:36 23.11.2021
5225 Clouds 29 1012 71 10000 2.65 95 22:39 23.11.2021
5226 Clouds 28 1012 77 10000 2.34 104 21:46 23.11.2021
5227 Clouds 27 1011 83 10000 2.25 119 20:36 23.11.2021
5228 Rain 26 1010 86 10000 2.38 120 19:36 23.11.2021
5229 Rain 26 1010 85 10000 2.65 124 18:35 23.11.2021
5230 Rain 26 1009 86 10000 2.8 119 17:57 23.11.2021
5231 Clouds 25 1009 87 10000 2.81 125 16:37 23.11.2021
5232 Clouds 26 1010 86 10000 3.06 118 15:27 23.11.2021
5233 Clouds 26 1010 86 10000 3.06 118 14:56 23.11.2021
5234 Clouds 26 1011 85 10000 2.93 116 13:33 23.11.2021
5235 Clouds 26 1011 84 10000 3.11 113 10:40 23.11.2021
5236 Clouds 27 1011 84 10000 3.32 112 09:48 23.11.2021
5237 Clouds 27 1010 85 10000 3.51 105 08:43 23.11.2021
5238 Clouds 30 1009 68 10000 4.18 76 05:25 23.11.2021
5239 Clouds 31 1009 65 10000 4.41 68 03:37 23.11.2021
5240 Rain 30 1012 70 10000 4.65 88 23:42 22.11.2021
5241 Clouds 30 1012 70 10000 3.82 95 23:20 22.11.2021
5242 Clouds 30 1012 70 10000 3.82 95 22:30 22.11.2021
5243 Clouds 29 1012 74 10000 3.05 107 21:45 22.11.2021
5244 Clouds 27 1011 83 10000 2.77 117 21:21 22.11.2021
5245 Clouds 27 1011 83 10000 2.77 117 20:42 22.11.2021
5246 Clouds 26 1010 85 10000 2.88 124 19:21 22.11.2021
5247 Clouds 26 1010 85 10000 2.88 124 18:41 22.11.2021
5248 Clear 25 1010 83 10000 2.86 122 18:21 22.11.2021
5249 Clear 26 1010 81 10000 2.83 123 16:41 22.11.2021
5250 Clear 26 1010 80 10000 3.03 125 15:29 22.11.2021
5251 Clear 26 1012 80 10000 2.49 136 12:51 22.11.2021
5252 Clear 26 1012 79 10000 2.23 140 11:34 22.11.2021
5253 Clear 27 1011 79 10000 1.66 133 10:22 22.11.2021
5254 Clear 27 1011 78 10000 1.34 104 08:43 22.11.2021
5255 Clouds 28 1010 75 10000 1.12 52 08:23 22.11.2021
5256 Clouds 31 1010 58 10000 2.02 18 01:36 22.11.2021
5257 Clear 29 1012 66 10000 1.69 54 23:20 21.11.2021
5258 Clear 29 1012 66 10000 1.69 54 22:42 21.11.2021
5259 Clouds 26 1011 80 10000 1.14 121 20:44 21.11.2021
5260 Clouds 25 1011 83 10000 1.18 131 20:26 21.11.2021
5261 Clouds 25 1010 84 10000 1.25 132 18:53 21.11.2021
5262 Clouds 25 1010 84 10000 1.06 118 17:52 21.11.2021
5263 Clouds 25 1010 82 10000 0.82 107 17:29 21.11.2021
5264 Clouds 26 1010 81 10000 0.93 86 14:49 21.11.2021
5265 Clouds 26 1011 80 10000 0.92 74 14:18 21.11.2021
5266 Clear 26 1012 79 10000 0.91 62 12:55 21.11.2021
5267 Clear 26 1012 79 10000 0.9 74 12:19 21.11.2021
5268 Clear 26 1012 79 10000 0.9 74 11:36 21.11.2021
5269 Clear 27 1010 79 10000 0.8 87 10:19 21.11.2021
5270 Clear 27 1011 82 10000 0.98 53 09:44 21.11.2021
5271 Clear 27 1010 80 10000 1.15 41 08:31 21.11.2021
5272 Clear 28 1009 77 10000 1.75 21 07:51 21.11.2021
5273 Clear 30 1007 66 10000 2.49 1 06:26 21.11.2021
5274 Clear 30 1007 66 10000 2.49 1 05:39 21.11.2021
5275 Clear 30 1009 64 10000 2.83 354 03:21 21.11.2021
5276 Clear 30 1009 64 10000 2.83 354 02:54 21.11.2021
5277 Clouds 30 1010 64 10000 2.06 360 01:25 21.11.2021
5278 Clouds 30 1010 64 10000 2.06 360 00:41 21.11.2021
5279 Clouds 27 1011 77 10000 0.44 79 21:55 20.11.2021
5280 Clouds 27 1011 77 10000 0.44 79 21:30 20.11.2021
5281 Clouds 25 1010 85 10000 0.72 153 19:46 20.11.2021
5282 Clouds 25 1009 85 10000 0.91 172 18:45 20.11.2021
5283 Clouds 25 1009 84 10000 0.87 158 18:19 20.11.2021
5284 Clouds 25 1008 84 10000 0.94 183 17:21 20.11.2021
5285 Clouds 25 1009 85 10000 1.22 186 14:51 20.11.2021
5286 Clouds 25 1010 85 10000 1.21 184 14:28 20.11.2021
5287 Clouds 25 1010 85 10000 1.21 184 13:35 20.11.2021
5288 Clouds 26 1011 83 10000 0.94 208 11:25 20.11.2021
5289 Clouds 26 1010 83 10000 1.06 224 09:55 20.11.2021
5290 Rain 26 1009 82 10000 1.11 232 08:32 20.11.2021
5291 Clouds 29 1007 73 10000 0.91 293 05:30 20.11.2021
5292 Clouds 29 1006 71 10000 1.67 289 04:51 20.11.2021
5293 Clouds 30 1007 68 10000 2.21 298 03:54 20.11.2021
5294 Clouds 30 1009 69 10000 2 316 00:42 20.11.2021
5295 Clouds 30 1010 67 10000 1.67 324 23:45 19.11.2021
5296 Clouds 29 1010 70 10000 1 300 22:53 19.11.2021
5297 Clouds 27 1009 81 10000 0.63 277 21:23 19.11.2021
5298 Clouds 27 1009 81 10000 0.63 277 20:39 19.11.2021
5299 Clouds 26 1008 83 10000 1.14 232 20:20 19.11.2021
5300 Clouds 26 1008 83 10000 1.14 232 19:43 19.11.2021
5301 Clouds 25 1008 84 10000 1.36 243 18:44 19.11.2021
5302 Clouds 25 1008 85 10000 1.24 226 17:44 19.11.2021
5303 Clouds 25 1007 85 10000 1.48 208 16:40 19.11.2021
5304 Clouds 26 1008 83 10000 1.03 189 14:51 19.11.2021
5305 Rain 26 1010 85 10000 1.36 192 10:57 19.11.2021
5306 Rain 26 1010 84 10000 1.51 204 10:23 19.11.2021
5307 Clouds 26 1009 84 10000 1.48 217 08:32 19.11.2021
5308 Rain 30 1006 70 10000 1.5 314 04:58 19.11.2021
5309 Clouds 29 1008 72 10000 1.36 329 03:19 19.11.2021
5310 Clouds 28 1010 81 10000 1.48 349 23:53 18.11.2021
5311 Clouds 27 1010 82 10000 1.22 352 22:43 18.11.2021
5312 Clouds 26 1009 86 9838 0.38 34 20:56 18.11.2021
5313 Clouds 26 1009 86 9838 0.38 34 20:37 18.11.2021
5314 Clouds 26 1008 86 10000 0.51 70 20:18 18.11.2021
5315 Clouds 26 1008 86 10000 0.51 70 19:36 18.11.2021
5316 Clouds 26 1008 86 10000 0.75 62 18:35 18.11.2021
5317 Clouds 26 1007 87 9859 0.93 60 17:52 18.11.2021
5318 Clouds 26 1007 87 10000 0.95 66 16:46 18.11.2021
5319 Clouds 26 1007 87 10000 1 68 15:52 18.11.2021
5320 Clouds 26 1009 87 10000 1.21 85 14:19 18.11.2021
5321 Clouds 26 1009 87 10000 1.02 85 12:53 18.11.2021
5322 Clouds 26 1010 86 10000 1.21 80 11:44 18.11.2021
5323 Clouds 27 1010 85 10000 0.97 111 11:25 18.11.2021
5324 Clouds 27 1009 85 10000 1.12 137 10:21 18.11.2021
5325 Clouds 28 1007 82 10000 0.4 172 07:42 18.11.2021
5326 Rain 29 1007 75 10000 0.56 307 06:20 18.11.2021
5327 Clouds 29 1007 75 10000 0.56 307 05:41 18.11.2021
5328 Clouds 31 1009 66 10000 1.49 23 01:25 18.11.2021
5329 Clouds 29 1010 73 10000 1.53 94 23:27 17.11.2021
5330 Clouds 29 1010 73 10000 1.53 94 22:39 17.11.2021
5331 Clouds 27 1010 80 10000 1.48 114 22:18 17.11.2021
5332 Clouds 27 1010 80 10000 1.48 114 21:35 17.11.2021
5333 Rain 25 1009 83 10000 1.54 127 19:31 17.11.2021
5334 Clouds 25 1008 85 10000 1.46 149 17:35 17.11.2021
5335 Clouds 25 1008 86 10000 1.42 142 15:54 17.11.2021
5336 Clouds 26 1011 87 10000 2.06 114 12:56 17.11.2021
5337 Clouds 26 1011 87 10000 2.06 114 12:36 17.11.2021
5338 Clouds 27 1011 83 10000 1.47 105 10:52 17.11.2021
5339 Rain 27 1010 82 10000 1.11 129 09:37 17.11.2021
5340 Rain 27 1009 81 10000 1.09 121 07:46 17.11.2021
5341 Rain 27 1008 80 10000 0.93 82 06:53 17.11.2021
5342 Clouds 30 1009 73 10000 1.21 39 02:47 17.11.2021
5343 Clouds 30 1011 63 10000 1.24 62 23:46 16.11.2021
5344 Clouds 28 1011 73 10000 1.52 116 22:20 16.11.2021
5345 Clouds 25 1010 83 10000 1.96 133 20:19 16.11.2021
5346 Clouds 25 1010 83 10000 1.96 133 20:18 16.11.2021
5347 Clouds 25 1009 83 10000 2.11 133 18:53 16.11.2021
5348 Clouds 25 1009 83 10000 2.11 133 18:34 16.11.2021
5349 Clouds 25 1009 84 10000 2.15 141 17:38 16.11.2021
5350 Clouds 25 1009 84 10000 2.12 143 16:37 16.11.2021
5351 Clouds 25 1009 85 10000 2.22 145 15:50 16.11.2021
5352 Clouds 25 1009 85 10000 2.25 136 15:26 16.11.2021
5353 Clouds 26 1011 84 10000 1.93 113 11:29 16.11.2021
5354 Clouds 26 1011 83 10000 2.01 102 09:46 16.11.2021
5355 Clouds 27 1009 80 10000 1.65 67 08:27 16.11.2021
5356 Clouds 27 1009 80 10000 1.65 67 07:32 16.11.2021
5357 Clouds 31 1009 65 10000 3.39 60 01:44 16.11.2021
5358 Clouds 29 1011 71 10000 3.02 91 23:20 15.11.2021
5359 Clouds 29 1011 71 10000 3.02 91 22:30 15.11.2021
5360 Clouds 28 1011 77 10000 2.78 108 21:53 15.11.2021
5361 Clouds 26 1010 80 10000 2.52 113 21:28 15.11.2021
5362 Clouds 26 1010 80 10000 2.45 118 19:41 15.11.2021
5363 Clouds 26 1009 80 10000 2.15 127 18:33 15.11.2021
5364 Clouds 25 1008 82 10000 1.7 140 16:20 15.11.2021
5365 Clouds 25 1008 82 10000 1.7 140 15:41 15.11.2021
5366 Clouds 26 1009 82 10000 1.97 129 15:23 15.11.2021
5367 Clouds 26 1011 84 10000 2.7 120 13:29 15.11.2021
5368 Clouds 26 1011 86 10000 3.17 115 10:57 15.11.2021
5369 Rain 27 1010 85 10000 3.23 102 09:27 15.11.2021
5370 Clouds 28 1009 81 10000 2.67 87 07:52 15.11.2021
5371 Clouds 30 1007 71 10000 1.83 46 05:19 15.11.2021
5372 Clouds 30 1010 67 10000 2.32 62 23:37 14.11.2021
5373 Clouds 29 1011 72 10000 2.11 84 22:35 14.11.2021
5374 Clouds 25 1010 85 10000 1.86 120 19:53 14.11.2021
5375 Clouds 25 1009 85 10000 1.63 124 19:18 14.11.2021
5376 Clouds 26 1009 85 10000 1.88 125 18:54 14.11.2021
5377 Clouds 26 1009 85 10000 1.88 125 18:36 14.11.2021
5378 Clouds 26 1008 86 10000 2.13 130 18:18 14.11.2021
5379 Clouds 26 1008 86 10000 2.13 130 17:55 14.11.2021
5380 Clouds 26 1008 86 10000 2.13 130 17:37 14.11.2021
5381 Clouds 26 1008 86 10000 2.18 129 17:19 14.11.2021
5382 Clouds 26 1008 87 10000 1.99 127 16:45 14.11.2021
5383 Clouds 26 1009 87 10000 2.02 118 16:19 14.11.2021
5384 Clouds 26 1009 87 10000 2.07 120 15:22 14.11.2021
5385 Clouds 26 1009 87 10000 2.07 120 14:45 14.11.2021
5386 Clouds 26 1010 87 10000 2.13 117 14:26 14.11.2021
5387 Clouds 26 1010 87 10000 2.13 117 13:53 14.11.2021
5388 Clouds 26 1010 87 10000 2.13 117 13:35 14.11.2021
5389 Clouds 27 1011 87 10000 2.53 123 12:27 14.11.2021
5390 Clouds 27 1011 87 10000 2.53 123 11:40 14.11.2021
5391 Clouds 27 1011 86 10000 2.37 128 10:40 14.11.2021
5392 Rain 27 1010 85 10000 1.92 115 09:42 14.11.2021
5393 Clouds 27 1010 84 10000 1.83 92 08:52 14.11.2021
5394 Clouds 29 1008 78 10000 0.96 65 06:54 14.11.2021
5395 Clouds 29 1011 75 10000 1.96 78 23:28 13.11.2021
5396 Clouds 28 1011 80 10000 1.58 95 22:21 13.11.2021
5397 Clouds 28 1011 80 10000 1.58 95 21:49 13.11.2021
5398 Clouds 27 1011 85 10000 1.45 116 20:59 13.11.2021
5399 Clouds 26 1010 88 10000 1.65 121 19:33 13.11.2021
5400 Clouds 26 1009 88 10000 1.54 121 18:32 13.11.2021
5401 Clouds 26 1008 89 10000 1.74 118 17:41 13.11.2021
5402 Clouds 26 1008 88 10000 1.84 120 16:30 13.11.2021
5403 Clouds 26 1009 88 10000 2.05 124 14:55 13.11.2021
5404 Clouds 26 1010 88 10000 1.86 134 14:18 13.11.2021
5405 Clouds 27 1011 87 10000 1.6 135 12:45 13.11.2021
5406 Clouds 27 1011 86 10000 1.28 136 11:57 13.11.2021
5407 Clouds 27 1011 86 10000 1.21 126 11:24 13.11.2021
5408 Clouds 27 1011 86 10000 1.21 126 10:39 13.11.2021
5409 Clouds 27 1010 86 10000 1.1 122 09:49 13.11.2021
5410 Clouds 27 1010 86 10000 1.1 122 09:31 13.11.2021
5411 Clouds 27 1009 85 10000 1.1 115 08:49 13.11.2021
5412 Clouds 28 1009 83 10000 0.93 105 07:54 13.11.2021
5413 Clouds 30 1008 77 10000 1.52 69 04:43 13.11.2021
5414 Clouds 30 1008 75 10000 1.64 60 04:20 13.11.2021
5415 Clouds 31 1011 66 10000 1.34 46 00:18 13.11.2021
5416 Clouds 30 1011 70 10000 1.14 80 22:34 12.11.2021
5417 Clouds 30 1011 70 10000 1.14 80 22:34 12.11.2021
5418 Clouds 27 1011 83 10000 1.78 139 20:49 12.11.2021
5419 Clouds 25 1010 86 10000 1.83 159 19:33 12.11.2021
5420 Clouds 25 1009 87 10000 1.69 156 18:59 12.11.2021
5421 Clouds 26 1009 88 10000 1.37 138 18:20 12.11.2021
5422 Clouds 26 1009 87 10000 1.2 128 15:55 12.11.2021
5423 Clouds 26 1010 85 10000 0.99 126 13:46 12.11.2021
5424 Clouds 27 1011 86 10000 1.72 115 11:26 12.11.2021
5425 Clouds 27 1011 86 10000 1.72 115 10:40 12.11.2021
5426 Clouds 27 1010 84 10000 1.15 79 08:56 12.11.2021
5427 Clouds 28 1009 83 10000 1.38 58 07:49 12.11.2021
5428 Clouds 31 1010 67 10000 3.39 58 00:37 12.11.2021
5429 Clouds 31 1011 64 10000 3.2 71 23:30 11.11.2021
5430 Clouds 29 1011 73 10000 2.9 97 22:21 11.11.2021
5431 Clouds 27 1010 81 10000 2.53 114 21:26 11.11.2021
5432 Clouds 26 1010 86 10000 2.46 124 19:56 11.11.2021
5433 Clouds 26 1009 87 10000 2.45 115 18:40 11.11.2021
5434 Clouds 26 1008 88 10000 2.49 114 17:42 11.11.2021
5435 Clouds 26 1008 87 10000 2.41 118 15:51 11.11.2021
5436 Clouds 26 1009 87 10000 2.53 116 14:42 11.11.2021
5437 Clouds 27 1010 88 10000 2.56 114 14:22 11.11.2021
5438 Clouds 27 1010 88 10000 2.56 114 13:35 11.11.2021
5439 Clouds 27 1010 86 10000 2.25 115 12:27 11.11.2021
5440 Clouds 27 1010 86 10000 2.58 117 09:59 11.11.2021
5441 Clouds 28 1009 83 10000 2.98 101 09:23 11.11.2021
5442 Clouds 29 1008 78 10000 3.05 89 07:33 11.11.2021
5443 Clouds 32 1010 63 10000 4.27 72 00:40 11.11.2021
5444 Clouds 30 1011 68 10000 4.31 92 22:46 10.11.2021
5445 Clouds 29 1010 74 10000 3.97 95 21:53 10.11.2021
5446 Clouds 27 1010 80 10000 3.31 105 20:55 10.11.2021
5447 Clouds 26 1009 84 10000 3.08 123 20:18 10.11.2021
5448 Clouds 26 1009 84 10000 3.08 123 19:39 10.11.2021
5449 Clear 26 1008 86 10000 3.44 119 17:22 10.11.2021
5450 Clear 26 1008 86 10000 3.61 117 15:46 10.11.2021
5451 Clear 26 1010 85 10000 3.42 121 14:24 10.11.2021
5452 Clear 26 1010 85 10000 3.42 121 13:36 10.11.2021
5453 Clear 27 1011 85 10000 3.74 111 12:23 10.11.2021
5454 Clear 28 1009 84 10000 3.49 105 09:21 10.11.2021
5455 Clear 28 1009 84 10000 3.49 105 08:41 10.11.2021
5456 Clear 31 1007 69 10000 3.83 86 06:45 10.11.2021
5457 Clear 32 1007 63 10000 4.08 79 05:58 10.11.2021
5458 Clear 32 1010 59 10000 4.41 71 01:56 10.11.2021
5459 Clear 29 1012 73 10000 2.79 109 22:29 09.11.2021
5460 Clear 27 1011 81 10000 2.85 125 20:43 09.11.2021
5461 Clear 25 1011 86 10000 2.84 136 19:33 09.11.2021
5462 Clear 25 1010 86 10000 2.79 131 18:49 09.11.2021
5463 Clear 26 1009 86 10000 2.49 127 16:53 09.11.2021
5464 Clear 26 1010 86 10000 2.61 128 15:20 09.11.2021
5465 Clear 26 1011 86 10000 2.79 125 13:31 09.11.2021
5466 Clouds 26 1011 86 10000 2.89 118 12:47 09.11.2021
5467 Clouds 27 1011 85 10000 3.28 109 10:58 09.11.2021
5468 Clouds 27 1011 83 10000 3.09 108 09:59 09.11.2021
5469 Clouds 28 1010 82 10000 1.86 97 08:54 09.11.2021
5470 Clouds 30 1008 72 10000 1.19 37 07:28 09.11.2021
5471 Clouds 32 1009 54 10000 3.43 64 02:35 09.11.2021
5472 Clouds 32 1010 54 10000 3.95 68 01:51 09.11.2021
5473 Clear 32 1011 56 10000 4.13 73 00:39 09.11.2021
5474 Clear 31 1012 61 10000 4.04 84 23:30 08.11.2021
5475 Clear 30 1012 69 10000 3.9 91 22:37 08.11.2021
5476 Clear 28 1012 75 10000 3.33 93 21:31 08.11.2021
5477 Clear 27 1012 81 10000 2.64 117 20:33 08.11.2021
5478 Clouds 25 1011 85 10000 2.56 130 19:20 08.11.2021
5479 Clear 25 1010 86 10000 2.25 136 17:39 08.11.2021
5480 Clear 25 1010 86 10000 2.25 136 17:39 08.11.2021
5481 Clear 25 1010 85 10000 1.94 134 15:48 08.11.2021
5482 Clear 26 1011 84 10000 1.92 128 14:55 08.11.2021
5483 Clear 26 1012 84 10000 2.2 123 14:24 08.11.2021
5484 Clear 26 1012 84 10000 2.45 131 12:59 08.11.2021
5485 Clear 26 1012 84 10000 2 146 11:54 08.11.2021
5486 Clear 27 1012 84 10000 2.03 152 10:41 08.11.2021
5487 Clear 27 1011 81 10000 0.86 107 08:56 08.11.2021
5488 Clear 28 1010 78 10000 1.07 47 07:56 08.11.2021
5489 Clouds 29 1010 74 10000 0.59 357 06:55 08.11.2021
5490 Clouds 30 1009 69 10000 2.25 29 03:35 08.11.2021
5491 Clouds 30 1012 65 10000 3.4 74 00:18 08.11.2021
5492 Clouds 30 1013 67 10000 3.08 89 22:48 07.11.2021
5493 Clouds 26 1012 73 10000 2.28 130 21:24 07.11.2021
5494 Clouds 25 1012 76 10000 2.32 134 19:56 07.11.2021
5495 Clouds 25 1010 80 10000 2.42 129 18:28 07.11.2021
5496 Clouds 25 1010 80 10000 2.42 129 17:38 07.11.2021
5497 Clear 25 1009 81 10000 2.55 129 16:20 07.11.2021
5498 Clear 25 1010 80 10000 2.63 122 14:42 07.11.2021
5499 Clouds 26 1011 79 10000 2.96 120 13:57 07.11.2021
5500 Clouds 26 1012 80 10000 2.83 141 11:58 07.11.2021
5501 Clouds 26 1011 80 10000 2.73 137 11:18 07.11.2021
5502 Clouds 27 1010 77 10000 1.94 100 08:58 07.11.2021
5503 Clear 31 1009 60 10000 3.35 50 02:49 07.11.2021
5504 Clear 30 1011 68 10000 2.76 79 00:18 07.11.2021
5505 Clear 29 1011 71 10000 2.66 99 22:54 06.11.2021
5506 Clear 28 1011 77 10000 2.28 114 21:43 06.11.2021
5507 Clear 26 1010 84 10000 2.08 129 20:52 06.11.2021
5508 Clouds 25 1010 87 10000 2.22 130 19:39 06.11.2021
5509 Clouds 25 1008 88 10000 2.2 123 17:25 06.11.2021
5510 Clouds 25 1008 87 10000 2.32 119 15:46 06.11.2021
5511 Clouds 26 1010 87 10000 2.63 116 13:39 06.11.2021
5512 Clouds 26 1010 87 10000 2.63 116 13:39 06.11.2021
5513 Clear 26 1011 87 10000 2.91 123 12:38 06.11.2021
5514 Clouds 27 1010 85 10000 2.07 97 09:49 06.11.2021
5515 Clouds 27 1009 82 10000 0.96 62 08:24 06.11.2021
5516 Clouds 30 1008 66 10000 2.32 32 03:20 06.11.2021
5517 Clouds 30 1011 67 10000 1.49 34 23:40 05.11.2021
5518 Clouds 29 1011 69 10000 1.21 32 22:52 05.11.2021
5519 Clouds 28 1011 72 10000 0.72 50 21:55 05.11.2021
5520 Clouds 26 1010 84 10000 0.31 142 20:20 05.11.2021
5521 Clouds 25 1010 82 10000 0.75 188 19:49 05.11.2021
5522 Clouds 26 1010 84 10000 0.3 122 18:41 05.11.2021
5523 Clouds 26 1009 83 10000 0.24 47 17:34 05.11.2021
5524 Clouds 26 1009 81 10000 0.28 165 15:48 05.11.2021
5525 Clouds 26 1011 81 10000 0.41 190 13:58 05.11.2021
5526 Clouds 26 1012 81 10000 0.35 137 11:42 05.11.2021
5527 Rain 26 1010 81 10000 0.94 60 08:41 05.11.2021
5528 Clouds 28 1010 77 10000 1.4 31 07:39 05.11.2021
5529 Rain 29 1008 66 10000 2.44 16 05:33 05.11.2021
5530 Clouds 30 1010 63 10000 2.23 25 02:26 05.11.2021
5531 Clouds 30 1011 63 10000 1.99 32 00:53 05.11.2021
5532 Clouds 29 1012 73 10000 1.47 55 23:25 04.11.2021
5533 Clouds 27 1012 80 10000 1.23 89 22:20 04.11.2021
5534 Clouds 27 1012 80 10000 1.23 89 21:43 04.11.2021
5535 Clouds 26 1011 85 10000 1.11 103 20:53 04.11.2021
5536 Clouds 25 1011 87 10000 1.1 89 20:22 04.11.2021
5537 Clouds 25 1011 87 10000 1.1 89 19:47 04.11.2021
5538 Clouds 25 1010 87 10000 0.56 47 18:52 04.11.2021
5539 Clouds 25 1009 87 10000 0.51 35 18:20 04.11.2021
5540 Clouds 25 1009 87 10000 0.32 39 16:53 04.11.2021
5541 Clouds 25 1010 86 10000 0.74 106 15:18 04.11.2021
5542 Clouds 26 1012 86 10000 1.02 123 12:53 04.11.2021
5543 Clouds 26 1011 85 10000 0.81 95 09:42 04.11.2021
5544 Clouds 26 1011 84 10000 0.66 41 08:31 04.11.2021
5545 Clouds 27 1010 82 10000 0.96 43 07:35 04.11.2021
5546 Clouds 29 1009 74 10000 1.32 47 04:47 04.11.2021
5547 Clouds 29 1012 70 10000 1.71 72 22:53 03.11.2021
5548 Clouds 27 1012 79 10000 1.67 112 21:49 03.11.2021
5549 Clouds 27 1012 79 10000 1.67 112 21:30 03.11.2021
5550 Clouds 26 1011 87 10000 1.74 109 20:37 03.11.2021
5551 Clouds 25 1011 90 10000 1.72 116 19:58 03.11.2021
5552 Clouds 25 1010 90 10000 1.65 116 18:57 03.11.2021
5553 Clouds 25 1009 90 10000 1.73 112 18:25 03.11.2021
5554 Clouds 25 1009 90 10000 1.73 112 17:36 03.11.2021
5555 Clouds 25 1010 89 10000 0.66 95 16:26 03.11.2021
5556 Clouds 25 1010 89 10000 0.66 95 15:44 03.11.2021
5557 Clouds 26 1011 87 10000 0.22 148 13:57 03.11.2021
5558 Rain 25 1011 89 10000 1.33 167 11:59 03.11.2021
5559 Clouds 25 1011 90 10000 2.15 152 11:25 03.11.2021
5560 Clouds 25 1011 90 10000 2.15 152 10:46 03.11.2021
5561 Rain 25 1011 92 10000 2.67 133 09:30 03.11.2021
5562 Clouds 26 1011 92 10000 2.88 99 08:22 03.11.2021
5563 Clouds 26 1011 92 10000 2.88 99 07:39 03.11.2021
5564 Rain 28 1009 85 10000 3.4 93 04:45 03.11.2021
5565 Rain 28 1010 81 10000 2.6 108 02:28 03.11.2021
5566 Clouds 27 1012 84 10000 2.33 118 23:47 02.11.2021
5567 Clouds 28 1012 83 6051 1.92 111 22:35 02.11.2021
5568 Clouds 26 1011 88 10000 1.97 136 21:25 02.11.2021
5569 Clouds 26 1011 88 10000 1.97 136 20:32 02.11.2021
5570 Clouds 25 1011 88 10000 1.69 142 19:47 02.11.2021
5571 Rain 25 1010 89 10000 2.31 126 18:59 02.11.2021
5572 Rain 25 1009 89 10000 1.99 135 17:59 02.11.2021
5573 Rain 25 1009 89 10000 1.99 135 17:32 02.11.2021
5574 Rain 25 1010 89 10000 1.69 154 16:29 02.11.2021
5575 Clouds 25 1010 89 10000 1.69 154 15:30 02.11.2021
5576 Clouds 26 1011 89 10000 2.01 148 14:22 02.11.2021
5577 Clouds 26 1012 88 10000 1.97 154 13:27 02.11.2021
5578 Clouds 26 1012 88 10000 1.67 160 12:33 02.11.2021
5579 Clouds 26 1012 88 10000 1.91 160 11:32 02.11.2021
5580 Clouds 26 1012 88 10000 1.99 152 10:51 02.11.2021
5581 Clouds 27 1012 86 10000 1.46 165 10:25 02.11.2021
5582 Clouds 27 1011 85 10000 0.85 169 08:43 02.11.2021
5583 Clouds 28 1010 81 10000 0.13 55 06:43 02.11.2021
5584 Clouds 29 1010 78 9323 0.28 225 03:34 02.11.2021
5585 Clouds 30 1012 70 10000 1.08 2 01:24 02.11.2021
5586 Clouds 29 1013 69 10000 0.74 75 22:39 01.11.2021
5587 Clouds 27 1012 83 10000 1.55 129 20:52 01.11.2021
5588 Clouds 27 1012 83 10000 1.55 129 20:32 01.11.2021
5589 Clouds 25 1012 86 10000 1.69 140 19:44 01.11.2021
5590 Clouds 26 1011 86 10000 1.65 155 18:57 01.11.2021
5591 Clouds 26 1010 86 10000 1.75 157 18:19 01.11.2021
5592 Clouds 26 1010 86 10000 1.73 164 17:18 01.11.2021
5593 Clouds 26 1010 86 10000 1.73 164 16:34 01.11.2021
5594 Clouds 26 1010 86 10000 1.58 158 15:44 01.11.2021
5595 Clouds 26 1011 86 10000 1.48 159 15:19 01.11.2021
5596 Clouds 26 1011 86 10000 1.48 159 14:40 01.11.2021
5597 Clouds 26 1012 86 10000 1.6 161 14:19 01.11.2021
5598 Clouds 26 1012 86 10000 1.95 146 12:53 01.11.2021
5599 Clouds 26 1013 86 10000 2.31 149 11:39 01.11.2021
5600 Clouds 27 1012 85 10000 2.57 137 10:21 01.11.2021
5601 Clouds 27 1011 83 10000 2.05 116 08:23 01.11.2021
5602 Clouds 27 1011 83 10000 2.05 116 07:47 01.11.2021
5603 Clouds 28 1010 81 10000 2.1 84 03:55 01.11.2021
5604 Clouds 28 1010 81 10000 2.1 84 03:33 01.11.2021
5605 Clouds 30 1013 66 10000 1.45 56 23:52 31.10.2021
5606 Clouds 27 1013 82 10000 1.43 157 20:58 31.10.2021
5607 Clouds 26 1013 86 10000 1.7 158 19:49 31.10.2021
5608 Clouds 25 1012 87 10000 2.66 134 18:43 31.10.2021
5609 Clouds 26 1011 87 10000 2.74 134 18:20 31.10.2021
5610 Clouds 26 1011 87 10000 2.71 132 16:41 31.10.2021
5611 Clouds 26 1012 86 10000 2.51 123 14:45 31.10.2021
5612 Clouds 26 1013 86 10000 2.77 129 12:55 31.10.2021
5613 Clouds 27 1013 85 10000 2.95 129 11:44 31.10.2021
5614 Clouds 27 1013 84 10000 3.06 124 10:48 31.10.2021
5615 Rain 27 1012 82 10000 3.17 101 09:26 31.10.2021
5616 Rain 27 1012 82 10000 3.17 101 08:44 31.10.2021
5617 Clouds 31 1011 64 10000 3.88 63 02:26 31.10.2021
5618 Clouds 30 1013 70 10000 3.04 91 23:54 30.10.2021
5619 Clouds 27 1013 83 10000 2.62 118 21:50 30.10.2021
5620 Clouds 26 1012 87 10000 2.67 128 21:26 30.10.2021
5621 Clouds 26 1011 87 10000 2.76 130 19:42 30.10.2021
5622 Clouds 26 1010 87 10000 2.94 132 17:49 30.10.2021
5623 Clouds 26 1011 87 10000 2.98 126 15:41 30.10.2021
5624 Clouds 27 1013 88 10000 3.19 124 13:59 30.10.2021
5625 Clouds 27 1013 89 10000 3.17 125 13:38 30.10.2021
5626 Clouds 27 1013 89 10000 3.33 120 13:20 30.10.2021
5627 Clouds 27 1013 89 10000 3.55 115 11:49 30.10.2021
5628 Clouds 27 1012 88 10000 3.74 110 10:44 30.10.2021
5629 Clouds 28 1011 83 10000 4.56 97 08:56 30.10.2021
5630 Clouds 30 1010 77 10000 4.2 90 07:55 30.10.2021
5631 Clouds 31 1010 69 10000 4.74 84 05:46 30.10.2021
5632 Clouds 32 1012 64 10000 4.81 78 02:26 30.10.2021
5633 Clouds 29 1014 77 10000 3.44 109 23:20 29.10.2021
5634 Clouds 29 1014 77 10000 3.44 109 22:33 29.10.2021
5635 Clouds 26 1013 87 10000 3.52 124 20:55 29.10.2021
5636 Clouds 26 1013 87 10000 3.52 124 20:31 29.10.2021
5637 Clouds 26 1011 88 10000 3.67 118 18:49 29.10.2021
5638 Clear 26 1011 88 10000 3.64 122 17:28 29.10.2021
5639 Clear 26 1011 88 10000 3.64 122 17:28 29.10.2021
5640 Clear 26 1013 88 10000 3.11 123 15:26 29.10.2021
5641 Clouds 27 1013 86 10000 3.58 114 12:30 29.10.2021
5642 Clouds 27 1013 85 10000 3.72 113 10:46 29.10.2021
5643 Clouds 28 1011 82 10000 3.38 91 09:27 29.10.2021
5644 Clouds 31 1013 64 10000 2.29 77 00:55 29.10.2021
5645 Clouds 30 1013 67 10000 2.33 90 23:46 28.10.2021
5646 Clouds 27 1013 81 10000 2.06 140 22:21 28.10.2021
5647 Clouds 25 1012 84 10000 2.25 138 20:57 28.10.2021
5648 Clouds 25 1012 84 10000 2.18 130 19:52 28.10.2021
5649 Clouds 25 1011 85 10000 2.17 130 18:30 28.10.2021
5650 Clouds 26 1011 86 10000 2.52 117 17:20 28.10.2021
5651 Clouds 26 1012 86 10000 2.69 117 16:24 28.10.2021
5652 Clouds 26 1012 86 10000 2.71 124 14:40 28.10.2021
5653 Clouds 26 1013 86 10000 2.56 130 13:30 28.10.2021
5654 Clouds 26 1013 87 10000 2.47 131 12:47 28.10.2021
5655 Clouds 27 1012 86 10000 1.93 114 11:20 28.10.2021
5656 Clouds 27 1012 85 10000 1.51 104 09:40 28.10.2021
5657 Clouds 28 1011 83 10000 1.27 78 09:22 28.10.2021
5658 Clouds 28 1011 83 10000 1.27 78 08:35 28.10.2021
5659 Clouds 29 1011 75 10000 1.64 46 07:40 28.10.2021
5660 Clouds 30 1013 66 10000 3.13 71 00:40 28.10.2021
5661 Clouds 28 1013 78 10000 2.96 100 22:36 27.10.2021
5662 Clouds 26 1013 85 10000 2.67 113 21:34 27.10.2021
5663 Clouds 25 1012 88 10000 2.83 118 20:57 27.10.2021
5664 Clouds 25 1012 88 10000 2.83 118 20:38 27.10.2021
5665 Clouds 25 1012 88 10000 2.5 111 19:42 27.10.2021
5666 Clouds 26 1011 89 10000 2.45 104 18:54 27.10.2021
5667 Clouds 26 1011 91 10000 2.84 107 16:38 27.10.2021
5668 Clouds 26 1012 90 10000 2.96 105 16:20 27.10.2021
5669 Clouds 27 1012 89 10000 2.57 109 15:23 27.10.2021
5670 Clouds 27 1012 89 10000 2.57 109 15:23 27.10.2021
5671 Clouds 27 1013 87 10000 1.98 113 12:57 27.10.2021
5672 Clouds 27 1012 86 10000 1.07 104 10:59 27.10.2021
5673 Clouds 27 1011 86 10000 0.68 90 10:01 27.10.2021
5674 Clouds 28 1011 85 10000 0.38 65 08:58 27.10.2021
5675 Clouds 28 1010 81 10000 0.32 10 07:36 27.10.2021
5676 Clouds 30 1010 74 10000 1.17 49 05:34 27.10.2021
5677 Clouds 31 1013 62 10000 0.74 62 00:58 27.10.2021
5678 Clouds 31 1013 62 10000 0.74 62 00:33 27.10.2021
5679 Clouds 29 1013 67 10000 0.55 97 23:50 26.10.2021
5680 Clouds 28 1013 73 10000 0.49 162 22:39 26.10.2021
5681 Clouds 26 1013 80 10000 1.27 182 22:19 26.10.2021
5682 Clouds 25 1012 83 10000 1.51 171 20:51 26.10.2021
5683 Clouds 25 1011 86 10000 2.7 137 19:33 26.10.2021
5684 Clouds 25 1011 87 10000 2.86 137 18:52 26.10.2021
5685 Clouds 25 1011 87 10000 2.67 133 16:57 26.10.2021
5686 Clouds 25 1012 87 10000 2.56 127 15:34 26.10.2021
5687 Rain 26 1013 87 10000 3.14 120 11:49 26.10.2021
5688 Rain 27 1013 87 10000 3.3 118 10:42 26.10.2021
5689 Rain 29 1010 76 10000 3.44 93 07:51 26.10.2021
5690 Rain 30 1009 70 10000 3.78 82 07:21 26.10.2021
5691 Rain 29 1013 72 10000 2.22 106 23:51 25.10.2021
5692 Clouds 28 1013 79 10000 2.21 122 22:55 25.10.2021
5693 Clouds 27 1012 85 10000 2.12 130 22:21 25.10.2021
5694 Clouds 27 1012 85 10000 2.12 130 21:39 25.10.2021
5695 Rain 25 1011 88 10000 1.71 123 20:18 25.10.2021
5696 Clouds 25 1010 88 10000 1.42 134 19:26 25.10.2021
5697 Clouds 25 1010 88 10000 1.42 134 18:59 25.10.2021
5698 Clouds 26 1010 88 10000 1.57 152 18:20 25.10.2021
5699 Clouds 26 1011 88 10000 2.01 158 16:20 25.10.2021
5700 Clouds 26 1012 87 10000 2.34 142 14:28 25.10.2021
5701 Clouds 26 1012 88 10000 2.41 142 12:30 25.10.2021
5702 Clouds 27 1011 85 10000 1.84 113 10:23 25.10.2021
5703 Clouds 28 1010 83 10000 1.68 102 08:35 25.10.2021
5704 Clouds 29 1009 78 10000 0.45 95 06:25 25.10.2021
5705 Clouds 30 1011 71 10000 1.94 32 02:31 25.10.2021
5706 Clear 30 1012 69 10000 1.17 32 00:46 25.10.2021
5707 Clear 29 1012 71 10000 0.64 74 23:47 24.10.2021
5708 Clear 28 1012 76 10000 0.97 121 22:56 24.10.2021
5709 Clear 28 1012 76 10000 0.97 121 22:31 24.10.2021
5710 Clear 27 1012 83 10000 1.31 148 21:57 24.10.2021
5711 Clear 25 1011 87 10000 1.56 154 20:45 24.10.2021
5712 Clouds 26 1010 87 10000 1.53 151 20:26 24.10.2021
5713 Clouds 26 1009 87 10000 1.46 149 18:52 24.10.2021
5714 Clouds 26 1009 87 10000 1.53 142 17:57 24.10.2021
5715 Clouds 26 1010 86 10000 1.17 148 16:52 24.10.2021
5716 Clear 26 1011 85 10000 0.84 155 15:28 24.10.2021
5717 Clouds 27 1012 85 10000 0.35 146 13:49 24.10.2021
5718 Clouds 27 1012 84 10000 0.35 126 12:41 24.10.2021
5719 Clouds 27 1011 84 10000 0.37 147 11:40 24.10.2021
5720 Clouds 27 1011 83 10000 0.28 172 10:43 24.10.2021
5721 Clouds 27 1011 82 10000 0.08 242 09:38 24.10.2021
5722 Clouds 30 1010 66 10000 1.21 20 03:36 24.10.2021
5723 Clouds 30 1014 63 10000 0.19 346 00:19 24.10.2021
5724 Clouds 28 1014 69 10000 0.35 155 22:55 23.10.2021
5725 Clouds 25 1013 83 10000 1.31 165 21:21 23.10.2021
5726 Clear 25 1012 82 10000 1.64 164 19:39 23.10.2021
5727 Clear 25 1012 82 10000 1.8 164 18:45 23.10.2021
5728 Clear 25 1012 82 10000 1.8 164 18:45 23.10.2021
5729 Clouds 25 1011 83 10000 2.04 157 17:48 23.10.2021
5730 Clouds 25 1012 83 10000 2.12 151 17:26 23.10.2021
5731 Clear 25 1013 83 10000 2.15 146 15:58 23.10.2021
5732 Clouds 26 1014 82 10000 2.32 135 13:47 23.10.2021
5733 Clear 31 1014 58 10000 3.65 76 02:20 23.10.2021
5734 Clear 29 1015 67 10000 3.05 97 23:41 22.10.2021
5735 Clear 26 1015 83 10000 2.21 134 21:37 22.10.2021
5736 Clouds 25 1013 87 10000 2.59 134 19:33 22.10.2021
5737 Clouds 25 1012 86 10000 2.61 131 18:27 22.10.2021
5738 Clouds 25 1013 85 10000 2.78 134 16:44 22.10.2021
5739 Clouds 26 1014 85 10000 2.58 135 14:45 22.10.2021
5740 Rain 26 1015 84 10000 1.95 144 12:41 22.10.2021
5741 Rain 27 1014 83 10000 1.36 148 10:56 22.10.2021
5742 Clouds 27 1014 82 10000 1.08 131 09:57 22.10.2021
5743 Rain 27 1014 82 10000 1.08 131 09:32 22.10.2021
5744 Clouds 29 1012 74 10000 0.97 355 07:30 22.10.2021
5745 Clouds 29 1011 70 10000 1.38 353 06:46 22.10.2021
5746 Clouds 28 1014 77 10000 1.99 28 00:40 22.10.2021
5747 Clouds 28 1015 80 10000 1.48 25 23:49 21.10.2021
5748 Clouds 27 1015 81 10000 1.13 49 22:43 21.10.2021
5749 Rain 25 1013 86 10000 1.07 131 21:28 21.10.2021
5750 Rain 25 1013 88 10000 1.16 113 20:21 21.10.2021
5751 Clouds 25 1012 86 10000 1.09 119 19:49 21.10.2021
5752 Clouds 25 1012 86 10000 1.08 114 19:20 21.10.2021
5753 Clouds 25 1012 86 10000 1.08 114 18:30 21.10.2021
5754 Rain 25 1011 86 10000 1.13 109 17:50 21.10.2021
5755 Rain 25 1011 87 10000 1.24 124 16:40 21.10.2021
5756 Rain 26 1013 87 10000 1.02 109 15:22 21.10.2021
5757 Rain 26 1013 87 10000 1.02 109 14:50 21.10.2021
5758 Rain 26 1014 86 10000 0.92 86 13:42 21.10.2021
5759 Clouds 26 1013 86 10000 1.03 59 11:47 21.10.2021
5760 Clouds 28 1011 81 10000 1.45 10 09:26 21.10.2021
5761 Rain 29 1010 72 10000 1.69 5 07:33 21.10.2021
5762 Clouds 30 1010 71 10000 2.42 6 05:33 21.10.2021
5763 Clouds 29 1013 75 10000 1.44 49 00:22 21.10.2021
5764 Clouds 27 1012 86 10000 0.71 112 22:22 20.10.2021
5765 Clouds 27 1012 86 10000 0.71 112 21:46 20.10.2021
5766 Clouds 26 1011 88 10000 1.04 97 20:57 20.10.2021
5767 Clouds 26 1011 88 10000 1.04 97 20:37 20.10.2021
5768 Clouds 26 1010 87 10000 0.71 79 19:59 20.10.2021
5769 Clouds 26 1010 87 10000 0.54 116 18:59 20.10.2021
5770 Clouds 26 1010 86 10000 0.39 137 18:29 20.10.2021
5771 Clouds 26 1010 85 10000 0.35 303 15:54 20.10.2021
5772 Clouds 26 1012 86 10000 0.36 178 12:50 20.10.2021
5773 Clouds 27 1012 85 10000 0.58 29 09:30 20.10.2021
5774 Clouds 30 1009 72 10000 2.05 346 05:24 20.10.2021
5775 Rain 30 1013 68 10000 2.14 59 00:53 20.10.2021
5776 Clouds 29 1013 73 10000 2.02 80 00:26 20.10.2021
5777 Rain 26 1013 85 10000 1.59 129 21:47 19.10.2021
5778 Rain 25 1012 87 10000 1.8 134 21:27 19.10.2021
5779 Rain 25 1012 87 10000 1.86 126 20:25 19.10.2021
5780 Rain 25 1012 86 10000 1.39 154 19:45 19.10.2021
5781 Rain 25 1011 86 10000 1.35 165 19:21 19.10.2021
5782 Rain 25 1011 87 10000 1.26 170 18:23 19.10.2021
5783 Rain 25 1011 87 10000 1.26 170 18:23 19.10.2021
5784 Rain 25 1012 87 10000 1.5 148 16:24 19.10.2021
5785 Clouds 26 1012 87 10000 1.62 136 15:20 19.10.2021
5786 Clouds 26 1013 86 10000 1.62 122 14:27 19.10.2021
5787 Clouds 26 1013 86 10000 1.62 122 14:27 19.10.2021
5788 Clouds 26 1013 86 10000 1.59 136 13:36 19.10.2021
5789 Rain 26 1014 86 10000 1.22 120 11:37 19.10.2021
5790 Rain 26 1013 86 10000 1.3 138 10:39 19.10.2021
5791 Clear 27 1012 84 10000 0.76 166 08:59 19.10.2021
5792 Clouds 28 1011 80 10000 0.51 175 07:50 19.10.2021
5793 Clear 29 1015 74 10000 0.76 96 00:27 19.10.2021
5794 Clear 29 1015 74 10000 0.76 96 23:56 18.10.2021
5795 Clear 28 1015 80 10000 1.24 102 23:20 18.10.2021
5796 Clear 28 1015 80 10000 1.24 102 22:54 18.10.2021
5797 Clear 26 1014 86 10000 1.16 122 21:54 18.10.2021
5798 Clear 25 1014 87 10000 1.13 146 20:42 18.10.2021
5799 Clouds 25 1013 86 10000 1.55 140 20:19 18.10.2021
5800 Clouds 25 1013 86 10000 1.55 140 19:30 18.10.2021
5801 Clouds 25 1012 87 10000 1.5 140 18:58 18.10.2021
5802 Clouds 26 1013 86 10000 1.15 147 15:56 18.10.2021
5803 Clouds 26 1014 86 10000 1.47 147 14:28 18.10.2021
5804 Clouds 27 1014 85 10000 1.57 142 10:55 18.10.2021
5805 Clouds 27 1013 84 10000 1.48 138 09:31 18.10.2021
5806 Clouds 29 1011 75 10000 1.05 295 05:32 18.10.2021
5807 Clouds 29 1015 74 10000 1.92 87 23:37 17.10.2021
5808 Clouds 26 1014 86 10000 1.82 124 21:55 17.10.2021
5809 Clouds 25 1014 87 10000 1.84 132 21:18 17.10.2021
5810 Clouds 25 1014 87 10000 1.84 132 20:40 17.10.2021
5811 Clouds 25 1013 86 10000 1.62 129 19:43 17.10.2021
5812 Clouds 25 1012 86 10000 1.5 133 19:24 17.10.2021
5813 Clouds 26 1012 86 10000 1.37 141 17:34 17.10.2021
5814 Clouds 26 1013 85 10000 1.17 119 15:46 17.10.2021
5815 Clouds 27 1014 82 10000 0.43 92 14:26 17.10.2021
5816 Clouds 27 1014 82 10000 0.43 92 13:56 17.10.2021
5817 Clouds 27 1014 81 10000 0.27 100 12:35 17.10.2021
5818 Clouds 27 1013 80 10000 0.38 104 10:44 17.10.2021
5819 Clouds 27 1013 79 10000 0.23 96 09:43 17.10.2021
5820 Clouds 29 1011 75 10000 1.16 331 07:39 17.10.2021
5821 Clouds 29 1014 68 10000 1.54 22 00:55 17.10.2021
5822 Clouds 29 1014 71 10000 1.01 23 00:23 17.10.2021
5823 Clouds 26 1013 81 10000 0.95 166 21:52 16.10.2021
5824 Clouds 25 1012 83 10000 1.17 148 20:32 16.10.2021
5825 Clouds 25 1011 83 10000 1.32 139 19:46 16.10.2021
5826 Clouds 25 1010 83 10000 1.44 137 19:23 16.10.2021
5827 Clouds 25 1010 83 10000 1.44 137 18:56 16.10.2021
5828 Clouds 25 1010 83 10000 1.44 137 18:38 16.10.2021
5829 Clouds 25 1010 84 10000 1.67 129 18:18 16.10.2021
5830 Clouds 25 1010 85 10000 1.85 124 17:27 16.10.2021
5831 Clouds 25 1011 86 10000 2.02 108 15:33 16.10.2021
5832 Clouds 25 1013 85 10000 1.14 116 12:26 16.10.2021
5833 Clouds 25 1013 86 10000 0.99 161 10:47 16.10.2021
5834 Clouds 26 1011 85 10000 0.74 354 08:23 16.10.2021
5835 Clouds 25 1014 95 979 3.86 329 01:26 16.10.2021
5836 Clouds 26 1014 92 7049 2.82 342 23:57 15.10.2021
5837 Rain 26 1013 89 4628 1.52 311 23:24 15.10.2021
5838 Rain 25 1012 91 6865 1.24 274 22:19 15.10.2021
5839 Clouds 25 1012 90 6124 1.14 314 21:29 15.10.2021
5840 Clouds 25 1012 90 6124 1.14 314 21:29 15.10.2021
5841 Clouds 25 1012 90 6124 1.14 314 20:49 15.10.2021
5842 Clouds 25 1011 87 10000 0.66 99 19:37 15.10.2021
5843 Clouds 26 1010 87 10000 0.82 97 18:41 15.10.2021
5844 Clouds 26 1010 85 10000 0.68 36 16:43 15.10.2021
5845 Clouds 26 1011 84 10000 0.85 33 15:36 15.10.2021
5846 Clouds 26 1012 85 10000 0.82 73 13:31 15.10.2021
5847 Clouds 26 1012 86 10000 0.61 86 11:37 15.10.2021
5848 Clouds 27 1011 86 10000 0.82 47 10:57 15.10.2021
5849 Clouds 27 1011 86 10000 1.07 30 09:49 15.10.2021
5850 Rain 30 1009 72 10000 2.47 359 05:32 15.10.2021
5851 Clouds 31 1011 65 10000 2.18 360 01:47 15.10.2021
5852 Clouds 30 1012 69 10000 0.83 24 00:22 15.10.2021
5853 Clouds 28 1012 75 10000 0.38 72 22:52 14.10.2021
5854 Clouds 27 1011 80 10000 0.42 142 21:44 14.10.2021
5855 Clouds 26 1011 83 10000 0.54 144 20:49 14.10.2021
5856 Clouds 26 1010 84 10000 0.77 131 20:19 14.10.2021
5857 Clouds 26 1010 84 10000 0.77 131 19:35 14.10.2021
5858 Clouds 26 1009 84 10000 0.39 162 17:31 14.10.2021
5859 Clouds 26 1009 85 10000 0.68 171 16:49 14.10.2021
5860 Clouds 26 1010 85 10000 0.51 154 15:44 14.10.2021
5861 Clouds 26 1011 85 10000 0.35 124 14:43 14.10.2021
5862 Clouds 27 1011 84 10000 0.49 96 13:39 14.10.2021
5863 Clouds 27 1011 82 10000 0.63 55 11:44 14.10.2021
5864 Clouds 27 1010 81 10000 1.14 7 09:55 14.10.2021
5865 Clouds 30 1008 70 10000 2.35 346 06:55 14.10.2021
5866 Clouds 31 1011 64 10000 1.81 9 00:58 14.10.2021
5867 Clouds 30 1012 68 10000 1.09 26 00:22 14.10.2021
5868 Clouds 27 1011 81 10000 0.41 80 21:53 13.10.2021
5869 Clouds 27 1011 81 10000 0.41 80 21:32 13.10.2021
5870 Clouds 25 1010 83 10000 0.39 133 19:58 13.10.2021
5871 Clouds 26 1009 83 10000 0.3 166 18:49 13.10.2021
5872 Clouds 26 1009 84 10000 0.52 195 17:55 13.10.2021
5873 Clouds 26 1010 84 10000 0.6 176 15:32 13.10.2021
5874 Clouds 26 1010 84 10000 0.62 161 14:45 13.10.2021
5875 Clouds 26 1011 85 10000 1.33 165 12:58 13.10.2021
5876 Clouds 27 1011 84 10000 1.06 161 11:59 13.10.2021
5877 Clouds 27 1010 83 10000 0.81 160 10:39 13.10.2021
5878 Clouds 29 1008 74 10000 0.59 355 07:58 13.10.2021
5879 Clouds 29 1008 74 10000 1.23 349 06:41 13.10.2021
5880 Clouds 31 1011 67 10000 2.41 9 02:26 13.10.2021
5881 Clouds 29 1012 74 10000 1.12 22 00:18 13.10.2021
5882 Clouds 28 1011 80 10000 0.75 45 23:29 12.10.2021
5883 Clouds 28 1011 80 10000 0.75 45 22:44 12.10.2021
5884 Clouds 26 1011 85 10000 0.32 134 21:30 12.10.2021
5885 Clouds 25 1010 86 10000 1.17 201 20:34 12.10.2021
5886 Clouds 25 1010 86 10000 1.31 194 19:52 12.10.2021
5887 Clouds 25 1009 87 10000 1.12 175 18:27 12.10.2021
5888 Clouds 25 1009 87 10000 1.12 175 17:38 12.10.2021
5889 Clouds 25 1009 87 10000 0.97 149 16:38 12.10.2021
5890 Clouds 25 1010 87 10000 0.84 109 15:44 12.10.2021
5891 Clouds 26 1011 86 10000 0.83 81 14:30 12.10.2021
5892 Clouds 26 1011 86 10000 1.07 79 13:42 12.10.2021
5893 Clouds 26 1011 85 10000 1.3 59 11:36 12.10.2021
5894 Clouds 27 1010 83 10000 1.03 47 09:41 12.10.2021
5895 Clouds 27 1009 83 10000 1 30 08:42 12.10.2021
5896 Clouds 28 1009 78 10000 1.41 336 06:49 12.10.2021
5897 Clouds 30 1009 74 10000 2.44 351 05:29 12.10.2021
5898 Clouds 30 1009 74 10000 2.44 351 04:31 12.10.2021
5899 Clouds 29 1012 71 10000 1 49 00:18 12.10.2021
5900 Clouds 29 1012 71 10000 1 49 00:18 12.10.2021
5901 Clouds 29 1012 71 10000 1 49 00:18 12.10.2021
5902 Clouds 29 1012 71 10000 1 49 00:18 12.10.2021
5903 Clouds 29 1012 71 10000 1 49 23:37 11.10.2021
5904 Clouds 27 1011 77 10000 0.96 131 22:56 11.10.2021
5905 Clouds 26 1011 81 10000 1.37 156 21:41 11.10.2021
5906 Clouds 25 1010 83 10000 1.32 158 20:32 11.10.2021
5907 Clouds 25 1009 85 10000 1.06 184 19:36 11.10.2021
5908 Clouds 25 1008 86 10000 0.99 166 18:24 11.10.2021
5909 Clouds 26 1009 86 10000 0.84 155 16:48 11.10.2021
5910 Clouds 26 1009 86 10000 0.78 164 16:28 11.10.2021
5911 Clouds 26 1009 86 10000 0.78 164 15:45 11.10.2021
5912 Clouds 26 1010 86 10000 0.49 133 14:54 11.10.2021
5913 Clouds 27 1010 84 10000 0.41 69 14:22 11.10.2021
5914 Clouds 27 1010 84 10000 0.41 69 13:36 11.10.2021
5915 Clouds 27 1010 85 10000 0.39 113 11:25 11.10.2021
5916 Clouds 27 1009 86 10000 0.66 86 09:47 11.10.2021
5917 Clouds 27 1008 85 10000 0.68 59 08:40 11.10.2021
5918 Clouds 29 1009 75 10000 2.43 340 01:47 11.10.2021
5919 Clouds 29 1010 74 10000 2.19 340 00:59 11.10.2021
5920 Clouds 29 1010 74 10000 2.19 340 00:59 11.10.2021
5921 Clouds 29 1010 74 10000 2.19 340 00:41 11.10.2021
5922 Clouds 28 1010 79 10000 0.72 327 22:42 10.10.2021
5923 Clouds 26 1009 85 10000 0.44 267 21:50 10.10.2021
5924 Clouds 26 1009 87 10000 0.66 246 21:20 10.10.2021
5925 Clouds 26 1008 85 10000 0.63 227 20:40 10.10.2021
5926 Clouds 26 1008 85 10000 0.63 227 20:40 10.10.2021
5927 Clouds 26 1008 85 10000 0.73 234 20:19 10.10.2021
5928 Clouds 26 1008 85 10000 0.73 234 19:44 10.10.2021
5929 Clouds 26 1007 85 10000 0.69 212 19:26 10.10.2021
5930 Clouds 26 1007 85 10000 0.76 188 18:20 10.10.2021
5931 Clouds 26 1008 85 10000 0.75 183 15:49 10.10.2021
5932 Clouds 26 1009 86 10000 0.96 189 14:57 10.10.2021
5933 Clouds 27 1010 83 10000 0.94 212 13:41 10.10.2021
5934 Clouds 27 1010 83 10000 1.32 225 12:43 10.10.2021
5935 Clouds 27 1009 83 10000 1.31 241 11:31 10.10.2021
5936 Clouds 27 1008 81 10000 1.53 269 10:26 10.10.2021
5937 Clouds 28 1008 80 10000 1.82 293 09:19 10.10.2021
5938 Clouds 28 1008 80 10000 1.82 293 08:50 10.10.2021
5939 Clouds 30 1007 68 10000 2.64 349 04:50 10.10.2021
5940 Clouds 30 1010 67 10000 2.35 2 02:19 10.10.2021
5941 Clouds 29 1010 71 10000 2.05 11 00:47 10.10.2021
5942 Clouds 27 1011 84 10000 0.92 359 23:26 09.10.2021
5943 Rain 26 1010 88 10000 0.79 16 21:55 09.10.2021
5944 Clouds 26 1010 88 10000 0.79 16 21:30 09.10.2021
5945 Clouds 25 1008 90 10000 0.32 92 20:19 09.10.2021
5946 Clouds 25 1008 90 10000 0.32 92 19:41 09.10.2021
5947 Clouds 25 1008 90 10000 0.32 92 19:41 09.10.2021
5948 Clouds 25 1008 90 10000 0.29 35 18:45 09.10.2021
5949 Clouds 25 1008 89 10000 0.31 3 17:57 09.10.2021
5950 Clouds 26 1009 88 10000 0.5 281 16:20 09.10.2021
5951 Clouds 26 1010 87 10000 0.42 141 13:49 09.10.2021
5952 Clouds 26 1010 87 10000 0.42 141 13:31 09.10.2021
5953 Clouds 26 1010 86 10000 0.66 76 12:27 09.10.2021
5954 Clouds 26 1010 86 10000 0.73 68 10:44 09.10.2021
5955 Clouds 26 1010 86 10000 0.65 73 10:18 09.10.2021
5956 Clouds 27 1009 86 10000 0.8 47 08:33 09.10.2021
5957 Clouds 28 1008 83 8416 1.75 43 07:54 09.10.2021
5958 Clouds 29 1007 77 10000 2.77 45 06:29 09.10.2021
5959 Clouds 29 1008 78 10000 3.09 55 04:31 09.10.2021
5960 Clouds 30 1009 75 10000 3.99 73 02:44 09.10.2021
5961 Clouds 29 1011 76 10000 2.9 100 00:23 09.10.2021
5962 Clouds 29 1011 76 10000 2.9 100 23:31 08.10.2021
5963 Clouds 28 1011 81 10000 2.47 116 22:42 08.10.2021
5964 Clouds 26 1011 87 10000 2.63 129 21:44 08.10.2021
5965 Clouds 26 1009 88 10000 2.83 127 19:47 08.10.2021
5966 Clouds 26 1009 87 10000 2.45 127 18:19 08.10.2021
5967 Clouds 26 1009 87 10000 2.8 136 16:54 08.10.2021
5968 Clouds 26 1010 88 10000 3.2 127 16:24 08.10.2021
5969 Clouds 26 1011 89 10000 3.33 115 14:20 08.10.2021
5970 Clouds 26 1011 89 10000 3.33 115 13:41 08.10.2021
5971 Clouds 26 1011 89 10000 3.76 112 11:41 08.10.2021
5972 Clouds 27 1011 88 10000 3.93 114 10:42 08.10.2021
5973 Clouds 27 1010 88 10000 4.38 113 09:46 08.10.2021
5974 Clouds 31 1008 72 10000 4.45 76 03:36 08.10.2021
5975 Clouds 28 1012 77 10000 2.04 122 23:22 07.10.2021
5976 Clouds 27 1011 84 10000 1.93 127 21:47 07.10.2021
5977 Clouds 26 1010 87 10000 2.13 137 21:28 07.10.2021
5978 Clouds 26 1010 87 10000 2.08 143 20:28 07.10.2021
5979 Clouds 26 1010 87 10000 2.08 143 19:31 07.10.2021
5980 Clouds 26 1009 88 10000 2.44 140 18:27 07.10.2021
5981 Clouds 26 1009 88 10000 2.57 136 17:27 07.10.2021
5982 Clouds 26 1010 88 10000 2.59 134 15:55 07.10.2021
5983 Clouds 26 1011 88 10000 2.73 126 14:24 07.10.2021
5984 Clouds 26 1011 88 10000 2.73 126 13:43 07.10.2021
5985 Clouds 26 1011 88 10000 2.88 124 12:48 07.10.2021
5986 Clouds 27 1010 87 10000 3.53 120 10:57 07.10.2021
5987 Clouds 27 1010 86 10000 3.57 114 10:20 07.10.2021
5988 Clouds 27 1010 86 10000 3.57 114 09:34 07.10.2021
5989 Clouds 28 1009 85 10000 3.4 101 08:51 07.10.2021
5990 Clouds 29 1008 80 10000 3.01 84 07:44 07.10.2021
5991 Clouds 30 1007 75 10000 3.37 77 07:20 07.10.2021
5992 Clouds 30 1009 71 10000 3.56 76 02:50 07.10.2021
5993 Clouds 29 1011 70 10000 2.54 98 00:29 07.10.2021
5994 Clouds 28 1011 75 10000 1.86 118 22:51 06.10.2021
5995 Clouds 26 1010 83 10000 2.05 140 21:53 06.10.2021
5996 Clouds 25 1009 85 10000 2.27 143 20:38 06.10.2021
5997 Clouds 25 1008 85 10000 2.46 136 19:55 06.10.2021
5998 Clouds 25 1007 86 10000 2.35 136 18:41 06.10.2021
5999 Clouds 26 1008 86 10000 2.07 135 16:58 06.10.2021
6000 Clouds 26 1008 86 10000 2.26 137 15:30 06.10.2021
6001 Clouds 26 1010 86 10000 2.62 134 14:22 06.10.2021
6002 Clouds 26 1010 85 10000 2.62 134 12:59 06.10.2021
6003 Clouds 26 1010 85 10000 2.62 134 12:41 06.10.2021
6004 Clouds 26 1010 85 10000 2.48 138 12:21 06.10.2021
6005 Clouds 27 1009 82 10000 1.71 107 10:18 06.10.2021
6006 Clouds 27 1009 82 10000 1.71 107 09:39 06.10.2021
6007 Clouds 28 1008 81 10000 1.59 74 08:42 06.10.2021
6008 Clouds 28 1007 79 10000 1.61 60 07:44 06.10.2021
6009 Clouds 30 1007 71 10000 2.06 55 05:26 06.10.2021
6010 Clouds 29 1011 66 10000 2.24 96 00:26 06.10.2021
6011 Clouds 29 1011 66 10000 2.24 96 23:57 05.10.2021
6012 Clouds 29 1011 66 10000 2.24 96 23:57 05.10.2021
6013 Clouds 29 1011 66 10000 2.24 96 23:38 05.10.2021
6014 Clouds 28 1011 73 10000 2.05 121 23:19 05.10.2021
6015 Clouds 26 1010 82 10000 2.17 138 22:27 05.10.2021
6016 Clouds 26 1010 82 10000 2.17 138 21:44 05.10.2021
6017 Clouds 25 1009 84 10000 2.18 137 20:41 05.10.2021
6018 Clouds 25 1008 85 10000 2.29 133 20:22 05.10.2021
6019 Clouds 25 1008 85 10000 2.29 133 19:33 05.10.2021
6020 Clouds 25 1008 85 10000 2.18 129 18:49 05.10.2021
6021 Clouds 25 1008 83 10000 2.39 128 16:36 05.10.2021
6022 Clouds 25 1009 83 10000 2.89 139 14:34 05.10.2021
6023 Clouds 25 1010 84 10000 2.93 138 13:33 05.10.2021
6024 Clouds 26 1010 85 10000 2.78 132 12:38 05.10.2021
6025 Clouds 26 1010 86 10000 2.59 122 11:59 05.10.2021
6026 Clouds 26 1009 86 10000 2.3 109 10:39 05.10.2021
6027 Clouds 26 1009 86 10000 2.3 109 10:39 05.10.2021
6028 Clouds 27 1008 85 10000 1.98 99 08:44 05.10.2021
6029 Clouds 29 1008 78 10000 2.08 53 03:55 05.10.2021
6030 Clouds 28 1011 75 10000 1.97 93 23:53 04.10.2021
6031 Clouds 26 1009 86 10000 1.47 120 21:58 04.10.2021
6032 Clouds 25 1007 88 10000 1.77 130 18:55 04.10.2021
6033 Clouds 25 1007 89 10000 1.8 131 17:58 04.10.2021
6034 Clouds 26 1008 89 10000 1.89 139 16:20 04.10.2021
6035 Clouds 26 1008 89 10000 1.89 139 15:30 04.10.2021
6036 Clouds 26 1008 89 10000 1.97 136 14:39 04.10.2021
6037 Clouds 26 1009 89 10000 2.12 129 13:48 04.10.2021
6038 Clouds 26 1009 88 10000 1.98 118 13:23 04.10.2021
6039 Clouds 26 1009 89 10000 1.86 119 11:34 04.10.2021
6040 Clouds 26 1008 88 10000 2.33 127 10:47 04.10.2021
6041 Clouds 27 1008 87 10000 1.96 117 09:47 04.10.2021
6042 Clouds 27 1007 86 10000 1.98 93 08:32 04.10.2021
6043 Clouds 28 1006 82 10000 1.51 68 06:51 04.10.2021
6044 Clouds 29 1009 78 10000 0.88 81 23:42 03.10.2021
6045 Clouds 28 1009 83 10000 0.9 134 22:32 03.10.2021
6046 Clouds 26 1008 88 10000 1.34 150 21:36 03.10.2021
6047 Clouds 25 1008 89 10000 1.31 151 20:50 03.10.2021
6048 Clouds 25 1007 89 10000 1.33 170 19:54 03.10.2021
6049 Clouds 25 1007 89 10000 1.29 172 18:30 03.10.2021
6050 Clouds 26 1007 89 10000 1.05 162 17:40 03.10.2021
6051 Clouds 26 1008 88 10000 0.64 153 15:30 03.10.2021
6052 Clouds 26 1009 88 10000 0.52 153 14:35 03.10.2021
6053 Clouds 26 1010 88 10000 0.99 123 13:40 03.10.2021
6054 Clouds 26 1010 88 10000 0.83 116 13:20 03.10.2021
6055 Clouds 26 1010 88 10000 0.83 115 11:48 03.10.2021
6056 Clouds 26 1009 89 10000 1.05 128 10:31 03.10.2021
6057 Clouds 28 1007 83 10000 0.41 1 07:39 03.10.2021
6058 Clouds 27 1010 85 10000 0.36 126 23:50 02.10.2021
6059 Clouds 26 1009 87 10000 0.68 127 22:18 02.10.2021
6060 Clouds 26 1008 87 10000 0.5 162 20:34 02.10.2021
6061 Clouds 26 1007 87 10000 1.23 160 18:57 02.10.2021
6062 Clouds 26 1007 88 10000 1.23 166 18:20 02.10.2021
6063 Clouds 26 1007 88 10000 1.23 166 17:38 02.10.2021
6064 Clouds 26 1008 89 10000 1.33 161 16:39 02.10.2021
6065 Clouds 28 1007 82 10000 1.37 303 07:51 02.10.2021
6066 Clouds 26 1010 84 10000 3.11 119 15:37 30.09.2021
6067 Clouds 26 1011 85 10000 3.46 116 14:22 30.09.2021
6068 Clouds 26 1011 84 10000 3.81 112 11:58 30.09.2021
6069 Clouds 27 1011 84 10000 3.6 117 10:55 30.09.2021
6070 Clouds 27 1010 83 10000 3.62 110 10:25 30.09.2021
6071 Clouds 28 1009 80 10000 3.78 101 08:31 30.09.2021
6072 Clouds 29 1008 74 10000 3.95 93 07:35 30.09.2021
6073 Clouds 30 1009 67 10000 3.64 79 05:25 30.09.2021
6074 Clouds 30 1011 67 10000 4.02 79 02:19 30.09.2021
6075 Clouds 30 1012 68 10000 3.71 87 00:30 30.09.2021
6076 Clouds 27 1012 79 10000 2.97 117 22:39 29.09.2021
6077 Clouds 25 1011 87 10000 3.12 119 21:28 29.09.2021
6078 Clouds 25 1010 86 10000 2.94 117 20:28 29.09.2021
6079 Clouds 25 1010 86 10000 2.94 117 19:56 29.09.2021
6080 Clouds 25 1010 86 10000 3.06 124 18:54 29.09.2021
6081 Clouds 25 1010 87 10000 3.18 124 17:55 29.09.2021
6082 Clouds 25 1010 87 10000 2.84 120 16:55 29.09.2021
6083 Clouds 25 1011 86 10000 2.71 116 16:21 29.09.2021
6084 Clouds 25 1012 87 10000 2.7 118 14:39 29.09.2021
6085 Clouds 26 1012 87 10000 3.38 111 13:58 29.09.2021
6086 Clouds 26 1013 88 10000 3.43 109 13:22 29.09.2021
6087 Clouds 26 1013 88 10000 3.43 109 12:35 29.09.2021
6088 Clouds 26 1012 88 10000 3.2 113 10:50 29.09.2021
6089 Clouds 26 1012 88 10000 3.2 113 10:50 29.09.2021
6090 Clouds 27 1011 86 10000 3.08 112 09:53 29.09.2021
6091 Rain 27 1011 86 10000 3.08 112 09:34 29.09.2021
6092 Clouds 27 1010 84 10000 2.75 103 07:39 29.09.2021
6093 Clouds 29 1010 78 10000 2.93 77 04:39 29.09.2021
6094 Clouds 26 1013 86 10000 3.27 109 23:29 28.09.2021
6095 Clouds 26 1012 87 10000 3.55 109 22:24 28.09.2021
6096 Rain 26 1012 87 10000 3.55 109 21:44 28.09.2021
6097 Clouds 25 1011 88 10000 3.65 110 20:43 28.09.2021
6098 Clouds 25 1010 87 10000 3 113 19:46 28.09.2021
6099 Clouds 26 1010 88 10000 2.97 112 18:50 28.09.2021
6100 Clouds 26 1010 88 10000 2.9 110 18:18 28.09.2021
6101 Clouds 26 1010 88 10000 2.71 118 16:38 28.09.2021
6102 Clouds 26 1012 88 10000 2.29 133 14:30 28.09.2021
6103 Clouds 26 1012 89 10000 1.71 144 12:50 28.09.2021
6104 Clouds 26 1012 89 10000 2.18 131 12:21 28.09.2021
6105 Clouds 26 1012 89 10000 2.18 131 11:46 28.09.2021
6106 Clouds 26 1011 89 10000 2.36 126 11:19 28.09.2021
6107 Clouds 26 1010 89 10000 2.21 131 10:19 28.09.2021
6108 Clouds 27 1009 88 10000 2.26 129 09:00 28.09.2021
6109 Clouds 27 1009 88 10000 2.26 129 08:38 28.09.2021
6110 Clouds 25 1009 90 10000 1.42 198 07:47 28.09.2021
6111 Clouds 27 1009 85 7688 0.24 255 05:28 28.09.2021
6112 Clouds 27 1012 80 10000 2.21 121 01:23 28.09.2021
6113 Clouds 26 1013 85 10000 2.33 128 00:26 28.09.2021
6114 Clouds 26 1013 85 10000 2.33 128 23:41 27.09.2021
6115 Clouds 26 1012 86 10000 2.45 136 22:56 27.09.2021
6116 Clouds 25 1011 88 10000 2.51 140 21:54 27.09.2021
6117 Clouds 25 1010 89 10000 2.59 140 20:44 27.09.2021
6118 Clouds 25 1010 91 10000 1.78 134 19:55 27.09.2021
6119 Clouds 25 1009 91 10000 1.95 129 19:27 27.09.2021
6120 Clouds 25 1009 91 10000 1.95 129 18:49 27.09.2021
6121 Clouds 25 1009 90 8802 2.42 108 17:29 27.09.2021
6122 Clouds 25 1009 90 8802 2.42 108 17:29 27.09.2021
6123 Clouds 25 1009 90 8802 2.42 108 16:49 27.09.2021
6124 Clouds 26 1010 88 10000 2.58 104 15:44 27.09.2021
6125 Clouds 26 1010 87 10000 2.33 113 15:18 27.09.2021
6126 Clouds 26 1011 87 10000 2.43 128 13:32 27.09.2021
6127 Clouds 26 1010 88 10000 2.94 121 11:40 27.09.2021
6128 Clouds 26 1010 87 10000 2.75 113 10:36 27.09.2021
6129 Clouds 27 1008 85 10000 2.8 98 08:50 27.09.2021
6130 Clouds 29 1008 79 8460 2.74 79 05:22 27.09.2021
6131 Clouds 29 1010 76 9711 2.94 73 03:18 27.09.2021
6132 Clouds 27 1011 80 10000 1.77 117 22:33 26.09.2021
6133 Clouds 26 1010 85 10000 1.96 136 21:50 26.09.2021
6134 Clouds 25 1010 87 10000 1.96 142 21:25 26.09.2021
6135 Clouds 25 1009 87 10000 1.77 138 20:21 26.09.2021
6136 Clouds 25 1009 87 10000 1.77 138 19:48 26.09.2021
6137 Clouds 25 1009 88 10000 1.78 133 18:45 26.09.2021
6138 Clouds 25 1008 88 10000 1.72 123 17:57 26.09.2021
6139 Clouds 25 1008 89 10000 1.71 131 17:22 26.09.2021
6140 Clouds 25 1008 89 10000 1.71 131 16:40 26.09.2021
6141 Clouds 26 1009 89 10000 1.97 130 15:59 26.09.2021
6142 Clouds 26 1010 89 10000 2.27 126 14:54 26.09.2021
6143 Clouds 26 1010 89 10000 2.59 127 13:55 26.09.2021
6144 Clouds 26 1010 89 10000 2.8 123 12:59 26.09.2021
6145 Clouds 26 1010 89 10000 2.98 120 12:24 26.09.2021
6146 Clouds 26 1010 89 10000 2.98 120 11:37 26.09.2021
6147 Clouds 27 1009 87 10000 2.68 103 10:23 26.09.2021
6148 Clouds 27 1008 85 10000 2.22 87 08:58 26.09.2021
6149 Clouds 29 1007 80 10000 1.69 55 06:36 26.09.2021
6150 Clouds 29 1011 72 10000 2.18 103 00:22 26.09.2021
6151 Clouds 28 1011 78 10000 2.05 120 23:24 25.09.2021
6152 Clouds 28 1011 78 10000 2.05 120 22:38 25.09.2021
6153 Clouds 26 1010 84 10000 2.32 137 21:55 25.09.2021
6154 Clouds 26 1010 84 10000 2.32 137 21:31 25.09.2021
6155 Clouds 25 1010 86 10000 2.56 133 20:45 25.09.2021
6156 Rain 25 1009 86 10000 2.37 138 18:55 25.09.2021
6157 Clouds 25 1009 86 10000 2.23 139 17:55 25.09.2021
6158 Clouds 26 1010 86 10000 2.13 140 15:48 25.09.2021
6159 Clouds 26 1011 87 10000 2.8 130 13:57 25.09.2021
6160 Clouds 26 1011 87 10000 2.8 130 13:30 25.09.2021
6161 Clouds 26 1011 87 10000 2.77 129 12:25 25.09.2021
6162 Clouds 26 1011 88 10000 2.59 137 10:34 25.09.2021
6163 Clouds 27 1009 86 7666 1.39 121 09:26 25.09.2021
6164 Clouds 28 1009 83 10000 1.84 90 07:55 25.09.2021
6165 Clouds 30 1009 75 10000 2.99 64 05:19 25.09.2021
6166 Clouds 29 1013 73 10000 2.64 98 23:45 24.09.2021
6167 Clouds 26 1012 86 10000 2.51 123 21:41 24.09.2021
6168 Clouds 25 1011 88 10000 2.45 131 20:33 24.09.2021
6169 Clouds 25 1010 87 10000 2.24 139 19:45 24.09.2021
6170 Clouds 25 1010 88 10000 2.22 136 18:32 24.09.2021
6171 Clouds 25 1010 88 10000 2.08 133 17:53 24.09.2021
6172 Clouds 25 1010 88 10000 2.08 133 17:35 24.09.2021
6173 Clouds 25 1010 88 10000 2.15 132 16:45 24.09.2021
6174 Clouds 26 1012 87 10000 2.28 140 13:55 24.09.2021
6175 Clouds 26 1012 87 10000 2.19 139 12:45 24.09.2021
6176 Clouds 26 1012 86 10000 1.88 129 12:27 24.09.2021
6177 Clouds 26 1012 86 10000 1.88 129 11:50 24.09.2021
6178 Clouds 27 1011 84 10000 1.18 106 10:24 24.09.2021
6179 Clouds 28 1010 79 10000 1.26 59 08:24 24.09.2021
6180 Clouds 28 1010 80 10000 1.57 55 07:32 24.09.2021
6181 Clouds 29 1009 77 10000 1.97 50 06:32 24.09.2021
6182 Clouds 29 1010 76 9612 2.44 67 04:53 24.09.2021
6183 Clouds 27 1013 81 10000 2.11 106 22:45 23.09.2021
6184 Clouds 25 1012 85 10000 2.14 125 21:59 23.09.2021
6185 Clouds 25 1012 85 10000 2.14 125 21:37 23.09.2021
6186 Clouds 25 1012 85 10000 1.88 132 20:32 23.09.2021
6187 Clouds 25 1011 86 10000 1.77 129 18:56 23.09.2021
6188 Clouds 25 1011 87 10000 2.23 135 16:49 23.09.2021
6189 Clouds 25 1013 88 10000 2.19 131 15:20 23.09.2021
6190 Clouds 25 1013 88 10000 2.19 131 14:58 23.09.2021
6191 Clouds 25 1013 87 10000 1.99 137 13:36 23.09.2021
6192 Clouds 26 1013 87 10000 1.8 138 13:18 23.09.2021
6193 Clouds 26 1013 87 10000 1.8 138 12:45 23.09.2021
6194 Clouds 26 1013 87 10000 1.67 127 12:21 23.09.2021
6195 Clouds 26 1012 87 10000 1.59 112 10:41 23.09.2021
6196 Clouds 26 1012 86 10000 1.39 91 09:57 23.09.2021
6197 Clouds 26 1012 86 10000 1.39 91 09:38 23.09.2021
6198 Clouds 29 1009 72 10000 1.77 48 06:24 23.09.2021
6199 Clouds 28 1013 73 10000 1.46 86 00:21 23.09.2021
6200 Clouds 27 1013 79 10000 1.34 101 22:54 22.09.2021
6201 Clouds 26 1013 85 10000 1.56 130 22:20 22.09.2021
6202 Clouds 26 1013 85 10000 1.56 130 21:44 22.09.2021
6203 Clouds 25 1012 87 10000 1.58 131 20:57 22.09.2021
6204 Clouds 25 1011 87 10000 1.64 126 19:48 22.09.2021
6205 Clouds 25 1011 87 10000 1.33 129 19:26 22.09.2021
6206 Clouds 25 1011 87 10000 1.33 129 18:30 22.09.2021
6207 Clouds 25 1011 86 10000 0.99 135 17:18 22.09.2021
6208 Clouds 25 1012 86 10000 1.02 144 15:51 22.09.2021
6209 Clouds 26 1013 86 10000 1.38 186 14:28 22.09.2021
6210 Clouds 26 1012 86 10000 1.36 171 12:55 22.09.2021
6211 Clouds 26 1012 86 10000 1.23 176 11:18 22.09.2021
6212 Clouds 26 1011 86 10000 0.66 167 09:30 22.09.2021
6213 Rain 27 1010 84 10000 0.19 70 08:36 22.09.2021
6214 Rain 28 1009 77 10000 0.28 311 07:31 22.09.2021
6215 Clouds 29 1008 75 10000 1.1 353 06:23 22.09.2021
6216 Clouds 29 1008 75 10000 1.1 353 05:45 22.09.2021
6217 Clouds 30 1009 70 10000 2.22 36 03:58 22.09.2021
6218 Rain 30 1010 66 10000 2.71 47 02:55 22.09.2021
6219 Clear 28 1012 73 10000 2.21 93 23:31 21.09.2021
6220 Clear 25 1011 84 10000 2.06 130 21:49 21.09.2021
6221 Clouds 25 1010 86 10000 1.71 137 20:28 21.09.2021
6222 Clouds 25 1009 87 10000 1.57 149 19:24 21.09.2021
6223 Clouds 25 1009 89 10000 1.49 158 18:19 21.09.2021
6224 Clouds 25 1009 89 10000 1.64 147 16:47 21.09.2021
6225 Clouds 25 1010 89 10000 1.8 132 15:56 21.09.2021
6226 Clouds 25 1010 89 10000 2.11 123 14:58 21.09.2021
6227 Clouds 26 1011 87 10000 2.61 118 13:58 21.09.2021
6228 Clouds 26 1011 87 10000 2.61 118 13:39 21.09.2021
6229 Clouds 26 1011 87 10000 2.88 120 12:44 21.09.2021
6230 Clouds 26 1010 87 10000 3.45 117 10:39 21.09.2021
6231 Clouds 27 1009 84 10000 3.64 107 08:57 21.09.2021
6232 Clouds 29 1008 75 10000 3.4 89 07:37 21.09.2021
6233 Clouds 29 1008 75 10000 3.4 89 07:37 21.09.2021
6234 Clouds 31 1010 63 10000 4.07 75 01:54 21.09.2021
6235 Clear 27 1012 77 10000 2.13 111 22:54 20.09.2021
6236 Clear 26 1011 84 10000 2.24 132 21:43 20.09.2021
6237 Clear 25 1010 86 10000 2.17 137 21:24 20.09.2021
6238 Clouds 25 1010 87 10000 2.75 127 19:47 20.09.2021
6239 Clouds 25 1009 87 10000 2.98 127 17:54 20.09.2021
6240 Clouds 25 1009 88 10000 3.19 127 16:58 20.09.2021
6241 Clouds 25 1010 88 10000 3.21 121 16:23 20.09.2021
6242 Clouds 25 1010 88 10000 3.21 121 15:36 20.09.2021
6243 Clouds 26 1011 88 10000 3.72 113 14:27 20.09.2021
6244 Clouds 26 1011 88 10000 3.75 115 12:44 20.09.2021
6245 Clouds 26 1011 88 10000 3.79 116 12:22 20.09.2021
6246 Clouds 26 1011 88 10000 3.86 115 10:52 20.09.2021
6247 Clouds 27 1010 87 10000 3.78 114 09:51 20.09.2021
6248 Clouds 27 1010 87 10000 3.78 114 09:31 20.09.2021
6249 Clouds 27 1010 86 10000 3.86 110 08:35 20.09.2021
6250 Clouds 29 1008 73 10000 4.28 98 06:21 20.09.2021
6251 Clouds 27 1013 83 10000 4.24 104 22:57 19.09.2021
6252 Clouds 26 1012 86 10000 3.9 112 21:48 19.09.2021
6253 Clouds 26 1011 87 10000 3.64 118 20:59 19.09.2021
6254 Clouds 26 1011 87 10000 3.66 118 19:54 19.09.2021
6255 Clouds 26 1010 87 10000 3.81 117 18:42 19.09.2021
6256 Clouds 26 1010 87 10000 3.87 116 17:33 19.09.2021
6257 Clouds 26 1011 88 10000 3.89 115 16:33 19.09.2021
6258 Clouds 26 1011 88 10000 3.96 114 15:31 19.09.2021
6259 Clouds 26 1012 88 10000 4.06 114 14:48 19.09.2021
6260 Clouds 26 1012 88 10000 4.33 112 13:49 19.09.2021
6261 Clouds 26 1013 89 10000 4.33 111 12:52 19.09.2021
6262 Clouds 26 1012 89 10000 4.26 109 11:42 19.09.2021
6263 Rain 26 1012 88 10000 4.48 106 11:21 19.09.2021
6264 Rain 27 1011 87 10000 4.89 101 09:50 19.09.2021
6265 Rain 28 1010 82 10000 5.14 97 08:49 19.09.2021
6266 Rain 30 1009 72 10000 5.12 87 06:43 19.09.2021
6267 Clouds 29 1014 72 10000 4.54 97 00:20 19.09.2021
6268 Clouds 28 1013 79 10000 4.16 104 22:54 18.09.2021
6269 Clouds 25 1012 87 10000 3.87 116 21:26 18.09.2021
6270 Clouds 25 1012 87 10000 3.87 116 20:45 18.09.2021
6271 Clouds 25 1011 87 10000 3.34 121 19:41 18.09.2021
6272 Clouds 25 1011 87 10000 3.39 119 19:21 18.09.2021
6273 Clouds 25 1011 87 10000 3.39 119 18:37 18.09.2021
6274 Clouds 25 1011 87 10000 3.61 120 17:46 18.09.2021
6275 Clouds 25 1011 87 10000 3.78 121 16:34 18.09.2021
6276 Clouds 26 1013 88 10000 3.62 113 13:50 18.09.2021
6277 Clouds 26 1013 88 10000 3.62 113 13:30 18.09.2021
6278 Clouds 26 1013 88 10000 3.98 110 12:50 18.09.2021
6279 Clouds 26 1013 88 10000 4.2 108 11:42 18.09.2021
6280 Clouds 27 1012 86 10000 4.48 105 10:35 18.09.2021
6281 Clouds 27 1011 84 10000 4.79 102 09:48 18.09.2021
6282 Clouds 28 1010 81 10000 5.05 96 09:19 18.09.2021
6283 Clouds 30 1009 70 10000 5.69 91 05:51 18.09.2021
6284 Clouds 30 1013 67 10000 4.02 92 00:42 18.09.2021
6285 Clouds 29 1013 74 10000 3.36 107 23:50 17.09.2021
6286 Clouds 27 1013 81 10000 2.79 117 22:38 17.09.2021
6287 Clouds 26 1012 86 10000 2.4 128 22:19 17.09.2021
6288 Clouds 25 1012 88 10000 2.28 136 21:23 17.09.2021
6289 Clouds 25 1011 88 10000 2.23 140 19:23 17.09.2021
6290 Clouds 25 1011 89 10000 2.86 144 17:25 17.09.2021
6291 Clouds 25 1012 89 10000 2.88 134 16:27 17.09.2021
6292 Clouds 26 1013 88 10000 3.18 125 13:29 17.09.2021
6293 Clouds 26 1012 87 10000 3.6 123 10:53 17.09.2021
6294 Clouds 27 1011 86 9072 4.12 110 08:46 17.09.2021
6295 Clouds 28 1010 81 6966 4.14 96 06:53 17.09.2021
6296 Clouds 29 1011 75 10000 3.68 81 03:54 17.09.2021
6297 Clouds 27 1012 81 10000 1.88 123 23:25 16.09.2021
6298 Clouds 25 1012 87 10000 2.15 143 22:25 16.09.2021
6299 Clouds 25 1012 87 10000 2.15 143 21:43 16.09.2021
6300 Clouds 25 1011 88 10000 2.1 147 21:22 16.09.2021
6301 Clouds 25 1010 88 10000 2.12 151 20:18 16.09.2021
6302 Clouds 25 1010 88 10000 2.12 151 20:18 16.09.2021
6303 Clouds 25 1010 88 10000 2.28 142 18:20 16.09.2021
6304 Clouds 25 1010 88 10000 2.28 142 17:32 16.09.2021
6305 Clouds 25 1012 88 10000 2.77 124 14:55 16.09.2021
6306 Clouds 26 1012 88 10000 2.91 117 13:55 16.09.2021
6307 Clouds 26 1013 87 10000 2.81 121 12:48 16.09.2021
6308 Clouds 26 1012 88 10000 2.86 125 12:28 16.09.2021
6309 Clouds 26 1012 87 10000 3.15 123 11:25 16.09.2021
6310 Clouds 26 1012 87 10000 3.15 123 10:31 16.09.2021
6311 Clouds 26 1011 86 10000 3.34 120 09:53 16.09.2021
6312 Clouds 27 1010 83 10000 3.44 113 08:42 16.09.2021
6313 Clouds 29 1009 74 10000 2.62 79 07:22 16.09.2021
6314 Clouds 29 1009 74 10000 2.62 79 06:39 16.09.2021
6315 Clouds 29 1009 71 10000 2.98 68 04:34 16.09.2021
6316 Clouds 30 1012 66 10000 2.56 90 01:26 16.09.2021
6317 Clouds 30 1012 66 10000 2.56 90 01:26 16.09.2021
6318 Clouds 28 1013 72 10000 2.11 108 23:35 15.09.2021
6319 Clouds 27 1013 79 10000 1.75 125 22:46 15.09.2021
6320 Clouds 25 1012 85 10000 2.08 143 21:41 15.09.2021
6321 Clouds 25 1011 87 10000 2.08 150 21:23 15.09.2021
6322 Clouds 25 1011 86 10000 1.75 146 19:35 15.09.2021
6323 Clouds 25 1010 87 10000 1.82 151 18:59 15.09.2021
6324 Clouds 25 1010 87 10000 1.94 149 17:46 15.09.2021
6325 Clouds 25 1010 88 10000 1.99 144 16:44 15.09.2021
6326 Clouds 25 1012 89 10000 2.6 129 15:29 15.09.2021
6327 Clouds 25 1012 89 10000 2.6 129 14:44 15.09.2021
6328 Clouds 26 1012 87 10000 2.94 124 13:51 15.09.2021
6329 Clouds 26 1012 87 10000 3.14 120 13:29 15.09.2021
6330 Clouds 26 1012 87 10000 3.14 120 12:34 15.09.2021
6331 Clouds 26 1012 86 10000 3.24 119 11:51 15.09.2021
6332 Clouds 26 1012 86 10000 3.57 114 10:58 15.09.2021
6333 Clouds 26 1012 86 10000 3.57 114 10:35 15.09.2021
6334 Clouds 27 1010 84 10000 3.84 102 09:23 15.09.2021
6335 Clouds 29 1009 77 10000 3.9 87 07:27 15.09.2021
6336 Clouds 30 1012 67 10000 3.29 79 02:21 15.09.2021
6337 Clouds 27 1013 80 10000 1.79 123 22:36 14.09.2021
6338 Clouds 25 1012 85 10000 2.24 142 21:34 14.09.2021
6339 Clouds 25 1011 87 10000 2.53 137 20:25 14.09.2021
6340 Clouds 25 1011 87 10000 2.79 130 19:40 14.09.2021
6341 Clouds 25 1010 87 10000 2.35 130 17:33 14.09.2021
6342 Clouds 25 1011 88 10000 2.35 135 16:43 14.09.2021
6343 Clouds 26 1012 87 10000 2.45 134 15:24 14.09.2021
6344 Clouds 26 1012 86 10000 2.72 135 14:19 14.09.2021
6345 Clouds 26 1012 86 10000 3.17 126 11:47 14.09.2021
6346 Clouds 26 1012 85 10000 3.18 119 10:44 14.09.2021
6347 Clouds 27 1011 84 10000 3.37 112 09:49 14.09.2021
6348 Clouds 29 1009 76 10000 3.45 95 07:53 14.09.2021
6349 Clouds 31 1012 61 10000 4.22 82 02:20 14.09.2021
6350 Clouds 27 1013 76 10000 3.07 110 23:27 13.09.2021
6351 Clouds 26 1013 83 10000 3.17 119 22:27 13.09.2021
6352 Clouds 26 1013 83 10000 3.17 119 21:55 13.09.2021
6353 Clouds 26 1013 83 10000 3.17 119 21:32 13.09.2021
6354 Clouds 25 1011 83 10000 3.02 126 19:35 13.09.2021
6355 Clouds 25 1011 83 10000 2.94 126 18:44 13.09.2021
6356 Clouds 25 1012 84 10000 3.03 131 17:27 13.09.2021
6357 Clouds 25 1012 84 10000 3.03 131 16:49 13.09.2021
6358 Clouds 25 1013 85 10000 3.01 125 14:43 13.09.2021
6359 Clouds 26 1013 85 10000 3.3 120 11:43 13.09.2021
6360 Clouds 27 1011 84 10000 3.66 111 10:26 13.09.2021
6361 Clouds 30 1009 70 10000 3.65 89 07:57 13.09.2021
6362 Clouds 29 1013 66 10000 3.58 97 00:29 13.09.2021
6363 Clouds 27 1013 75 10000 3.3 111 22:42 12.09.2021
6364 Clouds 25 1012 79 10000 3.17 127 22:21 12.09.2021
6365 Clouds 24 1012 79 10000 3.13 132 20:47 12.09.2021
6366 Clouds 24 1011 76 10000 2.97 132 19:56 12.09.2021
6367 Clouds 24 1011 77 10000 2.74 130 19:29 12.09.2021
6368 Clouds 24 1011 77 10000 2.74 130 18:50 12.09.2021
6369 Clouds 24 1011 80 10000 2.48 137 16:58 12.09.2021
6370 Clouds 25 1012 83 10000 2.9 133 15:37 12.09.2021
6371 Clouds 25 1013 84 10000 3.05 121 14:32 12.09.2021
6372 Clouds 26 1012 84 10000 3.55 112 11:49 12.09.2021
6373 Clouds 27 1010 82 10000 2.85 110 10:18 12.09.2021
6374 Clouds 28 1009 77 10000 2.39 94 08:38 12.09.2021
6375 Clouds 31 1011 62 10000 4.34 74 02:56 12.09.2021
6376 Clouds 30 1012 67 10000 3.93 86 00:44 12.09.2021
6377 Clouds 26 1011 84 10000 3.37 122 22:25 11.09.2021
6378 Clouds 26 1011 84 10000 3.37 122 21:37 11.09.2021
6379 Clouds 25 1010 86 10000 3.31 123 19:33 11.09.2021
6380 Clouds 25 1010 87 10000 3.15 125 17:53 11.09.2021
6381 Clouds 26 1011 87 10000 3.01 122 16:21 11.09.2021
6382 Rain 26 1012 87 10000 3.45 117 14:22 11.09.2021
6383 Clouds 26 1012 86 10000 3.66 115 13:19 11.09.2021
6384 Clouds 26 1011 87 10000 3.86 117 11:34 11.09.2021
6385 Clouds 27 1010 86 10000 4.16 111 09:41 11.09.2021
6386 Clouds 27 1010 86 10000 4.16 111 09:41 11.09.2021
6387 Clouds 29 1009 77 10000 4.46 95 07:50 11.09.2021
6388 Rain 29 1008 72 10000 4.4 90 07:28 11.09.2021
6389 Clouds 30 1012 66 10000 4.16 88 00:49 11.09.2021
6390 Clouds 26 1012 86 10000 3.16 121 22:25 10.09.2021
6391 Clouds 26 1012 86 10000 3.16 121 21:54 10.09.2021
6392 Clouds 25 1011 88 10000 3.16 127 20:25 10.09.2021
6393 Clouds 25 1011 87 10000 3.34 122 18:28 10.09.2021
6394 Clouds 25 1011 87 10000 3.52 122 16:57 10.09.2021
6395 Clouds 26 1013 87 10000 3.68 113 14:52 10.09.2021
6396 Clouds 26 1013 88 10000 3.98 111 12:43 10.09.2021
6397 Clouds 27 1011 82 10000 4.92 98 09:27 10.09.2021
6398 Clouds 29 1011 75 10000 4.52 90 07:50 10.09.2021
6399 Clouds 31 1013 62 10000 4.99 81 02:31 10.09.2021
6400 Clouds 27 1015 79 10000 4.45 107 22:32 09.09.2021
6401 Clouds 25 1014 85 10000 4.17 116 21:45 09.09.2021
6402 Clouds 25 1014 87 10000 4.18 117 20:46 09.09.2021
6403 Clouds 25 1013 87 10000 4.29 114 19:54 09.09.2021
6404 Clouds 25 1012 86 10000 4.29 113 18:31 09.09.2021
6405 Clouds 25 1013 87 10000 4.29 113 16:40 09.09.2021
6406 Clouds 25 1014 87 10000 4.47 112 15:36 09.09.2021
6407 Clouds 25 1015 88 10000 4.49 110 12:48 09.09.2021
6408 Clouds 26 1015 87 10000 4.5 109 11:41 09.09.2021
6409 Clouds 26 1013 86 10000 4.84 105 09:50 09.09.2021
6410 Clouds 27 1012 84 10000 5.07 100 08:47 09.09.2021
6411 Clouds 27 1012 84 10000 5.07 100 08:47 09.09.2021
6412 Clouds 30 1011 66 10000 5.69 89 06:25 09.09.2021
6413 Clouds 31 1014 63 10000 5.61 88 02:19 09.09.2021
6414 Clouds 27 1015 81 10000 3.71 114 22:40 08.09.2021
6415 Clouds 25 1013 88 10000 3.05 122 21:23 08.09.2021
6416 Clouds 25 1012 88 10000 2.84 127 19:56 08.09.2021
6417 Clouds 25 1012 88 10000 3.24 131 18:55 08.09.2021
6418 Clouds 25 1012 88 10000 3.04 133 18:28 08.09.2021
6419 Clouds 25 1012 88 10000 3.04 133 17:55 08.09.2021
6420 Clouds 25 1013 88 10000 2.66 134 16:28 08.09.2021
6421 Clouds 25 1014 88 10000 3 130 14:23 08.09.2021
6422 Clouds 25 1014 88 10000 2.97 127 12:43 08.09.2021
6423 Clouds 25 1014 87 10000 3.17 127 12:25 08.09.2021
6424 Clouds 26 1014 87 10000 3.27 124 11:29 08.09.2021
6425 Clouds 26 1014 87 10000 3.27 124 10:32 08.09.2021
6426 Clouds 26 1013 85 10000 3.43 120 09:58 08.09.2021
6427 Clouds 28 1011 79 10000 3.27 117 07:55 08.09.2021
6428 Clouds 28 1011 79 10000 3.27 117 07:32 08.09.2021
6429 Clouds 29 1011 75 10000 3.27 111 03:41 08.09.2021
6430 Clouds 26 1013 83 10000 2.34 134 22:35 07.09.2021
6431 Clouds 25 1013 88 10000 2.27 142 21:38 07.09.2021
6432 Clouds 25 1011 88 10000 2.2 133 19:40 07.09.2021
6433 Clouds 25 1011 89 10000 2.04 138 18:39 07.09.2021
6434 Clouds 25 1011 88 10000 1.83 149 17:43 07.09.2021
6435 Clouds 25 1012 88 10000 1.83 150 15:57 07.09.2021
6436 Clouds 25 1012 88 10000 1.83 150 15:33 07.09.2021
6437 Clouds 25 1013 88 10000 2.12 144 13:54 07.09.2021
6438 Clouds 25 1013 88 10000 2.46 154 12:28 07.09.2021
6439 Clouds 26 1012 88 10000 2.34 150 11:26 07.09.2021
6440 Clouds 26 1012 88 10000 2.34 150 10:37 07.09.2021
6441 Clouds 27 1010 84 10000 1.39 119 07:51 07.09.2021
6442 Clouds 28 1009 81 10000 1.7 117 06:42 07.09.2021
6443 Clouds 28 1011 75 10000 2.36 105 02:43 07.09.2021
6444 Clouds 27 1012 81 10000 1.99 112 02:23 07.09.2021
6445 Clouds 26 1012 88 10000 2.5 119 00:21 07.09.2021
6446 Clouds 26 1012 88 10000 2.5 119 23:31 06.09.2021
6447 Clouds 25 1012 89 10000 1.93 129 22:53 06.09.2021
6448 Clouds 24 1011 91 10000 2.61 136 22:24 06.09.2021
6449 Clouds 24 1010 91 10000 2.81 126 20:37 06.09.2021
6450 Clouds 25 1010 87 10000 2.26 127 19:20 06.09.2021
6451 Clouds 25 1010 87 10000 2.26 127 18:36 06.09.2021
6452 Clouds 25 1010 87 10000 2.43 127 17:54 06.09.2021
6453 Clouds 25 1011 88 10000 2.61 119 16:23 06.09.2021
6454 Clouds 25 1011 87 10000 2.62 122 15:25 06.09.2021
6455 Clouds 25 1012 87 10000 2.58 118 13:44 06.09.2021
6456 Clouds 26 1012 87 10000 2.63 121 12:41 06.09.2021
6457 Clouds 26 1012 88 10000 2.42 117 10:36 06.09.2021
6458 Clouds 27 1009 85 10000 1.94 80 07:39 06.09.2021
6459 Clouds 29 1010 77 10000 2.66 58 04:27 06.09.2021
6460 Clouds 27 1012 84 10000 2.47 113 23:23 05.09.2021
6461 Clouds 27 1012 84 10000 2.47 113 22:32 05.09.2021
6462 Clouds 25 1012 89 10000 2.62 123 21:56 05.09.2021
6463 Clouds 25 1011 90 10000 2.46 121 21:20 05.09.2021
6464 Clouds 25 1010 89 10000 2.36 117 19:45 05.09.2021
6465 Clouds 25 1010 89 10000 2.04 128 17:52 05.09.2021
6466 Clouds 25 1011 91 10000 2.59 122 15:58 05.09.2021
6467 Clouds 25 1012 90 10000 2.62 124 15:19 05.09.2021
6468 Clouds 26 1012 89 10000 2.54 133 12:44 05.09.2021
6469 Clouds 26 1012 89 10000 2.63 132 11:31 05.09.2021
6470 Clouds 26 1011 89 10000 2.59 125 10:39 05.09.2021
6471 Clouds 26 1010 89 10000 2.52 110 09:33 05.09.2021
6472 Clouds 27 1010 87 10000 2.23 95 08:31 05.09.2021
6473 Clouds 29 1010 76 10000 2.84 65 03:52 05.09.2021
6474 Clouds 29 1013 71 10000 2.56 86 00:39 05.09.2021
6475 Clouds 28 1013 77 10000 2.3 91 23:54 04.09.2021
6476 Clouds 26 1012 82 10000 2.02 102 23:21 04.09.2021
6477 Clouds 26 1012 82 10000 2.02 102 22:34 04.09.2021
6478 Clouds 25 1011 87 10000 2.01 145 19:59 04.09.2021
6479 Clouds 24 1011 88 10000 2.1 142 19:32 04.09.2021
6480 Clouds 25 1010 89 10000 1.94 133 16:48 04.09.2021
6481 Clouds 25 1012 88 10000 2.21 121 14:29 04.09.2021
6482 Clouds 25 1012 89 10000 2.44 108 11:22 04.09.2021
6483 Clouds 26 1011 88 10000 2.58 98 10:27 04.09.2021
6484 Clouds 28 1009 82 10000 2.65 81 07:30 04.09.2021
6485 Clouds 29 1012 73 10000 2.6 85 00:48 04.09.2021
6486 Clouds 28 1012 78 10000 2.38 99 23:32 03.09.2021
6487 Clouds 26 1011 84 10000 2.19 119 22:57 03.09.2021
6488 Clouds 25 1011 88 10000 2.17 130 21:37 03.09.2021
6489 Clouds 25 1010 89 10000 2.01 132 20:53 03.09.2021
6490 Clouds 25 1010 88 10000 2.22 133 19:57 03.09.2021
6491 Clouds 25 1010 88 10000 2.22 133 19:30 03.09.2021
6492 Clouds 25 1009 89 10000 2.18 137 17:58 03.09.2021
6493 Clouds 25 1009 89 10000 2.22 137 16:44 03.09.2021
6494 Clouds 25 1010 89 10000 2.27 132 15:34 03.09.2021
6495 Clouds 25 1011 89 10000 2.83 134 12:59 03.09.2021
6496 Clouds 26 1010 88 10000 3.02 134 10:43 03.09.2021
6497 Clouds 27 1009 85 10000 2.75 108 09:19 03.09.2021
6498 Clouds 28 1008 81 10000 2.48 97 07:51 03.09.2021
6499 Clouds 28 1008 78 10000 2.36 77 06:21 03.09.2021
6500 Clouds 27 1011 83 10000 1.44 127 23:25 02.09.2021
6501 Clouds 26 1011 87 10000 1.5 129 21:41 02.09.2021
6502 Clouds 25 1010 88 10000 1.58 132 20:24 02.09.2021
6503 Clouds 25 1010 89 10000 2.03 135 17:33 02.09.2021
6504 Clouds 25 1010 88 10000 2.54 128 16:19 02.09.2021
6505 Clouds 25 1012 88 10000 2.45 127 13:59 02.09.2021
6506 Clouds 26 1011 87 10000 2.43 130 12:56 02.09.2021
6507 Clouds 26 1011 87 10000 2.63 136 11:36 02.09.2021
6508 Clouds 26 1010 86 10000 3.26 128 09:47 02.09.2021
6509 Clouds 28 1009 80 10000 4.16 103 08:20 02.09.2021
6510 Clouds 29 1008 74 10000 4.36 97 07:20 02.09.2021
6511 Clouds 30 1010 68 10000 3.77 84 02:58 02.09.2021
6512 Clouds 30 1010 68 10000 3.77 84 02:33 02.09.2021
6513 Clouds 30 1012 67 10000 3.41 87 01:32 02.09.2021
6514 Clouds 28 1013 75 10000 2.72 110 23:40 01.09.2021
6515 Clouds 27 1013 81 10000 2.37 122 22:41 01.09.2021
6516 Clouds 25 1012 87 10000 2.42 134 21:40 01.09.2021
6517 Clouds 25 1012 88 10000 2.39 132 20:45 01.09.2021
6518 Clouds 25 1011 88 10000 2.96 127 18:53 01.09.2021
6519 Clouds 25 1011 88 10000 3.22 125 17:41 01.09.2021
6520 Clouds 25 1011 88 10000 3.47 123 16:47 01.09.2021
6521 Clouds 25 1012 88 10000 3.43 120 15:47 01.09.2021
6522 Clouds 26 1013 89 10000 4.28 115 12:23 01.09.2021
6523 Clouds 26 1013 89 10000 4.28 115 11:44 01.09.2021
6524 Clouds 27 1011 84 10000 5.22 99 08:48 01.09.2021
6525 Clouds 28 1010 78 10000 5.2 99 07:52 01.09.2021
6526 Clouds 30 1010 71 10000 6.15 92 05:23 01.09.2021
6527 Clouds 27 1013 82 10000 4.56 107 22:41 31.08.2021
6528 Clouds 25 1012 88 10000 4.39 116 21:27 31.08.2021
6529 Clouds 25 1012 89 10000 4.44 116 19:46 31.08.2021
6530 Clouds 25 1011 88 10000 4.38 114 18:29 31.08.2021
6531 Clouds 25 1011 88 10000 4.38 114 17:38 31.08.2021
6532 Clouds 25 1011 88 10000 4.38 114 17:38 31.08.2021
6533 Clouds 25 1011 88 10000 4.27 115 17:20 31.08.2021
6534 Clouds 25 1012 88 10000 4.04 116 16:24 31.08.2021
6535 Clouds 26 1013 89 10000 4.2 113 13:20 31.08.2021
6536 Clouds 26 1012 89 10000 4.45 111 11:28 31.08.2021
6537 Clouds 26 1012 89 10000 4.45 111 10:52 31.08.2021
6538 Clouds 26 1011 88 10000 4.34 109 09:44 31.08.2021
6539 Clouds 27 1011 85 10000 4.5 104 08:38 31.08.2021
6540 Clouds 31 1010 67 10000 5.21 91 05:59 31.08.2021
6541 Clouds 31 1012 68 10000 5.64 92 02:40 31.08.2021
6542 Clouds 26 1013 89 10000 4.68 114 23:35 30.08.2021
6543 Clouds 26 1013 85 10000 4.74 115 21:43 30.08.2021
6544 Clouds 25 1012 86 10000 4.44 116 20:49 30.08.2021
6545 Clouds 25 1011 87 10000 4.65 113 20:20 30.08.2021
6546 Clouds 25 1011 87 10000 4.49 114 19:29 30.08.2021
6547 Clouds 25 1011 87 10000 4.49 114 18:30 30.08.2021
6548 Clouds 25 1011 87 10000 4.45 114 17:44 30.08.2021
6549 Clouds 25 1012 87 10000 4.45 111 16:20 30.08.2021
6550 Clouds 26 1013 87 10000 4.72 109 15:23 30.08.2021
6551 Clouds 26 1013 86 10000 4.54 109 13:28 30.08.2021
6552 Clouds 26 1012 87 10000 4.69 110 12:24 30.08.2021
6553 Clouds 27 1010 83 10000 4.71 106 08:58 30.08.2021
6554 Clouds 26 1011 85 10000 3.59 123 22:27 29.08.2021
6555 Clouds 26 1011 85 10000 3.59 123 21:32 29.08.2021
6556 Clouds 25 1010 87 10000 4.49 114 19:59 29.08.2021
6557 Clouds 25 1009 86 10000 4.27 121 19:18 29.08.2021
6558 Clouds 25 1010 86 10000 4.35 120 17:42 29.08.2021
6559 Clouds 25 1011 86 10000 3.64 119 15:30 29.08.2021
6560 Clouds 26 1012 86 10000 3.21 134 14:18 29.08.2021
6561 Clouds 26 1012 86 10000 3.53 115 13:28 29.08.2021
6562 Clouds 26 1012 86 10000 3.53 115 12:31 29.08.2021
6563 Clouds 26 1012 85 10000 2.87 116 11:41 29.08.2021
6564 Clouds 26 1012 84 10000 2.84 119 10:49 29.08.2021
6565 Clouds 26 1012 84 10000 2.84 119 10:30 29.08.2021
6566 Clouds 26 1012 84 10000 2.84 119 10:30 29.08.2021
6567 Clouds 26 1011 84 10000 3.35 114 09:44 29.08.2021
6568 Clouds 28 1009 77 10000 3.93 102 06:38 29.08.2021
6569 Clouds 28 1012 76 10000 3.28 109 23:33 28.08.2021
6570 Clouds 25 1010 90 10000 3.45 121 20:46 28.08.2021
6571 Clouds 25 1010 90 10000 3.53 124 19:36 28.08.2021
6572 Clouds 25 1010 90 10000 3.84 123 18:27 28.08.2021
6573 Clouds 25 1010 90 10000 3.84 123 17:47 28.08.2021
6574 Clouds 25 1010 90 10000 4.14 124 16:57 28.08.2021
6575 Clouds 25 1011 90 10000 3.86 120 15:27 28.08.2021
6576 Clouds 25 1012 89 10000 3.84 115 13:59 28.08.2021
6577 Clouds 25 1012 89 10000 3.84 115 13:41 28.08.2021
6578 Clouds 26 1012 88 10000 3.82 116 12:35 28.08.2021
6579 Clouds 26 1011 88 10000 3.74 119 11:40 28.08.2021
6580 Clouds 27 1010 87 10000 3.51 117 10:18 28.08.2021
6581 Clouds 28 1008 78 10000 3.52 106 07:57 28.08.2021
6582 Clouds 27 1013 85 10000 3.67 105 00:59 28.08.2021
6583 Clouds 25 1011 92 10000 3.71 128 21:29 27.08.2021
6584 Clouds 25 1011 92 10000 3.71 128 20:52 27.08.2021
6585 Clouds 25 1010 92 10000 3.52 116 19:34 27.08.2021
6586 Clouds 25 1010 90 10000 3.4 120 18:39 27.08.2021
6587 Clouds 25 1010 89 10000 2.72 129 17:54 27.08.2021
6588 Clouds 25 1010 89 10000 2.49 133 16:35 27.08.2021
6589 Clouds 26 1012 89 10000 3.09 126 14:46 27.08.2021
6590 Clouds 26 1012 89 10000 3.43 124 13:30 27.08.2021
6591 Clouds 26 1012 90 10000 4.14 116 11:58 27.08.2021
6592 Clouds 26 1011 90 10000 4.2 113 10:50 27.08.2021
6593 Clouds 26 1010 89 10000 4.4 109 10:23 27.08.2021
6594 Clouds 27 1009 87 10000 4.35 105 08:57 27.08.2021
6595 Clouds 27 1009 87 10000 4.35 105 08:35 27.08.2021
6596 Clouds 30 1008 69 10000 4.27 82 05:35 27.08.2021
6597 Clouds 30 1013 68 10000 4.19 93 00:41 27.08.2021
6598 Clouds 28 1013 71 10000 3.76 102 00:18 27.08.2021
6599 Clouds 25 1012 80 10000 3.03 128 22:25 26.08.2021
6600 Clouds 25 1012 80 10000 3.03 128 21:36 26.08.2021
6601 Clouds 24 1011 84 10000 3 133 19:30 26.08.2021
6602 Clouds 24 1010 86 10000 3.05 126 17:50 26.08.2021
6603 Clouds 25 1011 86 10000 3.18 127 17:25 26.08.2021
6604 Clouds 25 1011 86 10000 3.36 121 16:26 26.08.2021
6605 Clouds 25 1013 85 10000 3.51 117 14:20 26.08.2021
6606 Clouds 26 1012 85 10000 3.24 122 13:20 26.08.2021
6607 Clouds 26 1012 85 10000 3.24 122 12:33 26.08.2021
6608 Clouds 26 1012 85 10000 3.46 121 11:22 26.08.2021
6609 Clouds 27 1010 81 10000 3.75 108 08:35 26.08.2021
6610 Clouds 28 1010 76 10000 3.79 101 07:54 26.08.2021
6611 Clouds 27 1012 79 10000 3.1 122 23:25 25.08.2021
6612 Clouds 27 1012 79 10000 3.1 122 22:37 25.08.2021
6613 Clouds 25 1012 84 10000 3.01 130 22:18 25.08.2021
6614 Clouds 24 1011 86 10000 2.93 135 20:57 25.08.2021
6615 Clouds 24 1011 86 10000 2.86 141 20:29 25.08.2021
6616 Clouds 24 1010 86 10000 2.55 147 18:46 25.08.2021
6617 Clouds 24 1010 87 10000 2.48 145 17:52 25.08.2021
6618 Clouds 25 1011 88 10000 2.44 135 15:51 25.08.2021
6619 Clouds 25 1012 88 10000 2.62 123 15:24 25.08.2021
6620 Clouds 25 1012 88 10000 2.62 123 14:43 25.08.2021
6621 Clouds 25 1013 89 10000 2.44 116 13:31 25.08.2021
6622 Clouds 25 1013 91 10000 2.47 108 11:34 25.08.2021
6623 Clouds